<?xml version="1.0" encoding="UTF-8" standalone="no" ?>
<gpx xmlns="http://www.topografix.com/GPX/1/1" xmlns:xsi="http://www.w3.org/2001/XMLSchema-instance" xsi:schemaLocation="http://www.topografix.com/GPX/1/1 http://www.topografix.com/GPX/1/1/gpx.xsd" version="1.1" creator="VisuGPX - https://www.visugpx.com">
  <metadata>
    <name>2017-06-12 Bike ride-Amberieux-Rance O 35km</name>
    <desc><![CDATA[2017-06-12 Bike ride-Amberieux-Rance O 35km]]></desc>
  </metadata>
  <wpt lat="45.92461" lon="4.73705">
    <ele>174</ele>
    <name><![CDATA[2017-06-12 10:21 (Start)]]></name>
  </wpt>
  <wpt lat="45.92463" lon="4.73709">
    <ele>174</ele>
    <name><![CDATA[2017-06-12 10:21 (End)]]></name>
    <desc><![CDATA[Created by Google My Tracks on Android  Name: 2017-06-12 10:21 Activity type: biking Description: - Total distance: 35.25 km (21.9 mi) Total time: 1:53:04 Moving time: 1:44:50 Average speed: 18.70 km/h (11.6 mi/h) Average moving speed: 20.17 km/h (12.5 mi/h) Max speed: 49.60 km/h (30.8 mi/h) Average pace: 3:12 min/km (5:10 min/mi) Average moving pace: 2:58 min/km (4:47 min/mi) Fastest pace: 1:13 min/km (1:57 min/mi) Max elevation: 293 m (961 ft) Min elevation: 160 m (526 ft) Elevation gain: 510 m (1673 ft) Max grade: 14 % Min grade: -40 % Recorded: 12/06/2017 10:21]]></desc>
  </wpt>
  <trk>
    <name><![CDATA[2017-06-12 10:21]]></name>
    <trkseg>
      <trkpt lat="45.92461" lon="4.73705">
        <ele>174</ele>
        <time>2017-06-12T08:21:46.959Z</time>
      </trkpt>
      <trkpt lat="45.92459" lon="4.73707">
        <ele>174</ele>
        <time>2017-06-12T08:22:18Z</time>
      </trkpt>
      <trkpt lat="45.92452" lon="4.73718">
        <ele>174</ele>
        <time>2017-06-12T08:22:19Z</time>
      </trkpt>
      <trkpt lat="45.92459" lon="4.73712">
        <ele>174</ele>
        <time>2017-06-12T08:22:41Z</time>
      </trkpt>
      <trkpt lat="45.9246" lon="4.7371">
        <ele>174</ele>
        <time>2017-06-12T08:22:42Z</time>
      </trkpt>
      <trkpt lat="45.92461" lon="4.73699">
        <ele>174</ele>
        <time>2017-06-12T08:22:47Z</time>
      </trkpt>
      <trkpt lat="45.92461" lon="4.73696">
        <ele>174</ele>
        <time>2017-06-12T08:22:48Z</time>
      </trkpt>
      <trkpt lat="45.92463" lon="4.73685">
        <ele>174</ele>
        <time>2017-06-12T08:22:52Z</time>
      </trkpt>
      <trkpt lat="45.92464" lon="4.73682">
        <ele>174</ele>
        <time>2017-06-12T08:22:53Z</time>
      </trkpt>
      <trkpt lat="45.92465" lon="4.7367">
        <ele>174</ele>
        <time>2017-06-12T08:22:56Z</time>
      </trkpt>
      <trkpt lat="45.92466" lon="4.73666">
        <ele>174</ele>
        <time>2017-06-12T08:22:57Z</time>
      </trkpt>
      <trkpt lat="45.92469" lon="4.73655">
        <ele>174</ele>
        <time>2017-06-12T08:23:00Z</time>
      </trkpt>
      <trkpt lat="45.9247" lon="4.73652">
        <ele>174</ele>
        <time>2017-06-12T08:23:01Z</time>
      </trkpt>
      <trkpt lat="45.92476" lon="4.73648">
        <ele>174</ele>
        <time>2017-06-12T08:23:03Z</time>
      </trkpt>
      <trkpt lat="45.9248" lon="4.73647">
        <ele>174</ele>
        <time>2017-06-12T08:23:04Z</time>
      </trkpt>
      <trkpt lat="45.92487" lon="4.73648">
        <ele>174</ele>
        <time>2017-06-12T08:23:06Z</time>
      </trkpt>
      <trkpt lat="45.92491" lon="4.73648">
        <ele>174</ele>
        <time>2017-06-12T08:23:07Z</time>
      </trkpt>
      <trkpt lat="45.92498" lon="4.73646">
        <ele>174</ele>
        <time>2017-06-12T08:23:09Z</time>
      </trkpt>
      <trkpt lat="45.92502" lon="4.73645">
        <ele>174</ele>
        <time>2017-06-12T08:23:10Z</time>
      </trkpt>
      <trkpt lat="45.9251" lon="4.73644">
        <ele>174</ele>
        <time>2017-06-12T08:23:12Z</time>
      </trkpt>
      <trkpt lat="45.92514" lon="4.73644">
        <ele>174</ele>
        <time>2017-06-12T08:23:13Z</time>
      </trkpt>
      <trkpt lat="45.92523" lon="4.73644">
        <ele>173</ele>
        <time>2017-06-12T08:23:15Z</time>
      </trkpt>
      <trkpt lat="45.92528" lon="4.73644">
        <ele>173</ele>
        <time>2017-06-12T08:23:16Z</time>
      </trkpt>
      <trkpt lat="45.92533" lon="4.73644">
        <ele>173</ele>
        <time>2017-06-12T08:23:17Z</time>
      </trkpt>
      <trkpt lat="45.92537" lon="4.73643">
        <ele>173</ele>
        <time>2017-06-12T08:23:18Z</time>
      </trkpt>
      <trkpt lat="45.92542" lon="4.73642">
        <ele>173</ele>
        <time>2017-06-12T08:23:19Z</time>
      </trkpt>
      <trkpt lat="45.92547" lon="4.73641">
        <ele>173</ele>
        <time>2017-06-12T08:23:20Z</time>
      </trkpt>
      <trkpt lat="45.92552" lon="4.73641">
        <ele>173</ele>
        <time>2017-06-12T08:23:21Z</time>
      </trkpt>
      <trkpt lat="45.92557" lon="4.7364">
        <ele>173</ele>
        <time>2017-06-12T08:23:22Z</time>
      </trkpt>
      <trkpt lat="45.92562" lon="4.73638">
        <ele>173</ele>
        <time>2017-06-12T08:23:23Z</time>
      </trkpt>
      <trkpt lat="45.92566" lon="4.73637">
        <ele>173</ele>
        <time>2017-06-12T08:23:24Z</time>
      </trkpt>
      <trkpt lat="45.92575" lon="4.73635">
        <ele>172</ele>
        <time>2017-06-12T08:23:26Z</time>
      </trkpt>
      <trkpt lat="45.92579" lon="4.73634">
        <ele>172</ele>
        <time>2017-06-12T08:23:27Z</time>
      </trkpt>
      <trkpt lat="45.92583" lon="4.73633">
        <ele>172</ele>
        <time>2017-06-12T08:23:28Z</time>
      </trkpt>
      <trkpt lat="45.92588" lon="4.73632">
        <ele>172</ele>
        <time>2017-06-12T08:23:29Z</time>
      </trkpt>
      <trkpt lat="45.92593" lon="4.73631">
        <ele>172</ele>
        <time>2017-06-12T08:23:30Z</time>
      </trkpt>
      <trkpt lat="45.92598" lon="4.7363">
        <ele>172</ele>
        <time>2017-06-12T08:23:31Z</time>
      </trkpt>
      <trkpt lat="45.92603" lon="4.7363">
        <ele>173</ele>
        <time>2017-06-12T08:23:32Z</time>
      </trkpt>
      <trkpt lat="45.92607" lon="4.73631">
        <ele>173</ele>
        <time>2017-06-12T08:23:33Z</time>
      </trkpt>
      <trkpt lat="45.92612" lon="4.73633">
        <ele>173</ele>
        <time>2017-06-12T08:23:34Z</time>
      </trkpt>
      <trkpt lat="45.92617" lon="4.73637">
        <ele>173</ele>
        <time>2017-06-12T08:23:35Z</time>
      </trkpt>
      <trkpt lat="45.9262" lon="4.73643">
        <ele>173</ele>
        <time>2017-06-12T08:23:36Z</time>
      </trkpt>
      <trkpt lat="45.92623" lon="4.73649">
        <ele>173</ele>
        <time>2017-06-12T08:23:37Z</time>
      </trkpt>
      <trkpt lat="45.92625" lon="4.73656">
        <ele>173</ele>
        <time>2017-06-12T08:23:38Z</time>
      </trkpt>
      <trkpt lat="45.92628" lon="4.73663">
        <ele>173</ele>
        <time>2017-06-12T08:23:39Z</time>
      </trkpt>
      <trkpt lat="45.92631" lon="4.73669">
        <ele>173</ele>
        <time>2017-06-12T08:23:40Z</time>
      </trkpt>
      <trkpt lat="45.92635" lon="4.73675">
        <ele>173</ele>
        <time>2017-06-12T08:23:41Z</time>
      </trkpt>
      <trkpt lat="45.92638" lon="4.73681">
        <ele>173</ele>
        <time>2017-06-12T08:23:42Z</time>
      </trkpt>
      <trkpt lat="45.92641" lon="4.73686">
        <ele>173</ele>
        <time>2017-06-12T08:23:43Z</time>
      </trkpt>
      <trkpt lat="45.92645" lon="4.73691">
        <ele>173</ele>
        <time>2017-06-12T08:23:44Z</time>
      </trkpt>
      <trkpt lat="45.92648" lon="4.73696">
        <ele>173</ele>
        <time>2017-06-12T08:23:45Z</time>
      </trkpt>
      <trkpt lat="45.92653" lon="4.73701">
        <ele>173</ele>
        <time>2017-06-12T08:23:46Z</time>
      </trkpt>
      <trkpt lat="45.92657" lon="4.73704">
        <ele>173</ele>
        <time>2017-06-12T08:23:47Z</time>
      </trkpt>
      <trkpt lat="45.92662" lon="4.73708">
        <ele>173</ele>
        <time>2017-06-12T08:23:48Z</time>
      </trkpt>
      <trkpt lat="45.92667" lon="4.7371">
        <ele>174</ele>
        <time>2017-06-12T08:23:49Z</time>
      </trkpt>
      <trkpt lat="45.92673" lon="4.73712">
        <ele>174</ele>
        <time>2017-06-12T08:23:50Z</time>
      </trkpt>
      <trkpt lat="45.92678" lon="4.73714">
        <ele>174</ele>
        <time>2017-06-12T08:23:51Z</time>
      </trkpt>
      <trkpt lat="45.92683" lon="4.73716">
        <ele>173</ele>
        <time>2017-06-12T08:23:52Z</time>
      </trkpt>
      <trkpt lat="45.92689" lon="4.73718">
        <ele>173</ele>
        <time>2017-06-12T08:23:53Z</time>
      </trkpt>
      <trkpt lat="45.92694" lon="4.7372">
        <ele>173</ele>
        <time>2017-06-12T08:23:54Z</time>
      </trkpt>
      <trkpt lat="45.927" lon="4.73722">
        <ele>173</ele>
        <time>2017-06-12T08:23:55Z</time>
      </trkpt>
      <trkpt lat="45.92706" lon="4.73723">
        <ele>173</ele>
        <time>2017-06-12T08:23:56Z</time>
      </trkpt>
      <trkpt lat="45.92711" lon="4.73725">
        <ele>173</ele>
        <time>2017-06-12T08:23:57Z</time>
      </trkpt>
      <trkpt lat="45.92716" lon="4.73726">
        <ele>173</ele>
        <time>2017-06-12T08:23:58Z</time>
      </trkpt>
      <trkpt lat="45.92721" lon="4.73727">
        <ele>173</ele>
        <time>2017-06-12T08:23:59Z</time>
      </trkpt>
      <trkpt lat="45.92726" lon="4.73729">
        <ele>173</ele>
        <time>2017-06-12T08:24:00Z</time>
      </trkpt>
      <trkpt lat="45.92731" lon="4.7373">
        <ele>173</ele>
        <time>2017-06-12T08:24:01Z</time>
      </trkpt>
      <trkpt lat="45.92736" lon="4.7373">
        <ele>173</ele>
        <time>2017-06-12T08:24:02Z</time>
      </trkpt>
      <trkpt lat="45.9274" lon="4.73731">
        <ele>173</ele>
        <time>2017-06-12T08:24:03Z</time>
      </trkpt>
      <trkpt lat="45.92745" lon="4.73732">
        <ele>173</ele>
        <time>2017-06-12T08:24:04Z</time>
      </trkpt>
      <trkpt lat="45.92749" lon="4.73732">
        <ele>173</ele>
        <time>2017-06-12T08:24:05Z</time>
      </trkpt>
      <trkpt lat="45.92754" lon="4.73734">
        <ele>173</ele>
        <time>2017-06-12T08:24:06Z</time>
      </trkpt>
      <trkpt lat="45.92758" lon="4.73734">
        <ele>172</ele>
        <time>2017-06-12T08:24:07Z</time>
      </trkpt>
      <trkpt lat="45.92767" lon="4.73736">
        <ele>172</ele>
        <time>2017-06-12T08:24:09Z</time>
      </trkpt>
      <trkpt lat="45.92771" lon="4.73736">
        <ele>172</ele>
        <time>2017-06-12T08:24:10Z</time>
      </trkpt>
      <trkpt lat="45.92776" lon="4.73742">
        <ele>172</ele>
        <time>2017-06-12T08:24:12Z</time>
      </trkpt>
      <trkpt lat="45.92778" lon="4.73747">
        <ele>172</ele>
        <time>2017-06-12T08:24:13Z</time>
      </trkpt>
      <trkpt lat="45.92781" lon="4.73752">
        <ele>173</ele>
        <time>2017-06-12T08:24:14Z</time>
      </trkpt>
      <trkpt lat="45.92784" lon="4.73757">
        <ele>173</ele>
        <time>2017-06-12T08:24:15Z</time>
      </trkpt>
      <trkpt lat="45.92789" lon="4.73761">
        <ele>173</ele>
        <time>2017-06-12T08:24:16Z</time>
      </trkpt>
      <trkpt lat="45.92793" lon="4.73763">
        <ele>173</ele>
        <time>2017-06-12T08:24:17Z</time>
      </trkpt>
      <trkpt lat="45.92798" lon="4.73766">
        <ele>173</ele>
        <time>2017-06-12T08:24:18Z</time>
      </trkpt>
      <trkpt lat="45.92803" lon="4.73769">
        <ele>173</ele>
        <time>2017-06-12T08:24:19Z</time>
      </trkpt>
      <trkpt lat="45.92808" lon="4.73772">
        <ele>173</ele>
        <time>2017-06-12T08:24:20Z</time>
      </trkpt>
      <trkpt lat="45.92812" lon="4.73776">
        <ele>173</ele>
        <time>2017-06-12T08:24:21Z</time>
      </trkpt>
      <trkpt lat="45.92817" lon="4.7378">
        <ele>173</ele>
        <time>2017-06-12T08:24:22Z</time>
      </trkpt>
      <trkpt lat="45.92822" lon="4.73783">
        <ele>173</ele>
        <time>2017-06-12T08:24:23Z</time>
      </trkpt>
      <trkpt lat="45.92827" lon="4.73787">
        <ele>173</ele>
        <time>2017-06-12T08:24:24Z</time>
      </trkpt>
      <trkpt lat="45.92832" lon="4.7379">
        <ele>173</ele>
        <time>2017-06-12T08:24:25Z</time>
      </trkpt>
      <trkpt lat="45.92837" lon="4.73793">
        <ele>173</ele>
        <time>2017-06-12T08:24:26Z</time>
      </trkpt>
      <trkpt lat="45.92842" lon="4.73796">
        <ele>173</ele>
        <time>2017-06-12T08:24:27Z</time>
      </trkpt>
      <trkpt lat="45.92847" lon="4.738">
        <ele>173</ele>
        <time>2017-06-12T08:24:28Z</time>
      </trkpt>
      <trkpt lat="45.92852" lon="4.73805">
        <ele>173</ele>
        <time>2017-06-12T08:24:29Z</time>
      </trkpt>
      <trkpt lat="45.92855" lon="4.73811">
        <ele>173</ele>
        <time>2017-06-12T08:24:30Z</time>
      </trkpt>
      <trkpt lat="45.92857" lon="4.73819">
        <ele>173</ele>
        <time>2017-06-12T08:24:31Z</time>
      </trkpt>
      <trkpt lat="45.92859" lon="4.73826">
        <ele>173</ele>
        <time>2017-06-12T08:24:32Z</time>
      </trkpt>
      <trkpt lat="45.92861" lon="4.73833">
        <ele>173</ele>
        <time>2017-06-12T08:24:33Z</time>
      </trkpt>
      <trkpt lat="45.92862" lon="4.7384">
        <ele>173</ele>
        <time>2017-06-12T08:24:34Z</time>
      </trkpt>
      <trkpt lat="45.92864" lon="4.73847">
        <ele>173</ele>
        <time>2017-06-12T08:24:35Z</time>
      </trkpt>
      <trkpt lat="45.92865" lon="4.73854">
        <ele>173</ele>
        <time>2017-06-12T08:24:36Z</time>
      </trkpt>
      <trkpt lat="45.92867" lon="4.73861">
        <ele>173</ele>
        <time>2017-06-12T08:24:37Z</time>
      </trkpt>
      <trkpt lat="45.9287" lon="4.73868">
        <ele>173</ele>
        <time>2017-06-12T08:24:38Z</time>
      </trkpt>
      <trkpt lat="45.92872" lon="4.73875">
        <ele>173</ele>
        <time>2017-06-12T08:24:39Z</time>
      </trkpt>
      <trkpt lat="45.92874" lon="4.73883">
        <ele>173</ele>
        <time>2017-06-12T08:24:40Z</time>
      </trkpt>
      <trkpt lat="45.92876" lon="4.7389">
        <ele>173</ele>
        <time>2017-06-12T08:24:41Z</time>
      </trkpt>
      <trkpt lat="45.92877" lon="4.73897">
        <ele>173</ele>
        <time>2017-06-12T08:24:42Z</time>
      </trkpt>
      <trkpt lat="45.92877" lon="4.73905">
        <ele>173</ele>
        <time>2017-06-12T08:24:43Z</time>
      </trkpt>
      <trkpt lat="45.92877" lon="4.73913">
        <ele>173</ele>
        <time>2017-06-12T08:24:44Z</time>
      </trkpt>
      <trkpt lat="45.92878" lon="4.73921">
        <ele>172</ele>
        <time>2017-06-12T08:24:45Z</time>
      </trkpt>
      <trkpt lat="45.92878" lon="4.73929">
        <ele>172</ele>
        <time>2017-06-12T08:24:46Z</time>
      </trkpt>
      <trkpt lat="45.92878" lon="4.73937">
        <ele>172</ele>
        <time>2017-06-12T08:24:47Z</time>
      </trkpt>
      <trkpt lat="45.92879" lon="4.73944">
        <ele>172</ele>
        <time>2017-06-12T08:24:48Z</time>
      </trkpt>
      <trkpt lat="45.92879" lon="4.73952">
        <ele>172</ele>
        <time>2017-06-12T08:24:49Z</time>
      </trkpt>
      <trkpt lat="45.92879" lon="4.7396">
        <ele>172</ele>
        <time>2017-06-12T08:24:50Z</time>
      </trkpt>
      <trkpt lat="45.92879" lon="4.73967">
        <ele>172</ele>
        <time>2017-06-12T08:24:51Z</time>
      </trkpt>
      <trkpt lat="45.92879" lon="4.73974">
        <ele>172</ele>
        <time>2017-06-12T08:24:52Z</time>
      </trkpt>
      <trkpt lat="45.92878" lon="4.73981">
        <ele>172</ele>
        <time>2017-06-12T08:24:53Z</time>
      </trkpt>
      <trkpt lat="45.92877" lon="4.73989">
        <ele>172</ele>
        <time>2017-06-12T08:24:54Z</time>
      </trkpt>
      <trkpt lat="45.92876" lon="4.73996">
        <ele>172</ele>
        <time>2017-06-12T08:24:55Z</time>
      </trkpt>
      <trkpt lat="45.92874" lon="4.74004">
        <ele>172</ele>
        <time>2017-06-12T08:24:56Z</time>
      </trkpt>
      <trkpt lat="45.92873" lon="4.74011">
        <ele>172</ele>
        <time>2017-06-12T08:24:57Z</time>
      </trkpt>
      <trkpt lat="45.92871" lon="4.74019">
        <ele>172</ele>
        <time>2017-06-12T08:24:58Z</time>
      </trkpt>
      <trkpt lat="45.9287" lon="4.74028">
        <ele>172</ele>
        <time>2017-06-12T08:24:59Z</time>
      </trkpt>
      <trkpt lat="45.92867" lon="4.74036">
        <ele>172</ele>
        <time>2017-06-12T08:25:00Z</time>
      </trkpt>
      <trkpt lat="45.92864" lon="4.74044">
        <ele>172</ele>
        <time>2017-06-12T08:25:01Z</time>
      </trkpt>
      <trkpt lat="45.9286" lon="4.74051">
        <ele>172</ele>
        <time>2017-06-12T08:25:02Z</time>
      </trkpt>
      <trkpt lat="45.92856" lon="4.74058">
        <ele>172</ele>
        <time>2017-06-12T08:25:03Z</time>
      </trkpt>
      <trkpt lat="45.92852" lon="4.74063">
        <ele>172</ele>
        <time>2017-06-12T08:25:04Z</time>
      </trkpt>
      <trkpt lat="45.92847" lon="4.74069">
        <ele>172</ele>
        <time>2017-06-12T08:25:05Z</time>
      </trkpt>
      <trkpt lat="45.92842" lon="4.74074">
        <ele>172</ele>
        <time>2017-06-12T08:25:06Z</time>
      </trkpt>
      <trkpt lat="45.92838" lon="4.74079">
        <ele>171</ele>
        <time>2017-06-12T08:25:07Z</time>
      </trkpt>
      <trkpt lat="45.92834" lon="4.74085">
        <ele>171</ele>
        <time>2017-06-12T08:25:08Z</time>
      </trkpt>
      <trkpt lat="45.92829" lon="4.74091">
        <ele>171</ele>
        <time>2017-06-12T08:25:09Z</time>
      </trkpt>
      <trkpt lat="45.92825" lon="4.74097">
        <ele>171</ele>
        <time>2017-06-12T08:25:10Z</time>
      </trkpt>
      <trkpt lat="45.9282" lon="4.74103">
        <ele>171</ele>
        <time>2017-06-12T08:25:11Z</time>
      </trkpt>
      <trkpt lat="45.92814" lon="4.74108">
        <ele>172</ele>
        <time>2017-06-12T08:25:12Z</time>
      </trkpt>
      <trkpt lat="45.92809" lon="4.74114">
        <ele>172</ele>
        <time>2017-06-12T08:25:13Z</time>
      </trkpt>
      <trkpt lat="45.92804" lon="4.74119">
        <ele>172</ele>
        <time>2017-06-12T08:25:14Z</time>
      </trkpt>
      <trkpt lat="45.92799" lon="4.74125">
        <ele>172</ele>
        <time>2017-06-12T08:25:15Z</time>
      </trkpt>
      <trkpt lat="45.92794" lon="4.7413">
        <ele>172</ele>
        <time>2017-06-12T08:25:16Z</time>
      </trkpt>
      <trkpt lat="45.92789" lon="4.74135">
        <ele>172</ele>
        <time>2017-06-12T08:25:17Z</time>
      </trkpt>
      <trkpt lat="45.92785" lon="4.7414">
        <ele>172</ele>
        <time>2017-06-12T08:25:18Z</time>
      </trkpt>
      <trkpt lat="45.9278" lon="4.74144">
        <ele>172</ele>
        <time>2017-06-12T08:25:19Z</time>
      </trkpt>
      <trkpt lat="45.92776" lon="4.74149">
        <ele>172</ele>
        <time>2017-06-12T08:25:20Z</time>
      </trkpt>
      <trkpt lat="45.92772" lon="4.74153">
        <ele>172</ele>
        <time>2017-06-12T08:25:21Z</time>
      </trkpt>
      <trkpt lat="45.92767" lon="4.74158">
        <ele>172</ele>
        <time>2017-06-12T08:25:22Z</time>
      </trkpt>
      <trkpt lat="45.92762" lon="4.74163">
        <ele>172</ele>
        <time>2017-06-12T08:25:23Z</time>
      </trkpt>
      <trkpt lat="45.92757" lon="4.74168">
        <ele>172</ele>
        <time>2017-06-12T08:25:24Z</time>
      </trkpt>
      <trkpt lat="45.92752" lon="4.74173">
        <ele>172</ele>
        <time>2017-06-12T08:25:25Z</time>
      </trkpt>
      <trkpt lat="45.92747" lon="4.74179">
        <ele>172</ele>
        <time>2017-06-12T08:25:26Z</time>
      </trkpt>
      <trkpt lat="45.92743" lon="4.74185">
        <ele>172</ele>
        <time>2017-06-12T08:25:27Z</time>
      </trkpt>
      <trkpt lat="45.92738" lon="4.7419">
        <ele>171</ele>
        <time>2017-06-12T08:25:28Z</time>
      </trkpt>
      <trkpt lat="45.92734" lon="4.74196">
        <ele>171</ele>
        <time>2017-06-12T08:25:29Z</time>
      </trkpt>
      <trkpt lat="45.92729" lon="4.74203">
        <ele>171</ele>
        <time>2017-06-12T08:25:30Z</time>
      </trkpt>
      <trkpt lat="45.92725" lon="4.74209">
        <ele>171</ele>
        <time>2017-06-12T08:25:31Z</time>
      </trkpt>
      <trkpt lat="45.92721" lon="4.74215">
        <ele>171</ele>
        <time>2017-06-12T08:25:32Z</time>
      </trkpt>
      <trkpt lat="45.92716" lon="4.74221">
        <ele>171</ele>
        <time>2017-06-12T08:25:33Z</time>
      </trkpt>
      <trkpt lat="45.92712" lon="4.74228">
        <ele>171</ele>
        <time>2017-06-12T08:25:34Z</time>
      </trkpt>
      <trkpt lat="45.92708" lon="4.74234">
        <ele>171</ele>
        <time>2017-06-12T08:25:35Z</time>
      </trkpt>
      <trkpt lat="45.92703" lon="4.74242">
        <ele>171</ele>
        <time>2017-06-12T08:25:36Z</time>
      </trkpt>
      <trkpt lat="45.92699" lon="4.74249">
        <ele>171</ele>
        <time>2017-06-12T08:25:37Z</time>
      </trkpt>
      <trkpt lat="45.92695" lon="4.74255">
        <ele>171</ele>
        <time>2017-06-12T08:25:38Z</time>
      </trkpt>
      <trkpt lat="45.92691" lon="4.74262">
        <ele>171</ele>
        <time>2017-06-12T08:25:39Z</time>
      </trkpt>
      <trkpt lat="45.92688" lon="4.74269">
        <ele>171</ele>
        <time>2017-06-12T08:25:40Z</time>
      </trkpt>
      <trkpt lat="45.92684" lon="4.74276">
        <ele>171</ele>
        <time>2017-06-12T08:25:41Z</time>
      </trkpt>
      <trkpt lat="45.92681" lon="4.74282">
        <ele>171</ele>
        <time>2017-06-12T08:25:42Z</time>
      </trkpt>
      <trkpt lat="45.92678" lon="4.74288">
        <ele>171</ele>
        <time>2017-06-12T08:25:43Z</time>
      </trkpt>
      <trkpt lat="45.92674" lon="4.74294">
        <ele>171</ele>
        <time>2017-06-12T08:25:44Z</time>
      </trkpt>
      <trkpt lat="45.92671" lon="4.743">
        <ele>171</ele>
        <time>2017-06-12T08:25:45Z</time>
      </trkpt>
      <trkpt lat="45.92667" lon="4.74306">
        <ele>171</ele>
        <time>2017-06-12T08:25:46Z</time>
      </trkpt>
      <trkpt lat="45.92664" lon="4.74312">
        <ele>171</ele>
        <time>2017-06-12T08:25:47Z</time>
      </trkpt>
      <trkpt lat="45.9266" lon="4.74318">
        <ele>171</ele>
        <time>2017-06-12T08:25:48Z</time>
      </trkpt>
      <trkpt lat="45.92657" lon="4.74325">
        <ele>171</ele>
        <time>2017-06-12T08:25:49Z</time>
      </trkpt>
      <trkpt lat="45.92653" lon="4.74331">
        <ele>171</ele>
        <time>2017-06-12T08:25:50Z</time>
      </trkpt>
      <trkpt lat="45.92649" lon="4.74338">
        <ele>171</ele>
        <time>2017-06-12T08:25:51Z</time>
      </trkpt>
      <trkpt lat="45.92646" lon="4.74345">
        <ele>171</ele>
        <time>2017-06-12T08:25:52Z</time>
      </trkpt>
      <trkpt lat="45.92643" lon="4.74351">
        <ele>171</ele>
        <time>2017-06-12T08:25:53Z</time>
      </trkpt>
      <trkpt lat="45.92639" lon="4.74357">
        <ele>171</ele>
        <time>2017-06-12T08:25:54Z</time>
      </trkpt>
      <trkpt lat="45.92636" lon="4.74363">
        <ele>171</ele>
        <time>2017-06-12T08:25:55Z</time>
      </trkpt>
      <trkpt lat="45.92632" lon="4.74369">
        <ele>171</ele>
        <time>2017-06-12T08:25:56Z</time>
      </trkpt>
      <trkpt lat="45.92629" lon="4.74375">
        <ele>170</ele>
        <time>2017-06-12T08:25:57Z</time>
      </trkpt>
      <trkpt lat="45.92626" lon="4.74382">
        <ele>170</ele>
        <time>2017-06-12T08:25:58Z</time>
      </trkpt>
      <trkpt lat="45.92622" lon="4.74388">
        <ele>170</ele>
        <time>2017-06-12T08:25:59Z</time>
      </trkpt>
      <trkpt lat="45.92618" lon="4.74395">
        <ele>170</ele>
        <time>2017-06-12T08:26:00Z</time>
      </trkpt>
      <trkpt lat="45.92615" lon="4.74401">
        <ele>170</ele>
        <time>2017-06-12T08:26:01Z</time>
      </trkpt>
      <trkpt lat="45.92611" lon="4.74408">
        <ele>170</ele>
        <time>2017-06-12T08:26:02Z</time>
      </trkpt>
      <trkpt lat="45.92607" lon="4.74415">
        <ele>170</ele>
        <time>2017-06-12T08:26:03Z</time>
      </trkpt>
      <trkpt lat="45.92603" lon="4.74422">
        <ele>170</ele>
        <time>2017-06-12T08:26:04Z</time>
      </trkpt>
      <trkpt lat="45.92599" lon="4.7443">
        <ele>170</ele>
        <time>2017-06-12T08:26:05Z</time>
      </trkpt>
      <trkpt lat="45.92595" lon="4.74437">
        <ele>170</ele>
        <time>2017-06-12T08:26:06Z</time>
      </trkpt>
      <trkpt lat="45.9259" lon="4.74445">
        <ele>170</ele>
        <time>2017-06-12T08:26:07Z</time>
      </trkpt>
      <trkpt lat="45.92587" lon="4.74452">
        <ele>170</ele>
        <time>2017-06-12T08:26:08Z</time>
      </trkpt>
      <trkpt lat="45.92583" lon="4.74459">
        <ele>170</ele>
        <time>2017-06-12T08:26:09Z</time>
      </trkpt>
      <trkpt lat="45.92579" lon="4.74466">
        <ele>170</ele>
        <time>2017-06-12T08:26:10Z</time>
      </trkpt>
      <trkpt lat="45.92575" lon="4.74473">
        <ele>170</ele>
        <time>2017-06-12T08:26:11Z</time>
      </trkpt>
      <trkpt lat="45.92572" lon="4.7448">
        <ele>170</ele>
        <time>2017-06-12T08:26:12Z</time>
      </trkpt>
      <trkpt lat="45.92568" lon="4.74488">
        <ele>170</ele>
        <time>2017-06-12T08:26:13Z</time>
      </trkpt>
      <trkpt lat="45.92564" lon="4.74495">
        <ele>170</ele>
        <time>2017-06-12T08:26:14Z</time>
      </trkpt>
      <trkpt lat="45.9256" lon="4.74503">
        <ele>170</ele>
        <time>2017-06-12T08:26:15Z</time>
      </trkpt>
      <trkpt lat="45.92556" lon="4.7451">
        <ele>170</ele>
        <time>2017-06-12T08:26:16Z</time>
      </trkpt>
      <trkpt lat="45.92552" lon="4.74518">
        <ele>170</ele>
        <time>2017-06-12T08:26:17Z</time>
      </trkpt>
      <trkpt lat="45.92547" lon="4.74526">
        <ele>170</ele>
        <time>2017-06-12T08:26:18Z</time>
      </trkpt>
      <trkpt lat="45.92543" lon="4.74534">
        <ele>170</ele>
        <time>2017-06-12T08:26:19Z</time>
      </trkpt>
      <trkpt lat="45.92539" lon="4.74542">
        <ele>171</ele>
        <time>2017-06-12T08:26:20Z</time>
      </trkpt>
      <trkpt lat="45.92535" lon="4.74549">
        <ele>171</ele>
        <time>2017-06-12T08:26:21Z</time>
      </trkpt>
      <trkpt lat="45.92531" lon="4.74556">
        <ele>171</ele>
        <time>2017-06-12T08:26:22Z</time>
      </trkpt>
      <trkpt lat="45.92526" lon="4.74562">
        <ele>171</ele>
        <time>2017-06-12T08:26:23Z</time>
      </trkpt>
      <trkpt lat="45.92522" lon="4.74568">
        <ele>171</ele>
        <time>2017-06-12T08:26:24Z</time>
      </trkpt>
      <trkpt lat="45.92518" lon="4.74574">
        <ele>171</ele>
        <time>2017-06-12T08:26:25Z</time>
      </trkpt>
      <trkpt lat="45.92514" lon="4.74579">
        <ele>171</ele>
        <time>2017-06-12T08:26:26Z</time>
      </trkpt>
      <trkpt lat="45.92509" lon="4.74584">
        <ele>171</ele>
        <time>2017-06-12T08:26:27Z</time>
      </trkpt>
      <trkpt lat="45.92505" lon="4.74589">
        <ele>171</ele>
        <time>2017-06-12T08:26:28Z</time>
      </trkpt>
      <trkpt lat="45.925" lon="4.74594">
        <ele>171</ele>
        <time>2017-06-12T08:26:29Z</time>
      </trkpt>
      <trkpt lat="45.92495" lon="4.74599">
        <ele>171</ele>
        <time>2017-06-12T08:26:30Z</time>
      </trkpt>
      <trkpt lat="45.9249" lon="4.74604">
        <ele>171</ele>
        <time>2017-06-12T08:26:31Z</time>
      </trkpt>
      <trkpt lat="45.92486" lon="4.7461">
        <ele>171</ele>
        <time>2017-06-12T08:26:32Z</time>
      </trkpt>
      <trkpt lat="45.92482" lon="4.74615">
        <ele>171</ele>
        <time>2017-06-12T08:26:33Z</time>
      </trkpt>
      <trkpt lat="45.92478" lon="4.74621">
        <ele>171</ele>
        <time>2017-06-12T08:26:34Z</time>
      </trkpt>
      <trkpt lat="45.92473" lon="4.74628">
        <ele>171</ele>
        <time>2017-06-12T08:26:35Z</time>
      </trkpt>
      <trkpt lat="45.92469" lon="4.74634">
        <ele>171</ele>
        <time>2017-06-12T08:26:36Z</time>
      </trkpt>
      <trkpt lat="45.92465" lon="4.74641">
        <ele>171</ele>
        <time>2017-06-12T08:26:37Z</time>
      </trkpt>
      <trkpt lat="45.92461" lon="4.74648">
        <ele>171</ele>
        <time>2017-06-12T08:26:38Z</time>
      </trkpt>
      <trkpt lat="45.92457" lon="4.74654">
        <ele>171</ele>
        <time>2017-06-12T08:26:39Z</time>
      </trkpt>
      <trkpt lat="45.92453" lon="4.7466">
        <ele>171</ele>
        <time>2017-06-12T08:26:40Z</time>
      </trkpt>
      <trkpt lat="45.9245" lon="4.74666">
        <ele>171</ele>
        <time>2017-06-12T08:26:41Z</time>
      </trkpt>
      <trkpt lat="45.92447" lon="4.74673">
        <ele>171</ele>
        <time>2017-06-12T08:26:42Z</time>
      </trkpt>
      <trkpt lat="45.92442" lon="4.74679">
        <ele>171</ele>
        <time>2017-06-12T08:26:43Z</time>
      </trkpt>
      <trkpt lat="45.9244" lon="4.74685">
        <ele>171</ele>
        <time>2017-06-12T08:26:44Z</time>
      </trkpt>
      <trkpt lat="45.92437" lon="4.74694">
        <ele>171</ele>
        <time>2017-06-12T08:26:45Z</time>
      </trkpt>
      <trkpt lat="45.92434" lon="4.74702">
        <ele>171</ele>
        <time>2017-06-12T08:26:46Z</time>
      </trkpt>
      <trkpt lat="45.92431" lon="4.7471">
        <ele>171</ele>
        <time>2017-06-12T08:26:47Z</time>
      </trkpt>
      <trkpt lat="45.92428" lon="4.74717">
        <ele>171</ele>
        <time>2017-06-12T08:26:48Z</time>
      </trkpt>
      <trkpt lat="45.92425" lon="4.74724">
        <ele>171</ele>
        <time>2017-06-12T08:26:49Z</time>
      </trkpt>
      <trkpt lat="45.92422" lon="4.74732">
        <ele>171</ele>
        <time>2017-06-12T08:26:50Z</time>
      </trkpt>
      <trkpt lat="45.9242" lon="4.7474">
        <ele>172</ele>
        <time>2017-06-12T08:26:51Z</time>
      </trkpt>
      <trkpt lat="45.92417" lon="4.74749">
        <ele>172</ele>
        <time>2017-06-12T08:26:52Z</time>
      </trkpt>
      <trkpt lat="45.92414" lon="4.74757">
        <ele>172</ele>
        <time>2017-06-12T08:26:53Z</time>
      </trkpt>
      <trkpt lat="45.92412" lon="4.74765">
        <ele>172</ele>
        <time>2017-06-12T08:26:54Z</time>
      </trkpt>
      <trkpt lat="45.92409" lon="4.74773">
        <ele>171</ele>
        <time>2017-06-12T08:26:55Z</time>
      </trkpt>
      <trkpt lat="45.92407" lon="4.74782">
        <ele>171</ele>
        <time>2017-06-12T08:26:56Z</time>
      </trkpt>
      <trkpt lat="45.92405" lon="4.74791">
        <ele>171</ele>
        <time>2017-06-12T08:26:57Z</time>
      </trkpt>
      <trkpt lat="45.92404" lon="4.74799">
        <ele>171</ele>
        <time>2017-06-12T08:26:58Z</time>
      </trkpt>
      <trkpt lat="45.92402" lon="4.74808">
        <ele>171</ele>
        <time>2017-06-12T08:26:59Z</time>
      </trkpt>
      <trkpt lat="45.924" lon="4.74816">
        <ele>171</ele>
        <time>2017-06-12T08:27:00Z</time>
      </trkpt>
      <trkpt lat="45.92398" lon="4.74825">
        <ele>171</ele>
        <time>2017-06-12T08:27:01Z</time>
      </trkpt>
      <trkpt lat="45.92396" lon="4.74833">
        <ele>171</ele>
        <time>2017-06-12T08:27:02Z</time>
      </trkpt>
      <trkpt lat="45.92394" lon="4.74842">
        <ele>171</ele>
        <time>2017-06-12T08:27:03Z</time>
      </trkpt>
      <trkpt lat="45.92392" lon="4.74851">
        <ele>171</ele>
        <time>2017-06-12T08:27:04Z</time>
      </trkpt>
      <trkpt lat="45.9239" lon="4.74859">
        <ele>171</ele>
        <time>2017-06-12T08:27:05Z</time>
      </trkpt>
      <trkpt lat="45.92387" lon="4.74867">
        <ele>171</ele>
        <time>2017-06-12T08:27:06Z</time>
      </trkpt>
      <trkpt lat="45.92384" lon="4.74875">
        <ele>171</ele>
        <time>2017-06-12T08:27:07Z</time>
      </trkpt>
      <trkpt lat="45.92381" lon="4.74884">
        <ele>171</ele>
        <time>2017-06-12T08:27:08Z</time>
      </trkpt>
      <trkpt lat="45.92378" lon="4.74893">
        <ele>171</ele>
        <time>2017-06-12T08:27:09Z</time>
      </trkpt>
      <trkpt lat="45.92375" lon="4.74902">
        <ele>171</ele>
        <time>2017-06-12T08:27:10Z</time>
      </trkpt>
      <trkpt lat="45.92371" lon="4.74911">
        <ele>171</ele>
        <time>2017-06-12T08:27:11Z</time>
      </trkpt>
      <trkpt lat="45.92368" lon="4.74919">
        <ele>170</ele>
        <time>2017-06-12T08:27:12Z</time>
      </trkpt>
      <trkpt lat="45.92364" lon="4.74928">
        <ele>170</ele>
        <time>2017-06-12T08:27:13Z</time>
      </trkpt>
      <trkpt lat="45.92361" lon="4.74936">
        <ele>170</ele>
        <time>2017-06-12T08:27:14Z</time>
      </trkpt>
      <trkpt lat="45.92357" lon="4.74944">
        <ele>170</ele>
        <time>2017-06-12T08:27:15Z</time>
      </trkpt>
      <trkpt lat="45.92354" lon="4.74951">
        <ele>170</ele>
        <time>2017-06-12T08:27:16Z</time>
      </trkpt>
      <trkpt lat="45.92351" lon="4.74958">
        <ele>170</ele>
        <time>2017-06-12T08:27:17Z</time>
      </trkpt>
      <trkpt lat="45.92348" lon="4.74965">
        <ele>170</ele>
        <time>2017-06-12T08:27:18Z</time>
      </trkpt>
      <trkpt lat="45.92345" lon="4.74973">
        <ele>170</ele>
        <time>2017-06-12T08:27:19Z</time>
      </trkpt>
      <trkpt lat="45.92343" lon="4.7498">
        <ele>170</ele>
        <time>2017-06-12T08:27:20Z</time>
      </trkpt>
      <trkpt lat="45.92339" lon="4.74987">
        <ele>170</ele>
        <time>2017-06-12T08:27:21Z</time>
      </trkpt>
      <trkpt lat="45.92336" lon="4.74994">
        <ele>170</ele>
        <time>2017-06-12T08:27:22Z</time>
      </trkpt>
      <trkpt lat="45.92333" lon="4.75001">
        <ele>170</ele>
        <time>2017-06-12T08:27:23Z</time>
      </trkpt>
      <trkpt lat="45.9233" lon="4.75008">
        <ele>171</ele>
        <time>2017-06-12T08:27:24Z</time>
      </trkpt>
      <trkpt lat="45.92326" lon="4.75016">
        <ele>171</ele>
        <time>2017-06-12T08:27:25Z</time>
      </trkpt>
      <trkpt lat="45.92323" lon="4.75023">
        <ele>171</ele>
        <time>2017-06-12T08:27:26Z</time>
      </trkpt>
      <trkpt lat="45.92319" lon="4.75031">
        <ele>171</ele>
        <time>2017-06-12T08:27:27Z</time>
      </trkpt>
      <trkpt lat="45.92315" lon="4.75038">
        <ele>172</ele>
        <time>2017-06-12T08:27:28Z</time>
      </trkpt>
      <trkpt lat="45.92311" lon="4.75045">
        <ele>172</ele>
        <time>2017-06-12T08:27:29Z</time>
      </trkpt>
      <trkpt lat="45.92306" lon="4.75052">
        <ele>172</ele>
        <time>2017-06-12T08:27:30Z</time>
      </trkpt>
      <trkpt lat="45.92301" lon="4.75059">
        <ele>172</ele>
        <time>2017-06-12T08:27:31Z</time>
      </trkpt>
      <trkpt lat="45.92297" lon="4.75065">
        <ele>172</ele>
        <time>2017-06-12T08:27:32Z</time>
      </trkpt>
      <trkpt lat="45.92293" lon="4.7507">
        <ele>172</ele>
        <time>2017-06-12T08:27:33Z</time>
      </trkpt>
      <trkpt lat="45.92288" lon="4.75076">
        <ele>172</ele>
        <time>2017-06-12T08:27:34Z</time>
      </trkpt>
      <trkpt lat="45.92284" lon="4.75081">
        <ele>172</ele>
        <time>2017-06-12T08:27:35Z</time>
      </trkpt>
      <trkpt lat="45.92279" lon="4.75085">
        <ele>173</ele>
        <time>2017-06-12T08:27:36Z</time>
      </trkpt>
      <trkpt lat="45.92275" lon="4.7509">
        <ele>173</ele>
        <time>2017-06-12T08:27:37Z</time>
      </trkpt>
      <trkpt lat="45.92271" lon="4.75095">
        <ele>173</ele>
        <time>2017-06-12T08:27:38Z</time>
      </trkpt>
      <trkpt lat="45.92266" lon="4.751">
        <ele>173</ele>
        <time>2017-06-12T08:27:39Z</time>
      </trkpt>
      <trkpt lat="45.92262" lon="4.75104">
        <ele>173</ele>
        <time>2017-06-12T08:27:40Z</time>
      </trkpt>
      <trkpt lat="45.92257" lon="4.75109">
        <ele>174</ele>
        <time>2017-06-12T08:27:41Z</time>
      </trkpt>
      <trkpt lat="45.92253" lon="4.75114">
        <ele>174</ele>
        <time>2017-06-12T08:27:42Z</time>
      </trkpt>
      <trkpt lat="45.92248" lon="4.7512">
        <ele>174</ele>
        <time>2017-06-12T08:27:43Z</time>
      </trkpt>
      <trkpt lat="45.92244" lon="4.75125">
        <ele>174</ele>
        <time>2017-06-12T08:27:44Z</time>
      </trkpt>
      <trkpt lat="45.9224" lon="4.75131">
        <ele>174</ele>
        <time>2017-06-12T08:27:45Z</time>
      </trkpt>
      <trkpt lat="45.92236" lon="4.75137">
        <ele>174</ele>
        <time>2017-06-12T08:27:46Z</time>
      </trkpt>
      <trkpt lat="45.92232" lon="4.75143">
        <ele>174</ele>
        <time>2017-06-12T08:27:47Z</time>
      </trkpt>
      <trkpt lat="45.92228" lon="4.7515">
        <ele>174</ele>
        <time>2017-06-12T08:27:48Z</time>
      </trkpt>
      <trkpt lat="45.92225" lon="4.75157">
        <ele>174</ele>
        <time>2017-06-12T08:27:49Z</time>
      </trkpt>
      <trkpt lat="45.92222" lon="4.75164">
        <ele>174</ele>
        <time>2017-06-12T08:27:50Z</time>
      </trkpt>
      <trkpt lat="45.92219" lon="4.75171">
        <ele>175</ele>
        <time>2017-06-12T08:27:51Z</time>
      </trkpt>
      <trkpt lat="45.92217" lon="4.75179">
        <ele>175</ele>
        <time>2017-06-12T08:27:52Z</time>
      </trkpt>
      <trkpt lat="45.92215" lon="4.75186">
        <ele>175</ele>
        <time>2017-06-12T08:27:53Z</time>
      </trkpt>
      <trkpt lat="45.92213" lon="4.75193">
        <ele>175</ele>
        <time>2017-06-12T08:27:54Z</time>
      </trkpt>
      <trkpt lat="45.92211" lon="4.75201">
        <ele>175</ele>
        <time>2017-06-12T08:27:55Z</time>
      </trkpt>
      <trkpt lat="45.9221" lon="4.75209">
        <ele>175</ele>
        <time>2017-06-12T08:27:56Z</time>
      </trkpt>
      <trkpt lat="45.92208" lon="4.75217">
        <ele>175</ele>
        <time>2017-06-12T08:27:57Z</time>
      </trkpt>
      <trkpt lat="45.92208" lon="4.75224">
        <ele>175</ele>
        <time>2017-06-12T08:27:58Z</time>
      </trkpt>
      <trkpt lat="45.92208" lon="4.75232">
        <ele>175</ele>
        <time>2017-06-12T08:27:59Z</time>
      </trkpt>
      <trkpt lat="45.92207" lon="4.75239">
        <ele>175</ele>
        <time>2017-06-12T08:28:00Z</time>
      </trkpt>
      <trkpt lat="45.92207" lon="4.75246">
        <ele>175</ele>
        <time>2017-06-12T08:28:01Z</time>
      </trkpt>
      <trkpt lat="45.92207" lon="4.75254">
        <ele>175</ele>
        <time>2017-06-12T08:28:02Z</time>
      </trkpt>
      <trkpt lat="45.92207" lon="4.75262">
        <ele>176</ele>
        <time>2017-06-12T08:28:03Z</time>
      </trkpt>
      <trkpt lat="45.92207" lon="4.7527">
        <ele>176</ele>
        <time>2017-06-12T08:28:04Z</time>
      </trkpt>
      <trkpt lat="45.92207" lon="4.75277">
        <ele>176</ele>
        <time>2017-06-12T08:28:05Z</time>
      </trkpt>
      <trkpt lat="45.92207" lon="4.75285">
        <ele>176</ele>
        <time>2017-06-12T08:28:06Z</time>
      </trkpt>
      <trkpt lat="45.92207" lon="4.75293">
        <ele>176</ele>
        <time>2017-06-12T08:28:07Z</time>
      </trkpt>
      <trkpt lat="45.92207" lon="4.75302">
        <ele>176</ele>
        <time>2017-06-12T08:28:08Z</time>
      </trkpt>
      <trkpt lat="45.92207" lon="4.7531">
        <ele>176</ele>
        <time>2017-06-12T08:28:09Z</time>
      </trkpt>
      <trkpt lat="45.92206" lon="4.75318">
        <ele>176</ele>
        <time>2017-06-12T08:28:10Z</time>
      </trkpt>
      <trkpt lat="45.92205" lon="4.75326">
        <ele>176</ele>
        <time>2017-06-12T08:28:11Z</time>
      </trkpt>
      <trkpt lat="45.92204" lon="4.75333">
        <ele>176</ele>
        <time>2017-06-12T08:28:12Z</time>
      </trkpt>
      <trkpt lat="45.92202" lon="4.75341">
        <ele>177</ele>
        <time>2017-06-12T08:28:13Z</time>
      </trkpt>
      <trkpt lat="45.922" lon="4.75348">
        <ele>177</ele>
        <time>2017-06-12T08:28:14Z</time>
      </trkpt>
      <trkpt lat="45.92198" lon="4.75355">
        <ele>177</ele>
        <time>2017-06-12T08:28:15Z</time>
      </trkpt>
      <trkpt lat="45.92195" lon="4.75362">
        <ele>177</ele>
        <time>2017-06-12T08:28:16Z</time>
      </trkpt>
      <trkpt lat="45.92192" lon="4.75369">
        <ele>177</ele>
        <time>2017-06-12T08:28:17Z</time>
      </trkpt>
      <trkpt lat="45.92189" lon="4.75375">
        <ele>177</ele>
        <time>2017-06-12T08:28:18Z</time>
      </trkpt>
      <trkpt lat="45.92187" lon="4.75381">
        <ele>177</ele>
        <time>2017-06-12T08:28:19Z</time>
      </trkpt>
      <trkpt lat="45.92184" lon="4.75387">
        <ele>177</ele>
        <time>2017-06-12T08:28:20Z</time>
      </trkpt>
      <trkpt lat="45.92182" lon="4.75394">
        <ele>177</ele>
        <time>2017-06-12T08:28:21Z</time>
      </trkpt>
      <trkpt lat="45.9218" lon="4.75401">
        <ele>177</ele>
        <time>2017-06-12T08:28:22Z</time>
      </trkpt>
      <trkpt lat="45.92177" lon="4.75407">
        <ele>177</ele>
        <time>2017-06-12T08:28:23Z</time>
      </trkpt>
      <trkpt lat="45.92175" lon="4.75414">
        <ele>178</ele>
        <time>2017-06-12T08:28:24Z</time>
      </trkpt>
      <trkpt lat="45.92172" lon="4.75421">
        <ele>177</ele>
        <time>2017-06-12T08:28:25Z</time>
      </trkpt>
      <trkpt lat="45.92169" lon="4.75428">
        <ele>177</ele>
        <time>2017-06-12T08:28:26Z</time>
      </trkpt>
      <trkpt lat="45.92166" lon="4.75435">
        <ele>177</ele>
        <time>2017-06-12T08:28:27Z</time>
      </trkpt>
      <trkpt lat="45.92163" lon="4.75443">
        <ele>177</ele>
        <time>2017-06-12T08:28:28Z</time>
      </trkpt>
      <trkpt lat="45.9216" lon="4.75451">
        <ele>176</ele>
        <time>2017-06-12T08:28:29Z</time>
      </trkpt>
      <trkpt lat="45.92157" lon="4.7546">
        <ele>176</ele>
        <time>2017-06-12T08:28:30Z</time>
      </trkpt>
      <trkpt lat="45.92154" lon="4.75468">
        <ele>176</ele>
        <time>2017-06-12T08:28:31Z</time>
      </trkpt>
      <trkpt lat="45.9215" lon="4.75477">
        <ele>176</ele>
        <time>2017-06-12T08:28:32Z</time>
      </trkpt>
      <trkpt lat="45.92147" lon="4.75485">
        <ele>176</ele>
        <time>2017-06-12T08:28:33Z</time>
      </trkpt>
      <trkpt lat="45.92144" lon="4.75493">
        <ele>176</ele>
        <time>2017-06-12T08:28:34Z</time>
      </trkpt>
      <trkpt lat="45.92141" lon="4.755">
        <ele>175</ele>
        <time>2017-06-12T08:28:35Z</time>
      </trkpt>
      <trkpt lat="45.92138" lon="4.75508">
        <ele>174</ele>
        <time>2017-06-12T08:28:36Z</time>
      </trkpt>
      <trkpt lat="45.92134" lon="4.75515">
        <ele>174</ele>
        <time>2017-06-12T08:28:37Z</time>
      </trkpt>
      <trkpt lat="45.9213" lon="4.75521">
        <ele>174</ele>
        <time>2017-06-12T08:28:38Z</time>
      </trkpt>
      <trkpt lat="45.92127" lon="4.75528">
        <ele>174</ele>
        <time>2017-06-12T08:28:39Z</time>
      </trkpt>
      <trkpt lat="45.92123" lon="4.75536">
        <ele>174</ele>
        <time>2017-06-12T08:28:40Z</time>
      </trkpt>
      <trkpt lat="45.9212" lon="4.75543">
        <ele>174</ele>
        <time>2017-06-12T08:28:41Z</time>
      </trkpt>
      <trkpt lat="45.92116" lon="4.7555">
        <ele>174</ele>
        <time>2017-06-12T08:28:42Z</time>
      </trkpt>
      <trkpt lat="45.92113" lon="4.75557">
        <ele>174</ele>
        <time>2017-06-12T08:28:43Z</time>
      </trkpt>
      <trkpt lat="45.92109" lon="4.75564">
        <ele>174</ele>
        <time>2017-06-12T08:28:44Z</time>
      </trkpt>
      <trkpt lat="45.92107" lon="4.75572">
        <ele>174</ele>
        <time>2017-06-12T08:28:45Z</time>
      </trkpt>
      <trkpt lat="45.92107" lon="4.7558">
        <ele>174</ele>
        <time>2017-06-12T08:28:46Z</time>
      </trkpt>
      <trkpt lat="45.92109" lon="4.75588">
        <ele>174</ele>
        <time>2017-06-12T08:28:47Z</time>
      </trkpt>
      <trkpt lat="45.92112" lon="4.75595">
        <ele>174</ele>
        <time>2017-06-12T08:28:48Z</time>
      </trkpt>
      <trkpt lat="45.92117" lon="4.756">
        <ele>174</ele>
        <time>2017-06-12T08:28:49Z</time>
      </trkpt>
      <trkpt lat="45.92122" lon="4.75604">
        <ele>174</ele>
        <time>2017-06-12T08:28:50Z</time>
      </trkpt>
      <trkpt lat="45.92127" lon="4.75609">
        <ele>174</ele>
        <time>2017-06-12T08:28:51Z</time>
      </trkpt>
      <trkpt lat="45.92131" lon="4.75613">
        <ele>174</ele>
        <time>2017-06-12T08:28:52Z</time>
      </trkpt>
      <trkpt lat="45.92136" lon="4.75617">
        <ele>174</ele>
        <time>2017-06-12T08:28:53Z</time>
      </trkpt>
      <trkpt lat="45.92141" lon="4.75622">
        <ele>174</ele>
        <time>2017-06-12T08:28:54Z</time>
      </trkpt>
      <trkpt lat="45.92146" lon="4.75626">
        <ele>174</ele>
        <time>2017-06-12T08:28:55Z</time>
      </trkpt>
      <trkpt lat="45.92151" lon="4.75631">
        <ele>174</ele>
        <time>2017-06-12T08:28:56Z</time>
      </trkpt>
      <trkpt lat="45.92156" lon="4.75636">
        <ele>174</ele>
        <time>2017-06-12T08:28:57Z</time>
      </trkpt>
      <trkpt lat="45.92161" lon="4.7564">
        <ele>174</ele>
        <time>2017-06-12T08:28:58Z</time>
      </trkpt>
      <trkpt lat="45.92166" lon="4.75645">
        <ele>174</ele>
        <time>2017-06-12T08:28:59Z</time>
      </trkpt>
      <trkpt lat="45.9217" lon="4.75649">
        <ele>174</ele>
        <time>2017-06-12T08:29:00Z</time>
      </trkpt>
      <trkpt lat="45.92175" lon="4.75653">
        <ele>174</ele>
        <time>2017-06-12T08:29:01Z</time>
      </trkpt>
      <trkpt lat="45.92182" lon="4.75659">
        <ele>174</ele>
        <time>2017-06-12T08:29:03Z</time>
      </trkpt>
      <trkpt lat="45.92186" lon="4.75662">
        <ele>174</ele>
        <time>2017-06-12T08:29:04Z</time>
      </trkpt>
      <trkpt lat="45.92193" lon="4.75668">
        <ele>174</ele>
        <time>2017-06-12T08:29:06Z</time>
      </trkpt>
      <trkpt lat="45.92196" lon="4.75672">
        <ele>174</ele>
        <time>2017-06-12T08:29:07Z</time>
      </trkpt>
      <trkpt lat="45.92202" lon="4.7568">
        <ele>174</ele>
        <time>2017-06-12T08:29:09Z</time>
      </trkpt>
      <trkpt lat="45.92205" lon="4.75685">
        <ele>174</ele>
        <time>2017-06-12T08:29:10Z</time>
      </trkpt>
      <trkpt lat="45.9221" lon="4.75689">
        <ele>174</ele>
        <time>2017-06-12T08:29:11Z</time>
      </trkpt>
      <trkpt lat="45.92214" lon="4.75693">
        <ele>174</ele>
        <time>2017-06-12T08:29:12Z</time>
      </trkpt>
      <trkpt lat="45.92219" lon="4.75698">
        <ele>174</ele>
        <time>2017-06-12T08:29:13Z</time>
      </trkpt>
      <trkpt lat="45.92223" lon="4.75704">
        <ele>174</ele>
        <time>2017-06-12T08:29:14Z</time>
      </trkpt>
      <trkpt lat="45.92228" lon="4.7571">
        <ele>174</ele>
        <time>2017-06-12T08:29:15Z</time>
      </trkpt>
      <trkpt lat="45.92232" lon="4.75716">
        <ele>174</ele>
        <time>2017-06-12T08:29:16Z</time>
      </trkpt>
      <trkpt lat="45.92236" lon="4.75723">
        <ele>174</ele>
        <time>2017-06-12T08:29:17Z</time>
      </trkpt>
      <trkpt lat="45.92239" lon="4.75731">
        <ele>174</ele>
        <time>2017-06-12T08:29:18Z</time>
      </trkpt>
      <trkpt lat="45.92241" lon="4.7574">
        <ele>174</ele>
        <time>2017-06-12T08:29:19Z</time>
      </trkpt>
      <trkpt lat="45.92244" lon="4.75748">
        <ele>174</ele>
        <time>2017-06-12T08:29:20Z</time>
      </trkpt>
      <trkpt lat="45.92245" lon="4.75756">
        <ele>174</ele>
        <time>2017-06-12T08:29:21Z</time>
      </trkpt>
      <trkpt lat="45.92247" lon="4.75764">
        <ele>174</ele>
        <time>2017-06-12T08:29:22Z</time>
      </trkpt>
      <trkpt lat="45.92248" lon="4.75771">
        <ele>174</ele>
        <time>2017-06-12T08:29:23Z</time>
      </trkpt>
      <trkpt lat="45.9225" lon="4.75778">
        <ele>173</ele>
        <time>2017-06-12T08:29:24Z</time>
      </trkpt>
      <trkpt lat="45.92251" lon="4.75784">
        <ele>174</ele>
        <time>2017-06-12T08:29:25Z</time>
      </trkpt>
      <trkpt lat="45.92252" lon="4.75791">
        <ele>174</ele>
        <time>2017-06-12T08:29:26Z</time>
      </trkpt>
      <trkpt lat="45.92253" lon="4.75798">
        <ele>174</ele>
        <time>2017-06-12T08:29:27Z</time>
      </trkpt>
      <trkpt lat="45.92255" lon="4.75804">
        <ele>174</ele>
        <time>2017-06-12T08:29:28Z</time>
      </trkpt>
      <trkpt lat="45.92257" lon="4.75811">
        <ele>174</ele>
        <time>2017-06-12T08:29:29Z</time>
      </trkpt>
      <trkpt lat="45.92259" lon="4.75818">
        <ele>174</ele>
        <time>2017-06-12T08:29:30Z</time>
      </trkpt>
      <trkpt lat="45.92262" lon="4.75824">
        <ele>174</ele>
        <time>2017-06-12T08:29:31Z</time>
      </trkpt>
      <trkpt lat="45.92267" lon="4.7583">
        <ele>174</ele>
        <time>2017-06-12T08:29:32Z</time>
      </trkpt>
      <trkpt lat="45.92272" lon="4.75835">
        <ele>173</ele>
        <time>2017-06-12T08:29:33Z</time>
      </trkpt>
      <trkpt lat="45.92277" lon="4.7584">
        <ele>173</ele>
        <time>2017-06-12T08:29:34Z</time>
      </trkpt>
      <trkpt lat="45.92283" lon="4.75845">
        <ele>173</ele>
        <time>2017-06-12T08:29:35Z</time>
      </trkpt>
      <trkpt lat="45.92289" lon="4.75849">
        <ele>173</ele>
        <time>2017-06-12T08:29:36Z</time>
      </trkpt>
      <trkpt lat="45.92295" lon="4.75852">
        <ele>173</ele>
        <time>2017-06-12T08:29:37Z</time>
      </trkpt>
      <trkpt lat="45.92301" lon="4.75856">
        <ele>173</ele>
        <time>2017-06-12T08:29:38Z</time>
      </trkpt>
      <trkpt lat="45.92307" lon="4.7586">
        <ele>173</ele>
        <time>2017-06-12T08:29:39Z</time>
      </trkpt>
      <trkpt lat="45.92313" lon="4.75863">
        <ele>173</ele>
        <time>2017-06-12T08:29:40Z</time>
      </trkpt>
      <trkpt lat="45.9232" lon="4.75867">
        <ele>173</ele>
        <time>2017-06-12T08:29:41Z</time>
      </trkpt>
      <trkpt lat="45.92326" lon="4.75871">
        <ele>173</ele>
        <time>2017-06-12T08:29:42Z</time>
      </trkpt>
      <trkpt lat="45.92332" lon="4.75875">
        <ele>173</ele>
        <time>2017-06-12T08:29:43Z</time>
      </trkpt>
      <trkpt lat="45.92338" lon="4.75879">
        <ele>173</ele>
        <time>2017-06-12T08:29:44Z</time>
      </trkpt>
      <trkpt lat="45.92344" lon="4.75882">
        <ele>173</ele>
        <time>2017-06-12T08:29:45Z</time>
      </trkpt>
      <trkpt lat="45.92349" lon="4.75885">
        <ele>173</ele>
        <time>2017-06-12T08:29:46Z</time>
      </trkpt>
      <trkpt lat="45.92355" lon="4.75889">
        <ele>173</ele>
        <time>2017-06-12T08:29:47Z</time>
      </trkpt>
      <trkpt lat="45.9236" lon="4.75892">
        <ele>173</ele>
        <time>2017-06-12T08:29:48Z</time>
      </trkpt>
      <trkpt lat="45.92365" lon="4.75895">
        <ele>173</ele>
        <time>2017-06-12T08:29:49Z</time>
      </trkpt>
      <trkpt lat="45.9237" lon="4.75897">
        <ele>173</ele>
        <time>2017-06-12T08:29:50Z</time>
      </trkpt>
      <trkpt lat="45.92375" lon="4.759">
        <ele>173</ele>
        <time>2017-06-12T08:29:51Z</time>
      </trkpt>
      <trkpt lat="45.9238" lon="4.75904">
        <ele>173</ele>
        <time>2017-06-12T08:29:52Z</time>
      </trkpt>
      <trkpt lat="45.92385" lon="4.75907">
        <ele>173</ele>
        <time>2017-06-12T08:29:53Z</time>
      </trkpt>
      <trkpt lat="45.9239" lon="4.75911">
        <ele>173</ele>
        <time>2017-06-12T08:29:54Z</time>
      </trkpt>
      <trkpt lat="45.92395" lon="4.75914">
        <ele>173</ele>
        <time>2017-06-12T08:29:55Z</time>
      </trkpt>
      <trkpt lat="45.924" lon="4.75917">
        <ele>172</ele>
        <time>2017-06-12T08:29:56Z</time>
      </trkpt>
      <trkpt lat="45.92405" lon="4.75921">
        <ele>172</ele>
        <time>2017-06-12T08:29:57Z</time>
      </trkpt>
      <trkpt lat="45.9241" lon="4.75924">
        <ele>172</ele>
        <time>2017-06-12T08:29:58Z</time>
      </trkpt>
      <trkpt lat="45.92415" lon="4.75928">
        <ele>172</ele>
        <time>2017-06-12T08:29:59Z</time>
      </trkpt>
      <trkpt lat="45.92419" lon="4.75931">
        <ele>172</ele>
        <time>2017-06-12T08:30:00Z</time>
      </trkpt>
      <trkpt lat="45.92424" lon="4.75935">
        <ele>172</ele>
        <time>2017-06-12T08:30:01Z</time>
      </trkpt>
      <trkpt lat="45.92429" lon="4.75938">
        <ele>172</ele>
        <time>2017-06-12T08:30:02Z</time>
      </trkpt>
      <trkpt lat="45.92434" lon="4.75942">
        <ele>172</ele>
        <time>2017-06-12T08:30:03Z</time>
      </trkpt>
      <trkpt lat="45.92438" lon="4.75946">
        <ele>172</ele>
        <time>2017-06-12T08:30:04Z</time>
      </trkpt>
      <trkpt lat="45.92443" lon="4.7595">
        <ele>172</ele>
        <time>2017-06-12T08:30:05Z</time>
      </trkpt>
      <trkpt lat="45.92448" lon="4.75953">
        <ele>172</ele>
        <time>2017-06-12T08:30:06Z</time>
      </trkpt>
      <trkpt lat="45.92453" lon="4.75957">
        <ele>172</ele>
        <time>2017-06-12T08:30:07Z</time>
      </trkpt>
      <trkpt lat="45.92458" lon="4.75962">
        <ele>172</ele>
        <time>2017-06-12T08:30:08Z</time>
      </trkpt>
      <trkpt lat="45.92463" lon="4.75966">
        <ele>172</ele>
        <time>2017-06-12T08:30:09Z</time>
      </trkpt>
      <trkpt lat="45.92468" lon="4.7597">
        <ele>172</ele>
        <time>2017-06-12T08:30:10Z</time>
      </trkpt>
      <trkpt lat="45.92473" lon="4.75974">
        <ele>172</ele>
        <time>2017-06-12T08:30:11Z</time>
      </trkpt>
      <trkpt lat="45.92478" lon="4.75978">
        <ele>172</ele>
        <time>2017-06-12T08:30:12Z</time>
      </trkpt>
      <trkpt lat="45.92483" lon="4.75983">
        <ele>172</ele>
        <time>2017-06-12T08:30:13Z</time>
      </trkpt>
      <trkpt lat="45.92488" lon="4.75987">
        <ele>172</ele>
        <time>2017-06-12T08:30:14Z</time>
      </trkpt>
      <trkpt lat="45.92493" lon="4.75991">
        <ele>172</ele>
        <time>2017-06-12T08:30:15Z</time>
      </trkpt>
      <trkpt lat="45.92497" lon="4.75995">
        <ele>172</ele>
        <time>2017-06-12T08:30:16Z</time>
      </trkpt>
      <trkpt lat="45.92502" lon="4.75998">
        <ele>172</ele>
        <time>2017-06-12T08:30:17Z</time>
      </trkpt>
      <trkpt lat="45.92506" lon="4.76001">
        <ele>172</ele>
        <time>2017-06-12T08:30:18Z</time>
      </trkpt>
      <trkpt lat="45.92511" lon="4.76004">
        <ele>172</ele>
        <time>2017-06-12T08:30:19Z</time>
      </trkpt>
      <trkpt lat="45.92515" lon="4.76007">
        <ele>172</ele>
        <time>2017-06-12T08:30:20Z</time>
      </trkpt>
      <trkpt lat="45.9252" lon="4.76012">
        <ele>172</ele>
        <time>2017-06-12T08:30:21Z</time>
      </trkpt>
      <trkpt lat="45.92524" lon="4.76015">
        <ele>172</ele>
        <time>2017-06-12T08:30:22Z</time>
      </trkpt>
      <trkpt lat="45.92529" lon="4.76017">
        <ele>172</ele>
        <time>2017-06-12T08:30:23Z</time>
      </trkpt>
      <trkpt lat="45.92534" lon="4.76021">
        <ele>172</ele>
        <time>2017-06-12T08:30:24Z</time>
      </trkpt>
      <trkpt lat="45.92539" lon="4.76024">
        <ele>172</ele>
        <time>2017-06-12T08:30:25Z</time>
      </trkpt>
      <trkpt lat="45.92543" lon="4.76028">
        <ele>172</ele>
        <time>2017-06-12T08:30:26Z</time>
      </trkpt>
      <trkpt lat="45.92548" lon="4.76031">
        <ele>172</ele>
        <time>2017-06-12T08:30:27Z</time>
      </trkpt>
      <trkpt lat="45.92552" lon="4.76034">
        <ele>172</ele>
        <time>2017-06-12T08:30:28Z</time>
      </trkpt>
      <trkpt lat="45.92557" lon="4.76038">
        <ele>172</ele>
        <time>2017-06-12T08:30:29Z</time>
      </trkpt>
      <trkpt lat="45.92562" lon="4.76041">
        <ele>172</ele>
        <time>2017-06-12T08:30:30Z</time>
      </trkpt>
      <trkpt lat="45.92566" lon="4.76044">
        <ele>171</ele>
        <time>2017-06-12T08:30:31Z</time>
      </trkpt>
      <trkpt lat="45.92571" lon="4.76047">
        <ele>171</ele>
        <time>2017-06-12T08:30:32Z</time>
      </trkpt>
      <trkpt lat="45.92576" lon="4.76051">
        <ele>171</ele>
        <time>2017-06-12T08:30:33Z</time>
      </trkpt>
      <trkpt lat="45.92581" lon="4.76054">
        <ele>171</ele>
        <time>2017-06-12T08:30:34Z</time>
      </trkpt>
      <trkpt lat="45.92586" lon="4.76057">
        <ele>171</ele>
        <time>2017-06-12T08:30:35Z</time>
      </trkpt>
      <trkpt lat="45.92591" lon="4.76061">
        <ele>171</ele>
        <time>2017-06-12T08:30:36Z</time>
      </trkpt>
      <trkpt lat="45.92596" lon="4.76064">
        <ele>171</ele>
        <time>2017-06-12T08:30:37Z</time>
      </trkpt>
      <trkpt lat="45.92601" lon="4.76068">
        <ele>171</ele>
        <time>2017-06-12T08:30:38Z</time>
      </trkpt>
      <trkpt lat="45.92606" lon="4.76072">
        <ele>171</ele>
        <time>2017-06-12T08:30:39Z</time>
      </trkpt>
      <trkpt lat="45.92611" lon="4.76075">
        <ele>171</ele>
        <time>2017-06-12T08:30:40Z</time>
      </trkpt>
      <trkpt lat="45.92617" lon="4.76079">
        <ele>171</ele>
        <time>2017-06-12T08:30:41Z</time>
      </trkpt>
      <trkpt lat="45.92622" lon="4.76083">
        <ele>171</ele>
        <time>2017-06-12T08:30:42Z</time>
      </trkpt>
      <trkpt lat="45.92628" lon="4.76087">
        <ele>170</ele>
        <time>2017-06-12T08:30:43Z</time>
      </trkpt>
      <trkpt lat="45.92634" lon="4.76091">
        <ele>170</ele>
        <time>2017-06-12T08:30:44Z</time>
      </trkpt>
      <trkpt lat="45.92639" lon="4.76095">
        <ele>170</ele>
        <time>2017-06-12T08:30:45Z</time>
      </trkpt>
      <trkpt lat="45.92646" lon="4.76099">
        <ele>170</ele>
        <time>2017-06-12T08:30:46Z</time>
      </trkpt>
      <trkpt lat="45.92652" lon="4.76104">
        <ele>170</ele>
        <time>2017-06-12T08:30:47Z</time>
      </trkpt>
      <trkpt lat="45.92658" lon="4.76108">
        <ele>170</ele>
        <time>2017-06-12T08:30:48Z</time>
      </trkpt>
      <trkpt lat="45.92665" lon="4.76112">
        <ele>170</ele>
        <time>2017-06-12T08:30:49Z</time>
      </trkpt>
      <trkpt lat="45.92672" lon="4.76116">
        <ele>169</ele>
        <time>2017-06-12T08:30:50Z</time>
      </trkpt>
      <trkpt lat="45.92679" lon="4.7612">
        <ele>169</ele>
        <time>2017-06-12T08:30:51Z</time>
      </trkpt>
      <trkpt lat="45.92686" lon="4.76124">
        <ele>169</ele>
        <time>2017-06-12T08:30:52Z</time>
      </trkpt>
      <trkpt lat="45.92693" lon="4.76129">
        <ele>169</ele>
        <time>2017-06-12T08:30:53Z</time>
      </trkpt>
      <trkpt lat="45.927" lon="4.76133">
        <ele>169</ele>
        <time>2017-06-12T08:30:54Z</time>
      </trkpt>
      <trkpt lat="45.92707" lon="4.76138">
        <ele>169</ele>
        <time>2017-06-12T08:30:55Z</time>
      </trkpt>
      <trkpt lat="45.92714" lon="4.76143">
        <ele>168</ele>
        <time>2017-06-12T08:30:56Z</time>
      </trkpt>
      <trkpt lat="45.92721" lon="4.76148">
        <ele>168</ele>
        <time>2017-06-12T08:30:57Z</time>
      </trkpt>
      <trkpt lat="45.92727" lon="4.76153">
        <ele>168</ele>
        <time>2017-06-12T08:30:58Z</time>
      </trkpt>
      <trkpt lat="45.92734" lon="4.76159">
        <ele>168</ele>
        <time>2017-06-12T08:30:59Z</time>
      </trkpt>
      <trkpt lat="45.9274" lon="4.76164">
        <ele>168</ele>
        <time>2017-06-12T08:31:00Z</time>
      </trkpt>
      <trkpt lat="45.92747" lon="4.76169">
        <ele>167</ele>
        <time>2017-06-12T08:31:01Z</time>
      </trkpt>
      <trkpt lat="45.92753" lon="4.76173">
        <ele>167</ele>
        <time>2017-06-12T08:31:02Z</time>
      </trkpt>
      <trkpt lat="45.92759" lon="4.76178">
        <ele>167</ele>
        <time>2017-06-12T08:31:03Z</time>
      </trkpt>
      <trkpt lat="45.92764" lon="4.76183">
        <ele>167</ele>
        <time>2017-06-12T08:31:04Z</time>
      </trkpt>
      <trkpt lat="45.9277" lon="4.76188">
        <ele>167</ele>
        <time>2017-06-12T08:31:05Z</time>
      </trkpt>
      <trkpt lat="45.92775" lon="4.76193">
        <ele>168</ele>
        <time>2017-06-12T08:31:06Z</time>
      </trkpt>
      <trkpt lat="45.9278" lon="4.76197">
        <ele>168</ele>
        <time>2017-06-12T08:31:07Z</time>
      </trkpt>
      <trkpt lat="45.92785" lon="4.76202">
        <ele>168</ele>
        <time>2017-06-12T08:31:08Z</time>
      </trkpt>
      <trkpt lat="45.9279" lon="4.76206">
        <ele>168</ele>
        <time>2017-06-12T08:31:09Z</time>
      </trkpt>
      <trkpt lat="45.92795" lon="4.7621">
        <ele>168</ele>
        <time>2017-06-12T08:31:10Z</time>
      </trkpt>
      <trkpt lat="45.928" lon="4.76215">
        <ele>168</ele>
        <time>2017-06-12T08:31:11Z</time>
      </trkpt>
      <trkpt lat="45.92805" lon="4.76219">
        <ele>168</ele>
        <time>2017-06-12T08:31:12Z</time>
      </trkpt>
      <trkpt lat="45.9281" lon="4.76224">
        <ele>168</ele>
        <time>2017-06-12T08:31:13Z</time>
      </trkpt>
      <trkpt lat="45.92815" lon="4.76229">
        <ele>168</ele>
        <time>2017-06-12T08:31:14Z</time>
      </trkpt>
      <trkpt lat="45.9282" lon="4.76234">
        <ele>168</ele>
        <time>2017-06-12T08:31:15Z</time>
      </trkpt>
      <trkpt lat="45.92825" lon="4.76239">
        <ele>168</ele>
        <time>2017-06-12T08:31:16Z</time>
      </trkpt>
      <trkpt lat="45.9283" lon="4.76244">
        <ele>169</ele>
        <time>2017-06-12T08:31:17Z</time>
      </trkpt>
      <trkpt lat="45.92835" lon="4.76249">
        <ele>169</ele>
        <time>2017-06-12T08:31:18Z</time>
      </trkpt>
      <trkpt lat="45.92839" lon="4.76253">
        <ele>169</ele>
        <time>2017-06-12T08:31:19Z</time>
      </trkpt>
      <trkpt lat="45.92844" lon="4.76258">
        <ele>169</ele>
        <time>2017-06-12T08:31:20Z</time>
      </trkpt>
      <trkpt lat="45.92848" lon="4.76262">
        <ele>169</ele>
        <time>2017-06-12T08:31:21Z</time>
      </trkpt>
      <trkpt lat="45.92852" lon="4.76267">
        <ele>169</ele>
        <time>2017-06-12T08:31:22Z</time>
      </trkpt>
      <trkpt lat="45.92856" lon="4.76272">
        <ele>169</ele>
        <time>2017-06-12T08:31:23Z</time>
      </trkpt>
      <trkpt lat="45.92861" lon="4.76277">
        <ele>169</ele>
        <time>2017-06-12T08:31:24Z</time>
      </trkpt>
      <trkpt lat="45.92865" lon="4.76282">
        <ele>169</ele>
        <time>2017-06-12T08:31:25Z</time>
      </trkpt>
      <trkpt lat="45.92869" lon="4.76287">
        <ele>169</ele>
        <time>2017-06-12T08:31:26Z</time>
      </trkpt>
      <trkpt lat="45.92874" lon="4.76292">
        <ele>169</ele>
        <time>2017-06-12T08:31:27Z</time>
      </trkpt>
      <trkpt lat="45.92879" lon="4.76297">
        <ele>169</ele>
        <time>2017-06-12T08:31:28Z</time>
      </trkpt>
      <trkpt lat="45.92883" lon="4.76301">
        <ele>169</ele>
        <time>2017-06-12T08:31:29Z</time>
      </trkpt>
      <trkpt lat="45.92888" lon="4.76306">
        <ele>169</ele>
        <time>2017-06-12T08:31:30Z</time>
      </trkpt>
      <trkpt lat="45.92892" lon="4.7631">
        <ele>169</ele>
        <time>2017-06-12T08:31:31Z</time>
      </trkpt>
      <trkpt lat="45.92896" lon="4.76314">
        <ele>169</ele>
        <time>2017-06-12T08:31:32Z</time>
      </trkpt>
      <trkpt lat="45.92901" lon="4.76318">
        <ele>169</ele>
        <time>2017-06-12T08:31:33Z</time>
      </trkpt>
      <trkpt lat="45.92905" lon="4.76322">
        <ele>169</ele>
        <time>2017-06-12T08:31:34Z</time>
      </trkpt>
      <trkpt lat="45.9291" lon="4.76327">
        <ele>169</ele>
        <time>2017-06-12T08:31:35Z</time>
      </trkpt>
      <trkpt lat="45.92915" lon="4.76332">
        <ele>169</ele>
        <time>2017-06-12T08:31:36Z</time>
      </trkpt>
      <trkpt lat="45.9292" lon="4.76337">
        <ele>169</ele>
        <time>2017-06-12T08:31:37Z</time>
      </trkpt>
      <trkpt lat="45.92925" lon="4.76342">
        <ele>169</ele>
        <time>2017-06-12T08:31:38Z</time>
      </trkpt>
      <trkpt lat="45.92931" lon="4.76347">
        <ele>169</ele>
        <time>2017-06-12T08:31:39Z</time>
      </trkpt>
      <trkpt lat="45.92936" lon="4.76353">
        <ele>169</ele>
        <time>2017-06-12T08:31:40Z</time>
      </trkpt>
      <trkpt lat="45.92941" lon="4.76358">
        <ele>169</ele>
        <time>2017-06-12T08:31:41Z</time>
      </trkpt>
      <trkpt lat="45.92946" lon="4.76363">
        <ele>169</ele>
        <time>2017-06-12T08:31:42Z</time>
      </trkpt>
      <trkpt lat="45.92951" lon="4.76368">
        <ele>169</ele>
        <time>2017-06-12T08:31:43Z</time>
      </trkpt>
      <trkpt lat="45.92956" lon="4.76372">
        <ele>169</ele>
        <time>2017-06-12T08:31:44Z</time>
      </trkpt>
      <trkpt lat="45.92961" lon="4.76377">
        <ele>169</ele>
        <time>2017-06-12T08:31:45Z</time>
      </trkpt>
      <trkpt lat="45.92966" lon="4.76381">
        <ele>169</ele>
        <time>2017-06-12T08:31:46Z</time>
      </trkpt>
      <trkpt lat="45.9297" lon="4.76386">
        <ele>169</ele>
        <time>2017-06-12T08:31:47Z</time>
      </trkpt>
      <trkpt lat="45.92974" lon="4.76391">
        <ele>169</ele>
        <time>2017-06-12T08:31:48Z</time>
      </trkpt>
      <trkpt lat="45.92979" lon="4.76395">
        <ele>169</ele>
        <time>2017-06-12T08:31:49Z</time>
      </trkpt>
      <trkpt lat="45.92984" lon="4.76399">
        <ele>169</ele>
        <time>2017-06-12T08:31:50Z</time>
      </trkpt>
      <trkpt lat="45.92988" lon="4.76403">
        <ele>169</ele>
        <time>2017-06-12T08:31:51Z</time>
      </trkpt>
      <trkpt lat="45.92993" lon="4.76407">
        <ele>169</ele>
        <time>2017-06-12T08:31:52Z</time>
      </trkpt>
      <trkpt lat="45.92998" lon="4.76412">
        <ele>169</ele>
        <time>2017-06-12T08:31:53Z</time>
      </trkpt>
      <trkpt lat="45.93002" lon="4.76417">
        <ele>169</ele>
        <time>2017-06-12T08:31:54Z</time>
      </trkpt>
      <trkpt lat="45.93007" lon="4.76421">
        <ele>169</ele>
        <time>2017-06-12T08:31:55Z</time>
      </trkpt>
      <trkpt lat="45.93012" lon="4.76425">
        <ele>169</ele>
        <time>2017-06-12T08:31:56Z</time>
      </trkpt>
      <trkpt lat="45.93016" lon="4.76429">
        <ele>169</ele>
        <time>2017-06-12T08:31:57Z</time>
      </trkpt>
      <trkpt lat="45.93021" lon="4.76434">
        <ele>169</ele>
        <time>2017-06-12T08:31:58Z</time>
      </trkpt>
      <trkpt lat="45.93025" lon="4.76439">
        <ele>169</ele>
        <time>2017-06-12T08:31:59Z</time>
      </trkpt>
      <trkpt lat="45.9303" lon="4.76444">
        <ele>169</ele>
        <time>2017-06-12T08:32:00Z</time>
      </trkpt>
      <trkpt lat="45.93035" lon="4.76448">
        <ele>169</ele>
        <time>2017-06-12T08:32:01Z</time>
      </trkpt>
      <trkpt lat="45.9304" lon="4.76453">
        <ele>169</ele>
        <time>2017-06-12T08:32:02Z</time>
      </trkpt>
      <trkpt lat="45.93044" lon="4.76458">
        <ele>169</ele>
        <time>2017-06-12T08:32:03Z</time>
      </trkpt>
      <trkpt lat="45.93049" lon="4.76462">
        <ele>169</ele>
        <time>2017-06-12T08:32:04Z</time>
      </trkpt>
      <trkpt lat="45.93054" lon="4.76467">
        <ele>169</ele>
        <time>2017-06-12T08:32:05Z</time>
      </trkpt>
      <trkpt lat="45.93059" lon="4.7647">
        <ele>169</ele>
        <time>2017-06-12T08:32:06Z</time>
      </trkpt>
      <trkpt lat="45.93063" lon="4.76475">
        <ele>169</ele>
        <time>2017-06-12T08:32:07Z</time>
      </trkpt>
      <trkpt lat="45.93068" lon="4.7648">
        <ele>169</ele>
        <time>2017-06-12T08:32:08Z</time>
      </trkpt>
      <trkpt lat="45.93072" lon="4.76486">
        <ele>169</ele>
        <time>2017-06-12T08:32:09Z</time>
      </trkpt>
      <trkpt lat="45.93076" lon="4.7649">
        <ele>170</ele>
        <time>2017-06-12T08:32:10Z</time>
      </trkpt>
      <trkpt lat="45.93081" lon="4.76495">
        <ele>170</ele>
        <time>2017-06-12T08:32:11Z</time>
      </trkpt>
      <trkpt lat="45.93085" lon="4.76499">
        <ele>170</ele>
        <time>2017-06-12T08:32:12Z</time>
      </trkpt>
      <trkpt lat="45.9309" lon="4.76504">
        <ele>170</ele>
        <time>2017-06-12T08:32:13Z</time>
      </trkpt>
      <trkpt lat="45.93094" lon="4.76509">
        <ele>170</ele>
        <time>2017-06-12T08:32:14Z</time>
      </trkpt>
      <trkpt lat="45.93099" lon="4.76514">
        <ele>170</ele>
        <time>2017-06-12T08:32:15Z</time>
      </trkpt>
      <trkpt lat="45.93103" lon="4.76518">
        <ele>170</ele>
        <time>2017-06-12T08:32:16Z</time>
      </trkpt>
      <trkpt lat="45.93108" lon="4.76524">
        <ele>170</ele>
        <time>2017-06-12T08:32:17Z</time>
      </trkpt>
      <trkpt lat="45.93113" lon="4.76529">
        <ele>170</ele>
        <time>2017-06-12T08:32:18Z</time>
      </trkpt>
      <trkpt lat="45.93118" lon="4.76533">
        <ele>170</ele>
        <time>2017-06-12T08:32:19Z</time>
      </trkpt>
      <trkpt lat="45.93122" lon="4.76538">
        <ele>170</ele>
        <time>2017-06-12T08:32:20Z</time>
      </trkpt>
      <trkpt lat="45.93127" lon="4.76543">
        <ele>170</ele>
        <time>2017-06-12T08:32:21Z</time>
      </trkpt>
      <trkpt lat="45.93131" lon="4.76547">
        <ele>170</ele>
        <time>2017-06-12T08:32:22Z</time>
      </trkpt>
      <trkpt lat="45.93135" lon="4.76551">
        <ele>170</ele>
        <time>2017-06-12T08:32:23Z</time>
      </trkpt>
      <trkpt lat="45.9314" lon="4.76557">
        <ele>170</ele>
        <time>2017-06-12T08:32:24Z</time>
      </trkpt>
      <trkpt lat="45.93144" lon="4.76562">
        <ele>170</ele>
        <time>2017-06-12T08:32:25Z</time>
      </trkpt>
      <trkpt lat="45.93149" lon="4.76565">
        <ele>170</ele>
        <time>2017-06-12T08:32:26Z</time>
      </trkpt>
      <trkpt lat="45.93154" lon="4.76571">
        <ele>170</ele>
        <time>2017-06-12T08:32:27Z</time>
      </trkpt>
      <trkpt lat="45.93158" lon="4.76574">
        <ele>170</ele>
        <time>2017-06-12T08:32:28Z</time>
      </trkpt>
      <trkpt lat="45.93162" lon="4.76579">
        <ele>171</ele>
        <time>2017-06-12T08:32:29Z</time>
      </trkpt>
      <trkpt lat="45.93166" lon="4.76584">
        <ele>171</ele>
        <time>2017-06-12T08:32:30Z</time>
      </trkpt>
      <trkpt lat="45.9317" lon="4.76589">
        <ele>171</ele>
        <time>2017-06-12T08:32:31Z</time>
      </trkpt>
      <trkpt lat="45.93175" lon="4.76593">
        <ele>171</ele>
        <time>2017-06-12T08:32:32Z</time>
      </trkpt>
      <trkpt lat="45.9318" lon="4.76597">
        <ele>171</ele>
        <time>2017-06-12T08:32:33Z</time>
      </trkpt>
      <trkpt lat="45.93184" lon="4.76601">
        <ele>171</ele>
        <time>2017-06-12T08:32:34Z</time>
      </trkpt>
      <trkpt lat="45.93189" lon="4.76605">
        <ele>171</ele>
        <time>2017-06-12T08:32:35Z</time>
      </trkpt>
      <trkpt lat="45.93194" lon="4.7661">
        <ele>170</ele>
        <time>2017-06-12T08:32:36Z</time>
      </trkpt>
      <trkpt lat="45.93199" lon="4.76615">
        <ele>170</ele>
        <time>2017-06-12T08:32:37Z</time>
      </trkpt>
      <trkpt lat="45.93204" lon="4.76619">
        <ele>170</ele>
        <time>2017-06-12T08:32:38Z</time>
      </trkpt>
      <trkpt lat="45.93209" lon="4.76624">
        <ele>170</ele>
        <time>2017-06-12T08:32:39Z</time>
      </trkpt>
      <trkpt lat="45.93214" lon="4.76629">
        <ele>171</ele>
        <time>2017-06-12T08:32:40Z</time>
      </trkpt>
      <trkpt lat="45.93219" lon="4.76633">
        <ele>171</ele>
        <time>2017-06-12T08:32:41Z</time>
      </trkpt>
      <trkpt lat="45.93224" lon="4.76637">
        <ele>171</ele>
        <time>2017-06-12T08:32:42Z</time>
      </trkpt>
      <trkpt lat="45.93228" lon="4.76641">
        <ele>171</ele>
        <time>2017-06-12T08:32:43Z</time>
      </trkpt>
      <trkpt lat="45.93233" lon="4.76646">
        <ele>171</ele>
        <time>2017-06-12T08:32:44Z</time>
      </trkpt>
      <trkpt lat="45.93237" lon="4.7665">
        <ele>171</ele>
        <time>2017-06-12T08:32:45Z</time>
      </trkpt>
      <trkpt lat="45.93241" lon="4.76654">
        <ele>171</ele>
        <time>2017-06-12T08:32:46Z</time>
      </trkpt>
      <trkpt lat="45.93245" lon="4.76658">
        <ele>171</ele>
        <time>2017-06-12T08:32:47Z</time>
      </trkpt>
      <trkpt lat="45.9325" lon="4.76662">
        <ele>172</ele>
        <time>2017-06-12T08:32:48Z</time>
      </trkpt>
      <trkpt lat="45.93254" lon="4.76666">
        <ele>172</ele>
        <time>2017-06-12T08:32:49Z</time>
      </trkpt>
      <trkpt lat="45.93258" lon="4.7667">
        <ele>172</ele>
        <time>2017-06-12T08:32:50Z</time>
      </trkpt>
      <trkpt lat="45.93262" lon="4.76675">
        <ele>172</ele>
        <time>2017-06-12T08:32:51Z</time>
      </trkpt>
      <trkpt lat="45.93267" lon="4.7668">
        <ele>172</ele>
        <time>2017-06-12T08:32:52Z</time>
      </trkpt>
      <trkpt lat="45.93271" lon="4.76685">
        <ele>172</ele>
        <time>2017-06-12T08:32:53Z</time>
      </trkpt>
      <trkpt lat="45.93276" lon="4.76689">
        <ele>172</ele>
        <time>2017-06-12T08:32:54Z</time>
      </trkpt>
      <trkpt lat="45.93281" lon="4.76695">
        <ele>172</ele>
        <time>2017-06-12T08:32:55Z</time>
      </trkpt>
      <trkpt lat="45.93285" lon="4.76699">
        <ele>172</ele>
        <time>2017-06-12T08:32:56Z</time>
      </trkpt>
      <trkpt lat="45.9329" lon="4.76704">
        <ele>172</ele>
        <time>2017-06-12T08:32:57Z</time>
      </trkpt>
      <trkpt lat="45.93294" lon="4.76709">
        <ele>172</ele>
        <time>2017-06-12T08:32:58Z</time>
      </trkpt>
      <trkpt lat="45.93298" lon="4.76714">
        <ele>172</ele>
        <time>2017-06-12T08:32:59Z</time>
      </trkpt>
      <trkpt lat="45.93302" lon="4.76719">
        <ele>172</ele>
        <time>2017-06-12T08:33:00Z</time>
      </trkpt>
      <trkpt lat="45.93306" lon="4.76723">
        <ele>172</ele>
        <time>2017-06-12T08:33:01Z</time>
      </trkpt>
      <trkpt lat="45.93311" lon="4.76728">
        <ele>172</ele>
        <time>2017-06-12T08:33:02Z</time>
      </trkpt>
      <trkpt lat="45.93315" lon="4.76733">
        <ele>172</ele>
        <time>2017-06-12T08:33:03Z</time>
      </trkpt>
      <trkpt lat="45.9332" lon="4.76737">
        <ele>172</ele>
        <time>2017-06-12T08:33:04Z</time>
      </trkpt>
      <trkpt lat="45.93324" lon="4.76741">
        <ele>172</ele>
        <time>2017-06-12T08:33:05Z</time>
      </trkpt>
      <trkpt lat="45.93328" lon="4.76746">
        <ele>173</ele>
        <time>2017-06-12T08:33:06Z</time>
      </trkpt>
      <trkpt lat="45.93333" lon="4.7675">
        <ele>173</ele>
        <time>2017-06-12T08:33:07Z</time>
      </trkpt>
      <trkpt lat="45.93337" lon="4.76754">
        <ele>173</ele>
        <time>2017-06-12T08:33:08Z</time>
      </trkpt>
      <trkpt lat="45.93341" lon="4.76758">
        <ele>172</ele>
        <time>2017-06-12T08:33:09Z</time>
      </trkpt>
      <trkpt lat="45.93346" lon="4.76762">
        <ele>172</ele>
        <time>2017-06-12T08:33:10Z</time>
      </trkpt>
      <trkpt lat="45.93351" lon="4.76767">
        <ele>172</ele>
        <time>2017-06-12T08:33:11Z</time>
      </trkpt>
      <trkpt lat="45.93355" lon="4.76772">
        <ele>172</ele>
        <time>2017-06-12T08:33:12Z</time>
      </trkpt>
      <trkpt lat="45.9336" lon="4.76776">
        <ele>172</ele>
        <time>2017-06-12T08:33:13Z</time>
      </trkpt>
      <trkpt lat="45.93365" lon="4.76781">
        <ele>172</ele>
        <time>2017-06-12T08:33:14Z</time>
      </trkpt>
      <trkpt lat="45.93369" lon="4.76786">
        <ele>172</ele>
        <time>2017-06-12T08:33:15Z</time>
      </trkpt>
      <trkpt lat="45.93374" lon="4.76791">
        <ele>172</ele>
        <time>2017-06-12T08:33:16Z</time>
      </trkpt>
      <trkpt lat="45.93379" lon="4.76796">
        <ele>172</ele>
        <time>2017-06-12T08:33:17Z</time>
      </trkpt>
      <trkpt lat="45.93383" lon="4.76801">
        <ele>172</ele>
        <time>2017-06-12T08:33:18Z</time>
      </trkpt>
      <trkpt lat="45.93387" lon="4.76806">
        <ele>172</ele>
        <time>2017-06-12T08:33:19Z</time>
      </trkpt>
      <trkpt lat="45.93392" lon="4.76812">
        <ele>172</ele>
        <time>2017-06-12T08:33:20Z</time>
      </trkpt>
      <trkpt lat="45.93396" lon="4.76817">
        <ele>172</ele>
        <time>2017-06-12T08:33:21Z</time>
      </trkpt>
      <trkpt lat="45.93399" lon="4.76822">
        <ele>172</ele>
        <time>2017-06-12T08:33:22Z</time>
      </trkpt>
      <trkpt lat="45.93403" lon="4.76828">
        <ele>172</ele>
        <time>2017-06-12T08:33:23Z</time>
      </trkpt>
      <trkpt lat="45.93406" lon="4.76833">
        <ele>172</ele>
        <time>2017-06-12T08:33:24Z</time>
      </trkpt>
      <trkpt lat="45.93409" lon="4.76839">
        <ele>172</ele>
        <time>2017-06-12T08:33:25Z</time>
      </trkpt>
      <trkpt lat="45.93413" lon="4.76844">
        <ele>172</ele>
        <time>2017-06-12T08:33:26Z</time>
      </trkpt>
      <trkpt lat="45.93416" lon="4.76851">
        <ele>172</ele>
        <time>2017-06-12T08:33:27Z</time>
      </trkpt>
      <trkpt lat="45.9342" lon="4.76857">
        <ele>171</ele>
        <time>2017-06-12T08:33:28Z</time>
      </trkpt>
      <trkpt lat="45.93423" lon="4.76864">
        <ele>171</ele>
        <time>2017-06-12T08:33:29Z</time>
      </trkpt>
      <trkpt lat="45.93426" lon="4.76871">
        <ele>171</ele>
        <time>2017-06-12T08:33:30Z</time>
      </trkpt>
      <trkpt lat="45.93429" lon="4.76878">
        <ele>171</ele>
        <time>2017-06-12T08:33:31Z</time>
      </trkpt>
      <trkpt lat="45.93432" lon="4.76885">
        <ele>171</ele>
        <time>2017-06-12T08:33:32Z</time>
      </trkpt>
      <trkpt lat="45.93434" lon="4.76892">
        <ele>171</ele>
        <time>2017-06-12T08:33:33Z</time>
      </trkpt>
      <trkpt lat="45.93436" lon="4.76899">
        <ele>171</ele>
        <time>2017-06-12T08:33:34Z</time>
      </trkpt>
      <trkpt lat="45.93439" lon="4.76907">
        <ele>171</ele>
        <time>2017-06-12T08:33:35Z</time>
      </trkpt>
      <trkpt lat="45.9344" lon="4.76914">
        <ele>170</ele>
        <time>2017-06-12T08:33:36Z</time>
      </trkpt>
      <trkpt lat="45.93442" lon="4.76921">
        <ele>170</ele>
        <time>2017-06-12T08:33:37Z</time>
      </trkpt>
      <trkpt lat="45.93444" lon="4.76928">
        <ele>170</ele>
        <time>2017-06-12T08:33:38Z</time>
      </trkpt>
      <trkpt lat="45.93445" lon="4.76935">
        <ele>170</ele>
        <time>2017-06-12T08:33:39Z</time>
      </trkpt>
      <trkpt lat="45.93446" lon="4.76942">
        <ele>170</ele>
        <time>2017-06-12T08:33:40Z</time>
      </trkpt>
      <trkpt lat="45.93447" lon="4.76949">
        <ele>170</ele>
        <time>2017-06-12T08:33:41Z</time>
      </trkpt>
      <trkpt lat="45.93448" lon="4.76956">
        <ele>170</ele>
        <time>2017-06-12T08:33:42Z</time>
      </trkpt>
      <trkpt lat="45.9345" lon="4.76964">
        <ele>170</ele>
        <time>2017-06-12T08:33:43Z</time>
      </trkpt>
      <trkpt lat="45.93451" lon="4.76971">
        <ele>170</ele>
        <time>2017-06-12T08:33:44Z</time>
      </trkpt>
      <trkpt lat="45.93452" lon="4.76978">
        <ele>170</ele>
        <time>2017-06-12T08:33:45Z</time>
      </trkpt>
      <trkpt lat="45.93453" lon="4.76986">
        <ele>170</ele>
        <time>2017-06-12T08:33:46Z</time>
      </trkpt>
      <trkpt lat="45.93455" lon="4.76994">
        <ele>170</ele>
        <time>2017-06-12T08:33:47Z</time>
      </trkpt>
      <trkpt lat="45.93456" lon="4.77002">
        <ele>170</ele>
        <time>2017-06-12T08:33:48Z</time>
      </trkpt>
      <trkpt lat="45.93457" lon="4.7701">
        <ele>170</ele>
        <time>2017-06-12T08:33:49Z</time>
      </trkpt>
      <trkpt lat="45.93459" lon="4.77017">
        <ele>170</ele>
        <time>2017-06-12T08:33:50Z</time>
      </trkpt>
      <trkpt lat="45.9346" lon="4.77025">
        <ele>170</ele>
        <time>2017-06-12T08:33:51Z</time>
      </trkpt>
      <trkpt lat="45.93461" lon="4.77032">
        <ele>170</ele>
        <time>2017-06-12T08:33:52Z</time>
      </trkpt>
      <trkpt lat="45.93462" lon="4.77039">
        <ele>170</ele>
        <time>2017-06-12T08:33:53Z</time>
      </trkpt>
      <trkpt lat="45.93463" lon="4.77046">
        <ele>170</ele>
        <time>2017-06-12T08:33:54Z</time>
      </trkpt>
      <trkpt lat="45.93464" lon="4.77054">
        <ele>170</ele>
        <time>2017-06-12T08:33:55Z</time>
      </trkpt>
      <trkpt lat="45.93466" lon="4.77061">
        <ele>170</ele>
        <time>2017-06-12T08:33:56Z</time>
      </trkpt>
      <trkpt lat="45.93467" lon="4.77068">
        <ele>170</ele>
        <time>2017-06-12T08:33:57Z</time>
      </trkpt>
      <trkpt lat="45.93469" lon="4.77076">
        <ele>170</ele>
        <time>2017-06-12T08:33:58Z</time>
      </trkpt>
      <trkpt lat="45.9347" lon="4.77084">
        <ele>170</ele>
        <time>2017-06-12T08:33:59Z</time>
      </trkpt>
      <trkpt lat="45.93471" lon="4.77091">
        <ele>169</ele>
        <time>2017-06-12T08:34:00Z</time>
      </trkpt>
      <trkpt lat="45.93472" lon="4.77099">
        <ele>169</ele>
        <time>2017-06-12T08:34:01Z</time>
      </trkpt>
      <trkpt lat="45.93474" lon="4.77106">
        <ele>169</ele>
        <time>2017-06-12T08:34:02Z</time>
      </trkpt>
      <trkpt lat="45.93475" lon="4.77114">
        <ele>169</ele>
        <time>2017-06-12T08:34:03Z</time>
      </trkpt>
      <trkpt lat="45.93477" lon="4.77122">
        <ele>169</ele>
        <time>2017-06-12T08:34:04Z</time>
      </trkpt>
      <trkpt lat="45.93478" lon="4.7713">
        <ele>169</ele>
        <time>2017-06-12T08:34:05Z</time>
      </trkpt>
      <trkpt lat="45.9348" lon="4.77137">
        <ele>169</ele>
        <time>2017-06-12T08:34:06Z</time>
      </trkpt>
      <trkpt lat="45.93482" lon="4.77144">
        <ele>169</ele>
        <time>2017-06-12T08:34:07Z</time>
      </trkpt>
      <trkpt lat="45.93483" lon="4.77152">
        <ele>169</ele>
        <time>2017-06-12T08:34:08Z</time>
      </trkpt>
      <trkpt lat="45.93484" lon="4.77159">
        <ele>169</ele>
        <time>2017-06-12T08:34:09Z</time>
      </trkpt>
      <trkpt lat="45.93486" lon="4.77166">
        <ele>169</ele>
        <time>2017-06-12T08:34:10Z</time>
      </trkpt>
      <trkpt lat="45.93487" lon="4.77174">
        <ele>169</ele>
        <time>2017-06-12T08:34:11Z</time>
      </trkpt>
      <trkpt lat="45.93489" lon="4.77182">
        <ele>169</ele>
        <time>2017-06-12T08:34:12Z</time>
      </trkpt>
      <trkpt lat="45.93491" lon="4.7719">
        <ele>169</ele>
        <time>2017-06-12T08:34:13Z</time>
      </trkpt>
      <trkpt lat="45.93492" lon="4.77198">
        <ele>169</ele>
        <time>2017-06-12T08:34:14Z</time>
      </trkpt>
      <trkpt lat="45.93494" lon="4.77206">
        <ele>169</ele>
        <time>2017-06-12T08:34:15Z</time>
      </trkpt>
      <trkpt lat="45.93496" lon="4.77213">
        <ele>169</ele>
        <time>2017-06-12T08:34:16Z</time>
      </trkpt>
      <trkpt lat="45.93497" lon="4.77221">
        <ele>169</ele>
        <time>2017-06-12T08:34:17Z</time>
      </trkpt>
      <trkpt lat="45.93499" lon="4.7723">
        <ele>170</ele>
        <time>2017-06-12T08:34:18Z</time>
      </trkpt>
      <trkpt lat="45.93501" lon="4.77238">
        <ele>169</ele>
        <time>2017-06-12T08:34:19Z</time>
      </trkpt>
      <trkpt lat="45.93503" lon="4.77246">
        <ele>170</ele>
        <time>2017-06-12T08:34:20Z</time>
      </trkpt>
      <trkpt lat="45.93504" lon="4.77254">
        <ele>170</ele>
        <time>2017-06-12T08:34:21Z</time>
      </trkpt>
      <trkpt lat="45.93506" lon="4.77262">
        <ele>170</ele>
        <time>2017-06-12T08:34:22Z</time>
      </trkpt>
      <trkpt lat="45.93508" lon="4.77269">
        <ele>170</ele>
        <time>2017-06-12T08:34:23Z</time>
      </trkpt>
      <trkpt lat="45.9351" lon="4.77277">
        <ele>170</ele>
        <time>2017-06-12T08:34:24Z</time>
      </trkpt>
      <trkpt lat="45.93512" lon="4.77284">
        <ele>170</ele>
        <time>2017-06-12T08:34:25Z</time>
      </trkpt>
      <trkpt lat="45.93513" lon="4.77291">
        <ele>170</ele>
        <time>2017-06-12T08:34:26Z</time>
      </trkpt>
      <trkpt lat="45.93515" lon="4.77298">
        <ele>170</ele>
        <time>2017-06-12T08:34:27Z</time>
      </trkpt>
      <trkpt lat="45.93516" lon="4.77304">
        <ele>170</ele>
        <time>2017-06-12T08:34:28Z</time>
      </trkpt>
      <trkpt lat="45.93517" lon="4.77312">
        <ele>170</ele>
        <time>2017-06-12T08:34:29Z</time>
      </trkpt>
      <trkpt lat="45.93519" lon="4.77319">
        <ele>170</ele>
        <time>2017-06-12T08:34:30Z</time>
      </trkpt>
      <trkpt lat="45.93521" lon="4.77326">
        <ele>170</ele>
        <time>2017-06-12T08:34:31Z</time>
      </trkpt>
      <trkpt lat="45.93522" lon="4.77333">
        <ele>170</ele>
        <time>2017-06-12T08:34:32Z</time>
      </trkpt>
      <trkpt lat="45.93524" lon="4.77341">
        <ele>170</ele>
        <time>2017-06-12T08:34:33Z</time>
      </trkpt>
      <trkpt lat="45.93526" lon="4.77348">
        <ele>170</ele>
        <time>2017-06-12T08:34:34Z</time>
      </trkpt>
      <trkpt lat="45.93527" lon="4.77356">
        <ele>170</ele>
        <time>2017-06-12T08:34:35Z</time>
      </trkpt>
      <trkpt lat="45.93529" lon="4.77363">
        <ele>170</ele>
        <time>2017-06-12T08:34:36Z</time>
      </trkpt>
      <trkpt lat="45.93531" lon="4.77371">
        <ele>170</ele>
        <time>2017-06-12T08:34:37Z</time>
      </trkpt>
      <trkpt lat="45.93532" lon="4.77379">
        <ele>170</ele>
        <time>2017-06-12T08:34:38Z</time>
      </trkpt>
      <trkpt lat="45.93534" lon="4.77387">
        <ele>170</ele>
        <time>2017-06-12T08:34:39Z</time>
      </trkpt>
      <trkpt lat="45.93536" lon="4.77394">
        <ele>170</ele>
        <time>2017-06-12T08:34:40Z</time>
      </trkpt>
      <trkpt lat="45.93537" lon="4.77402">
        <ele>170</ele>
        <time>2017-06-12T08:34:41Z</time>
      </trkpt>
      <trkpt lat="45.93539" lon="4.77409">
        <ele>170</ele>
        <time>2017-06-12T08:34:42Z</time>
      </trkpt>
      <trkpt lat="45.9354" lon="4.77416">
        <ele>170</ele>
        <time>2017-06-12T08:34:43Z</time>
      </trkpt>
      <trkpt lat="45.93541" lon="4.77423">
        <ele>170</ele>
        <time>2017-06-12T08:34:44Z</time>
      </trkpt>
      <trkpt lat="45.93543" lon="4.7743">
        <ele>169</ele>
        <time>2017-06-12T08:34:45Z</time>
      </trkpt>
      <trkpt lat="45.93545" lon="4.77437">
        <ele>169</ele>
        <time>2017-06-12T08:34:46Z</time>
      </trkpt>
      <trkpt lat="45.93547" lon="4.77445">
        <ele>169</ele>
        <time>2017-06-12T08:34:47Z</time>
      </trkpt>
      <trkpt lat="45.93549" lon="4.77452">
        <ele>169</ele>
        <time>2017-06-12T08:34:48Z</time>
      </trkpt>
      <trkpt lat="45.9355" lon="4.77459">
        <ele>169</ele>
        <time>2017-06-12T08:34:49Z</time>
      </trkpt>
      <trkpt lat="45.93552" lon="4.77467">
        <ele>169</ele>
        <time>2017-06-12T08:34:50Z</time>
      </trkpt>
      <trkpt lat="45.93554" lon="4.77475">
        <ele>169</ele>
        <time>2017-06-12T08:34:51Z</time>
      </trkpt>
      <trkpt lat="45.93556" lon="4.77483">
        <ele>169</ele>
        <time>2017-06-12T08:34:52Z</time>
      </trkpt>
      <trkpt lat="45.93557" lon="4.7749">
        <ele>169</ele>
        <time>2017-06-12T08:34:53Z</time>
      </trkpt>
      <trkpt lat="45.93559" lon="4.77498">
        <ele>169</ele>
        <time>2017-06-12T08:34:54Z</time>
      </trkpt>
      <trkpt lat="45.93561" lon="4.77505">
        <ele>169</ele>
        <time>2017-06-12T08:34:55Z</time>
      </trkpt>
      <trkpt lat="45.93562" lon="4.77512">
        <ele>169</ele>
        <time>2017-06-12T08:34:56Z</time>
      </trkpt>
      <trkpt lat="45.93564" lon="4.77519">
        <ele>169</ele>
        <time>2017-06-12T08:34:57Z</time>
      </trkpt>
      <trkpt lat="45.93565" lon="4.77526">
        <ele>169</ele>
        <time>2017-06-12T08:34:58Z</time>
      </trkpt>
      <trkpt lat="45.93566" lon="4.77532">
        <ele>169</ele>
        <time>2017-06-12T08:34:59Z</time>
      </trkpt>
      <trkpt lat="45.93568" lon="4.7754">
        <ele>169</ele>
        <time>2017-06-12T08:35:00Z</time>
      </trkpt>
      <trkpt lat="45.9357" lon="4.77547">
        <ele>169</ele>
        <time>2017-06-12T08:35:01Z</time>
      </trkpt>
      <trkpt lat="45.93572" lon="4.77554">
        <ele>169</ele>
        <time>2017-06-12T08:35:02Z</time>
      </trkpt>
      <trkpt lat="45.93574" lon="4.77561">
        <ele>169</ele>
        <time>2017-06-12T08:35:03Z</time>
      </trkpt>
      <trkpt lat="45.93577" lon="4.77568">
        <ele>170</ele>
        <time>2017-06-12T08:35:04Z</time>
      </trkpt>
      <trkpt lat="45.93579" lon="4.77575">
        <ele>170</ele>
        <time>2017-06-12T08:35:05Z</time>
      </trkpt>
      <trkpt lat="45.93581" lon="4.77582">
        <ele>170</ele>
        <time>2017-06-12T08:35:06Z</time>
      </trkpt>
      <trkpt lat="45.93584" lon="4.77589">
        <ele>170</ele>
        <time>2017-06-12T08:35:07Z</time>
      </trkpt>
      <trkpt lat="45.93586" lon="4.77596">
        <ele>170</ele>
        <time>2017-06-12T08:35:08Z</time>
      </trkpt>
      <trkpt lat="45.93588" lon="4.77602">
        <ele>170</ele>
        <time>2017-06-12T08:35:09Z</time>
      </trkpt>
      <trkpt lat="45.9359" lon="4.77609">
        <ele>170</ele>
        <time>2017-06-12T08:35:10Z</time>
      </trkpt>
      <trkpt lat="45.93592" lon="4.77615">
        <ele>170</ele>
        <time>2017-06-12T08:35:11Z</time>
      </trkpt>
      <trkpt lat="45.93594" lon="4.77621">
        <ele>170</ele>
        <time>2017-06-12T08:35:12Z</time>
      </trkpt>
      <trkpt lat="45.93596" lon="4.77627">
        <ele>169</ele>
        <time>2017-06-12T08:35:13Z</time>
      </trkpt>
      <trkpt lat="45.93598" lon="4.77634">
        <ele>169</ele>
        <time>2017-06-12T08:35:14Z</time>
      </trkpt>
      <trkpt lat="45.93601" lon="4.7764">
        <ele>169</ele>
        <time>2017-06-12T08:35:15Z</time>
      </trkpt>
      <trkpt lat="45.93604" lon="4.77647">
        <ele>169</ele>
        <time>2017-06-12T08:35:16Z</time>
      </trkpt>
      <trkpt lat="45.93607" lon="4.77654">
        <ele>169</ele>
        <time>2017-06-12T08:35:17Z</time>
      </trkpt>
      <trkpt lat="45.9361" lon="4.77661">
        <ele>169</ele>
        <time>2017-06-12T08:35:18Z</time>
      </trkpt>
      <trkpt lat="45.93613" lon="4.77668">
        <ele>169</ele>
        <time>2017-06-12T08:35:19Z</time>
      </trkpt>
      <trkpt lat="45.93615" lon="4.77674">
        <ele>169</ele>
        <time>2017-06-12T08:35:20Z</time>
      </trkpt>
      <trkpt lat="45.93618" lon="4.7768">
        <ele>169</ele>
        <time>2017-06-12T08:35:21Z</time>
      </trkpt>
      <trkpt lat="45.93621" lon="4.77686">
        <ele>169</ele>
        <time>2017-06-12T08:35:22Z</time>
      </trkpt>
      <trkpt lat="45.93624" lon="4.77692">
        <ele>169</ele>
        <time>2017-06-12T08:35:23Z</time>
      </trkpt>
      <trkpt lat="45.93627" lon="4.77699">
        <ele>169</ele>
        <time>2017-06-12T08:35:24Z</time>
      </trkpt>
      <trkpt lat="45.9363" lon="4.77705">
        <ele>170</ele>
        <time>2017-06-12T08:35:25Z</time>
      </trkpt>
      <trkpt lat="45.93633" lon="4.77711">
        <ele>170</ele>
        <time>2017-06-12T08:35:26Z</time>
      </trkpt>
      <trkpt lat="45.93637" lon="4.77717">
        <ele>170</ele>
        <time>2017-06-12T08:35:27Z</time>
      </trkpt>
      <trkpt lat="45.9364" lon="4.77723">
        <ele>170</ele>
        <time>2017-06-12T08:35:28Z</time>
      </trkpt>
      <trkpt lat="45.93644" lon="4.77729">
        <ele>170</ele>
        <time>2017-06-12T08:35:29Z</time>
      </trkpt>
      <trkpt lat="45.93647" lon="4.77735">
        <ele>170</ele>
        <time>2017-06-12T08:35:30Z</time>
      </trkpt>
      <trkpt lat="45.93651" lon="4.77741">
        <ele>170</ele>
        <time>2017-06-12T08:35:31Z</time>
      </trkpt>
      <trkpt lat="45.93654" lon="4.77747">
        <ele>170</ele>
        <time>2017-06-12T08:35:32Z</time>
      </trkpt>
      <trkpt lat="45.93657" lon="4.77752">
        <ele>171</ele>
        <time>2017-06-12T08:35:33Z</time>
      </trkpt>
      <trkpt lat="45.93661" lon="4.77757">
        <ele>171</ele>
        <time>2017-06-12T08:35:34Z</time>
      </trkpt>
      <trkpt lat="45.93665" lon="4.77761">
        <ele>171</ele>
        <time>2017-06-12T08:35:35Z</time>
      </trkpt>
      <trkpt lat="45.93669" lon="4.77766">
        <ele>170</ele>
        <time>2017-06-12T08:35:36Z</time>
      </trkpt>
      <trkpt lat="45.93672" lon="4.77771">
        <ele>170</ele>
        <time>2017-06-12T08:35:37Z</time>
      </trkpt>
      <trkpt lat="45.93675" lon="4.77776">
        <ele>170</ele>
        <time>2017-06-12T08:35:38Z</time>
      </trkpt>
      <trkpt lat="45.93678" lon="4.77781">
        <ele>170</ele>
        <time>2017-06-12T08:35:39Z</time>
      </trkpt>
      <trkpt lat="45.93682" lon="4.77787">
        <ele>170</ele>
        <time>2017-06-12T08:35:40Z</time>
      </trkpt>
      <trkpt lat="45.93685" lon="4.77791">
        <ele>170</ele>
        <time>2017-06-12T08:35:41Z</time>
      </trkpt>
      <trkpt lat="45.93689" lon="4.77795">
        <ele>169</ele>
        <time>2017-06-12T08:35:42Z</time>
      </trkpt>
      <trkpt lat="45.93695" lon="4.77802">
        <ele>169</ele>
        <time>2017-06-12T08:35:44Z</time>
      </trkpt>
      <trkpt lat="45.93697" lon="4.77805">
        <ele>169</ele>
        <time>2017-06-12T08:35:45Z</time>
      </trkpt>
      <trkpt lat="45.93703" lon="4.77813">
        <ele>169</ele>
        <time>2017-06-12T08:35:47Z</time>
      </trkpt>
      <trkpt lat="45.93706" lon="4.77817">
        <ele>169</ele>
        <time>2017-06-12T08:35:48Z</time>
      </trkpt>
      <trkpt lat="45.93711" lon="4.77825">
        <ele>169</ele>
        <time>2017-06-12T08:35:50Z</time>
      </trkpt>
      <trkpt lat="45.93714" lon="4.77829">
        <ele>169</ele>
        <time>2017-06-12T08:35:51Z</time>
      </trkpt>
      <trkpt lat="45.9372" lon="4.77837">
        <ele>167</ele>
        <time>2017-06-12T08:35:53Z</time>
      </trkpt>
      <trkpt lat="45.93722" lon="4.7784">
        <ele>167</ele>
        <time>2017-06-12T08:35:54Z</time>
      </trkpt>
      <trkpt lat="45.93727" lon="4.77847">
        <ele>167</ele>
        <time>2017-06-12T08:35:56Z</time>
      </trkpt>
      <trkpt lat="45.9373" lon="4.77851">
        <ele>167</ele>
        <time>2017-06-12T08:35:57Z</time>
      </trkpt>
      <trkpt lat="45.93735" lon="4.77858">
        <ele>167</ele>
        <time>2017-06-12T08:35:59Z</time>
      </trkpt>
      <trkpt lat="45.93737" lon="4.77861">
        <ele>167</ele>
        <time>2017-06-12T08:36:00Z</time>
      </trkpt>
      <trkpt lat="45.93743" lon="4.77868">
        <ele>167</ele>
        <time>2017-06-12T08:36:02Z</time>
      </trkpt>
      <trkpt lat="45.93746" lon="4.77872">
        <ele>167</ele>
        <time>2017-06-12T08:36:03Z</time>
      </trkpt>
      <trkpt lat="45.93751" lon="4.77878">
        <ele>166</ele>
        <time>2017-06-12T08:36:05Z</time>
      </trkpt>
      <trkpt lat="45.93754" lon="4.77882">
        <ele>166</ele>
        <time>2017-06-12T08:36:06Z</time>
      </trkpt>
      <trkpt lat="45.93759" lon="4.77888">
        <ele>166</ele>
        <time>2017-06-12T08:36:08Z</time>
      </trkpt>
      <trkpt lat="45.93762" lon="4.77892">
        <ele>166</ele>
        <time>2017-06-12T08:36:09Z</time>
      </trkpt>
      <trkpt lat="45.93768" lon="4.779">
        <ele>166</ele>
        <time>2017-06-12T08:36:11Z</time>
      </trkpt>
      <trkpt lat="45.93771" lon="4.77903">
        <ele>166</ele>
        <time>2017-06-12T08:36:12Z</time>
      </trkpt>
      <trkpt lat="45.93776" lon="4.77911">
        <ele>166</ele>
        <time>2017-06-12T08:36:14Z</time>
      </trkpt>
      <trkpt lat="45.93779" lon="4.77915">
        <ele>166</ele>
        <time>2017-06-12T08:36:15Z</time>
      </trkpt>
      <trkpt lat="45.93785" lon="4.77922">
        <ele>168</ele>
        <time>2017-06-12T08:36:17Z</time>
      </trkpt>
      <trkpt lat="45.93788" lon="4.77926">
        <ele>168</ele>
        <time>2017-06-12T08:36:18Z</time>
      </trkpt>
      <trkpt lat="45.93793" lon="4.77933">
        <ele>168</ele>
        <time>2017-06-12T08:36:20Z</time>
      </trkpt>
      <trkpt lat="45.93796" lon="4.77937">
        <ele>169</ele>
        <time>2017-06-12T08:36:21Z</time>
      </trkpt>
      <trkpt lat="45.93802" lon="4.77945">
        <ele>169</ele>
        <time>2017-06-12T08:36:23Z</time>
      </trkpt>
      <trkpt lat="45.93805" lon="4.77949">
        <ele>169</ele>
        <time>2017-06-12T08:36:24Z</time>
      </trkpt>
      <trkpt lat="45.93808" lon="4.77953">
        <ele>170</ele>
        <time>2017-06-12T08:36:25Z</time>
      </trkpt>
      <trkpt lat="45.93812" lon="4.77957">
        <ele>170</ele>
        <time>2017-06-12T08:36:26Z</time>
      </trkpt>
      <trkpt lat="45.93816" lon="4.77962">
        <ele>170</ele>
        <time>2017-06-12T08:36:27Z</time>
      </trkpt>
      <trkpt lat="45.93819" lon="4.77966">
        <ele>171</ele>
        <time>2017-06-12T08:36:28Z</time>
      </trkpt>
      <trkpt lat="45.93823" lon="4.7797">
        <ele>172</ele>
        <time>2017-06-12T08:36:29Z</time>
      </trkpt>
      <trkpt lat="45.93827" lon="4.77975">
        <ele>172</ele>
        <time>2017-06-12T08:36:30Z</time>
      </trkpt>
      <trkpt lat="45.93831" lon="4.7798">
        <ele>173</ele>
        <time>2017-06-12T08:36:31Z</time>
      </trkpt>
      <trkpt lat="45.93834" lon="4.77986">
        <ele>178</ele>
        <time>2017-06-12T08:36:32Z</time>
      </trkpt>
      <trkpt lat="45.93837" lon="4.77994">
        <ele>179</ele>
        <time>2017-06-12T08:36:33Z</time>
      </trkpt>
      <trkpt lat="45.93839" lon="4.78001">
        <ele>180</ele>
        <time>2017-06-12T08:36:34Z</time>
      </trkpt>
      <trkpt lat="45.9384" lon="4.7801">
        <ele>181</ele>
        <time>2017-06-12T08:36:35Z</time>
      </trkpt>
      <trkpt lat="45.93841" lon="4.78018">
        <ele>181</ele>
        <time>2017-06-12T08:36:36Z</time>
      </trkpt>
      <trkpt lat="45.93842" lon="4.78026">
        <ele>182</ele>
        <time>2017-06-12T08:36:37Z</time>
      </trkpt>
      <trkpt lat="45.93843" lon="4.78033">
        <ele>182</ele>
        <time>2017-06-12T08:36:38Z</time>
      </trkpt>
      <trkpt lat="45.93844" lon="4.7804">
        <ele>182</ele>
        <time>2017-06-12T08:36:39Z</time>
      </trkpt>
      <trkpt lat="45.93845" lon="4.78047">
        <ele>182</ele>
        <time>2017-06-12T08:36:40Z</time>
      </trkpt>
      <trkpt lat="45.93844" lon="4.78059">
        <ele>182</ele>
        <time>2017-06-12T08:36:42Z</time>
      </trkpt>
      <trkpt lat="45.93843" lon="4.78065">
        <ele>182</ele>
        <time>2017-06-12T08:36:43Z</time>
      </trkpt>
      <trkpt lat="45.9384" lon="4.78077">
        <ele>181</ele>
        <time>2017-06-12T08:36:45Z</time>
      </trkpt>
      <trkpt lat="45.93838" lon="4.78083">
        <ele>181</ele>
        <time>2017-06-12T08:36:46Z</time>
      </trkpt>
      <trkpt lat="45.93836" lon="4.78089">
        <ele>181</ele>
        <time>2017-06-12T08:36:47Z</time>
      </trkpt>
      <trkpt lat="45.93834" lon="4.78096">
        <ele>182</ele>
        <time>2017-06-12T08:36:48Z</time>
      </trkpt>
      <trkpt lat="45.93833" lon="4.78103">
        <ele>179</ele>
        <time>2017-06-12T08:36:49Z</time>
      </trkpt>
      <trkpt lat="45.93831" lon="4.78109">
        <ele>179</ele>
        <time>2017-06-12T08:36:50Z</time>
      </trkpt>
      <trkpt lat="45.9383" lon="4.78116">
        <ele>179</ele>
        <time>2017-06-12T08:36:51Z</time>
      </trkpt>
      <trkpt lat="45.93829" lon="4.78122">
        <ele>180</ele>
        <time>2017-06-12T08:36:52Z</time>
      </trkpt>
      <trkpt lat="45.93827" lon="4.78128">
        <ele>180</ele>
        <time>2017-06-12T08:36:53Z</time>
      </trkpt>
      <trkpt lat="45.93825" lon="4.78134">
        <ele>180</ele>
        <time>2017-06-12T08:36:54Z</time>
      </trkpt>
      <trkpt lat="45.93823" lon="4.78141">
        <ele>180</ele>
        <time>2017-06-12T08:36:55Z</time>
      </trkpt>
      <trkpt lat="45.93821" lon="4.78147">
        <ele>180</ele>
        <time>2017-06-12T08:36:56Z</time>
      </trkpt>
      <trkpt lat="45.9382" lon="4.78154">
        <ele>180</ele>
        <time>2017-06-12T08:36:57Z</time>
      </trkpt>
      <trkpt lat="45.93818" lon="4.7816">
        <ele>180</ele>
        <time>2017-06-12T08:36:58Z</time>
      </trkpt>
      <trkpt lat="45.93816" lon="4.78167">
        <ele>180</ele>
        <time>2017-06-12T08:36:59Z</time>
      </trkpt>
      <trkpt lat="45.93815" lon="4.78173">
        <ele>182</ele>
        <time>2017-06-12T08:37:00Z</time>
      </trkpt>
      <trkpt lat="45.93812" lon="4.78184">
        <ele>182</ele>
        <time>2017-06-12T08:37:02Z</time>
      </trkpt>
      <trkpt lat="45.93812" lon="4.7819">
        <ele>182</ele>
        <time>2017-06-12T08:37:03Z</time>
      </trkpt>
      <trkpt lat="45.93811" lon="4.78196">
        <ele>182</ele>
        <time>2017-06-12T08:37:04Z</time>
      </trkpt>
      <trkpt lat="45.93809" lon="4.78203">
        <ele>182</ele>
        <time>2017-06-12T08:37:05Z</time>
      </trkpt>
      <trkpt lat="45.93805" lon="4.78213">
        <ele>182</ele>
        <time>2017-06-12T08:37:07Z</time>
      </trkpt>
      <trkpt lat="45.93803" lon="4.78218">
        <ele>182</ele>
        <time>2017-06-12T08:37:08Z</time>
      </trkpt>
      <trkpt lat="45.938" lon="4.78224">
        <ele>182</ele>
        <time>2017-06-12T08:37:09Z</time>
      </trkpt>
      <trkpt lat="45.93798" lon="4.78229">
        <ele>182</ele>
        <time>2017-06-12T08:37:10Z</time>
      </trkpt>
      <trkpt lat="45.93795" lon="4.78234">
        <ele>182</ele>
        <time>2017-06-12T08:37:11Z</time>
      </trkpt>
      <trkpt lat="45.93792" lon="4.78239">
        <ele>182</ele>
        <time>2017-06-12T08:37:12Z</time>
      </trkpt>
      <trkpt lat="45.9379" lon="4.78246">
        <ele>182</ele>
        <time>2017-06-12T08:37:13Z</time>
      </trkpt>
      <trkpt lat="45.93789" lon="4.78253">
        <ele>183</ele>
        <time>2017-06-12T08:37:14Z</time>
      </trkpt>
      <trkpt lat="45.93788" lon="4.7826">
        <ele>183</ele>
        <time>2017-06-12T08:37:15Z</time>
      </trkpt>
      <trkpt lat="45.93787" lon="4.78267">
        <ele>183</ele>
        <time>2017-06-12T08:37:16Z</time>
      </trkpt>
      <trkpt lat="45.93785" lon="4.78274">
        <ele>183</ele>
        <time>2017-06-12T08:37:17Z</time>
      </trkpt>
      <trkpt lat="45.93783" lon="4.78281">
        <ele>183</ele>
        <time>2017-06-12T08:37:18Z</time>
      </trkpt>
      <trkpt lat="45.93781" lon="4.78288">
        <ele>183</ele>
        <time>2017-06-12T08:37:19Z</time>
      </trkpt>
      <trkpt lat="45.93778" lon="4.78294">
        <ele>183</ele>
        <time>2017-06-12T08:37:20Z</time>
      </trkpt>
      <trkpt lat="45.93776" lon="4.78301">
        <ele>183</ele>
        <time>2017-06-12T08:37:21Z</time>
      </trkpt>
      <trkpt lat="45.93774" lon="4.78308">
        <ele>183</ele>
        <time>2017-06-12T08:37:22Z</time>
      </trkpt>
      <trkpt lat="45.93771" lon="4.78315">
        <ele>183</ele>
        <time>2017-06-12T08:37:23Z</time>
      </trkpt>
      <trkpt lat="45.93769" lon="4.78323">
        <ele>183</ele>
        <time>2017-06-12T08:37:24Z</time>
      </trkpt>
      <trkpt lat="45.93767" lon="4.78331">
        <ele>183</ele>
        <time>2017-06-12T08:37:25Z</time>
      </trkpt>
      <trkpt lat="45.93765" lon="4.78339">
        <ele>183</ele>
        <time>2017-06-12T08:37:26Z</time>
      </trkpt>
      <trkpt lat="45.93763" lon="4.78346">
        <ele>183</ele>
        <time>2017-06-12T08:37:27Z</time>
      </trkpt>
      <trkpt lat="45.93761" lon="4.78354">
        <ele>183</ele>
        <time>2017-06-12T08:37:28Z</time>
      </trkpt>
      <trkpt lat="45.93759" lon="4.78362">
        <ele>183</ele>
        <time>2017-06-12T08:37:29Z</time>
      </trkpt>
      <trkpt lat="45.93757" lon="4.7837">
        <ele>183</ele>
        <time>2017-06-12T08:37:30Z</time>
      </trkpt>
      <trkpt lat="45.93755" lon="4.78378">
        <ele>183</ele>
        <time>2017-06-12T08:37:31Z</time>
      </trkpt>
      <trkpt lat="45.93752" lon="4.78386">
        <ele>183</ele>
        <time>2017-06-12T08:37:32Z</time>
      </trkpt>
      <trkpt lat="45.93751" lon="4.78394">
        <ele>183</ele>
        <time>2017-06-12T08:37:33Z</time>
      </trkpt>
      <trkpt lat="45.93749" lon="4.78403">
        <ele>181</ele>
        <time>2017-06-12T08:37:34Z</time>
      </trkpt>
      <trkpt lat="45.93747" lon="4.78412">
        <ele>181</ele>
        <time>2017-06-12T08:37:35Z</time>
      </trkpt>
      <trkpt lat="45.93746" lon="4.78421">
        <ele>181</ele>
        <time>2017-06-12T08:37:36Z</time>
      </trkpt>
      <trkpt lat="45.93744" lon="4.78429">
        <ele>180</ele>
        <time>2017-06-12T08:37:37Z</time>
      </trkpt>
      <trkpt lat="45.93742" lon="4.78438">
        <ele>180</ele>
        <time>2017-06-12T08:37:38Z</time>
      </trkpt>
      <trkpt lat="45.93739" lon="4.78447">
        <ele>180</ele>
        <time>2017-06-12T08:37:39Z</time>
      </trkpt>
      <trkpt lat="45.93737" lon="4.78456">
        <ele>180</ele>
        <time>2017-06-12T08:37:40Z</time>
      </trkpt>
      <trkpt lat="45.93735" lon="4.78465">
        <ele>180</ele>
        <time>2017-06-12T08:37:41Z</time>
      </trkpt>
      <trkpt lat="45.93732" lon="4.78474">
        <ele>180</ele>
        <time>2017-06-12T08:37:42Z</time>
      </trkpt>
      <trkpt lat="45.93729" lon="4.78483">
        <ele>180</ele>
        <time>2017-06-12T08:37:43Z</time>
      </trkpt>
      <trkpt lat="45.93727" lon="4.78493">
        <ele>180</ele>
        <time>2017-06-12T08:37:44Z</time>
      </trkpt>
      <trkpt lat="45.93724" lon="4.78503">
        <ele>179</ele>
        <time>2017-06-12T08:37:45Z</time>
      </trkpt>
      <trkpt lat="45.93721" lon="4.78513">
        <ele>179</ele>
        <time>2017-06-12T08:37:46Z</time>
      </trkpt>
      <trkpt lat="45.93719" lon="4.78524">
        <ele>178</ele>
        <time>2017-06-12T08:37:47Z</time>
      </trkpt>
      <trkpt lat="45.93716" lon="4.78534">
        <ele>178</ele>
        <time>2017-06-12T08:37:48Z</time>
      </trkpt>
      <trkpt lat="45.93714" lon="4.78545">
        <ele>178</ele>
        <time>2017-06-12T08:37:49Z</time>
      </trkpt>
      <trkpt lat="45.93711" lon="4.78555">
        <ele>178</ele>
        <time>2017-06-12T08:37:50Z</time>
      </trkpt>
      <trkpt lat="45.93709" lon="4.78564">
        <ele>177</ele>
        <time>2017-06-12T08:37:51Z</time>
      </trkpt>
      <trkpt lat="45.93707" lon="4.78574">
        <ele>177</ele>
        <time>2017-06-12T08:37:52Z</time>
      </trkpt>
      <trkpt lat="45.93706" lon="4.78581">
        <ele>177</ele>
        <time>2017-06-12T08:37:53Z</time>
      </trkpt>
      <trkpt lat="45.93705" lon="4.78587">
        <ele>176</ele>
        <time>2017-06-12T08:37:54Z</time>
      </trkpt>
      <trkpt lat="45.93704" lon="4.78593">
        <ele>176</ele>
        <time>2017-06-12T08:37:56Z</time>
      </trkpt>
      <trkpt lat="45.93704" lon="4.78594">
        <ele>176</ele>
        <time>2017-06-12T08:37:57Z</time>
      </trkpt>
      <trkpt lat="45.93703" lon="4.78596">
        <ele>176</ele>
        <time>2017-06-12T08:38:01Z</time>
      </trkpt>
      <trkpt lat="45.93702" lon="4.786">
        <ele>176</ele>
        <time>2017-06-12T08:38:02Z</time>
      </trkpt>
      <trkpt lat="45.93699" lon="4.78606">
        <ele>176</ele>
        <time>2017-06-12T08:38:04Z</time>
      </trkpt>
      <trkpt lat="45.93697" lon="4.7861">
        <ele>176</ele>
        <time>2017-06-12T08:38:05Z</time>
      </trkpt>
      <trkpt lat="45.93696" lon="4.7862">
        <ele>176</ele>
        <time>2017-06-12T08:38:07Z</time>
      </trkpt>
      <trkpt lat="45.93697" lon="4.78625">
        <ele>176</ele>
        <time>2017-06-12T08:38:08Z</time>
      </trkpt>
      <trkpt lat="45.937" lon="4.78631">
        <ele>176</ele>
        <time>2017-06-12T08:38:09Z</time>
      </trkpt>
      <trkpt lat="45.93704" lon="4.78633">
        <ele>176</ele>
        <time>2017-06-12T08:38:10Z</time>
      </trkpt>
      <trkpt lat="45.93713" lon="4.78633">
        <ele>176</ele>
        <time>2017-06-12T08:38:12Z</time>
      </trkpt>
      <trkpt lat="45.93716" lon="4.78633">
        <ele>176</ele>
        <time>2017-06-12T08:38:13Z</time>
      </trkpt>
      <trkpt lat="45.93725" lon="4.78632">
        <ele>177</ele>
        <time>2017-06-12T08:38:16Z</time>
      </trkpt>
      <trkpt lat="45.93727" lon="4.78632">
        <ele>177</ele>
        <time>2017-06-12T08:38:17Z</time>
      </trkpt>
      <trkpt lat="45.93734" lon="4.78632">
        <ele>177</ele>
        <time>2017-06-12T08:38:21Z</time>
      </trkpt>
      <trkpt lat="45.93737" lon="4.78632">
        <ele>177</ele>
        <time>2017-06-12T08:38:22Z</time>
      </trkpt>
      <trkpt lat="45.93746" lon="4.78631">
        <ele>177</ele>
        <time>2017-06-12T08:38:25Z</time>
      </trkpt>
      <trkpt lat="45.93749" lon="4.78631">
        <ele>177</ele>
        <time>2017-06-12T08:38:26Z</time>
      </trkpt>
      <trkpt lat="45.93755" lon="4.78631">
        <ele>180</ele>
        <time>2017-06-12T08:38:28Z</time>
      </trkpt>
      <trkpt lat="45.93758" lon="4.78631">
        <ele>181</ele>
        <time>2017-06-12T08:38:29Z</time>
      </trkpt>
      <trkpt lat="45.93764" lon="4.7863">
        <ele>181</ele>
        <time>2017-06-12T08:38:31Z</time>
      </trkpt>
      <trkpt lat="45.93768" lon="4.7863">
        <ele>181</ele>
        <time>2017-06-12T08:38:32Z</time>
      </trkpt>
      <trkpt lat="45.93774" lon="4.78629">
        <ele>181</ele>
        <time>2017-06-12T08:38:34Z</time>
      </trkpt>
      <trkpt lat="45.93777" lon="4.78629">
        <ele>181</ele>
        <time>2017-06-12T08:38:35Z</time>
      </trkpt>
      <trkpt lat="45.93784" lon="4.78628">
        <ele>181</ele>
        <time>2017-06-12T08:38:37Z</time>
      </trkpt>
      <trkpt lat="45.93787" lon="4.78627">
        <ele>182</ele>
        <time>2017-06-12T08:38:38Z</time>
      </trkpt>
      <trkpt lat="45.93795" lon="4.78623">
        <ele>182</ele>
        <time>2017-06-12T08:38:40Z</time>
      </trkpt>
      <trkpt lat="45.93799" lon="4.7862">
        <ele>182</ele>
        <time>2017-06-12T08:38:41Z</time>
      </trkpt>
      <trkpt lat="45.93807" lon="4.78617">
        <ele>183</ele>
        <time>2017-06-12T08:38:43Z</time>
      </trkpt>
      <trkpt lat="45.9381" lon="4.78616">
        <ele>183</ele>
        <time>2017-06-12T08:38:44Z</time>
      </trkpt>
      <trkpt lat="45.93816" lon="4.78613">
        <ele>183</ele>
        <time>2017-06-12T08:38:46Z</time>
      </trkpt>
      <trkpt lat="45.93819" lon="4.78612">
        <ele>183</ele>
        <time>2017-06-12T08:38:47Z</time>
      </trkpt>
      <trkpt lat="45.93827" lon="4.7861">
        <ele>184</ele>
        <time>2017-06-12T08:38:50Z</time>
      </trkpt>
      <trkpt lat="45.9383" lon="4.78609">
        <ele>184</ele>
        <time>2017-06-12T08:38:51Z</time>
      </trkpt>
      <trkpt lat="45.93838" lon="4.78608">
        <ele>187</ele>
        <time>2017-06-12T08:38:54Z</time>
      </trkpt>
      <trkpt lat="45.93841" lon="4.78608">
        <ele>188</ele>
        <time>2017-06-12T08:38:55Z</time>
      </trkpt>
      <trkpt lat="45.93848" lon="4.78607">
        <ele>188</ele>
        <time>2017-06-12T08:38:57Z</time>
      </trkpt>
      <trkpt lat="45.93851" lon="4.78607">
        <ele>188</ele>
        <time>2017-06-12T08:38:58Z</time>
      </trkpt>
      <trkpt lat="45.93859" lon="4.78606">
        <ele>188</ele>
        <time>2017-06-12T08:39:01Z</time>
      </trkpt>
      <trkpt lat="45.93861" lon="4.78606">
        <ele>188</ele>
        <time>2017-06-12T08:39:02Z</time>
      </trkpt>
      <trkpt lat="45.93869" lon="4.78605">
        <ele>188</ele>
        <time>2017-06-12T08:39:05Z</time>
      </trkpt>
      <trkpt lat="45.93872" lon="4.78605">
        <ele>189</ele>
        <time>2017-06-12T08:39:06Z</time>
      </trkpt>
      <trkpt lat="45.93879" lon="4.78604">
        <ele>189</ele>
        <time>2017-06-12T08:39:08Z</time>
      </trkpt>
      <trkpt lat="45.93881" lon="4.78603">
        <ele>189</ele>
        <time>2017-06-12T08:39:09Z</time>
      </trkpt>
      <trkpt lat="45.93889" lon="4.78601">
        <ele>189</ele>
        <time>2017-06-12T08:39:12Z</time>
      </trkpt>
      <trkpt lat="45.93891" lon="4.78601">
        <ele>190</ele>
        <time>2017-06-12T08:39:13Z</time>
      </trkpt>
      <trkpt lat="45.93897" lon="4.786">
        <ele>190</ele>
        <time>2017-06-12T08:39:15Z</time>
      </trkpt>
      <trkpt lat="45.93901" lon="4.78598">
        <ele>190</ele>
        <time>2017-06-12T08:39:16Z</time>
      </trkpt>
      <trkpt lat="45.93909" lon="4.78593">
        <ele>191</ele>
        <time>2017-06-12T08:39:19Z</time>
      </trkpt>
      <trkpt lat="45.93912" lon="4.7859">
        <ele>192</ele>
        <time>2017-06-12T08:39:20Z</time>
      </trkpt>
      <trkpt lat="45.93917" lon="4.78584">
        <ele>193</ele>
        <time>2017-06-12T08:39:22Z</time>
      </trkpt>
      <trkpt lat="45.9392" lon="4.78583">
        <ele>194</ele>
        <time>2017-06-12T08:39:23Z</time>
      </trkpt>
      <trkpt lat="45.93928" lon="4.78588">
        <ele>195</ele>
        <time>2017-06-12T08:39:29Z</time>
      </trkpt>
      <trkpt lat="45.93929" lon="4.7859">
        <ele>195</ele>
        <time>2017-06-12T08:39:30Z</time>
      </trkpt>
      <trkpt lat="45.93932" lon="4.78601">
        <ele>195</ele>
        <time>2017-06-12T08:39:33Z</time>
      </trkpt>
      <trkpt lat="45.93932" lon="4.78606">
        <ele>195</ele>
        <time>2017-06-12T08:39:34Z</time>
      </trkpt>
      <trkpt lat="45.93932" lon="4.78618">
        <ele>195</ele>
        <time>2017-06-12T08:39:37Z</time>
      </trkpt>
      <trkpt lat="45.93932" lon="4.78622">
        <ele>195</ele>
        <time>2017-06-12T08:39:38Z</time>
      </trkpt>
      <trkpt lat="45.93934" lon="4.78631">
        <ele>195</ele>
        <time>2017-06-12T08:39:40Z</time>
      </trkpt>
      <trkpt lat="45.93934" lon="4.78637">
        <ele>195</ele>
        <time>2017-06-12T08:39:41Z</time>
      </trkpt>
      <trkpt lat="45.93933" lon="4.78648">
        <ele>194</ele>
        <time>2017-06-12T08:39:43Z</time>
      </trkpt>
      <trkpt lat="45.93933" lon="4.78654">
        <ele>194</ele>
        <time>2017-06-12T08:39:44Z</time>
      </trkpt>
      <trkpt lat="45.93935" lon="4.78664">
        <ele>194</ele>
        <time>2017-06-12T08:39:46Z</time>
      </trkpt>
      <trkpt lat="45.93936" lon="4.7867">
        <ele>193</ele>
        <time>2017-06-12T08:39:47Z</time>
      </trkpt>
      <trkpt lat="45.93938" lon="4.78681">
        <ele>193</ele>
        <time>2017-06-12T08:39:49Z</time>
      </trkpt>
      <trkpt lat="45.93938" lon="4.78686">
        <ele>194</ele>
        <time>2017-06-12T08:39:50Z</time>
      </trkpt>
      <trkpt lat="45.93938" lon="4.78697">
        <ele>194</ele>
        <time>2017-06-12T08:39:52Z</time>
      </trkpt>
      <trkpt lat="45.93938" lon="4.78702">
        <ele>194</ele>
        <time>2017-06-12T08:39:53Z</time>
      </trkpt>
      <trkpt lat="45.93938" lon="4.78709">
        <ele>194</ele>
        <time>2017-06-12T08:39:54Z</time>
      </trkpt>
      <trkpt lat="45.93939" lon="4.78717">
        <ele>194</ele>
        <time>2017-06-12T08:39:55Z</time>
      </trkpt>
      <trkpt lat="45.93939" lon="4.78723">
        <ele>194</ele>
        <time>2017-06-12T08:39:56Z</time>
      </trkpt>
      <trkpt lat="45.9394" lon="4.7873">
        <ele>194</ele>
        <time>2017-06-12T08:39:57Z</time>
      </trkpt>
      <trkpt lat="45.93941" lon="4.78742">
        <ele>194</ele>
        <time>2017-06-12T08:39:59Z</time>
      </trkpt>
      <trkpt lat="45.93941" lon="4.78747">
        <ele>193</ele>
        <time>2017-06-12T08:40:00Z</time>
      </trkpt>
      <trkpt lat="45.93939" lon="4.7876">
        <ele>193</ele>
        <time>2017-06-12T08:40:02Z</time>
      </trkpt>
      <trkpt lat="45.93939" lon="4.78767">
        <ele>194</ele>
        <time>2017-06-12T08:40:03Z</time>
      </trkpt>
      <trkpt lat="45.93939" lon="4.78779">
        <ele>194</ele>
        <time>2017-06-12T08:40:05Z</time>
      </trkpt>
      <trkpt lat="45.93938" lon="4.78785">
        <ele>194</ele>
        <time>2017-06-12T08:40:06Z</time>
      </trkpt>
      <trkpt lat="45.93938" lon="4.78797">
        <ele>194</ele>
        <time>2017-06-12T08:40:08Z</time>
      </trkpt>
      <trkpt lat="45.93935" lon="4.78804">
        <ele>194</ele>
        <time>2017-06-12T08:40:09Z</time>
      </trkpt>
      <trkpt lat="45.93934" lon="4.78816">
        <ele>193</ele>
        <time>2017-06-12T08:40:11Z</time>
      </trkpt>
      <trkpt lat="45.93934" lon="4.78823">
        <ele>193</ele>
        <time>2017-06-12T08:40:12Z</time>
      </trkpt>
      <trkpt lat="45.93934" lon="4.7883">
        <ele>193</ele>
        <time>2017-06-12T08:40:13Z</time>
      </trkpt>
      <trkpt lat="45.93935" lon="4.78837">
        <ele>193</ele>
        <time>2017-06-12T08:40:14Z</time>
      </trkpt>
      <trkpt lat="45.93935" lon="4.78844">
        <ele>193</ele>
        <time>2017-06-12T08:40:15Z</time>
      </trkpt>
      <trkpt lat="45.93935" lon="4.78851">
        <ele>193</ele>
        <time>2017-06-12T08:40:16Z</time>
      </trkpt>
      <trkpt lat="45.93936" lon="4.78863">
        <ele>193</ele>
        <time>2017-06-12T08:40:18Z</time>
      </trkpt>
      <trkpt lat="45.93936" lon="4.78868">
        <ele>194</ele>
        <time>2017-06-12T08:40:19Z</time>
      </trkpt>
      <trkpt lat="45.93935" lon="4.7888">
        <ele>193</ele>
        <time>2017-06-12T08:40:21Z</time>
      </trkpt>
      <trkpt lat="45.93935" lon="4.78885">
        <ele>193</ele>
        <time>2017-06-12T08:40:22Z</time>
      </trkpt>
      <trkpt lat="45.93935" lon="4.78897">
        <ele>193</ele>
        <time>2017-06-12T08:40:24Z</time>
      </trkpt>
      <trkpt lat="45.93936" lon="4.78903">
        <ele>193</ele>
        <time>2017-06-12T08:40:25Z</time>
      </trkpt>
      <trkpt lat="45.93935" lon="4.78914">
        <ele>192</ele>
        <time>2017-06-12T08:40:27Z</time>
      </trkpt>
      <trkpt lat="45.93936" lon="4.7892">
        <ele>193</ele>
        <time>2017-06-12T08:40:28Z</time>
      </trkpt>
      <trkpt lat="45.93935" lon="4.78931">
        <ele>193</ele>
        <time>2017-06-12T08:40:30Z</time>
      </trkpt>
      <trkpt lat="45.93935" lon="4.78935">
        <ele>193</ele>
        <time>2017-06-12T08:40:31Z</time>
      </trkpt>
      <trkpt lat="45.93934" lon="4.78944">
        <ele>193</ele>
        <time>2017-06-12T08:40:33Z</time>
      </trkpt>
      <trkpt lat="45.93935" lon="4.7895">
        <ele>193</ele>
        <time>2017-06-12T08:40:34Z</time>
      </trkpt>
      <trkpt lat="45.93935" lon="4.78961">
        <ele>194</ele>
        <time>2017-06-12T08:40:36Z</time>
      </trkpt>
      <trkpt lat="45.93935" lon="4.78967">
        <ele>194</ele>
        <time>2017-06-12T08:40:37Z</time>
      </trkpt>
      <trkpt lat="45.93936" lon="4.78974">
        <ele>193</ele>
        <time>2017-06-12T08:40:38Z</time>
      </trkpt>
      <trkpt lat="45.93937" lon="4.7898">
        <ele>193</ele>
        <time>2017-06-12T08:40:39Z</time>
      </trkpt>
      <trkpt lat="45.93939" lon="4.78986">
        <ele>193</ele>
        <time>2017-06-12T08:40:40Z</time>
      </trkpt>
      <trkpt lat="45.9394" lon="4.78993">
        <ele>193</ele>
        <time>2017-06-12T08:40:41Z</time>
      </trkpt>
      <trkpt lat="45.93942" lon="4.79004">
        <ele>194</ele>
        <time>2017-06-12T08:40:43Z</time>
      </trkpt>
      <trkpt lat="45.93943" lon="4.7901">
        <ele>195</ele>
        <time>2017-06-12T08:40:44Z</time>
      </trkpt>
      <trkpt lat="45.93944" lon="4.79022">
        <ele>195</ele>
        <time>2017-06-12T08:40:46Z</time>
      </trkpt>
      <trkpt lat="45.93944" lon="4.79028">
        <ele>195</ele>
        <time>2017-06-12T08:40:47Z</time>
      </trkpt>
      <trkpt lat="45.93943" lon="4.79038">
        <ele>195</ele>
        <time>2017-06-12T08:40:49Z</time>
      </trkpt>
      <trkpt lat="45.93943" lon="4.79043">
        <ele>195</ele>
        <time>2017-06-12T08:40:50Z</time>
      </trkpt>
      <trkpt lat="45.93943" lon="4.79053">
        <ele>195</ele>
        <time>2017-06-12T08:40:52Z</time>
      </trkpt>
      <trkpt lat="45.93943" lon="4.79058">
        <ele>195</ele>
        <time>2017-06-12T08:40:53Z</time>
      </trkpt>
      <trkpt lat="45.93942" lon="4.79068">
        <ele>195</ele>
        <time>2017-06-12T08:40:55Z</time>
      </trkpt>
      <trkpt lat="45.93943" lon="4.79075">
        <ele>195</ele>
        <time>2017-06-12T08:40:56Z</time>
      </trkpt>
      <trkpt lat="45.93943" lon="4.79087">
        <ele>196</ele>
        <time>2017-06-12T08:40:58Z</time>
      </trkpt>
      <trkpt lat="45.93944" lon="4.79094">
        <ele>196</ele>
        <time>2017-06-12T08:40:59Z</time>
      </trkpt>
      <trkpt lat="45.93945" lon="4.79107">
        <ele>196</ele>
        <time>2017-06-12T08:41:01Z</time>
      </trkpt>
      <trkpt lat="45.93943" lon="4.79114">
        <ele>196</ele>
        <time>2017-06-12T08:41:02Z</time>
      </trkpt>
      <trkpt lat="45.93943" lon="4.79125">
        <ele>196</ele>
        <time>2017-06-12T08:41:04Z</time>
      </trkpt>
      <trkpt lat="45.93943" lon="4.7913">
        <ele>196</ele>
        <time>2017-06-12T08:41:05Z</time>
      </trkpt>
      <trkpt lat="45.93942" lon="4.79141">
        <ele>196</ele>
        <time>2017-06-12T08:41:07Z</time>
      </trkpt>
      <trkpt lat="45.93942" lon="4.79147">
        <ele>196</ele>
        <time>2017-06-12T08:41:08Z</time>
      </trkpt>
      <trkpt lat="45.93942" lon="4.79158">
        <ele>196</ele>
        <time>2017-06-12T08:41:10Z</time>
      </trkpt>
      <trkpt lat="45.93942" lon="4.79166">
        <ele>196</ele>
        <time>2017-06-12T08:41:11Z</time>
      </trkpt>
      <trkpt lat="45.93942" lon="4.79172">
        <ele>196</ele>
        <time>2017-06-12T08:41:12Z</time>
      </trkpt>
      <trkpt lat="45.93942" lon="4.79179">
        <ele>196</ele>
        <time>2017-06-12T08:41:13Z</time>
      </trkpt>
      <trkpt lat="45.93943" lon="4.7919">
        <ele>196</ele>
        <time>2017-06-12T08:41:15Z</time>
      </trkpt>
      <trkpt lat="45.93944" lon="4.79194">
        <ele>196</ele>
        <time>2017-06-12T08:41:16Z</time>
      </trkpt>
      <trkpt lat="45.93945" lon="4.792">
        <ele>197</ele>
        <time>2017-06-12T08:41:17Z</time>
      </trkpt>
      <trkpt lat="45.93944" lon="4.79207">
        <ele>197</ele>
        <time>2017-06-12T08:41:18Z</time>
      </trkpt>
      <trkpt lat="45.93944" lon="4.79219">
        <ele>197</ele>
        <time>2017-06-12T08:41:20Z</time>
      </trkpt>
      <trkpt lat="45.93944" lon="4.79225">
        <ele>196</ele>
        <time>2017-06-12T08:41:21Z</time>
      </trkpt>
      <trkpt lat="45.93945" lon="4.79235">
        <ele>196</ele>
        <time>2017-06-12T08:41:23Z</time>
      </trkpt>
      <trkpt lat="45.93945" lon="4.7924">
        <ele>196</ele>
        <time>2017-06-12T08:41:24Z</time>
      </trkpt>
      <trkpt lat="45.93945" lon="4.7925">
        <ele>197</ele>
        <time>2017-06-12T08:41:26Z</time>
      </trkpt>
      <trkpt lat="45.93946" lon="4.79255">
        <ele>197</ele>
        <time>2017-06-12T08:41:27Z</time>
      </trkpt>
      <trkpt lat="45.93947" lon="4.79265">
        <ele>197</ele>
        <time>2017-06-12T08:41:29Z</time>
      </trkpt>
      <trkpt lat="45.93947" lon="4.7927">
        <ele>197</ele>
        <time>2017-06-12T08:41:30Z</time>
      </trkpt>
      <trkpt lat="45.93948" lon="4.79281">
        <ele>198</ele>
        <time>2017-06-12T08:41:32Z</time>
      </trkpt>
      <trkpt lat="45.93949" lon="4.79286">
        <ele>198</ele>
        <time>2017-06-12T08:41:33Z</time>
      </trkpt>
      <trkpt lat="45.9395" lon="4.79296">
        <ele>198</ele>
        <time>2017-06-12T08:41:35Z</time>
      </trkpt>
      <trkpt lat="45.9395" lon="4.79301">
        <ele>198</ele>
        <time>2017-06-12T08:41:36Z</time>
      </trkpt>
      <trkpt lat="45.9395" lon="4.79312">
        <ele>198</ele>
        <time>2017-06-12T08:41:38Z</time>
      </trkpt>
      <trkpt lat="45.93949" lon="4.79318">
        <ele>198</ele>
        <time>2017-06-12T08:41:39Z</time>
      </trkpt>
      <trkpt lat="45.93949" lon="4.7933">
        <ele>198</ele>
        <time>2017-06-12T08:41:41Z</time>
      </trkpt>
      <trkpt lat="45.93949" lon="4.79335">
        <ele>200</ele>
        <time>2017-06-12T08:41:42Z</time>
      </trkpt>
      <trkpt lat="45.93949" lon="4.79347">
        <ele>200</ele>
        <time>2017-06-12T08:41:44Z</time>
      </trkpt>
      <trkpt lat="45.9395" lon="4.79353">
        <ele>200</ele>
        <time>2017-06-12T08:41:45Z</time>
      </trkpt>
      <trkpt lat="45.9395" lon="4.79363">
        <ele>200</ele>
        <time>2017-06-12T08:41:47Z</time>
      </trkpt>
      <trkpt lat="45.9395" lon="4.79369">
        <ele>200</ele>
        <time>2017-06-12T08:41:48Z</time>
      </trkpt>
      <trkpt lat="45.93951" lon="4.7938">
        <ele>201</ele>
        <time>2017-06-12T08:41:50Z</time>
      </trkpt>
      <trkpt lat="45.93951" lon="4.79385">
        <ele>201</ele>
        <time>2017-06-12T08:41:51Z</time>
      </trkpt>
      <trkpt lat="45.93949" lon="4.79395">
        <ele>201</ele>
        <time>2017-06-12T08:41:53Z</time>
      </trkpt>
      <trkpt lat="45.93948" lon="4.794">
        <ele>201</ele>
        <time>2017-06-12T08:41:54Z</time>
      </trkpt>
      <trkpt lat="45.93949" lon="4.7941">
        <ele>201</ele>
        <time>2017-06-12T08:41:56Z</time>
      </trkpt>
      <trkpt lat="45.93949" lon="4.79414">
        <ele>201</ele>
        <time>2017-06-12T08:41:57Z</time>
      </trkpt>
      <trkpt lat="45.93948" lon="4.79424">
        <ele>202</ele>
        <time>2017-06-12T08:41:59Z</time>
      </trkpt>
      <trkpt lat="45.93948" lon="4.7943">
        <ele>202</ele>
        <time>2017-06-12T08:42:00Z</time>
      </trkpt>
      <trkpt lat="45.93946" lon="4.79441">
        <ele>202</ele>
        <time>2017-06-12T08:42:02Z</time>
      </trkpt>
      <trkpt lat="45.93946" lon="4.79447">
        <ele>202</ele>
        <time>2017-06-12T08:42:03Z</time>
      </trkpt>
      <trkpt lat="45.93946" lon="4.79458">
        <ele>202</ele>
        <time>2017-06-12T08:42:05Z</time>
      </trkpt>
      <trkpt lat="45.93945" lon="4.79464">
        <ele>202</ele>
        <time>2017-06-12T08:42:06Z</time>
      </trkpt>
      <trkpt lat="45.93944" lon="4.79475">
        <ele>202</ele>
        <time>2017-06-12T08:42:08Z</time>
      </trkpt>
      <trkpt lat="45.93945" lon="4.7948">
        <ele>202</ele>
        <time>2017-06-12T08:42:09Z</time>
      </trkpt>
      <trkpt lat="45.93945" lon="4.79491">
        <ele>202</ele>
        <time>2017-06-12T08:42:11Z</time>
      </trkpt>
      <trkpt lat="45.93946" lon="4.79497">
        <ele>202</ele>
        <time>2017-06-12T08:42:12Z</time>
      </trkpt>
      <trkpt lat="45.93947" lon="4.79509">
        <ele>203</ele>
        <time>2017-06-12T08:42:14Z</time>
      </trkpt>
      <trkpt lat="45.93946" lon="4.79515">
        <ele>203</ele>
        <time>2017-06-12T08:42:15Z</time>
      </trkpt>
      <trkpt lat="45.93947" lon="4.79524">
        <ele>204</ele>
        <time>2017-06-12T08:42:17Z</time>
      </trkpt>
      <trkpt lat="45.93947" lon="4.79529">
        <ele>204</ele>
        <time>2017-06-12T08:42:18Z</time>
      </trkpt>
      <trkpt lat="45.93948" lon="4.79539">
        <ele>204</ele>
        <time>2017-06-12T08:42:20Z</time>
      </trkpt>
      <trkpt lat="45.93948" lon="4.79544">
        <ele>204</ele>
        <time>2017-06-12T08:42:21Z</time>
      </trkpt>
      <trkpt lat="45.93949" lon="4.79555">
        <ele>205</ele>
        <time>2017-06-12T08:42:23Z</time>
      </trkpt>
      <trkpt lat="45.93949" lon="4.7956">
        <ele>205</ele>
        <time>2017-06-12T08:42:24Z</time>
      </trkpt>
      <trkpt lat="45.9395" lon="4.79569">
        <ele>205</ele>
        <time>2017-06-12T08:42:26Z</time>
      </trkpt>
      <trkpt lat="45.9395" lon="4.79574">
        <ele>205</ele>
        <time>2017-06-12T08:42:27Z</time>
      </trkpt>
      <trkpt lat="45.93951" lon="4.79584">
        <ele>206</ele>
        <time>2017-06-12T08:42:29Z</time>
      </trkpt>
      <trkpt lat="45.93952" lon="4.79588">
        <ele>206</ele>
        <time>2017-06-12T08:42:30Z</time>
      </trkpt>
      <trkpt lat="45.93952" lon="4.79597">
        <ele>206</ele>
        <time>2017-06-12T08:42:32Z</time>
      </trkpt>
      <trkpt lat="45.93953" lon="4.79601">
        <ele>206</ele>
        <time>2017-06-12T08:42:33Z</time>
      </trkpt>
      <trkpt lat="45.93954" lon="4.79609">
        <ele>206</ele>
        <time>2017-06-12T08:42:35Z</time>
      </trkpt>
      <trkpt lat="45.93955" lon="4.79614">
        <ele>206</ele>
        <time>2017-06-12T08:42:36Z</time>
      </trkpt>
      <trkpt lat="45.93956" lon="4.79623">
        <ele>207</ele>
        <time>2017-06-12T08:42:38Z</time>
      </trkpt>
      <trkpt lat="45.93957" lon="4.79629">
        <ele>207</ele>
        <time>2017-06-12T08:42:39Z</time>
      </trkpt>
      <trkpt lat="45.93959" lon="4.79639">
        <ele>207</ele>
        <time>2017-06-12T08:42:41Z</time>
      </trkpt>
      <trkpt lat="45.9396" lon="4.79644">
        <ele>207</ele>
        <time>2017-06-12T08:42:42Z</time>
      </trkpt>
      <trkpt lat="45.93957" lon="4.79656">
        <ele>207</ele>
        <time>2017-06-12T08:42:44Z</time>
      </trkpt>
      <trkpt lat="45.93956" lon="4.79662">
        <ele>207</ele>
        <time>2017-06-12T08:42:45Z</time>
      </trkpt>
      <trkpt lat="45.93956" lon="4.79673">
        <ele>206</ele>
        <time>2017-06-12T08:42:47Z</time>
      </trkpt>
      <trkpt lat="45.93957" lon="4.79679">
        <ele>206</ele>
        <time>2017-06-12T08:42:48Z</time>
      </trkpt>
      <trkpt lat="45.93958" lon="4.79689">
        <ele>206</ele>
        <time>2017-06-12T08:42:50Z</time>
      </trkpt>
      <trkpt lat="45.93958" lon="4.79694">
        <ele>206</ele>
        <time>2017-06-12T08:42:51Z</time>
      </trkpt>
      <trkpt lat="45.9396" lon="4.79705">
        <ele>206</ele>
        <time>2017-06-12T08:42:53Z</time>
      </trkpt>
      <trkpt lat="45.9396" lon="4.79709">
        <ele>206</ele>
        <time>2017-06-12T08:42:54Z</time>
      </trkpt>
      <trkpt lat="45.93962" lon="4.79719">
        <ele>206</ele>
        <time>2017-06-12T08:42:56Z</time>
      </trkpt>
      <trkpt lat="45.93963" lon="4.79724">
        <ele>206</ele>
        <time>2017-06-12T08:42:57Z</time>
      </trkpt>
      <trkpt lat="45.93964" lon="4.79735">
        <ele>206</ele>
        <time>2017-06-12T08:42:59Z</time>
      </trkpt>
      <trkpt lat="45.93965" lon="4.79741">
        <ele>206</ele>
        <time>2017-06-12T08:43:00Z</time>
      </trkpt>
      <trkpt lat="45.93967" lon="4.79751">
        <ele>206</ele>
        <time>2017-06-12T08:43:02Z</time>
      </trkpt>
      <trkpt lat="45.93968" lon="4.79756">
        <ele>206</ele>
        <time>2017-06-12T08:43:03Z</time>
      </trkpt>
      <trkpt lat="45.93969" lon="4.79766">
        <ele>206</ele>
        <time>2017-06-12T08:43:05Z</time>
      </trkpt>
      <trkpt lat="45.93969" lon="4.79772">
        <ele>206</ele>
        <time>2017-06-12T08:43:06Z</time>
      </trkpt>
      <trkpt lat="45.93969" lon="4.79784">
        <ele>206</ele>
        <time>2017-06-12T08:43:08Z</time>
      </trkpt>
      <trkpt lat="45.93969" lon="4.79789">
        <ele>206</ele>
        <time>2017-06-12T08:43:09Z</time>
      </trkpt>
      <trkpt lat="45.93967" lon="4.79801">
        <ele>206</ele>
        <time>2017-06-12T08:43:11Z</time>
      </trkpt>
      <trkpt lat="45.93967" lon="4.79807">
        <ele>206</ele>
        <time>2017-06-12T08:43:12Z</time>
      </trkpt>
      <trkpt lat="45.93965" lon="4.79819">
        <ele>206</ele>
        <time>2017-06-12T08:43:14Z</time>
      </trkpt>
      <trkpt lat="45.93964" lon="4.79825">
        <ele>206</ele>
        <time>2017-06-12T08:43:15Z</time>
      </trkpt>
      <trkpt lat="45.93962" lon="4.79838">
        <ele>206</ele>
        <time>2017-06-12T08:43:17Z</time>
      </trkpt>
      <trkpt lat="45.93961" lon="4.79844">
        <ele>206</ele>
        <time>2017-06-12T08:43:18Z</time>
      </trkpt>
      <trkpt lat="45.9396" lon="4.79851">
        <ele>206</ele>
        <time>2017-06-12T08:43:19Z</time>
      </trkpt>
      <trkpt lat="45.93959" lon="4.79858">
        <ele>206</ele>
        <time>2017-06-12T08:43:20Z</time>
      </trkpt>
      <trkpt lat="45.93958" lon="4.79865">
        <ele>206</ele>
        <time>2017-06-12T08:43:21Z</time>
      </trkpt>
      <trkpt lat="45.93957" lon="4.79872">
        <ele>206</ele>
        <time>2017-06-12T08:43:22Z</time>
      </trkpt>
      <trkpt lat="45.93955" lon="4.79878">
        <ele>206</ele>
        <time>2017-06-12T08:43:23Z</time>
      </trkpt>
      <trkpt lat="45.93954" lon="4.79885">
        <ele>205</ele>
        <time>2017-06-12T08:43:24Z</time>
      </trkpt>
      <trkpt lat="45.93951" lon="4.79897">
        <ele>205</ele>
        <time>2017-06-12T08:43:26Z</time>
      </trkpt>
      <trkpt lat="45.9395" lon="4.79903">
        <ele>205</ele>
        <time>2017-06-12T08:43:27Z</time>
      </trkpt>
      <trkpt lat="45.93948" lon="4.79914">
        <ele>205</ele>
        <time>2017-06-12T08:43:29Z</time>
      </trkpt>
      <trkpt lat="45.93946" lon="4.7992">
        <ele>205</ele>
        <time>2017-06-12T08:43:30Z</time>
      </trkpt>
      <trkpt lat="45.93944" lon="4.79932">
        <ele>205</ele>
        <time>2017-06-12T08:43:32Z</time>
      </trkpt>
      <trkpt lat="45.93943" lon="4.79938">
        <ele>205</ele>
        <time>2017-06-12T08:43:33Z</time>
      </trkpt>
      <trkpt lat="45.93943" lon="4.79945">
        <ele>205</ele>
        <time>2017-06-12T08:43:34Z</time>
      </trkpt>
      <trkpt lat="45.93942" lon="4.79952">
        <ele>205</ele>
        <time>2017-06-12T08:43:35Z</time>
      </trkpt>
      <trkpt lat="45.93941" lon="4.79958">
        <ele>205</ele>
        <time>2017-06-12T08:43:36Z</time>
      </trkpt>
      <trkpt lat="45.9394" lon="4.79965">
        <ele>205</ele>
        <time>2017-06-12T08:43:37Z</time>
      </trkpt>
      <trkpt lat="45.9394" lon="4.79971">
        <ele>205</ele>
        <time>2017-06-12T08:43:38Z</time>
      </trkpt>
      <trkpt lat="45.93939" lon="4.79978">
        <ele>204</ele>
        <time>2017-06-12T08:43:39Z</time>
      </trkpt>
      <trkpt lat="45.93937" lon="4.7999">
        <ele>204</ele>
        <time>2017-06-12T08:43:41Z</time>
      </trkpt>
      <trkpt lat="45.93936" lon="4.79996">
        <ele>204</ele>
        <time>2017-06-12T08:43:42Z</time>
      </trkpt>
      <trkpt lat="45.93934" lon="4.80009">
        <ele>205</ele>
        <time>2017-06-12T08:43:44Z</time>
      </trkpt>
      <trkpt lat="45.93934" lon="4.80015">
        <ele>205</ele>
        <time>2017-06-12T08:43:45Z</time>
      </trkpt>
      <trkpt lat="45.93934" lon="4.80025">
        <ele>206</ele>
        <time>2017-06-12T08:43:46Z</time>
      </trkpt>
      <trkpt lat="45.93933" lon="4.80032">
        <ele>206</ele>
        <time>2017-06-12T08:43:47Z</time>
      </trkpt>
      <trkpt lat="45.93933" lon="4.80039">
        <ele>207</ele>
        <time>2017-06-12T08:43:48Z</time>
      </trkpt>
      <trkpt lat="45.93933" lon="4.80046">
        <ele>207</ele>
        <time>2017-06-12T08:43:49Z</time>
      </trkpt>
      <trkpt lat="45.93932" lon="4.80053">
        <ele>207</ele>
        <time>2017-06-12T08:43:50Z</time>
      </trkpt>
      <trkpt lat="45.93932" lon="4.8006">
        <ele>207</ele>
        <time>2017-06-12T08:43:51Z</time>
      </trkpt>
      <trkpt lat="45.93932" lon="4.80072">
        <ele>207</ele>
        <time>2017-06-12T08:43:53Z</time>
      </trkpt>
      <trkpt lat="45.93933" lon="4.80079">
        <ele>207</ele>
        <time>2017-06-12T08:43:54Z</time>
      </trkpt>
      <trkpt lat="45.93933" lon="4.80086">
        <ele>207</ele>
        <time>2017-06-12T08:43:55Z</time>
      </trkpt>
      <trkpt lat="45.93934" lon="4.80093">
        <ele>208</ele>
        <time>2017-06-12T08:43:56Z</time>
      </trkpt>
      <trkpt lat="45.93934" lon="4.80101">
        <ele>208</ele>
        <time>2017-06-12T08:43:57Z</time>
      </trkpt>
      <trkpt lat="45.93935" lon="4.80109">
        <ele>208</ele>
        <time>2017-06-12T08:43:58Z</time>
      </trkpt>
      <trkpt lat="45.93936" lon="4.80116">
        <ele>208</ele>
        <time>2017-06-12T08:43:59Z</time>
      </trkpt>
      <trkpt lat="45.93936" lon="4.80124">
        <ele>208</ele>
        <time>2017-06-12T08:44:00Z</time>
      </trkpt>
      <trkpt lat="45.93937" lon="4.80131">
        <ele>208</ele>
        <time>2017-06-12T08:44:01Z</time>
      </trkpt>
      <trkpt lat="45.93938" lon="4.80139">
        <ele>208</ele>
        <time>2017-06-12T08:44:02Z</time>
      </trkpt>
      <trkpt lat="45.93939" lon="4.80146">
        <ele>208</ele>
        <time>2017-06-12T08:44:03Z</time>
      </trkpt>
      <trkpt lat="45.9394" lon="4.80154">
        <ele>208</ele>
        <time>2017-06-12T08:44:04Z</time>
      </trkpt>
      <trkpt lat="45.93941" lon="4.80161">
        <ele>208</ele>
        <time>2017-06-12T08:44:05Z</time>
      </trkpt>
      <trkpt lat="45.93942" lon="4.80168">
        <ele>205</ele>
        <time>2017-06-12T08:44:06Z</time>
      </trkpt>
      <trkpt lat="45.93943" lon="4.80175">
        <ele>205</ele>
        <time>2017-06-12T08:44:07Z</time>
      </trkpt>
      <trkpt lat="45.93944" lon="4.80181">
        <ele>205</ele>
        <time>2017-06-12T08:44:08Z</time>
      </trkpt>
      <trkpt lat="45.93945" lon="4.80188">
        <ele>205</ele>
        <time>2017-06-12T08:44:09Z</time>
      </trkpt>
      <trkpt lat="45.93946" lon="4.80194">
        <ele>205</ele>
        <time>2017-06-12T08:44:10Z</time>
      </trkpt>
      <trkpt lat="45.93947" lon="4.80201">
        <ele>205</ele>
        <time>2017-06-12T08:44:11Z</time>
      </trkpt>
      <trkpt lat="45.93949" lon="4.80208">
        <ele>205</ele>
        <time>2017-06-12T08:44:12Z</time>
      </trkpt>
      <trkpt lat="45.9395" lon="4.80214">
        <ele>205</ele>
        <time>2017-06-12T08:44:13Z</time>
      </trkpt>
      <trkpt lat="45.93951" lon="4.8022">
        <ele>205</ele>
        <time>2017-06-12T08:44:14Z</time>
      </trkpt>
      <trkpt lat="45.93954" lon="4.80231">
        <ele>204</ele>
        <time>2017-06-12T08:44:16Z</time>
      </trkpt>
      <trkpt lat="45.93956" lon="4.80238">
        <ele>204</ele>
        <time>2017-06-12T08:44:17Z</time>
      </trkpt>
      <trkpt lat="45.93958" lon="4.80244">
        <ele>204</ele>
        <time>2017-06-12T08:44:18Z</time>
      </trkpt>
      <trkpt lat="45.9396" lon="4.80249">
        <ele>204</ele>
        <time>2017-06-12T08:44:19Z</time>
      </trkpt>
      <trkpt lat="45.93963" lon="4.80261">
        <ele>202</ele>
        <time>2017-06-12T08:44:21Z</time>
      </trkpt>
      <trkpt lat="45.93965" lon="4.80267">
        <ele>202</ele>
        <time>2017-06-12T08:44:22Z</time>
      </trkpt>
      <trkpt lat="45.93968" lon="4.80277">
        <ele>202</ele>
        <time>2017-06-12T08:44:24Z</time>
      </trkpt>
      <trkpt lat="45.9397" lon="4.80283">
        <ele>202</ele>
        <time>2017-06-12T08:44:25Z</time>
      </trkpt>
      <trkpt lat="45.93973" lon="4.80293">
        <ele>203</ele>
        <time>2017-06-12T08:44:27Z</time>
      </trkpt>
      <trkpt lat="45.93974" lon="4.80298">
        <ele>203</ele>
        <time>2017-06-12T08:44:28Z</time>
      </trkpt>
      <trkpt lat="45.93977" lon="4.80307">
        <ele>203</ele>
        <time>2017-06-12T08:44:30Z</time>
      </trkpt>
      <trkpt lat="45.93978" lon="4.80313">
        <ele>203</ele>
        <time>2017-06-12T08:44:31Z</time>
      </trkpt>
      <trkpt lat="45.93982" lon="4.80322">
        <ele>204</ele>
        <time>2017-06-12T08:44:33Z</time>
      </trkpt>
      <trkpt lat="45.93983" lon="4.80326">
        <ele>204</ele>
        <time>2017-06-12T08:44:34Z</time>
      </trkpt>
      <trkpt lat="45.93986" lon="4.80335">
        <ele>206</ele>
        <time>2017-06-12T08:44:36Z</time>
      </trkpt>
      <trkpt lat="45.93987" lon="4.80339">
        <ele>206</ele>
        <time>2017-06-12T08:44:37Z</time>
      </trkpt>
      <trkpt lat="45.9399" lon="4.80349">
        <ele>206</ele>
        <time>2017-06-12T08:44:40Z</time>
      </trkpt>
      <trkpt lat="45.93991" lon="4.80353">
        <ele>206</ele>
        <time>2017-06-12T08:44:41Z</time>
      </trkpt>
      <trkpt lat="45.93994" lon="4.80364">
        <ele>207</ele>
        <time>2017-06-12T08:44:44Z</time>
      </trkpt>
      <trkpt lat="45.93995" lon="4.80367">
        <ele>207</ele>
        <time>2017-06-12T08:44:45Z</time>
      </trkpt>
      <trkpt lat="45.93997" lon="4.80376">
        <ele>208</ele>
        <time>2017-06-12T08:44:48Z</time>
      </trkpt>
      <trkpt lat="45.93997" lon="4.80379">
        <ele>208</ele>
        <time>2017-06-12T08:44:49Z</time>
      </trkpt>
      <trkpt lat="45.94001" lon="4.8039">
        <ele>217</ele>
        <time>2017-06-12T08:44:52Z</time>
      </trkpt>
      <trkpt lat="45.94002" lon="4.80394">
        <ele>217</ele>
        <time>2017-06-12T08:44:53Z</time>
      </trkpt>
      <trkpt lat="45.94005" lon="4.80405">
        <ele>217</ele>
        <time>2017-06-12T08:44:56Z</time>
      </trkpt>
      <trkpt lat="45.94006" lon="4.80408">
        <ele>217</ele>
        <time>2017-06-12T08:44:57Z</time>
      </trkpt>
      <trkpt lat="45.94009" lon="4.80419">
        <ele>219</ele>
        <time>2017-06-12T08:45:00Z</time>
      </trkpt>
      <trkpt lat="45.9401" lon="4.80423">
        <ele>219</ele>
        <time>2017-06-12T08:45:01Z</time>
      </trkpt>
      <trkpt lat="45.94011" lon="4.80433">
        <ele>221</ele>
        <time>2017-06-12T08:45:04Z</time>
      </trkpt>
      <trkpt lat="45.94011" lon="4.80437">
        <ele>221</ele>
        <time>2017-06-12T08:45:05Z</time>
      </trkpt>
      <trkpt lat="45.94012" lon="4.80447">
        <ele>222</ele>
        <time>2017-06-12T08:45:08Z</time>
      </trkpt>
      <trkpt lat="45.94012" lon="4.8045">
        <ele>222</ele>
        <time>2017-06-12T08:45:09Z</time>
      </trkpt>
      <trkpt lat="45.94011" lon="4.80461">
        <ele>223</ele>
        <time>2017-06-12T08:45:12Z</time>
      </trkpt>
      <trkpt lat="45.94012" lon="4.80464">
        <ele>223</ele>
        <time>2017-06-12T08:45:13Z</time>
      </trkpt>
      <trkpt lat="45.94012" lon="4.80475">
        <ele>222</ele>
        <time>2017-06-12T08:45:16Z</time>
      </trkpt>
      <trkpt lat="45.94012" lon="4.80479">
        <ele>222</ele>
        <time>2017-06-12T08:45:17Z</time>
      </trkpt>
      <trkpt lat="45.94014" lon="4.8049">
        <ele>222</ele>
        <time>2017-06-12T08:45:20Z</time>
      </trkpt>
      <trkpt lat="45.94014" lon="4.80493">
        <ele>221</ele>
        <time>2017-06-12T08:45:21Z</time>
      </trkpt>
      <trkpt lat="45.94011" lon="4.80504">
        <ele>221</ele>
        <time>2017-06-12T08:45:26Z</time>
      </trkpt>
      <trkpt lat="45.94011" lon="4.80507">
        <ele>222</ele>
        <time>2017-06-12T08:45:27Z</time>
      </trkpt>
      <trkpt lat="45.94012" lon="4.80518">
        <ele>223</ele>
        <time>2017-06-12T08:45:31Z</time>
      </trkpt>
      <trkpt lat="45.94011" lon="4.80522">
        <ele>223</ele>
        <time>2017-06-12T08:45:32Z</time>
      </trkpt>
      <trkpt lat="45.94011" lon="4.80533">
        <ele>224</ele>
        <time>2017-06-12T08:45:35Z</time>
      </trkpt>
      <trkpt lat="45.94011" lon="4.80535">
        <ele>224</ele>
        <time>2017-06-12T08:45:36Z</time>
      </trkpt>
      <trkpt lat="45.94011" lon="4.80546">
        <ele>224</ele>
        <time>2017-06-12T08:45:39Z</time>
      </trkpt>
      <trkpt lat="45.9401" lon="4.8055">
        <ele>224</ele>
        <time>2017-06-12T08:45:40Z</time>
      </trkpt>
      <trkpt lat="45.9401" lon="4.80561">
        <ele>223</ele>
        <time>2017-06-12T08:45:43Z</time>
      </trkpt>
      <trkpt lat="45.94009" lon="4.80565">
        <ele>222</ele>
        <time>2017-06-12T08:45:44Z</time>
      </trkpt>
      <trkpt lat="45.94008" lon="4.80577">
        <ele>220</ele>
        <time>2017-06-12T08:45:47Z</time>
      </trkpt>
      <trkpt lat="45.94008" lon="4.8058">
        <ele>220</ele>
        <time>2017-06-12T08:45:48Z</time>
      </trkpt>
      <trkpt lat="45.94009" lon="4.80591">
        <ele>221</ele>
        <time>2017-06-12T08:45:51Z</time>
      </trkpt>
      <trkpt lat="45.94009" lon="4.80594">
        <ele>221</ele>
        <time>2017-06-12T08:45:52Z</time>
      </trkpt>
      <trkpt lat="45.9401" lon="4.80607">
        <ele>223</ele>
        <time>2017-06-12T08:45:55Z</time>
      </trkpt>
      <trkpt lat="45.9401" lon="4.8061">
        <ele>223</ele>
        <time>2017-06-12T08:45:56Z</time>
      </trkpt>
      <trkpt lat="45.94011" lon="4.8062">
        <ele>223</ele>
        <time>2017-06-12T08:45:59Z</time>
      </trkpt>
      <trkpt lat="45.94012" lon="4.80623">
        <ele>224</ele>
        <time>2017-06-12T08:46:00Z</time>
      </trkpt>
      <trkpt lat="45.94014" lon="4.80634">
        <ele>223</ele>
        <time>2017-06-12T08:46:04Z</time>
      </trkpt>
      <trkpt lat="45.94015" lon="4.80637">
        <ele>223</ele>
        <time>2017-06-12T08:46:05Z</time>
      </trkpt>
      <trkpt lat="45.94018" lon="4.80646">
        <ele>223</ele>
        <time>2017-06-12T08:46:09Z</time>
      </trkpt>
      <trkpt lat="45.94019" lon="4.80649">
        <ele>223</ele>
        <time>2017-06-12T08:46:10Z</time>
      </trkpt>
      <trkpt lat="45.94021" lon="4.8066">
        <ele>223</ele>
        <time>2017-06-12T08:46:14Z</time>
      </trkpt>
      <trkpt lat="45.94022" lon="4.80664">
        <ele>223</ele>
        <time>2017-06-12T08:46:15Z</time>
      </trkpt>
      <trkpt lat="45.94023" lon="4.80673">
        <ele>223</ele>
        <time>2017-06-12T08:46:18Z</time>
      </trkpt>
      <trkpt lat="45.94023" lon="4.80677">
        <ele>223</ele>
        <time>2017-06-12T08:46:19Z</time>
      </trkpt>
      <trkpt lat="45.94023" lon="4.80683">
        <ele>224</ele>
        <time>2017-06-12T08:46:20Z</time>
      </trkpt>
      <trkpt lat="45.94025" lon="4.80692">
        <ele>224</ele>
        <time>2017-06-12T08:46:21Z</time>
      </trkpt>
      <trkpt lat="45.94028" lon="4.80704">
        <ele>225</ele>
        <time>2017-06-12T08:46:24Z</time>
      </trkpt>
      <trkpt lat="45.94028" lon="4.80708">
        <ele>225</ele>
        <time>2017-06-12T08:46:25Z</time>
      </trkpt>
      <trkpt lat="45.94029" lon="4.80718">
        <ele>225</ele>
        <time>2017-06-12T08:46:28Z</time>
      </trkpt>
      <trkpt lat="45.9403" lon="4.80721">
        <ele>225</ele>
        <time>2017-06-12T08:46:29Z</time>
      </trkpt>
      <trkpt lat="45.94032" lon="4.80732">
        <ele>225</ele>
        <time>2017-06-12T08:46:32Z</time>
      </trkpt>
      <trkpt lat="45.94032" lon="4.80735">
        <ele>225</ele>
        <time>2017-06-12T08:46:33Z</time>
      </trkpt>
      <trkpt lat="45.94034" lon="4.80745">
        <ele>226</ele>
        <time>2017-06-12T08:46:36Z</time>
      </trkpt>
      <trkpt lat="45.94035" lon="4.80748">
        <ele>226</ele>
        <time>2017-06-12T08:46:37Z</time>
      </trkpt>
      <trkpt lat="45.94035" lon="4.80757">
        <ele>227</ele>
        <time>2017-06-12T08:46:39Z</time>
      </trkpt>
      <trkpt lat="45.94035" lon="4.80761">
        <ele>227</ele>
        <time>2017-06-12T08:46:40Z</time>
      </trkpt>
      <trkpt lat="45.94035" lon="4.80772">
        <ele>227</ele>
        <time>2017-06-12T08:46:43Z</time>
      </trkpt>
      <trkpt lat="45.94035" lon="4.80775">
        <ele>227</ele>
        <time>2017-06-12T08:46:44Z</time>
      </trkpt>
      <trkpt lat="45.94036" lon="4.80786">
        <ele>227</ele>
        <time>2017-06-12T08:46:47Z</time>
      </trkpt>
      <trkpt lat="45.94037" lon="4.8079">
        <ele>227</ele>
        <time>2017-06-12T08:46:48Z</time>
      </trkpt>
      <trkpt lat="45.94038" lon="4.808">
        <ele>228</ele>
        <time>2017-06-12T08:46:51Z</time>
      </trkpt>
      <trkpt lat="45.94038" lon="4.80804">
        <ele>228</ele>
        <time>2017-06-12T08:46:52Z</time>
      </trkpt>
      <trkpt lat="45.94039" lon="4.80815">
        <ele>228</ele>
        <time>2017-06-12T08:46:55Z</time>
      </trkpt>
      <trkpt lat="45.9404" lon="4.80819">
        <ele>228</ele>
        <time>2017-06-12T08:46:56Z</time>
      </trkpt>
      <trkpt lat="45.94042" lon="4.80829">
        <ele>228</ele>
        <time>2017-06-12T08:46:59Z</time>
      </trkpt>
      <trkpt lat="45.94042" lon="4.80833">
        <ele>228</ele>
        <time>2017-06-12T08:47:00Z</time>
      </trkpt>
      <trkpt lat="45.94044" lon="4.80843">
        <ele>229</ele>
        <time>2017-06-12T08:47:03Z</time>
      </trkpt>
      <trkpt lat="45.94044" lon="4.80846">
        <ele>229</ele>
        <time>2017-06-12T08:47:04Z</time>
      </trkpt>
      <trkpt lat="45.94046" lon="4.80859">
        <ele>229</ele>
        <time>2017-06-12T08:47:08Z</time>
      </trkpt>
      <trkpt lat="45.94047" lon="4.80862">
        <ele>229</ele>
        <time>2017-06-12T08:47:09Z</time>
      </trkpt>
      <trkpt lat="45.94047" lon="4.80872">
        <ele>229</ele>
        <time>2017-06-12T08:47:12Z</time>
      </trkpt>
      <trkpt lat="45.94048" lon="4.80875">
        <ele>229</ele>
        <time>2017-06-12T08:47:13Z</time>
      </trkpt>
      <trkpt lat="45.94049" lon="4.80885">
        <ele>230</ele>
        <time>2017-06-12T08:47:16Z</time>
      </trkpt>
      <trkpt lat="45.9405" lon="4.80888">
        <ele>230</ele>
        <time>2017-06-12T08:47:17Z</time>
      </trkpt>
      <trkpt lat="45.94052" lon="4.809">
        <ele>230</ele>
        <time>2017-06-12T08:47:21Z</time>
      </trkpt>
      <trkpt lat="45.94053" lon="4.80904">
        <ele>230</ele>
        <time>2017-06-12T08:47:22Z</time>
      </trkpt>
      <trkpt lat="45.94053" lon="4.80914">
        <ele>231</ele>
        <time>2017-06-12T08:47:25Z</time>
      </trkpt>
      <trkpt lat="45.94053" lon="4.80917">
        <ele>231</ele>
        <time>2017-06-12T08:47:26Z</time>
      </trkpt>
      <trkpt lat="45.94054" lon="4.80929">
        <ele>231</ele>
        <time>2017-06-12T08:47:30Z</time>
      </trkpt>
      <trkpt lat="45.94054" lon="4.80932">
        <ele>231</ele>
        <time>2017-06-12T08:47:31Z</time>
      </trkpt>
      <trkpt lat="45.94056" lon="4.80944">
        <ele>231</ele>
        <time>2017-06-12T08:47:35Z</time>
      </trkpt>
      <trkpt lat="45.94057" lon="4.80947">
        <ele>231</ele>
        <time>2017-06-12T08:47:36Z</time>
      </trkpt>
      <trkpt lat="45.94059" lon="4.80959">
        <ele>231</ele>
        <time>2017-06-12T08:47:40Z</time>
      </trkpt>
      <trkpt lat="45.94059" lon="4.80963">
        <ele>232</ele>
        <time>2017-06-12T08:47:41Z</time>
      </trkpt>
      <trkpt lat="45.94061" lon="4.80973">
        <ele>232</ele>
        <time>2017-06-12T08:47:44Z</time>
      </trkpt>
      <trkpt lat="45.94062" lon="4.80976">
        <ele>232</ele>
        <time>2017-06-12T08:47:45Z</time>
      </trkpt>
      <trkpt lat="45.94063" lon="4.80986">
        <ele>233</ele>
        <time>2017-06-12T08:47:48Z</time>
      </trkpt>
      <trkpt lat="45.94064" lon="4.8099">
        <ele>234</ele>
        <time>2017-06-12T08:47:49Z</time>
      </trkpt>
      <trkpt lat="45.94066" lon="4.81">
        <ele>235</ele>
        <time>2017-06-12T08:47:52Z</time>
      </trkpt>
      <trkpt lat="45.94066" lon="4.81004">
        <ele>235</ele>
        <time>2017-06-12T08:47:53Z</time>
      </trkpt>
      <trkpt lat="45.94068" lon="4.81013">
        <ele>235</ele>
        <time>2017-06-12T08:47:56Z</time>
      </trkpt>
      <trkpt lat="45.94069" lon="4.81017">
        <ele>234</ele>
        <time>2017-06-12T08:47:57Z</time>
      </trkpt>
      <trkpt lat="45.94071" lon="4.81027">
        <ele>234</ele>
        <time>2017-06-12T08:48:00Z</time>
      </trkpt>
      <trkpt lat="45.94072" lon="4.8103">
        <ele>234</ele>
        <time>2017-06-12T08:48:01Z</time>
      </trkpt>
      <trkpt lat="45.94075" lon="4.8104">
        <ele>233</ele>
        <time>2017-06-12T08:48:04Z</time>
      </trkpt>
      <trkpt lat="45.94076" lon="4.81043">
        <ele>233</ele>
        <time>2017-06-12T08:48:05Z</time>
      </trkpt>
      <trkpt lat="45.9408" lon="4.81052">
        <ele>233</ele>
        <time>2017-06-12T08:48:08Z</time>
      </trkpt>
      <trkpt lat="45.94081" lon="4.81055">
        <ele>234</ele>
        <time>2017-06-12T08:48:09Z</time>
      </trkpt>
      <trkpt lat="45.94085" lon="4.81064">
        <ele>242</ele>
        <time>2017-06-12T08:48:12Z</time>
      </trkpt>
      <trkpt lat="45.94087" lon="4.81068">
        <ele>241</ele>
        <time>2017-06-12T08:48:13Z</time>
      </trkpt>
      <trkpt lat="45.94091" lon="4.81076">
        <ele>240</ele>
        <time>2017-06-12T08:48:16Z</time>
      </trkpt>
      <trkpt lat="45.94092" lon="4.81078">
        <ele>240</ele>
        <time>2017-06-12T08:48:17Z</time>
      </trkpt>
      <trkpt lat="45.94098" lon="4.81088">
        <ele>240</ele>
        <time>2017-06-12T08:48:21Z</time>
      </trkpt>
      <trkpt lat="45.94099" lon="4.8109">
        <ele>240</ele>
        <time>2017-06-12T08:48:22Z</time>
      </trkpt>
      <trkpt lat="45.94104" lon="4.81099">
        <ele>241</ele>
        <time>2017-06-12T08:48:25Z</time>
      </trkpt>
      <trkpt lat="45.94106" lon="4.81101">
        <ele>242</ele>
        <time>2017-06-12T08:48:26Z</time>
      </trkpt>
      <trkpt lat="45.9411" lon="4.81112">
        <ele>242</ele>
        <time>2017-06-12T08:48:30Z</time>
      </trkpt>
      <trkpt lat="45.94112" lon="4.81114">
        <ele>242</ele>
        <time>2017-06-12T08:48:31Z</time>
      </trkpt>
      <trkpt lat="45.94117" lon="4.81124">
        <ele>243</ele>
        <time>2017-06-12T08:48:35Z</time>
      </trkpt>
      <trkpt lat="45.94118" lon="4.81126">
        <ele>243</ele>
        <time>2017-06-12T08:48:36Z</time>
      </trkpt>
      <trkpt lat="45.94122" lon="4.81134">
        <ele>243</ele>
        <time>2017-06-12T08:48:39Z</time>
      </trkpt>
      <trkpt lat="45.94123" lon="4.81137">
        <ele>243</ele>
        <time>2017-06-12T08:48:40Z</time>
      </trkpt>
      <trkpt lat="45.94127" lon="4.81148">
        <ele>243</ele>
        <time>2017-06-12T08:48:43Z</time>
      </trkpt>
      <trkpt lat="45.94128" lon="4.81152">
        <ele>243</ele>
        <time>2017-06-12T08:48:44Z</time>
      </trkpt>
      <trkpt lat="45.94132" lon="4.81162">
        <ele>243</ele>
        <time>2017-06-12T08:48:47Z</time>
      </trkpt>
      <trkpt lat="45.94133" lon="4.81166">
        <ele>243</ele>
        <time>2017-06-12T08:48:48Z</time>
      </trkpt>
      <trkpt lat="45.94137" lon="4.81176">
        <ele>243</ele>
        <time>2017-06-12T08:48:51Z</time>
      </trkpt>
      <trkpt lat="45.94138" lon="4.81179">
        <ele>244</ele>
        <time>2017-06-12T08:48:52Z</time>
      </trkpt>
      <trkpt lat="45.94142" lon="4.8119">
        <ele>244</ele>
        <time>2017-06-12T08:48:55Z</time>
      </trkpt>
      <trkpt lat="45.94143" lon="4.81194">
        <ele>244</ele>
        <time>2017-06-12T08:48:56Z</time>
      </trkpt>
      <trkpt lat="45.94147" lon="4.81204">
        <ele>244</ele>
        <time>2017-06-12T08:48:59Z</time>
      </trkpt>
      <trkpt lat="45.94148" lon="4.81207">
        <ele>244</ele>
        <time>2017-06-12T08:49:00Z</time>
      </trkpt>
      <trkpt lat="45.94151" lon="4.81218">
        <ele>245</ele>
        <time>2017-06-12T08:49:04Z</time>
      </trkpt>
      <trkpt lat="45.94152" lon="4.81221">
        <ele>245</ele>
        <time>2017-06-12T08:49:05Z</time>
      </trkpt>
      <trkpt lat="45.94154" lon="4.81231">
        <ele>246</ele>
        <time>2017-06-12T08:49:08Z</time>
      </trkpt>
      <trkpt lat="45.94155" lon="4.81234">
        <ele>246</ele>
        <time>2017-06-12T08:49:09Z</time>
      </trkpt>
      <trkpt lat="45.94156" lon="4.81247">
        <ele>247</ele>
        <time>2017-06-12T08:49:14Z</time>
      </trkpt>
      <trkpt lat="45.94156" lon="4.81249">
        <ele>247</ele>
        <time>2017-06-12T08:49:15Z</time>
      </trkpt>
      <trkpt lat="45.94157" lon="4.81262">
        <ele>248</ele>
        <time>2017-06-12T08:49:20Z</time>
      </trkpt>
      <trkpt lat="45.94158" lon="4.81265">
        <ele>248</ele>
        <time>2017-06-12T08:49:21Z</time>
      </trkpt>
      <trkpt lat="45.94159" lon="4.81277">
        <ele>247</ele>
        <time>2017-06-12T08:49:24Z</time>
      </trkpt>
      <trkpt lat="45.94159" lon="4.81281">
        <ele>247</ele>
        <time>2017-06-12T08:49:25Z</time>
      </trkpt>
      <trkpt lat="45.94159" lon="4.81286">
        <ele>247</ele>
        <time>2017-06-12T08:49:26Z</time>
      </trkpt>
      <trkpt lat="45.94158" lon="4.81295">
        <ele>247</ele>
        <time>2017-06-12T08:49:27Z</time>
      </trkpt>
      <trkpt lat="45.94158" lon="4.81307">
        <ele>248</ele>
        <time>2017-06-12T08:49:30Z</time>
      </trkpt>
      <trkpt lat="45.94158" lon="4.8131">
        <ele>248</ele>
        <time>2017-06-12T08:49:31Z</time>
      </trkpt>
      <trkpt lat="45.94157" lon="4.8132">
        <ele>249</ele>
        <time>2017-06-12T08:49:35Z</time>
      </trkpt>
      <trkpt lat="45.94157" lon="4.81323">
        <ele>249</ele>
        <time>2017-06-12T08:49:36Z</time>
      </trkpt>
      <trkpt lat="45.94157" lon="4.81334">
        <ele>251</ele>
        <time>2017-06-12T08:49:40Z</time>
      </trkpt>
      <trkpt lat="45.94156" lon="4.81337">
        <ele>251</ele>
        <time>2017-06-12T08:49:41Z</time>
      </trkpt>
      <trkpt lat="45.94156" lon="4.81348">
        <ele>250</ele>
        <time>2017-06-12T08:49:44Z</time>
      </trkpt>
      <trkpt lat="45.94155" lon="4.81351">
        <ele>250</ele>
        <time>2017-06-12T08:49:45Z</time>
      </trkpt>
      <trkpt lat="45.94153" lon="4.81362">
        <ele>250</ele>
        <time>2017-06-12T08:49:49Z</time>
      </trkpt>
      <trkpt lat="45.94153" lon="4.81366">
        <ele>250</ele>
        <time>2017-06-12T08:49:50Z</time>
      </trkpt>
      <trkpt lat="45.9415" lon="4.81378">
        <ele>250</ele>
        <time>2017-06-12T08:49:54Z</time>
      </trkpt>
      <trkpt lat="45.94149" lon="4.81381">
        <ele>251</ele>
        <time>2017-06-12T08:49:55Z</time>
      </trkpt>
      <trkpt lat="45.94149" lon="4.81393">
        <ele>251</ele>
        <time>2017-06-12T08:49:58Z</time>
      </trkpt>
      <trkpt lat="45.94148" lon="4.81396">
        <ele>251</ele>
        <time>2017-06-12T08:49:59Z</time>
      </trkpt>
      <trkpt lat="45.94147" lon="4.81407">
        <ele>252</ele>
        <time>2017-06-12T08:50:02Z</time>
      </trkpt>
      <trkpt lat="45.94147" lon="4.8141">
        <ele>252</ele>
        <time>2017-06-12T08:50:03Z</time>
      </trkpt>
      <trkpt lat="45.94146" lon="4.81423">
        <ele>256</ele>
        <time>2017-06-12T08:50:06Z</time>
      </trkpt>
      <trkpt lat="45.94146" lon="4.81426">
        <ele>256</ele>
        <time>2017-06-12T08:50:07Z</time>
      </trkpt>
      <trkpt lat="45.94146" lon="4.81438">
        <ele>256</ele>
        <time>2017-06-12T08:50:10Z</time>
      </trkpt>
      <trkpt lat="45.94146" lon="4.81442">
        <ele>256</ele>
        <time>2017-06-12T08:50:11Z</time>
      </trkpt>
      <trkpt lat="45.94145" lon="4.81454">
        <ele>257</ele>
        <time>2017-06-12T08:50:14Z</time>
      </trkpt>
      <trkpt lat="45.94145" lon="4.81458">
        <ele>257</ele>
        <time>2017-06-12T08:50:15Z</time>
      </trkpt>
      <trkpt lat="45.94144" lon="4.8147">
        <ele>257</ele>
        <time>2017-06-12T08:50:18Z</time>
      </trkpt>
      <trkpt lat="45.94144" lon="4.81473">
        <ele>258</ele>
        <time>2017-06-12T08:50:19Z</time>
      </trkpt>
      <trkpt lat="45.94144" lon="4.81483">
        <ele>258</ele>
        <time>2017-06-12T08:50:22Z</time>
      </trkpt>
      <trkpt lat="45.94144" lon="4.81486">
        <ele>259</ele>
        <time>2017-06-12T08:50:23Z</time>
      </trkpt>
      <trkpt lat="45.94144" lon="4.81496">
        <ele>259</ele>
        <time>2017-06-12T08:50:26Z</time>
      </trkpt>
      <trkpt lat="45.94144" lon="4.815">
        <ele>259</ele>
        <time>2017-06-12T08:50:27Z</time>
      </trkpt>
      <trkpt lat="45.94144" lon="4.81509">
        <ele>263</ele>
        <time>2017-06-12T08:50:29Z</time>
      </trkpt>
      <trkpt lat="45.94143" lon="4.81513">
        <ele>263</ele>
        <time>2017-06-12T08:50:30Z</time>
      </trkpt>
      <trkpt lat="45.94142" lon="4.81523">
        <ele>263</ele>
        <time>2017-06-12T08:50:33Z</time>
      </trkpt>
      <trkpt lat="45.94141" lon="4.81527">
        <ele>263</ele>
        <time>2017-06-12T08:50:34Z</time>
      </trkpt>
      <trkpt lat="45.94141" lon="4.81539">
        <ele>264</ele>
        <time>2017-06-12T08:50:38Z</time>
      </trkpt>
      <trkpt lat="45.94141" lon="4.81543">
        <ele>264</ele>
        <time>2017-06-12T08:50:39Z</time>
      </trkpt>
      <trkpt lat="45.94142" lon="4.81554">
        <ele>264</ele>
        <time>2017-06-12T08:50:42Z</time>
      </trkpt>
      <trkpt lat="45.94143" lon="4.81557">
        <ele>264</ele>
        <time>2017-06-12T08:50:43Z</time>
      </trkpt>
      <trkpt lat="45.94145" lon="4.81569">
        <ele>265</ele>
        <time>2017-06-12T08:50:46Z</time>
      </trkpt>
      <trkpt lat="45.94146" lon="4.81573">
        <ele>265</ele>
        <time>2017-06-12T08:50:47Z</time>
      </trkpt>
      <trkpt lat="45.94148" lon="4.81584">
        <ele>267</ele>
        <time>2017-06-12T08:50:50Z</time>
      </trkpt>
      <trkpt lat="45.94149" lon="4.81588">
        <ele>267</ele>
        <time>2017-06-12T08:50:51Z</time>
      </trkpt>
      <trkpt lat="45.9415" lon="4.81596">
        <ele>267</ele>
        <time>2017-06-12T08:50:53Z</time>
      </trkpt>
      <trkpt lat="45.9415" lon="4.81601">
        <ele>267</ele>
        <time>2017-06-12T08:50:54Z</time>
      </trkpt>
      <trkpt lat="45.94151" lon="4.81611">
        <ele>267</ele>
        <time>2017-06-12T08:50:57Z</time>
      </trkpt>
      <trkpt lat="45.94152" lon="4.81615">
        <ele>267</ele>
        <time>2017-06-12T08:50:58Z</time>
      </trkpt>
      <trkpt lat="45.94155" lon="4.81623">
        <ele>268</ele>
        <time>2017-06-12T08:51:00Z</time>
      </trkpt>
      <trkpt lat="45.94157" lon="4.81628">
        <ele>268</ele>
        <time>2017-06-12T08:51:01Z</time>
      </trkpt>
      <trkpt lat="45.9416" lon="4.81638">
        <ele>268</ele>
        <time>2017-06-12T08:51:04Z</time>
      </trkpt>
      <trkpt lat="45.94162" lon="4.81641">
        <ele>268</ele>
        <time>2017-06-12T08:51:05Z</time>
      </trkpt>
      <trkpt lat="45.94166" lon="4.81651">
        <ele>268</ele>
        <time>2017-06-12T08:51:08Z</time>
      </trkpt>
      <trkpt lat="45.94166" lon="4.81656">
        <ele>268</ele>
        <time>2017-06-12T08:51:09Z</time>
      </trkpt>
      <trkpt lat="45.94168" lon="4.81664">
        <ele>269</ele>
        <time>2017-06-12T08:51:11Z</time>
      </trkpt>
      <trkpt lat="45.94169" lon="4.81668">
        <ele>269</ele>
        <time>2017-06-12T08:51:12Z</time>
      </trkpt>
      <trkpt lat="45.9417" lon="4.81679">
        <ele>268</ele>
        <time>2017-06-12T08:51:15Z</time>
      </trkpt>
      <trkpt lat="45.9417" lon="4.81682">
        <ele>268</ele>
        <time>2017-06-12T08:51:16Z</time>
      </trkpt>
      <trkpt lat="45.94172" lon="4.81691">
        <ele>267</ele>
        <time>2017-06-12T08:51:19Z</time>
      </trkpt>
      <trkpt lat="45.94173" lon="4.81694">
        <ele>267</ele>
        <time>2017-06-12T08:51:20Z</time>
      </trkpt>
      <trkpt lat="45.94175" lon="4.81703">
        <ele>267</ele>
        <time>2017-06-12T08:51:23Z</time>
      </trkpt>
      <trkpt lat="45.94176" lon="4.81707">
        <ele>267</ele>
        <time>2017-06-12T08:51:24Z</time>
      </trkpt>
      <trkpt lat="45.94177" lon="4.81719">
        <ele>267</ele>
        <time>2017-06-12T08:51:27Z</time>
      </trkpt>
      <trkpt lat="45.94177" lon="4.81723">
        <ele>267</ele>
        <time>2017-06-12T08:51:28Z</time>
      </trkpt>
      <trkpt lat="45.94178" lon="4.81735">
        <ele>267</ele>
        <time>2017-06-12T08:51:31Z</time>
      </trkpt>
      <trkpt lat="45.94179" lon="4.8174">
        <ele>267</ele>
        <time>2017-06-12T08:51:32Z</time>
      </trkpt>
      <trkpt lat="45.94183" lon="4.8175">
        <ele>267</ele>
        <time>2017-06-12T08:51:35Z</time>
      </trkpt>
      <trkpt lat="45.94185" lon="4.81755">
        <ele>267</ele>
        <time>2017-06-12T08:51:36Z</time>
      </trkpt>
      <trkpt lat="45.94187" lon="4.81764">
        <ele>266</ele>
        <time>2017-06-12T08:51:38Z</time>
      </trkpt>
      <trkpt lat="45.94188" lon="4.81768">
        <ele>266</ele>
        <time>2017-06-12T08:51:39Z</time>
      </trkpt>
      <trkpt lat="45.94191" lon="4.81779">
        <ele>266</ele>
        <time>2017-06-12T08:51:42Z</time>
      </trkpt>
      <trkpt lat="45.94191" lon="4.81783">
        <ele>266</ele>
        <time>2017-06-12T08:51:43Z</time>
      </trkpt>
      <trkpt lat="45.94191" lon="4.81795">
        <ele>266</ele>
        <time>2017-06-12T08:51:46Z</time>
      </trkpt>
      <trkpt lat="45.94191" lon="4.81799">
        <ele>266</ele>
        <time>2017-06-12T08:51:47Z</time>
      </trkpt>
      <trkpt lat="45.94192" lon="4.81811">
        <ele>266</ele>
        <time>2017-06-12T08:51:50Z</time>
      </trkpt>
      <trkpt lat="45.94193" lon="4.81815">
        <ele>266</ele>
        <time>2017-06-12T08:51:51Z</time>
      </trkpt>
      <trkpt lat="45.94194" lon="4.81823">
        <ele>266</ele>
        <time>2017-06-12T08:51:53Z</time>
      </trkpt>
      <trkpt lat="45.94195" lon="4.81827">
        <ele>266</ele>
        <time>2017-06-12T08:51:54Z</time>
      </trkpt>
      <trkpt lat="45.94197" lon="4.81838">
        <ele>266</ele>
        <time>2017-06-12T08:51:57Z</time>
      </trkpt>
      <trkpt lat="45.94197" lon="4.81841">
        <ele>266</ele>
        <time>2017-06-12T08:51:58Z</time>
      </trkpt>
      <trkpt lat="45.942" lon="4.81853">
        <ele>266</ele>
        <time>2017-06-12T08:52:01Z</time>
      </trkpt>
      <trkpt lat="45.94202" lon="4.81857">
        <ele>266</ele>
        <time>2017-06-12T08:52:02Z</time>
      </trkpt>
      <trkpt lat="45.94203" lon="4.81866">
        <ele>266</ele>
        <time>2017-06-12T08:52:04Z</time>
      </trkpt>
      <trkpt lat="45.94204" lon="4.81871">
        <ele>265</ele>
        <time>2017-06-12T08:52:05Z</time>
      </trkpt>
      <trkpt lat="45.94206" lon="4.81883">
        <ele>265</ele>
        <time>2017-06-12T08:52:07Z</time>
      </trkpt>
      <trkpt lat="45.94207" lon="4.81889">
        <ele>265</ele>
        <time>2017-06-12T08:52:08Z</time>
      </trkpt>
      <trkpt lat="45.9421" lon="4.81901">
        <ele>265</ele>
        <time>2017-06-12T08:52:10Z</time>
      </trkpt>
      <trkpt lat="45.94211" lon="4.81906">
        <ele>265</ele>
        <time>2017-06-12T08:52:11Z</time>
      </trkpt>
      <trkpt lat="45.94213" lon="4.81918">
        <ele>264</ele>
        <time>2017-06-12T08:52:13Z</time>
      </trkpt>
      <trkpt lat="45.94215" lon="4.81924">
        <ele>264</ele>
        <time>2017-06-12T08:52:14Z</time>
      </trkpt>
      <trkpt lat="45.94216" lon="4.8193">
        <ele>264</ele>
        <time>2017-06-12T08:52:15Z</time>
      </trkpt>
      <trkpt lat="45.94217" lon="4.81936">
        <ele>264</ele>
        <time>2017-06-12T08:52:16Z</time>
      </trkpt>
      <trkpt lat="45.94218" lon="4.81943">
        <ele>264</ele>
        <time>2017-06-12T08:52:17Z</time>
      </trkpt>
      <trkpt lat="45.9422" lon="4.8195">
        <ele>264</ele>
        <time>2017-06-12T08:52:18Z</time>
      </trkpt>
      <trkpt lat="45.94222" lon="4.81956">
        <ele>264</ele>
        <time>2017-06-12T08:52:19Z</time>
      </trkpt>
      <trkpt lat="45.94223" lon="4.81963">
        <ele>264</ele>
        <time>2017-06-12T08:52:20Z</time>
      </trkpt>
      <trkpt lat="45.94226" lon="4.81975">
        <ele>264</ele>
        <time>2017-06-12T08:52:22Z</time>
      </trkpt>
      <trkpt lat="45.94227" lon="4.81981">
        <ele>264</ele>
        <time>2017-06-12T08:52:23Z</time>
      </trkpt>
      <trkpt lat="45.94229" lon="4.81992">
        <ele>263</ele>
        <time>2017-06-12T08:52:25Z</time>
      </trkpt>
      <trkpt lat="45.9423" lon="4.81998">
        <ele>263</ele>
        <time>2017-06-12T08:52:26Z</time>
      </trkpt>
      <trkpt lat="45.94232" lon="4.82008">
        <ele>263</ele>
        <time>2017-06-12T08:52:28Z</time>
      </trkpt>
      <trkpt lat="45.94233" lon="4.82013">
        <ele>263</ele>
        <time>2017-06-12T08:52:29Z</time>
      </trkpt>
      <trkpt lat="45.94235" lon="4.82025">
        <ele>263</ele>
        <time>2017-06-12T08:52:32Z</time>
      </trkpt>
      <trkpt lat="45.94235" lon="4.82028">
        <ele>263</ele>
        <time>2017-06-12T08:52:33Z</time>
      </trkpt>
      <trkpt lat="45.94236" lon="4.8204">
        <ele>263</ele>
        <time>2017-06-12T08:52:36Z</time>
      </trkpt>
      <trkpt lat="45.94236" lon="4.82044">
        <ele>263</ele>
        <time>2017-06-12T08:52:37Z</time>
      </trkpt>
      <trkpt lat="45.94238" lon="4.82056">
        <ele>263</ele>
        <time>2017-06-12T08:52:39Z</time>
      </trkpt>
      <trkpt lat="45.94239" lon="4.82061">
        <ele>263</ele>
        <time>2017-06-12T08:52:40Z</time>
      </trkpt>
      <trkpt lat="45.94242" lon="4.82073">
        <ele>263</ele>
        <time>2017-06-12T08:52:42Z</time>
      </trkpt>
      <trkpt lat="45.94243" lon="4.8208">
        <ele>263</ele>
        <time>2017-06-12T08:52:43Z</time>
      </trkpt>
      <trkpt lat="45.94244" lon="4.82086">
        <ele>263</ele>
        <time>2017-06-12T08:52:44Z</time>
      </trkpt>
      <trkpt lat="45.94245" lon="4.82092">
        <ele>263</ele>
        <time>2017-06-12T08:52:45Z</time>
      </trkpt>
      <trkpt lat="45.94248" lon="4.82104">
        <ele>263</ele>
        <time>2017-06-12T08:52:47Z</time>
      </trkpt>
      <trkpt lat="45.94249" lon="4.8211">
        <ele>263</ele>
        <time>2017-06-12T08:52:48Z</time>
      </trkpt>
      <trkpt lat="45.94252" lon="4.82122">
        <ele>263</ele>
        <time>2017-06-12T08:52:50Z</time>
      </trkpt>
      <trkpt lat="45.94253" lon="4.82127">
        <ele>263</ele>
        <time>2017-06-12T08:52:51Z</time>
      </trkpt>
      <trkpt lat="45.94256" lon="4.82139">
        <ele>263</ele>
        <time>2017-06-12T08:52:53Z</time>
      </trkpt>
      <trkpt lat="45.94257" lon="4.82144">
        <ele>263</ele>
        <time>2017-06-12T08:52:54Z</time>
      </trkpt>
      <trkpt lat="45.94259" lon="4.82156">
        <ele>263</ele>
        <time>2017-06-12T08:52:56Z</time>
      </trkpt>
      <trkpt lat="45.94261" lon="4.82162">
        <ele>263</ele>
        <time>2017-06-12T08:52:57Z</time>
      </trkpt>
      <trkpt lat="45.94263" lon="4.82174">
        <ele>263</ele>
        <time>2017-06-12T08:52:59Z</time>
      </trkpt>
      <trkpt lat="45.94264" lon="4.8218">
        <ele>264</ele>
        <time>2017-06-12T08:53:00Z</time>
      </trkpt>
      <trkpt lat="45.94265" lon="4.82191">
        <ele>264</ele>
        <time>2017-06-12T08:53:02Z</time>
      </trkpt>
      <trkpt lat="45.94266" lon="4.82197">
        <ele>264</ele>
        <time>2017-06-12T08:53:03Z</time>
      </trkpt>
      <trkpt lat="45.94268" lon="4.82207">
        <ele>264</ele>
        <time>2017-06-12T08:53:04Z</time>
      </trkpt>
      <trkpt lat="45.94268" lon="4.82215">
        <ele>264</ele>
        <time>2017-06-12T08:53:05Z</time>
      </trkpt>
      <trkpt lat="45.94269" lon="4.82222">
        <ele>264</ele>
        <time>2017-06-12T08:53:06Z</time>
      </trkpt>
      <trkpt lat="45.9427" lon="4.82229">
        <ele>264</ele>
        <time>2017-06-12T08:53:07Z</time>
      </trkpt>
      <trkpt lat="45.9427" lon="4.82236">
        <ele>264</ele>
        <time>2017-06-12T08:53:08Z</time>
      </trkpt>
      <trkpt lat="45.94271" lon="4.82244">
        <ele>264</ele>
        <time>2017-06-12T08:53:09Z</time>
      </trkpt>
      <trkpt lat="45.94272" lon="4.82252">
        <ele>265</ele>
        <time>2017-06-12T08:53:10Z</time>
      </trkpt>
      <trkpt lat="45.94272" lon="4.8226">
        <ele>265</ele>
        <time>2017-06-12T08:53:11Z</time>
      </trkpt>
      <trkpt lat="45.94273" lon="4.82269">
        <ele>265</ele>
        <time>2017-06-12T08:53:12Z</time>
      </trkpt>
      <trkpt lat="45.94274" lon="4.82276">
        <ele>265</ele>
        <time>2017-06-12T08:53:13Z</time>
      </trkpt>
      <trkpt lat="45.94274" lon="4.82284">
        <ele>265</ele>
        <time>2017-06-12T08:53:14Z</time>
      </trkpt>
      <trkpt lat="45.94275" lon="4.82291">
        <ele>265</ele>
        <time>2017-06-12T08:53:15Z</time>
      </trkpt>
      <trkpt lat="45.94275" lon="4.82298">
        <ele>265</ele>
        <time>2017-06-12T08:53:16Z</time>
      </trkpt>
      <trkpt lat="45.94276" lon="4.82305">
        <ele>265</ele>
        <time>2017-06-12T08:53:17Z</time>
      </trkpt>
      <trkpt lat="45.94277" lon="4.82312">
        <ele>265</ele>
        <time>2017-06-12T08:53:18Z</time>
      </trkpt>
      <trkpt lat="45.94277" lon="4.82319">
        <ele>265</ele>
        <time>2017-06-12T08:53:19Z</time>
      </trkpt>
      <trkpt lat="45.94278" lon="4.82325">
        <ele>265</ele>
        <time>2017-06-12T08:53:20Z</time>
      </trkpt>
      <trkpt lat="45.94278" lon="4.82332">
        <ele>265</ele>
        <time>2017-06-12T08:53:21Z</time>
      </trkpt>
      <trkpt lat="45.94279" lon="4.82339">
        <ele>264</ele>
        <time>2017-06-12T08:53:22Z</time>
      </trkpt>
      <trkpt lat="45.94279" lon="4.82347">
        <ele>264</ele>
        <time>2017-06-12T08:53:23Z</time>
      </trkpt>
      <trkpt lat="45.9428" lon="4.82354">
        <ele>264</ele>
        <time>2017-06-12T08:53:24Z</time>
      </trkpt>
      <trkpt lat="45.9428" lon="4.82361">
        <ele>264</ele>
        <time>2017-06-12T08:53:25Z</time>
      </trkpt>
      <trkpt lat="45.9428" lon="4.82367">
        <ele>264</ele>
        <time>2017-06-12T08:53:26Z</time>
      </trkpt>
      <trkpt lat="45.94281" lon="4.82374">
        <ele>264</ele>
        <time>2017-06-12T08:53:27Z</time>
      </trkpt>
      <trkpt lat="45.94282" lon="4.82386">
        <ele>264</ele>
        <time>2017-06-12T08:53:29Z</time>
      </trkpt>
      <trkpt lat="45.94282" lon="4.82392">
        <ele>264</ele>
        <time>2017-06-12T08:53:30Z</time>
      </trkpt>
      <trkpt lat="45.94283" lon="4.82404">
        <ele>264</ele>
        <time>2017-06-12T08:53:32Z</time>
      </trkpt>
      <trkpt lat="45.94283" lon="4.82409">
        <ele>264</ele>
        <time>2017-06-12T08:53:33Z</time>
      </trkpt>
      <trkpt lat="45.94284" lon="4.82419">
        <ele>264</ele>
        <time>2017-06-12T08:53:35Z</time>
      </trkpt>
      <trkpt lat="45.94284" lon="4.82425">
        <ele>264</ele>
        <time>2017-06-12T08:53:36Z</time>
      </trkpt>
      <trkpt lat="45.94286" lon="4.82437">
        <ele>264</ele>
        <time>2017-06-12T08:53:38Z</time>
      </trkpt>
      <trkpt lat="45.94286" lon="4.82442">
        <ele>264</ele>
        <time>2017-06-12T08:53:39Z</time>
      </trkpt>
      <trkpt lat="45.94287" lon="4.82454">
        <ele>264</ele>
        <time>2017-06-12T08:53:41Z</time>
      </trkpt>
      <trkpt lat="45.94287" lon="4.8246">
        <ele>264</ele>
        <time>2017-06-12T08:53:42Z</time>
      </trkpt>
      <trkpt lat="45.94288" lon="4.82467">
        <ele>264</ele>
        <time>2017-06-12T08:53:43Z</time>
      </trkpt>
      <trkpt lat="45.94288" lon="4.82473">
        <ele>264</ele>
        <time>2017-06-12T08:53:44Z</time>
      </trkpt>
      <trkpt lat="45.94288" lon="4.8248">
        <ele>264</ele>
        <time>2017-06-12T08:53:45Z</time>
      </trkpt>
      <trkpt lat="45.94288" lon="4.82486">
        <ele>264</ele>
        <time>2017-06-12T08:53:46Z</time>
      </trkpt>
      <trkpt lat="45.94288" lon="4.82493">
        <ele>264</ele>
        <time>2017-06-12T08:53:47Z</time>
      </trkpt>
      <trkpt lat="45.94289" lon="4.825">
        <ele>264</ele>
        <time>2017-06-12T08:53:48Z</time>
      </trkpt>
      <trkpt lat="45.94289" lon="4.82507">
        <ele>264</ele>
        <time>2017-06-12T08:53:49Z</time>
      </trkpt>
      <trkpt lat="45.94289" lon="4.82514">
        <ele>264</ele>
        <time>2017-06-12T08:53:50Z</time>
      </trkpt>
      <trkpt lat="45.94289" lon="4.82521">
        <ele>264</ele>
        <time>2017-06-12T08:53:51Z</time>
      </trkpt>
      <trkpt lat="45.94289" lon="4.82528">
        <ele>264</ele>
        <time>2017-06-12T08:53:52Z</time>
      </trkpt>
      <trkpt lat="45.94289" lon="4.8254">
        <ele>264</ele>
        <time>2017-06-12T08:53:54Z</time>
      </trkpt>
      <trkpt lat="45.94289" lon="4.82546">
        <ele>264</ele>
        <time>2017-06-12T08:53:55Z</time>
      </trkpt>
      <trkpt lat="45.94289" lon="4.82557">
        <ele>264</ele>
        <time>2017-06-12T08:53:57Z</time>
      </trkpt>
      <trkpt lat="45.94289" lon="4.82562">
        <ele>264</ele>
        <time>2017-06-12T08:53:58Z</time>
      </trkpt>
      <trkpt lat="45.94288" lon="4.82575">
        <ele>265</ele>
        <time>2017-06-12T08:54:00Z</time>
      </trkpt>
      <trkpt lat="45.94288" lon="4.82581">
        <ele>265</ele>
        <time>2017-06-12T08:54:01Z</time>
      </trkpt>
      <trkpt lat="45.94287" lon="4.82594">
        <ele>265</ele>
        <time>2017-06-12T08:54:03Z</time>
      </trkpt>
      <trkpt lat="45.94287" lon="4.826">
        <ele>265</ele>
        <time>2017-06-12T08:54:04Z</time>
      </trkpt>
      <trkpt lat="45.94288" lon="4.82612">
        <ele>265</ele>
        <time>2017-06-12T08:54:06Z</time>
      </trkpt>
      <trkpt lat="45.94288" lon="4.82617">
        <ele>265</ele>
        <time>2017-06-12T08:54:07Z</time>
      </trkpt>
      <trkpt lat="45.94288" lon="4.82623">
        <ele>265</ele>
        <time>2017-06-12T08:54:08Z</time>
      </trkpt>
      <trkpt lat="45.94289" lon="4.82631">
        <ele>265</ele>
        <time>2017-06-12T08:54:09Z</time>
      </trkpt>
      <trkpt lat="45.94289" lon="4.82638">
        <ele>265</ele>
        <time>2017-06-12T08:54:10Z</time>
      </trkpt>
      <trkpt lat="45.94288" lon="4.82646">
        <ele>265</ele>
        <time>2017-06-12T08:54:11Z</time>
      </trkpt>
      <trkpt lat="45.94288" lon="4.82655">
        <ele>265</ele>
        <time>2017-06-12T08:54:12Z</time>
      </trkpt>
      <trkpt lat="45.94288" lon="4.82663">
        <ele>265</ele>
        <time>2017-06-12T08:54:13Z</time>
      </trkpt>
      <trkpt lat="45.94288" lon="4.82671">
        <ele>265</ele>
        <time>2017-06-12T08:54:14Z</time>
      </trkpt>
      <trkpt lat="45.94288" lon="4.82679">
        <ele>265</ele>
        <time>2017-06-12T08:54:15Z</time>
      </trkpt>
      <trkpt lat="45.94288" lon="4.82686">
        <ele>265</ele>
        <time>2017-06-12T08:54:16Z</time>
      </trkpt>
      <trkpt lat="45.94288" lon="4.82693">
        <ele>265</ele>
        <time>2017-06-12T08:54:17Z</time>
      </trkpt>
      <trkpt lat="45.94288" lon="4.827">
        <ele>265</ele>
        <time>2017-06-12T08:54:18Z</time>
      </trkpt>
      <trkpt lat="45.94288" lon="4.82707">
        <ele>265</ele>
        <time>2017-06-12T08:54:19Z</time>
      </trkpt>
      <trkpt lat="45.94287" lon="4.8272">
        <ele>265</ele>
        <time>2017-06-12T08:54:21Z</time>
      </trkpt>
      <trkpt lat="45.94287" lon="4.82726">
        <ele>265</ele>
        <time>2017-06-12T08:54:22Z</time>
      </trkpt>
      <trkpt lat="45.94287" lon="4.82737">
        <ele>265</ele>
        <time>2017-06-12T08:54:24Z</time>
      </trkpt>
      <trkpt lat="45.94287" lon="4.82743">
        <ele>265</ele>
        <time>2017-06-12T08:54:25Z</time>
      </trkpt>
      <trkpt lat="45.94286" lon="4.82756">
        <ele>265</ele>
        <time>2017-06-12T08:54:27Z</time>
      </trkpt>
      <trkpt lat="45.94286" lon="4.82762">
        <ele>265</ele>
        <time>2017-06-12T08:54:28Z</time>
      </trkpt>
      <trkpt lat="45.94286" lon="4.82768">
        <ele>265</ele>
        <time>2017-06-12T08:54:29Z</time>
      </trkpt>
      <trkpt lat="45.94286" lon="4.82775">
        <ele>265</ele>
        <time>2017-06-12T08:54:30Z</time>
      </trkpt>
      <trkpt lat="45.94286" lon="4.82781">
        <ele>265</ele>
        <time>2017-06-12T08:54:31Z</time>
      </trkpt>
      <trkpt lat="45.94286" lon="4.82788">
        <ele>265</ele>
        <time>2017-06-12T08:54:32Z</time>
      </trkpt>
      <trkpt lat="45.94286" lon="4.82795">
        <ele>265</ele>
        <time>2017-06-12T08:54:33Z</time>
      </trkpt>
      <trkpt lat="45.94286" lon="4.82801">
        <ele>265</ele>
        <time>2017-06-12T08:54:34Z</time>
      </trkpt>
      <trkpt lat="45.94285" lon="4.82814">
        <ele>265</ele>
        <time>2017-06-12T08:54:36Z</time>
      </trkpt>
      <trkpt lat="45.94285" lon="4.82819">
        <ele>265</ele>
        <time>2017-06-12T08:54:37Z</time>
      </trkpt>
      <trkpt lat="45.94285" lon="4.8283">
        <ele>265</ele>
        <time>2017-06-12T08:54:39Z</time>
      </trkpt>
      <trkpt lat="45.94285" lon="4.82836">
        <ele>265</ele>
        <time>2017-06-12T08:54:40Z</time>
      </trkpt>
      <trkpt lat="45.94284" lon="4.82849">
        <ele>265</ele>
        <time>2017-06-12T08:54:42Z</time>
      </trkpt>
      <trkpt lat="45.94284" lon="4.82855">
        <ele>265</ele>
        <time>2017-06-12T08:54:43Z</time>
      </trkpt>
      <trkpt lat="45.94284" lon="4.82862">
        <ele>265</ele>
        <time>2017-06-12T08:54:44Z</time>
      </trkpt>
      <trkpt lat="45.94283" lon="4.82868">
        <ele>265</ele>
        <time>2017-06-12T08:54:45Z</time>
      </trkpt>
      <trkpt lat="45.94283" lon="4.82881">
        <ele>265</ele>
        <time>2017-06-12T08:54:47Z</time>
      </trkpt>
      <trkpt lat="45.94283" lon="4.82887">
        <ele>265</ele>
        <time>2017-06-12T08:54:48Z</time>
      </trkpt>
      <trkpt lat="45.94283" lon="4.82894">
        <ele>265</ele>
        <time>2017-06-12T08:54:49Z</time>
      </trkpt>
      <trkpt lat="45.94283" lon="4.82901">
        <ele>265</ele>
        <time>2017-06-12T08:54:50Z</time>
      </trkpt>
      <trkpt lat="45.94282" lon="4.82907">
        <ele>265</ele>
        <time>2017-06-12T08:54:51Z</time>
      </trkpt>
      <trkpt lat="45.94281" lon="4.82914">
        <ele>265</ele>
        <time>2017-06-12T08:54:52Z</time>
      </trkpt>
      <trkpt lat="45.9428" lon="4.82922">
        <ele>265</ele>
        <time>2017-06-12T08:54:53Z</time>
      </trkpt>
      <trkpt lat="45.94279" lon="4.82929">
        <ele>265</ele>
        <time>2017-06-12T08:54:54Z</time>
      </trkpt>
      <trkpt lat="45.94278" lon="4.82937">
        <ele>265</ele>
        <time>2017-06-12T08:54:55Z</time>
      </trkpt>
      <trkpt lat="45.94276" lon="4.82944">
        <ele>265</ele>
        <time>2017-06-12T08:54:56Z</time>
      </trkpt>
      <trkpt lat="45.94275" lon="4.8295">
        <ele>265</ele>
        <time>2017-06-12T08:54:57Z</time>
      </trkpt>
      <trkpt lat="45.94274" lon="4.82957">
        <ele>265</ele>
        <time>2017-06-12T08:54:58Z</time>
      </trkpt>
      <trkpt lat="45.94274" lon="4.82964">
        <ele>265</ele>
        <time>2017-06-12T08:54:59Z</time>
      </trkpt>
      <trkpt lat="45.94276" lon="4.8297">
        <ele>265</ele>
        <time>2017-06-12T08:55:00Z</time>
      </trkpt>
      <trkpt lat="45.94282" lon="4.82979">
        <ele>265</ele>
        <time>2017-06-12T08:55:02Z</time>
      </trkpt>
      <trkpt lat="45.94284" lon="4.82985">
        <ele>265</ele>
        <time>2017-06-12T08:55:03Z</time>
      </trkpt>
      <trkpt lat="45.94287" lon="4.82997">
        <ele>265</ele>
        <time>2017-06-12T08:55:05Z</time>
      </trkpt>
      <trkpt lat="45.94289" lon="4.83003">
        <ele>266</ele>
        <time>2017-06-12T08:55:06Z</time>
      </trkpt>
      <trkpt lat="45.94291" lon="4.83014">
        <ele>266</ele>
        <time>2017-06-12T08:55:08Z</time>
      </trkpt>
      <trkpt lat="45.94292" lon="4.8302">
        <ele>266</ele>
        <time>2017-06-12T08:55:09Z</time>
      </trkpt>
      <trkpt lat="45.94293" lon="4.83027">
        <ele>266</ele>
        <time>2017-06-12T08:55:10Z</time>
      </trkpt>
      <trkpt lat="45.94295" lon="4.83033">
        <ele>266</ele>
        <time>2017-06-12T08:55:11Z</time>
      </trkpt>
      <trkpt lat="45.94296" lon="4.8304">
        <ele>266</ele>
        <time>2017-06-12T08:55:12Z</time>
      </trkpt>
      <trkpt lat="45.94297" lon="4.83047">
        <ele>266</ele>
        <time>2017-06-12T08:55:13Z</time>
      </trkpt>
      <trkpt lat="45.94299" lon="4.83053">
        <ele>266</ele>
        <time>2017-06-12T08:55:14Z</time>
      </trkpt>
      <trkpt lat="45.94301" lon="4.83059">
        <ele>266</ele>
        <time>2017-06-12T08:55:15Z</time>
      </trkpt>
      <trkpt lat="45.94304" lon="4.83071">
        <ele>266</ele>
        <time>2017-06-12T08:55:17Z</time>
      </trkpt>
      <trkpt lat="45.94305" lon="4.83077">
        <ele>266</ele>
        <time>2017-06-12T08:55:18Z</time>
      </trkpt>
      <trkpt lat="45.94309" lon="4.83088">
        <ele>266</ele>
        <time>2017-06-12T08:55:20Z</time>
      </trkpt>
      <trkpt lat="45.9431" lon="4.83095">
        <ele>266</ele>
        <time>2017-06-12T08:55:21Z</time>
      </trkpt>
      <trkpt lat="45.94312" lon="4.83101">
        <ele>266</ele>
        <time>2017-06-12T08:55:22Z</time>
      </trkpt>
      <trkpt lat="45.94314" lon="4.83107">
        <ele>266</ele>
        <time>2017-06-12T08:55:23Z</time>
      </trkpt>
      <trkpt lat="45.94316" lon="4.83114">
        <ele>266</ele>
        <time>2017-06-12T08:55:24Z</time>
      </trkpt>
      <trkpt lat="45.94318" lon="4.8312">
        <ele>266</ele>
        <time>2017-06-12T08:55:25Z</time>
      </trkpt>
      <trkpt lat="45.9432" lon="4.83127">
        <ele>266</ele>
        <time>2017-06-12T08:55:26Z</time>
      </trkpt>
      <trkpt lat="45.94323" lon="4.83133">
        <ele>266</ele>
        <time>2017-06-12T08:55:27Z</time>
      </trkpt>
      <trkpt lat="45.94325" lon="4.83139">
        <ele>266</ele>
        <time>2017-06-12T08:55:28Z</time>
      </trkpt>
      <trkpt lat="45.94327" lon="4.83145">
        <ele>266</ele>
        <time>2017-06-12T08:55:29Z</time>
      </trkpt>
      <trkpt lat="45.94329" lon="4.83151">
        <ele>266</ele>
        <time>2017-06-12T08:55:30Z</time>
      </trkpt>
      <trkpt lat="45.94331" lon="4.83157">
        <ele>266</ele>
        <time>2017-06-12T08:55:31Z</time>
      </trkpt>
      <trkpt lat="45.94335" lon="4.83168">
        <ele>266</ele>
        <time>2017-06-12T08:55:33Z</time>
      </trkpt>
      <trkpt lat="45.94337" lon="4.83174">
        <ele>266</ele>
        <time>2017-06-12T08:55:34Z</time>
      </trkpt>
      <trkpt lat="45.94339" lon="4.83179">
        <ele>266</ele>
        <time>2017-06-12T08:55:35Z</time>
      </trkpt>
      <trkpt lat="45.94341" lon="4.83186">
        <ele>266</ele>
        <time>2017-06-12T08:55:36Z</time>
      </trkpt>
      <trkpt lat="45.94343" lon="4.83192">
        <ele>266</ele>
        <time>2017-06-12T08:55:37Z</time>
      </trkpt>
      <trkpt lat="45.94346" lon="4.83199">
        <ele>266</ele>
        <time>2017-06-12T08:55:38Z</time>
      </trkpt>
      <trkpt lat="45.94347" lon="4.83206">
        <ele>266</ele>
        <time>2017-06-12T08:55:39Z</time>
      </trkpt>
      <trkpt lat="45.94349" lon="4.83212">
        <ele>266</ele>
        <time>2017-06-12T08:55:40Z</time>
      </trkpt>
      <trkpt lat="45.94352" lon="4.83219">
        <ele>266</ele>
        <time>2017-06-12T08:55:41Z</time>
      </trkpt>
      <trkpt lat="45.94354" lon="4.83226">
        <ele>266</ele>
        <time>2017-06-12T08:55:42Z</time>
      </trkpt>
      <trkpt lat="45.94357" lon="4.83233">
        <ele>265</ele>
        <time>2017-06-12T08:55:43Z</time>
      </trkpt>
      <trkpt lat="45.94359" lon="4.8324">
        <ele>265</ele>
        <time>2017-06-12T08:55:44Z</time>
      </trkpt>
      <trkpt lat="45.94362" lon="4.83246">
        <ele>265</ele>
        <time>2017-06-12T08:55:45Z</time>
      </trkpt>
      <trkpt lat="45.94364" lon="4.83253">
        <ele>265</ele>
        <time>2017-06-12T08:55:46Z</time>
      </trkpt>
      <trkpt lat="45.94366" lon="4.8326">
        <ele>265</ele>
        <time>2017-06-12T08:55:47Z</time>
      </trkpt>
      <trkpt lat="45.94368" lon="4.83267">
        <ele>264</ele>
        <time>2017-06-12T08:55:48Z</time>
      </trkpt>
      <trkpt lat="45.94371" lon="4.83273">
        <ele>264</ele>
        <time>2017-06-12T08:55:49Z</time>
      </trkpt>
      <trkpt lat="45.94373" lon="4.8328">
        <ele>264</ele>
        <time>2017-06-12T08:55:50Z</time>
      </trkpt>
      <trkpt lat="45.94376" lon="4.83287">
        <ele>264</ele>
        <time>2017-06-12T08:55:51Z</time>
      </trkpt>
      <trkpt lat="45.94378" lon="4.83293">
        <ele>264</ele>
        <time>2017-06-12T08:55:52Z</time>
      </trkpt>
      <trkpt lat="45.9438" lon="4.833">
        <ele>264</ele>
        <time>2017-06-12T08:55:53Z</time>
      </trkpt>
      <trkpt lat="45.94382" lon="4.83306">
        <ele>264</ele>
        <time>2017-06-12T08:55:54Z</time>
      </trkpt>
      <trkpt lat="45.94385" lon="4.83313">
        <ele>264</ele>
        <time>2017-06-12T08:55:55Z</time>
      </trkpt>
      <trkpt lat="45.94387" lon="4.83319">
        <ele>264</ele>
        <time>2017-06-12T08:55:56Z</time>
      </trkpt>
      <trkpt lat="45.94391" lon="4.8333">
        <ele>264</ele>
        <time>2017-06-12T08:55:58Z</time>
      </trkpt>
      <trkpt lat="45.94393" lon="4.83335">
        <ele>263</ele>
        <time>2017-06-12T08:55:59Z</time>
      </trkpt>
      <trkpt lat="45.94397" lon="4.83347">
        <ele>263</ele>
        <time>2017-06-12T08:56:01Z</time>
      </trkpt>
      <trkpt lat="45.944" lon="4.83353">
        <ele>264</ele>
        <time>2017-06-12T08:56:02Z</time>
      </trkpt>
      <trkpt lat="45.94402" lon="4.83358">
        <ele>264</ele>
        <time>2017-06-12T08:56:03Z</time>
      </trkpt>
      <trkpt lat="45.94405" lon="4.83364">
        <ele>264</ele>
        <time>2017-06-12T08:56:04Z</time>
      </trkpt>
      <trkpt lat="45.94408" lon="4.83369">
        <ele>264</ele>
        <time>2017-06-12T08:56:05Z</time>
      </trkpt>
      <trkpt lat="45.9441" lon="4.83375">
        <ele>264</ele>
        <time>2017-06-12T08:56:06Z</time>
      </trkpt>
      <trkpt lat="45.94415" lon="4.83385">
        <ele>264</ele>
        <time>2017-06-12T08:56:08Z</time>
      </trkpt>
      <trkpt lat="45.94418" lon="4.8339">
        <ele>264</ele>
        <time>2017-06-12T08:56:09Z</time>
      </trkpt>
      <trkpt lat="45.94423" lon="4.834">
        <ele>264</ele>
        <time>2017-06-12T08:56:11Z</time>
      </trkpt>
      <trkpt lat="45.94425" lon="4.83405">
        <ele>264</ele>
        <time>2017-06-12T08:56:12Z</time>
      </trkpt>
      <trkpt lat="45.94428" lon="4.8341">
        <ele>264</ele>
        <time>2017-06-12T08:56:13Z</time>
      </trkpt>
      <trkpt lat="45.94431" lon="4.83416">
        <ele>264</ele>
        <time>2017-06-12T08:56:14Z</time>
      </trkpt>
      <trkpt lat="45.94434" lon="4.83422">
        <ele>264</ele>
        <time>2017-06-12T08:56:15Z</time>
      </trkpt>
      <trkpt lat="45.94437" lon="4.83428">
        <ele>264</ele>
        <time>2017-06-12T08:56:16Z</time>
      </trkpt>
      <trkpt lat="45.9444" lon="4.83434">
        <ele>263</ele>
        <time>2017-06-12T08:56:17Z</time>
      </trkpt>
      <trkpt lat="45.94442" lon="4.8344">
        <ele>263</ele>
        <time>2017-06-12T08:56:18Z</time>
      </trkpt>
      <trkpt lat="45.94445" lon="4.83445">
        <ele>263</ele>
        <time>2017-06-12T08:56:19Z</time>
      </trkpt>
      <trkpt lat="45.94448" lon="4.8345">
        <ele>263</ele>
        <time>2017-06-12T08:56:20Z</time>
      </trkpt>
      <trkpt lat="45.94454" lon="4.8346">
        <ele>263</ele>
        <time>2017-06-12T08:56:22Z</time>
      </trkpt>
      <trkpt lat="45.94457" lon="4.83465">
        <ele>263</ele>
        <time>2017-06-12T08:56:23Z</time>
      </trkpt>
      <trkpt lat="45.9446" lon="4.8347">
        <ele>263</ele>
        <time>2017-06-12T08:56:24Z</time>
      </trkpt>
      <trkpt lat="45.94463" lon="4.83476">
        <ele>263</ele>
        <time>2017-06-12T08:56:25Z</time>
      </trkpt>
      <trkpt lat="45.94466" lon="4.83481">
        <ele>263</ele>
        <time>2017-06-12T08:56:26Z</time>
      </trkpt>
      <trkpt lat="45.94469" lon="4.83487">
        <ele>263</ele>
        <time>2017-06-12T08:56:27Z</time>
      </trkpt>
      <trkpt lat="45.94473" lon="4.83493">
        <ele>263</ele>
        <time>2017-06-12T08:56:28Z</time>
      </trkpt>
      <trkpt lat="45.94477" lon="4.83499">
        <ele>263</ele>
        <time>2017-06-12T08:56:29Z</time>
      </trkpt>
      <trkpt lat="45.94481" lon="4.83506">
        <ele>262</ele>
        <time>2017-06-12T08:56:30Z</time>
      </trkpt>
      <trkpt lat="45.94484" lon="4.83513">
        <ele>262</ele>
        <time>2017-06-12T08:56:31Z</time>
      </trkpt>
      <trkpt lat="45.94488" lon="4.83519">
        <ele>262</ele>
        <time>2017-06-12T08:56:32Z</time>
      </trkpt>
      <trkpt lat="45.94492" lon="4.83526">
        <ele>262</ele>
        <time>2017-06-12T08:56:33Z</time>
      </trkpt>
      <trkpt lat="45.94496" lon="4.83532">
        <ele>262</ele>
        <time>2017-06-12T08:56:34Z</time>
      </trkpt>
      <trkpt lat="45.94499" lon="4.83538">
        <ele>262</ele>
        <time>2017-06-12T08:56:35Z</time>
      </trkpt>
      <trkpt lat="45.94502" lon="4.83543">
        <ele>262</ele>
        <time>2017-06-12T08:56:36Z</time>
      </trkpt>
      <trkpt lat="45.94505" lon="4.83549">
        <ele>261</ele>
        <time>2017-06-12T08:56:37Z</time>
      </trkpt>
      <trkpt lat="45.94508" lon="4.83555">
        <ele>261</ele>
        <time>2017-06-12T08:56:38Z</time>
      </trkpt>
      <trkpt lat="45.94511" lon="4.83561">
        <ele>261</ele>
        <time>2017-06-12T08:56:39Z</time>
      </trkpt>
      <trkpt lat="45.94513" lon="4.83567">
        <ele>261</ele>
        <time>2017-06-12T08:56:40Z</time>
      </trkpt>
      <trkpt lat="45.94516" lon="4.83573">
        <ele>261</ele>
        <time>2017-06-12T08:56:41Z</time>
      </trkpt>
      <trkpt lat="45.9452" lon="4.83584">
        <ele>261</ele>
        <time>2017-06-12T08:56:43Z</time>
      </trkpt>
      <trkpt lat="45.94522" lon="4.8359">
        <ele>261</ele>
        <time>2017-06-12T08:56:44Z</time>
      </trkpt>
      <trkpt lat="45.94523" lon="4.83596">
        <ele>261</ele>
        <time>2017-06-12T08:56:45Z</time>
      </trkpt>
      <trkpt lat="45.94525" lon="4.83602">
        <ele>261</ele>
        <time>2017-06-12T08:56:46Z</time>
      </trkpt>
      <trkpt lat="45.94526" lon="4.83609">
        <ele>261</ele>
        <time>2017-06-12T08:56:47Z</time>
      </trkpt>
      <trkpt lat="45.94527" lon="4.83617">
        <ele>261</ele>
        <time>2017-06-12T08:56:48Z</time>
      </trkpt>
      <trkpt lat="45.94528" lon="4.83624">
        <ele>261</ele>
        <time>2017-06-12T08:56:49Z</time>
      </trkpt>
      <trkpt lat="45.9453" lon="4.83631">
        <ele>261</ele>
        <time>2017-06-12T08:56:50Z</time>
      </trkpt>
      <trkpt lat="45.94531" lon="4.83639">
        <ele>261</ele>
        <time>2017-06-12T08:56:51Z</time>
      </trkpt>
      <trkpt lat="45.94532" lon="4.83646">
        <ele>261</ele>
        <time>2017-06-12T08:56:52Z</time>
      </trkpt>
      <trkpt lat="45.94533" lon="4.83653">
        <ele>261</ele>
        <time>2017-06-12T08:56:53Z</time>
      </trkpt>
      <trkpt lat="45.94533" lon="4.8366">
        <ele>261</ele>
        <time>2017-06-12T08:56:54Z</time>
      </trkpt>
      <trkpt lat="45.94534" lon="4.83667">
        <ele>261</ele>
        <time>2017-06-12T08:56:55Z</time>
      </trkpt>
      <trkpt lat="45.94536" lon="4.83673">
        <ele>262</ele>
        <time>2017-06-12T08:56:56Z</time>
      </trkpt>
      <trkpt lat="45.94537" lon="4.8368">
        <ele>262</ele>
        <time>2017-06-12T08:56:57Z</time>
      </trkpt>
      <trkpt lat="45.94538" lon="4.83687">
        <ele>262</ele>
        <time>2017-06-12T08:56:58Z</time>
      </trkpt>
      <trkpt lat="45.94539" lon="4.83694">
        <ele>262</ele>
        <time>2017-06-12T08:56:59Z</time>
      </trkpt>
      <trkpt lat="45.9454" lon="4.83701">
        <ele>262</ele>
        <time>2017-06-12T08:57:00Z</time>
      </trkpt>
      <trkpt lat="45.94541" lon="4.83708">
        <ele>262</ele>
        <time>2017-06-12T08:57:01Z</time>
      </trkpt>
      <trkpt lat="45.94542" lon="4.83715">
        <ele>262</ele>
        <time>2017-06-12T08:57:02Z</time>
      </trkpt>
      <trkpt lat="45.94542" lon="4.83722">
        <ele>262</ele>
        <time>2017-06-12T08:57:03Z</time>
      </trkpt>
      <trkpt lat="45.94543" lon="4.83728">
        <ele>262</ele>
        <time>2017-06-12T08:57:04Z</time>
      </trkpt>
      <trkpt lat="45.94545" lon="4.8374">
        <ele>262</ele>
        <time>2017-06-12T08:57:06Z</time>
      </trkpt>
      <trkpt lat="45.94546" lon="4.83747">
        <ele>262</ele>
        <time>2017-06-12T08:57:07Z</time>
      </trkpt>
      <trkpt lat="45.94548" lon="4.83753">
        <ele>263</ele>
        <time>2017-06-12T08:57:08Z</time>
      </trkpt>
      <trkpt lat="45.94549" lon="4.8376">
        <ele>263</ele>
        <time>2017-06-12T08:57:09Z</time>
      </trkpt>
      <trkpt lat="45.9455" lon="4.83768">
        <ele>264</ele>
        <time>2017-06-12T08:57:10Z</time>
      </trkpt>
      <trkpt lat="45.94552" lon="4.83776">
        <ele>264</ele>
        <time>2017-06-12T08:57:11Z</time>
      </trkpt>
      <trkpt lat="45.94553" lon="4.83784">
        <ele>264</ele>
        <time>2017-06-12T08:57:12Z</time>
      </trkpt>
      <trkpt lat="45.94554" lon="4.83793">
        <ele>264</ele>
        <time>2017-06-12T08:57:13Z</time>
      </trkpt>
      <trkpt lat="45.94555" lon="4.83801">
        <ele>264</ele>
        <time>2017-06-12T08:57:14Z</time>
      </trkpt>
      <trkpt lat="45.94557" lon="4.8381">
        <ele>264</ele>
        <time>2017-06-12T08:57:15Z</time>
      </trkpt>
      <trkpt lat="45.94558" lon="4.83818">
        <ele>264</ele>
        <time>2017-06-12T08:57:16Z</time>
      </trkpt>
      <trkpt lat="45.9456" lon="4.83825">
        <ele>264</ele>
        <time>2017-06-12T08:57:17Z</time>
      </trkpt>
      <trkpt lat="45.94561" lon="4.83832">
        <ele>265</ele>
        <time>2017-06-12T08:57:18Z</time>
      </trkpt>
      <trkpt lat="45.94562" lon="4.83839">
        <ele>266</ele>
        <time>2017-06-12T08:57:19Z</time>
      </trkpt>
      <trkpt lat="45.94563" lon="4.83846">
        <ele>266</ele>
        <time>2017-06-12T08:57:20Z</time>
      </trkpt>
      <trkpt lat="45.94565" lon="4.83853">
        <ele>266</ele>
        <time>2017-06-12T08:57:21Z</time>
      </trkpt>
      <trkpt lat="45.94566" lon="4.8386">
        <ele>267</ele>
        <time>2017-06-12T08:57:22Z</time>
      </trkpt>
      <trkpt lat="45.94567" lon="4.83868">
        <ele>267</ele>
        <time>2017-06-12T08:57:23Z</time>
      </trkpt>
      <trkpt lat="45.94569" lon="4.83875">
        <ele>267</ele>
        <time>2017-06-12T08:57:24Z</time>
      </trkpt>
      <trkpt lat="45.9457" lon="4.83882">
        <ele>267</ele>
        <time>2017-06-12T08:57:25Z</time>
      </trkpt>
      <trkpt lat="45.94571" lon="4.8389">
        <ele>267</ele>
        <time>2017-06-12T08:57:26Z</time>
      </trkpt>
      <trkpt lat="45.94572" lon="4.83898">
        <ele>268</ele>
        <time>2017-06-12T08:57:27Z</time>
      </trkpt>
      <trkpt lat="45.94574" lon="4.83905">
        <ele>268</ele>
        <time>2017-06-12T08:57:28Z</time>
      </trkpt>
      <trkpt lat="45.94575" lon="4.83912">
        <ele>268</ele>
        <time>2017-06-12T08:57:29Z</time>
      </trkpt>
      <trkpt lat="45.94576" lon="4.8392">
        <ele>268</ele>
        <time>2017-06-12T08:57:30Z</time>
      </trkpt>
      <trkpt lat="45.94577" lon="4.83928">
        <ele>268</ele>
        <time>2017-06-12T08:57:31Z</time>
      </trkpt>
      <trkpt lat="45.94578" lon="4.83935">
        <ele>269</ele>
        <time>2017-06-12T08:57:32Z</time>
      </trkpt>
      <trkpt lat="45.94579" lon="4.83942">
        <ele>269</ele>
        <time>2017-06-12T08:57:33Z</time>
      </trkpt>
      <trkpt lat="45.9458" lon="4.8395">
        <ele>269</ele>
        <time>2017-06-12T08:57:34Z</time>
      </trkpt>
      <trkpt lat="45.94582" lon="4.83957">
        <ele>269</ele>
        <time>2017-06-12T08:57:35Z</time>
      </trkpt>
      <trkpt lat="45.94583" lon="4.83964">
        <ele>269</ele>
        <time>2017-06-12T08:57:36Z</time>
      </trkpt>
      <trkpt lat="45.94584" lon="4.83972">
        <ele>268</ele>
        <time>2017-06-12T08:57:37Z</time>
      </trkpt>
      <trkpt lat="45.94585" lon="4.83979">
        <ele>268</ele>
        <time>2017-06-12T08:57:38Z</time>
      </trkpt>
      <trkpt lat="45.94586" lon="4.83986">
        <ele>269</ele>
        <time>2017-06-12T08:57:39Z</time>
      </trkpt>
      <trkpt lat="45.94587" lon="4.83992">
        <ele>269</ele>
        <time>2017-06-12T08:57:40Z</time>
      </trkpt>
      <trkpt lat="45.94588" lon="4.83999">
        <ele>269</ele>
        <time>2017-06-12T08:57:41Z</time>
      </trkpt>
      <trkpt lat="45.94589" lon="4.84005">
        <ele>269</ele>
        <time>2017-06-12T08:57:42Z</time>
      </trkpt>
      <trkpt lat="45.9459" lon="4.84013">
        <ele>269</ele>
        <time>2017-06-12T08:57:43Z</time>
      </trkpt>
      <trkpt lat="45.94592" lon="4.84024">
        <ele>269</ele>
        <time>2017-06-12T08:57:45Z</time>
      </trkpt>
      <trkpt lat="45.94593" lon="4.8403">
        <ele>269</ele>
        <time>2017-06-12T08:57:46Z</time>
      </trkpt>
      <trkpt lat="45.94594" lon="4.84041">
        <ele>269</ele>
        <time>2017-06-12T08:57:48Z</time>
      </trkpt>
      <trkpt lat="45.94595" lon="4.84047">
        <ele>269</ele>
        <time>2017-06-12T08:57:49Z</time>
      </trkpt>
      <trkpt lat="45.94597" lon="4.84059">
        <ele>269</ele>
        <time>2017-06-12T08:57:51Z</time>
      </trkpt>
      <trkpt lat="45.94598" lon="4.84065">
        <ele>269</ele>
        <time>2017-06-12T08:57:52Z</time>
      </trkpt>
      <trkpt lat="45.94599" lon="4.84072">
        <ele>269</ele>
        <time>2017-06-12T08:57:53Z</time>
      </trkpt>
      <trkpt lat="45.946" lon="4.84078">
        <ele>269</ele>
        <time>2017-06-12T08:57:54Z</time>
      </trkpt>
      <trkpt lat="45.94602" lon="4.8409">
        <ele>269</ele>
        <time>2017-06-12T08:57:56Z</time>
      </trkpt>
      <trkpt lat="45.94603" lon="4.84096">
        <ele>269</ele>
        <time>2017-06-12T08:57:57Z</time>
      </trkpt>
      <trkpt lat="45.94605" lon="4.84107">
        <ele>269</ele>
        <time>2017-06-12T08:57:59Z</time>
      </trkpt>
      <trkpt lat="45.94606" lon="4.84113">
        <ele>269</ele>
        <time>2017-06-12T08:58:00Z</time>
      </trkpt>
      <trkpt lat="45.94607" lon="4.84125">
        <ele>269</ele>
        <time>2017-06-12T08:58:02Z</time>
      </trkpt>
      <trkpt lat="45.94608" lon="4.84131">
        <ele>269</ele>
        <time>2017-06-12T08:58:03Z</time>
      </trkpt>
      <trkpt lat="45.94609" lon="4.84137">
        <ele>269</ele>
        <time>2017-06-12T08:58:04Z</time>
      </trkpt>
      <trkpt lat="45.9461" lon="4.84144">
        <ele>269</ele>
        <time>2017-06-12T08:58:05Z</time>
      </trkpt>
      <trkpt lat="45.94612" lon="4.8415">
        <ele>269</ele>
        <time>2017-06-12T08:58:06Z</time>
      </trkpt>
      <trkpt lat="45.94613" lon="4.84157">
        <ele>269</ele>
        <time>2017-06-12T08:58:07Z</time>
      </trkpt>
      <trkpt lat="45.94614" lon="4.84169">
        <ele>269</ele>
        <time>2017-06-12T08:58:09Z</time>
      </trkpt>
      <trkpt lat="45.94615" lon="4.84175">
        <ele>269</ele>
        <time>2017-06-12T08:58:10Z</time>
      </trkpt>
      <trkpt lat="45.94617" lon="4.84186">
        <ele>269</ele>
        <time>2017-06-12T08:58:12Z</time>
      </trkpt>
      <trkpt lat="45.94618" lon="4.84192">
        <ele>269</ele>
        <time>2017-06-12T08:58:13Z</time>
      </trkpt>
      <trkpt lat="45.94619" lon="4.84203">
        <ele>269</ele>
        <time>2017-06-12T08:58:15Z</time>
      </trkpt>
      <trkpt lat="45.9462" lon="4.8421">
        <ele>269</ele>
        <time>2017-06-12T08:58:16Z</time>
      </trkpt>
      <trkpt lat="45.94621" lon="4.84216">
        <ele>269</ele>
        <time>2017-06-12T08:58:17Z</time>
      </trkpt>
      <trkpt lat="45.94622" lon="4.84223">
        <ele>269</ele>
        <time>2017-06-12T08:58:18Z</time>
      </trkpt>
      <trkpt lat="45.94624" lon="4.84234">
        <ele>269</ele>
        <time>2017-06-12T08:58:20Z</time>
      </trkpt>
      <trkpt lat="45.94625" lon="4.8424">
        <ele>269</ele>
        <time>2017-06-12T08:58:21Z</time>
      </trkpt>
      <trkpt lat="45.94626" lon="4.84251">
        <ele>269</ele>
        <time>2017-06-12T08:58:23Z</time>
      </trkpt>
      <trkpt lat="45.94626" lon="4.84257">
        <ele>269</ele>
        <time>2017-06-12T08:58:24Z</time>
      </trkpt>
      <trkpt lat="45.94627" lon="4.84264">
        <ele>269</ele>
        <time>2017-06-12T08:58:25Z</time>
      </trkpt>
      <trkpt lat="45.94628" lon="4.84271">
        <ele>269</ele>
        <time>2017-06-12T08:58:26Z</time>
      </trkpt>
      <trkpt lat="45.94629" lon="4.84278">
        <ele>269</ele>
        <time>2017-06-12T08:58:27Z</time>
      </trkpt>
      <trkpt lat="45.9463" lon="4.84286">
        <ele>269</ele>
        <time>2017-06-12T08:58:28Z</time>
      </trkpt>
      <trkpt lat="45.94631" lon="4.84294">
        <ele>269</ele>
        <time>2017-06-12T08:58:29Z</time>
      </trkpt>
      <trkpt lat="45.94632" lon="4.84302">
        <ele>269</ele>
        <time>2017-06-12T08:58:30Z</time>
      </trkpt>
      <trkpt lat="45.94633" lon="4.8431">
        <ele>269</ele>
        <time>2017-06-12T08:58:31Z</time>
      </trkpt>
      <trkpt lat="45.94633" lon="4.84317">
        <ele>269</ele>
        <time>2017-06-12T08:58:32Z</time>
      </trkpt>
      <trkpt lat="45.94634" lon="4.84325">
        <ele>269</ele>
        <time>2017-06-12T08:58:33Z</time>
      </trkpt>
      <trkpt lat="45.94636" lon="4.84331">
        <ele>269</ele>
        <time>2017-06-12T08:58:34Z</time>
      </trkpt>
      <trkpt lat="45.94637" lon="4.84337">
        <ele>268</ele>
        <time>2017-06-12T08:58:35Z</time>
      </trkpt>
      <trkpt lat="45.94637" lon="4.84344">
        <ele>268</ele>
        <time>2017-06-12T08:58:36Z</time>
      </trkpt>
      <trkpt lat="45.94638" lon="4.84356">
        <ele>268</ele>
        <time>2017-06-12T08:58:38Z</time>
      </trkpt>
      <trkpt lat="45.94639" lon="4.84361">
        <ele>268</ele>
        <time>2017-06-12T08:58:39Z</time>
      </trkpt>
      <trkpt lat="45.9464" lon="4.84371">
        <ele>268</ele>
        <time>2017-06-12T08:58:41Z</time>
      </trkpt>
      <trkpt lat="45.94641" lon="4.84376">
        <ele>268</ele>
        <time>2017-06-12T08:58:42Z</time>
      </trkpt>
      <trkpt lat="45.94643" lon="4.84387">
        <ele>268</ele>
        <time>2017-06-12T08:58:44Z</time>
      </trkpt>
      <trkpt lat="45.94643" lon="4.84393">
        <ele>268</ele>
        <time>2017-06-12T08:58:45Z</time>
      </trkpt>
      <trkpt lat="45.94645" lon="4.84405">
        <ele>268</ele>
        <time>2017-06-12T08:58:47Z</time>
      </trkpt>
      <trkpt lat="45.94645" lon="4.84411">
        <ele>268</ele>
        <time>2017-06-12T08:58:48Z</time>
      </trkpt>
      <trkpt lat="45.94646" lon="4.84418">
        <ele>268</ele>
        <time>2017-06-12T08:58:49Z</time>
      </trkpt>
      <trkpt lat="45.94647" lon="4.84424">
        <ele>268</ele>
        <time>2017-06-12T08:58:50Z</time>
      </trkpt>
      <trkpt lat="45.94648" lon="4.84431">
        <ele>268</ele>
        <time>2017-06-12T08:58:51Z</time>
      </trkpt>
      <trkpt lat="45.94648" lon="4.84438">
        <ele>268</ele>
        <time>2017-06-12T08:58:52Z</time>
      </trkpt>
      <trkpt lat="45.9465" lon="4.8445">
        <ele>268</ele>
        <time>2017-06-12T08:58:54Z</time>
      </trkpt>
      <trkpt lat="45.94651" lon="4.84456">
        <ele>268</ele>
        <time>2017-06-12T08:58:55Z</time>
      </trkpt>
      <trkpt lat="45.94652" lon="4.84467">
        <ele>268</ele>
        <time>2017-06-12T08:58:57Z</time>
      </trkpt>
      <trkpt lat="45.94653" lon="4.84473">
        <ele>268</ele>
        <time>2017-06-12T08:58:58Z</time>
      </trkpt>
      <trkpt lat="45.94654" lon="4.84485">
        <ele>268</ele>
        <time>2017-06-12T08:59:00Z</time>
      </trkpt>
      <trkpt lat="45.94654" lon="4.8449">
        <ele>268</ele>
        <time>2017-06-12T08:59:01Z</time>
      </trkpt>
      <trkpt lat="45.94655" lon="4.84503">
        <ele>268</ele>
        <time>2017-06-12T08:59:03Z</time>
      </trkpt>
      <trkpt lat="45.94656" lon="4.8451">
        <ele>268</ele>
        <time>2017-06-12T08:59:04Z</time>
      </trkpt>
      <trkpt lat="45.94657" lon="4.84517">
        <ele>268</ele>
        <time>2017-06-12T08:59:05Z</time>
      </trkpt>
      <trkpt lat="45.94658" lon="4.84525">
        <ele>268</ele>
        <time>2017-06-12T08:59:06Z</time>
      </trkpt>
      <trkpt lat="45.94658" lon="4.84534">
        <ele>268</ele>
        <time>2017-06-12T08:59:07Z</time>
      </trkpt>
      <trkpt lat="45.94659" lon="4.84541">
        <ele>268</ele>
        <time>2017-06-12T08:59:08Z</time>
      </trkpt>
      <trkpt lat="45.94659" lon="4.84549">
        <ele>268</ele>
        <time>2017-06-12T08:59:09Z</time>
      </trkpt>
      <trkpt lat="45.9466" lon="4.84556">
        <ele>268</ele>
        <time>2017-06-12T08:59:10Z</time>
      </trkpt>
      <trkpt lat="45.94661" lon="4.84564">
        <ele>268</ele>
        <time>2017-06-12T08:59:11Z</time>
      </trkpt>
      <trkpt lat="45.94661" lon="4.84571">
        <ele>268</ele>
        <time>2017-06-12T08:59:12Z</time>
      </trkpt>
      <trkpt lat="45.94662" lon="4.84578">
        <ele>268</ele>
        <time>2017-06-12T08:59:13Z</time>
      </trkpt>
      <trkpt lat="45.94663" lon="4.84585">
        <ele>268</ele>
        <time>2017-06-12T08:59:14Z</time>
      </trkpt>
      <trkpt lat="45.94663" lon="4.84592">
        <ele>268</ele>
        <time>2017-06-12T08:59:15Z</time>
      </trkpt>
      <trkpt lat="45.94663" lon="4.84599">
        <ele>268</ele>
        <time>2017-06-12T08:59:16Z</time>
      </trkpt>
      <trkpt lat="45.94663" lon="4.84606">
        <ele>268</ele>
        <time>2017-06-12T08:59:17Z</time>
      </trkpt>
      <trkpt lat="45.94664" lon="4.84612">
        <ele>268</ele>
        <time>2017-06-12T08:59:18Z</time>
      </trkpt>
      <trkpt lat="45.94664" lon="4.84625">
        <ele>268</ele>
        <time>2017-06-12T08:59:20Z</time>
      </trkpt>
      <trkpt lat="45.94664" lon="4.84632">
        <ele>268</ele>
        <time>2017-06-12T08:59:21Z</time>
      </trkpt>
      <trkpt lat="45.94664" lon="4.84639">
        <ele>268</ele>
        <time>2017-06-12T08:59:22Z</time>
      </trkpt>
      <trkpt lat="45.94665" lon="4.84646">
        <ele>268</ele>
        <time>2017-06-12T08:59:23Z</time>
      </trkpt>
      <trkpt lat="45.94665" lon="4.84653">
        <ele>269</ele>
        <time>2017-06-12T08:59:24Z</time>
      </trkpt>
      <trkpt lat="45.94665" lon="4.84661">
        <ele>269</ele>
        <time>2017-06-12T08:59:25Z</time>
      </trkpt>
      <trkpt lat="45.94665" lon="4.84669">
        <ele>269</ele>
        <time>2017-06-12T08:59:26Z</time>
      </trkpt>
      <trkpt lat="45.94666" lon="4.84677">
        <ele>269</ele>
        <time>2017-06-12T08:59:27Z</time>
      </trkpt>
      <trkpt lat="45.94666" lon="4.84685">
        <ele>269</ele>
        <time>2017-06-12T08:59:28Z</time>
      </trkpt>
      <trkpt lat="45.94667" lon="4.84693">
        <ele>269</ele>
        <time>2017-06-12T08:59:29Z</time>
      </trkpt>
      <trkpt lat="45.94667" lon="4.84701">
        <ele>269</ele>
        <time>2017-06-12T08:59:30Z</time>
      </trkpt>
      <trkpt lat="45.94668" lon="4.84708">
        <ele>269</ele>
        <time>2017-06-12T08:59:31Z</time>
      </trkpt>
      <trkpt lat="45.94668" lon="4.84715">
        <ele>269</ele>
        <time>2017-06-12T08:59:32Z</time>
      </trkpt>
      <trkpt lat="45.94669" lon="4.84721">
        <ele>269</ele>
        <time>2017-06-12T08:59:33Z</time>
      </trkpt>
      <trkpt lat="45.94669" lon="4.84734">
        <ele>269</ele>
        <time>2017-06-12T08:59:35Z</time>
      </trkpt>
      <trkpt lat="45.9467" lon="4.8474">
        <ele>269</ele>
        <time>2017-06-12T08:59:36Z</time>
      </trkpt>
      <trkpt lat="45.94671" lon="4.84752">
        <ele>269</ele>
        <time>2017-06-12T08:59:38Z</time>
      </trkpt>
      <trkpt lat="45.94671" lon="4.84758">
        <ele>269</ele>
        <time>2017-06-12T08:59:39Z</time>
      </trkpt>
      <trkpt lat="45.94672" lon="4.84765">
        <ele>269</ele>
        <time>2017-06-12T08:59:40Z</time>
      </trkpt>
      <trkpt lat="45.94672" lon="4.84772">
        <ele>269</ele>
        <time>2017-06-12T08:59:41Z</time>
      </trkpt>
      <trkpt lat="45.94673" lon="4.8478">
        <ele>269</ele>
        <time>2017-06-12T08:59:42Z</time>
      </trkpt>
      <trkpt lat="45.94673" lon="4.84788">
        <ele>269</ele>
        <time>2017-06-12T08:59:43Z</time>
      </trkpt>
      <trkpt lat="45.94674" lon="4.84797">
        <ele>268</ele>
        <time>2017-06-12T08:59:44Z</time>
      </trkpt>
      <trkpt lat="45.94675" lon="4.84805">
        <ele>268</ele>
        <time>2017-06-12T08:59:45Z</time>
      </trkpt>
      <trkpt lat="45.94676" lon="4.84813">
        <ele>268</ele>
        <time>2017-06-12T08:59:46Z</time>
      </trkpt>
      <trkpt lat="45.94676" lon="4.84821">
        <ele>268</ele>
        <time>2017-06-12T08:59:47Z</time>
      </trkpt>
      <trkpt lat="45.94677" lon="4.84829">
        <ele>268</ele>
        <time>2017-06-12T08:59:48Z</time>
      </trkpt>
      <trkpt lat="45.94677" lon="4.84837">
        <ele>268</ele>
        <time>2017-06-12T08:59:49Z</time>
      </trkpt>
      <trkpt lat="45.94678" lon="4.84845">
        <ele>268</ele>
        <time>2017-06-12T08:59:50Z</time>
      </trkpt>
      <trkpt lat="45.94678" lon="4.84853">
        <ele>268</ele>
        <time>2017-06-12T08:59:51Z</time>
      </trkpt>
      <trkpt lat="45.94679" lon="4.8486">
        <ele>268</ele>
        <time>2017-06-12T08:59:52Z</time>
      </trkpt>
      <trkpt lat="45.9468" lon="4.84867">
        <ele>268</ele>
        <time>2017-06-12T08:59:53Z</time>
      </trkpt>
      <trkpt lat="45.9468" lon="4.84874">
        <ele>268</ele>
        <time>2017-06-12T08:59:54Z</time>
      </trkpt>
      <trkpt lat="45.94681" lon="4.8488">
        <ele>268</ele>
        <time>2017-06-12T08:59:55Z</time>
      </trkpt>
      <trkpt lat="45.94681" lon="4.84887">
        <ele>268</ele>
        <time>2017-06-12T08:59:56Z</time>
      </trkpt>
      <trkpt lat="45.94682" lon="4.84893">
        <ele>268</ele>
        <time>2017-06-12T08:59:57Z</time>
      </trkpt>
      <trkpt lat="45.94683" lon="4.849">
        <ele>269</ele>
        <time>2017-06-12T08:59:58Z</time>
      </trkpt>
      <trkpt lat="45.94684" lon="4.84906">
        <ele>269</ele>
        <time>2017-06-12T08:59:59Z</time>
      </trkpt>
      <trkpt lat="45.94684" lon="4.84913">
        <ele>269</ele>
        <time>2017-06-12T09:00:00Z</time>
      </trkpt>
      <trkpt lat="45.94685" lon="4.8492">
        <ele>269</ele>
        <time>2017-06-12T09:00:01Z</time>
      </trkpt>
      <trkpt lat="45.94685" lon="4.84927">
        <ele>269</ele>
        <time>2017-06-12T09:00:02Z</time>
      </trkpt>
      <trkpt lat="45.94685" lon="4.84933">
        <ele>269</ele>
        <time>2017-06-12T09:00:03Z</time>
      </trkpt>
      <trkpt lat="45.94686" lon="4.84946">
        <ele>269</ele>
        <time>2017-06-12T09:00:05Z</time>
      </trkpt>
      <trkpt lat="45.94687" lon="4.84952">
        <ele>269</ele>
        <time>2017-06-12T09:00:06Z</time>
      </trkpt>
      <trkpt lat="45.94688" lon="4.84963">
        <ele>269</ele>
        <time>2017-06-12T09:00:08Z</time>
      </trkpt>
      <trkpt lat="45.94689" lon="4.84969">
        <ele>269</ele>
        <time>2017-06-12T09:00:09Z</time>
      </trkpt>
      <trkpt lat="45.9469" lon="4.84975">
        <ele>269</ele>
        <time>2017-06-12T09:00:10Z</time>
      </trkpt>
      <trkpt lat="45.94691" lon="4.84982">
        <ele>269</ele>
        <time>2017-06-12T09:00:11Z</time>
      </trkpt>
      <trkpt lat="45.94692" lon="4.84989">
        <ele>269</ele>
        <time>2017-06-12T09:00:12Z</time>
      </trkpt>
      <trkpt lat="45.94693" lon="4.84997">
        <ele>269</ele>
        <time>2017-06-12T09:00:13Z</time>
      </trkpt>
      <trkpt lat="45.94693" lon="4.85005">
        <ele>269</ele>
        <time>2017-06-12T09:00:14Z</time>
      </trkpt>
      <trkpt lat="45.94694" lon="4.85013">
        <ele>269</ele>
        <time>2017-06-12T09:00:15Z</time>
      </trkpt>
      <trkpt lat="45.94695" lon="4.85022">
        <ele>269</ele>
        <time>2017-06-12T09:00:16Z</time>
      </trkpt>
      <trkpt lat="45.94696" lon="4.8503">
        <ele>269</ele>
        <time>2017-06-12T09:00:17Z</time>
      </trkpt>
      <trkpt lat="45.94697" lon="4.85039">
        <ele>269</ele>
        <time>2017-06-12T09:00:18Z</time>
      </trkpt>
      <trkpt lat="45.94698" lon="4.85047">
        <ele>269</ele>
        <time>2017-06-12T09:00:19Z</time>
      </trkpt>
      <trkpt lat="45.94699" lon="4.85056">
        <ele>269</ele>
        <time>2017-06-12T09:00:20Z</time>
      </trkpt>
      <trkpt lat="45.947" lon="4.85063">
        <ele>269</ele>
        <time>2017-06-12T09:00:21Z</time>
      </trkpt>
      <trkpt lat="45.94701" lon="4.85071">
        <ele>269</ele>
        <time>2017-06-12T09:00:22Z</time>
      </trkpt>
      <trkpt lat="45.94701" lon="4.85078">
        <ele>269</ele>
        <time>2017-06-12T09:00:23Z</time>
      </trkpt>
      <trkpt lat="45.94702" lon="4.85085">
        <ele>269</ele>
        <time>2017-06-12T09:00:24Z</time>
      </trkpt>
      <trkpt lat="45.94702" lon="4.85091">
        <ele>269</ele>
        <time>2017-06-12T09:00:25Z</time>
      </trkpt>
      <trkpt lat="45.94704" lon="4.85104">
        <ele>269</ele>
        <time>2017-06-12T09:00:27Z</time>
      </trkpt>
      <trkpt lat="45.94705" lon="4.85109">
        <ele>269</ele>
        <time>2017-06-12T09:00:28Z</time>
      </trkpt>
      <trkpt lat="45.94706" lon="4.8512">
        <ele>269</ele>
        <time>2017-06-12T09:00:30Z</time>
      </trkpt>
      <trkpt lat="45.94706" lon="4.85126">
        <ele>269</ele>
        <time>2017-06-12T09:00:31Z</time>
      </trkpt>
      <trkpt lat="45.94707" lon="4.85133">
        <ele>269</ele>
        <time>2017-06-12T09:00:32Z</time>
      </trkpt>
      <trkpt lat="45.94708" lon="4.85139">
        <ele>269</ele>
        <time>2017-06-12T09:00:33Z</time>
      </trkpt>
      <trkpt lat="45.94708" lon="4.85146">
        <ele>269</ele>
        <time>2017-06-12T09:00:34Z</time>
      </trkpt>
      <trkpt lat="45.94709" lon="4.85152">
        <ele>269</ele>
        <time>2017-06-12T09:00:35Z</time>
      </trkpt>
      <trkpt lat="45.9471" lon="4.85164">
        <ele>269</ele>
        <time>2017-06-12T09:00:37Z</time>
      </trkpt>
      <trkpt lat="45.94711" lon="4.8517">
        <ele>269</ele>
        <time>2017-06-12T09:00:38Z</time>
      </trkpt>
      <trkpt lat="45.94712" lon="4.85177">
        <ele>269</ele>
        <time>2017-06-12T09:00:39Z</time>
      </trkpt>
      <trkpt lat="45.94712" lon="4.85183">
        <ele>269</ele>
        <time>2017-06-12T09:00:40Z</time>
      </trkpt>
      <trkpt lat="45.94713" lon="4.8519">
        <ele>269</ele>
        <time>2017-06-12T09:00:41Z</time>
      </trkpt>
      <trkpt lat="45.94714" lon="4.85197">
        <ele>269</ele>
        <time>2017-06-12T09:00:42Z</time>
      </trkpt>
      <trkpt lat="45.94715" lon="4.85204">
        <ele>269</ele>
        <time>2017-06-12T09:00:43Z</time>
      </trkpt>
      <trkpt lat="45.94716" lon="4.85212">
        <ele>269</ele>
        <time>2017-06-12T09:00:44Z</time>
      </trkpt>
      <trkpt lat="45.94717" lon="4.8522">
        <ele>269</ele>
        <time>2017-06-12T09:00:45Z</time>
      </trkpt>
      <trkpt lat="45.94718" lon="4.85227">
        <ele>269</ele>
        <time>2017-06-12T09:00:46Z</time>
      </trkpt>
      <trkpt lat="45.94718" lon="4.85235">
        <ele>269</ele>
        <time>2017-06-12T09:00:47Z</time>
      </trkpt>
      <trkpt lat="45.94719" lon="4.85242">
        <ele>269</ele>
        <time>2017-06-12T09:00:48Z</time>
      </trkpt>
      <trkpt lat="45.9472" lon="4.85248">
        <ele>269</ele>
        <time>2017-06-12T09:00:49Z</time>
      </trkpt>
      <trkpt lat="45.94721" lon="4.85255">
        <ele>269</ele>
        <time>2017-06-12T09:00:50Z</time>
      </trkpt>
      <trkpt lat="45.94722" lon="4.85261">
        <ele>269</ele>
        <time>2017-06-12T09:00:51Z</time>
      </trkpt>
      <trkpt lat="45.94722" lon="4.85268">
        <ele>269</ele>
        <time>2017-06-12T09:00:52Z</time>
      </trkpt>
      <trkpt lat="45.94723" lon="4.8528">
        <ele>269</ele>
        <time>2017-06-12T09:00:54Z</time>
      </trkpt>
      <trkpt lat="45.94724" lon="4.85286">
        <ele>269</ele>
        <time>2017-06-12T09:00:55Z</time>
      </trkpt>
      <trkpt lat="45.94725" lon="4.85293">
        <ele>270</ele>
        <time>2017-06-12T09:00:56Z</time>
      </trkpt>
      <trkpt lat="45.94725" lon="4.85301">
        <ele>270</ele>
        <time>2017-06-12T09:00:57Z</time>
      </trkpt>
      <trkpt lat="45.94726" lon="4.85309">
        <ele>270</ele>
        <time>2017-06-12T09:00:58Z</time>
      </trkpt>
      <trkpt lat="45.94727" lon="4.85317">
        <ele>270</ele>
        <time>2017-06-12T09:00:59Z</time>
      </trkpt>
      <trkpt lat="45.94728" lon="4.85326">
        <ele>270</ele>
        <time>2017-06-12T09:01:00Z</time>
      </trkpt>
      <trkpt lat="45.94729" lon="4.85335">
        <ele>271</ele>
        <time>2017-06-12T09:01:01Z</time>
      </trkpt>
      <trkpt lat="45.9473" lon="4.85343">
        <ele>271</ele>
        <time>2017-06-12T09:01:02Z</time>
      </trkpt>
      <trkpt lat="45.94731" lon="4.85351">
        <ele>271</ele>
        <time>2017-06-12T09:01:03Z</time>
      </trkpt>
      <trkpt lat="45.94732" lon="4.85359">
        <ele>271</ele>
        <time>2017-06-12T09:01:04Z</time>
      </trkpt>
      <trkpt lat="45.94733" lon="4.85366">
        <ele>271</ele>
        <time>2017-06-12T09:01:05Z</time>
      </trkpt>
      <trkpt lat="45.94733" lon="4.85373">
        <ele>271</ele>
        <time>2017-06-12T09:01:06Z</time>
      </trkpt>
      <trkpt lat="45.94734" lon="4.8538">
        <ele>271</ele>
        <time>2017-06-12T09:01:07Z</time>
      </trkpt>
      <trkpt lat="45.94734" lon="4.85387">
        <ele>272</ele>
        <time>2017-06-12T09:01:08Z</time>
      </trkpt>
      <trkpt lat="45.94735" lon="4.85393">
        <ele>272</ele>
        <time>2017-06-12T09:01:09Z</time>
      </trkpt>
      <trkpt lat="45.94736" lon="4.85401">
        <ele>272</ele>
        <time>2017-06-12T09:01:10Z</time>
      </trkpt>
      <trkpt lat="45.94737" lon="4.85408">
        <ele>272</ele>
        <time>2017-06-12T09:01:11Z</time>
      </trkpt>
      <trkpt lat="45.94737" lon="4.85416">
        <ele>272</ele>
        <time>2017-06-12T09:01:12Z</time>
      </trkpt>
      <trkpt lat="45.94738" lon="4.85424">
        <ele>273</ele>
        <time>2017-06-12T09:01:13Z</time>
      </trkpt>
      <trkpt lat="45.94739" lon="4.85432">
        <ele>273</ele>
        <time>2017-06-12T09:01:14Z</time>
      </trkpt>
      <trkpt lat="45.9474" lon="4.85439">
        <ele>274</ele>
        <time>2017-06-12T09:01:15Z</time>
      </trkpt>
      <trkpt lat="45.94741" lon="4.85446">
        <ele>274</ele>
        <time>2017-06-12T09:01:16Z</time>
      </trkpt>
      <trkpt lat="45.94742" lon="4.85453">
        <ele>274</ele>
        <time>2017-06-12T09:01:17Z</time>
      </trkpt>
      <trkpt lat="45.94743" lon="4.85464">
        <ele>274</ele>
        <time>2017-06-12T09:01:19Z</time>
      </trkpt>
      <trkpt lat="45.94743" lon="4.8547">
        <ele>274</ele>
        <time>2017-06-12T09:01:20Z</time>
      </trkpt>
      <trkpt lat="45.94745" lon="4.85482">
        <ele>275</ele>
        <time>2017-06-12T09:01:22Z</time>
      </trkpt>
      <trkpt lat="45.94745" lon="4.85489">
        <ele>275</ele>
        <time>2017-06-12T09:01:23Z</time>
      </trkpt>
      <trkpt lat="45.94746" lon="4.85495">
        <ele>275</ele>
        <time>2017-06-12T09:01:24Z</time>
      </trkpt>
      <trkpt lat="45.94747" lon="4.85502">
        <ele>276</ele>
        <time>2017-06-12T09:01:25Z</time>
      </trkpt>
      <trkpt lat="45.94748" lon="4.85508">
        <ele>276</ele>
        <time>2017-06-12T09:01:26Z</time>
      </trkpt>
      <trkpt lat="45.94749" lon="4.85515">
        <ele>276</ele>
        <time>2017-06-12T09:01:27Z</time>
      </trkpt>
      <trkpt lat="45.9475" lon="4.85522">
        <ele>277</ele>
        <time>2017-06-12T09:01:28Z</time>
      </trkpt>
      <trkpt lat="45.94751" lon="4.85528">
        <ele>278</ele>
        <time>2017-06-12T09:01:29Z</time>
      </trkpt>
      <trkpt lat="45.94752" lon="4.85535">
        <ele>278</ele>
        <time>2017-06-12T09:01:30Z</time>
      </trkpt>
      <trkpt lat="45.94753" lon="4.85541">
        <ele>278</ele>
        <time>2017-06-12T09:01:31Z</time>
      </trkpt>
      <trkpt lat="45.94754" lon="4.85547">
        <ele>278</ele>
        <time>2017-06-12T09:01:32Z</time>
      </trkpt>
      <trkpt lat="45.94755" lon="4.85554">
        <ele>278</ele>
        <time>2017-06-12T09:01:33Z</time>
      </trkpt>
      <trkpt lat="45.94756" lon="4.8556">
        <ele>278</ele>
        <time>2017-06-12T09:01:34Z</time>
      </trkpt>
      <trkpt lat="45.94757" lon="4.85567">
        <ele>279</ele>
        <time>2017-06-12T09:01:35Z</time>
      </trkpt>
      <trkpt lat="45.94758" lon="4.85574">
        <ele>279</ele>
        <time>2017-06-12T09:01:36Z</time>
      </trkpt>
      <trkpt lat="45.94759" lon="4.8558">
        <ele>279</ele>
        <time>2017-06-12T09:01:37Z</time>
      </trkpt>
      <trkpt lat="45.9476" lon="4.85586">
        <ele>280</ele>
        <time>2017-06-12T09:01:38Z</time>
      </trkpt>
      <trkpt lat="45.94762" lon="4.85593">
        <ele>280</ele>
        <time>2017-06-12T09:01:39Z</time>
      </trkpt>
      <trkpt lat="45.94764" lon="4.85599">
        <ele>280</ele>
        <time>2017-06-12T09:01:40Z</time>
      </trkpt>
      <trkpt lat="45.94765" lon="4.85606">
        <ele>280</ele>
        <time>2017-06-12T09:01:41Z</time>
      </trkpt>
      <trkpt lat="45.94767" lon="4.85614">
        <ele>280</ele>
        <time>2017-06-12T09:01:42Z</time>
      </trkpt>
      <trkpt lat="45.94768" lon="4.85621">
        <ele>280</ele>
        <time>2017-06-12T09:01:43Z</time>
      </trkpt>
      <trkpt lat="45.9477" lon="4.85628">
        <ele>280</ele>
        <time>2017-06-12T09:01:44Z</time>
      </trkpt>
      <trkpt lat="45.94772" lon="4.85635">
        <ele>280</ele>
        <time>2017-06-12T09:01:45Z</time>
      </trkpt>
      <trkpt lat="45.94773" lon="4.85641">
        <ele>281</ele>
        <time>2017-06-12T09:01:46Z</time>
      </trkpt>
      <trkpt lat="45.94775" lon="4.85647">
        <ele>281</ele>
        <time>2017-06-12T09:01:47Z</time>
      </trkpt>
      <trkpt lat="45.94777" lon="4.85658">
        <ele>281</ele>
        <time>2017-06-12T09:01:49Z</time>
      </trkpt>
      <trkpt lat="45.94778" lon="4.85663">
        <ele>281</ele>
        <time>2017-06-12T09:01:50Z</time>
      </trkpt>
      <trkpt lat="45.94781" lon="4.85673">
        <ele>280</ele>
        <time>2017-06-12T09:01:52Z</time>
      </trkpt>
      <trkpt lat="45.94782" lon="4.85678">
        <ele>280</ele>
        <time>2017-06-12T09:01:53Z</time>
      </trkpt>
      <trkpt lat="45.94785" lon="4.85689">
        <ele>280</ele>
        <time>2017-06-12T09:01:55Z</time>
      </trkpt>
      <trkpt lat="45.94786" lon="4.85694">
        <ele>280</ele>
        <time>2017-06-12T09:01:56Z</time>
      </trkpt>
      <trkpt lat="45.94789" lon="4.85702">
        <ele>280</ele>
        <time>2017-06-12T09:01:58Z</time>
      </trkpt>
      <trkpt lat="45.9479" lon="4.85707">
        <ele>280</ele>
        <time>2017-06-12T09:01:59Z</time>
      </trkpt>
      <trkpt lat="45.94794" lon="4.85717">
        <ele>280</ele>
        <time>2017-06-12T09:02:01Z</time>
      </trkpt>
      <trkpt lat="45.94795" lon="4.85722">
        <ele>280</ele>
        <time>2017-06-12T09:02:02Z</time>
      </trkpt>
      <trkpt lat="45.94798" lon="4.85733">
        <ele>280</ele>
        <time>2017-06-12T09:02:04Z</time>
      </trkpt>
      <trkpt lat="45.94799" lon="4.85739">
        <ele>280</ele>
        <time>2017-06-12T09:02:05Z</time>
      </trkpt>
      <trkpt lat="45.94801" lon="4.85745">
        <ele>279</ele>
        <time>2017-06-12T09:02:06Z</time>
      </trkpt>
      <trkpt lat="45.94802" lon="4.85751">
        <ele>278</ele>
        <time>2017-06-12T09:02:07Z</time>
      </trkpt>
      <trkpt lat="45.94804" lon="4.85757">
        <ele>278</ele>
        <time>2017-06-12T09:02:08Z</time>
      </trkpt>
      <trkpt lat="45.94805" lon="4.85764">
        <ele>278</ele>
        <time>2017-06-12T09:02:09Z</time>
      </trkpt>
      <trkpt lat="45.94807" lon="4.8577">
        <ele>278</ele>
        <time>2017-06-12T09:02:10Z</time>
      </trkpt>
      <trkpt lat="45.94809" lon="4.85777">
        <ele>278</ele>
        <time>2017-06-12T09:02:11Z</time>
      </trkpt>
      <trkpt lat="45.9481" lon="4.85784">
        <ele>278</ele>
        <time>2017-06-12T09:02:12Z</time>
      </trkpt>
      <trkpt lat="45.94812" lon="4.85791">
        <ele>278</ele>
        <time>2017-06-12T09:02:13Z</time>
      </trkpt>
      <trkpt lat="45.94814" lon="4.85797">
        <ele>278</ele>
        <time>2017-06-12T09:02:14Z</time>
      </trkpt>
      <trkpt lat="45.94816" lon="4.85804">
        <ele>278</ele>
        <time>2017-06-12T09:02:15Z</time>
      </trkpt>
      <trkpt lat="45.94818" lon="4.8581">
        <ele>278</ele>
        <time>2017-06-12T09:02:16Z</time>
      </trkpt>
      <trkpt lat="45.9482" lon="4.85817">
        <ele>278</ele>
        <time>2017-06-12T09:02:17Z</time>
      </trkpt>
      <trkpt lat="45.94822" lon="4.85824">
        <ele>278</ele>
        <time>2017-06-12T09:02:18Z</time>
      </trkpt>
      <trkpt lat="45.94824" lon="4.8583">
        <ele>277</ele>
        <time>2017-06-12T09:02:19Z</time>
      </trkpt>
      <trkpt lat="45.94825" lon="4.85837">
        <ele>277</ele>
        <time>2017-06-12T09:02:20Z</time>
      </trkpt>
      <trkpt lat="45.94827" lon="4.85844">
        <ele>277</ele>
        <time>2017-06-12T09:02:21Z</time>
      </trkpt>
      <trkpt lat="45.94829" lon="4.85851">
        <ele>277</ele>
        <time>2017-06-12T09:02:22Z</time>
      </trkpt>
      <trkpt lat="45.94831" lon="4.85858">
        <ele>277</ele>
        <time>2017-06-12T09:02:23Z</time>
      </trkpt>
      <trkpt lat="45.94832" lon="4.85865">
        <ele>277</ele>
        <time>2017-06-12T09:02:24Z</time>
      </trkpt>
      <trkpt lat="45.94834" lon="4.85872">
        <ele>276</ele>
        <time>2017-06-12T09:02:25Z</time>
      </trkpt>
      <trkpt lat="45.94836" lon="4.8588">
        <ele>276</ele>
        <time>2017-06-12T09:02:26Z</time>
      </trkpt>
      <trkpt lat="45.94838" lon="4.85886">
        <ele>276</ele>
        <time>2017-06-12T09:02:27Z</time>
      </trkpt>
      <trkpt lat="45.9484" lon="4.85894">
        <ele>276</ele>
        <time>2017-06-12T09:02:28Z</time>
      </trkpt>
      <trkpt lat="45.94842" lon="4.85901">
        <ele>276</ele>
        <time>2017-06-12T09:02:29Z</time>
      </trkpt>
      <trkpt lat="45.94844" lon="4.85908">
        <ele>275</ele>
        <time>2017-06-12T09:02:30Z</time>
      </trkpt>
      <trkpt lat="45.94846" lon="4.85916">
        <ele>275</ele>
        <time>2017-06-12T09:02:31Z</time>
      </trkpt>
      <trkpt lat="45.94848" lon="4.85923">
        <ele>275</ele>
        <time>2017-06-12T09:02:32Z</time>
      </trkpt>
      <trkpt lat="45.94849" lon="4.85931">
        <ele>275</ele>
        <time>2017-06-12T09:02:33Z</time>
      </trkpt>
      <trkpt lat="45.94851" lon="4.85938">
        <ele>275</ele>
        <time>2017-06-12T09:02:34Z</time>
      </trkpt>
      <trkpt lat="45.94853" lon="4.85946">
        <ele>275</ele>
        <time>2017-06-12T09:02:35Z</time>
      </trkpt>
      <trkpt lat="45.94855" lon="4.85953">
        <ele>275</ele>
        <time>2017-06-12T09:02:36Z</time>
      </trkpt>
      <trkpt lat="45.94857" lon="4.8596">
        <ele>275</ele>
        <time>2017-06-12T09:02:37Z</time>
      </trkpt>
      <trkpt lat="45.94859" lon="4.85967">
        <ele>275</ele>
        <time>2017-06-12T09:02:38Z</time>
      </trkpt>
      <trkpt lat="45.94861" lon="4.85973">
        <ele>275</ele>
        <time>2017-06-12T09:02:39Z</time>
      </trkpt>
      <trkpt lat="45.94863" lon="4.8598">
        <ele>275</ele>
        <time>2017-06-12T09:02:40Z</time>
      </trkpt>
      <trkpt lat="45.94864" lon="4.85986">
        <ele>275</ele>
        <time>2017-06-12T09:02:41Z</time>
      </trkpt>
      <trkpt lat="45.94866" lon="4.85993">
        <ele>275</ele>
        <time>2017-06-12T09:02:42Z</time>
      </trkpt>
      <trkpt lat="45.94868" lon="4.85999">
        <ele>275</ele>
        <time>2017-06-12T09:02:43Z</time>
      </trkpt>
      <trkpt lat="45.94871" lon="4.86011">
        <ele>274</ele>
        <time>2017-06-12T09:02:45Z</time>
      </trkpt>
      <trkpt lat="45.94872" lon="4.86016">
        <ele>274</ele>
        <time>2017-06-12T09:02:46Z</time>
      </trkpt>
      <trkpt lat="45.94876" lon="4.86027">
        <ele>274</ele>
        <time>2017-06-12T09:02:48Z</time>
      </trkpt>
      <trkpt lat="45.94877" lon="4.86033">
        <ele>274</ele>
        <time>2017-06-12T09:02:49Z</time>
      </trkpt>
      <trkpt lat="45.94879" lon="4.86039">
        <ele>274</ele>
        <time>2017-06-12T09:02:50Z</time>
      </trkpt>
      <trkpt lat="45.9488" lon="4.86046">
        <ele>274</ele>
        <time>2017-06-12T09:02:51Z</time>
      </trkpt>
      <trkpt lat="45.94882" lon="4.86053">
        <ele>274</ele>
        <time>2017-06-12T09:02:52Z</time>
      </trkpt>
      <trkpt lat="45.94884" lon="4.8606">
        <ele>274</ele>
        <time>2017-06-12T09:02:53Z</time>
      </trkpt>
      <trkpt lat="45.94885" lon="4.86067">
        <ele>274</ele>
        <time>2017-06-12T09:02:54Z</time>
      </trkpt>
      <trkpt lat="45.94887" lon="4.86074">
        <ele>274</ele>
        <time>2017-06-12T09:02:55Z</time>
      </trkpt>
      <trkpt lat="45.94889" lon="4.8608">
        <ele>274</ele>
        <time>2017-06-12T09:02:56Z</time>
      </trkpt>
      <trkpt lat="45.94891" lon="4.86086">
        <ele>274</ele>
        <time>2017-06-12T09:02:57Z</time>
      </trkpt>
      <trkpt lat="45.94892" lon="4.86092">
        <ele>274</ele>
        <time>2017-06-12T09:02:58Z</time>
      </trkpt>
      <trkpt lat="45.94894" lon="4.86098">
        <ele>274</ele>
        <time>2017-06-12T09:02:59Z</time>
      </trkpt>
      <trkpt lat="45.94896" lon="4.86104">
        <ele>274</ele>
        <time>2017-06-12T09:03:00Z</time>
      </trkpt>
      <trkpt lat="45.94899" lon="4.8611">
        <ele>274</ele>
        <time>2017-06-12T09:03:01Z</time>
      </trkpt>
      <trkpt lat="45.94902" lon="4.86117">
        <ele>274</ele>
        <time>2017-06-12T09:03:02Z</time>
      </trkpt>
      <trkpt lat="45.94906" lon="4.86123">
        <ele>274</ele>
        <time>2017-06-12T09:03:03Z</time>
      </trkpt>
      <trkpt lat="45.94909" lon="4.86129">
        <ele>274</ele>
        <time>2017-06-12T09:03:04Z</time>
      </trkpt>
      <trkpt lat="45.94912" lon="4.86135">
        <ele>274</ele>
        <time>2017-06-12T09:03:05Z</time>
      </trkpt>
      <trkpt lat="45.94915" lon="4.86142">
        <ele>274</ele>
        <time>2017-06-12T09:03:06Z</time>
      </trkpt>
      <trkpt lat="45.94919" lon="4.86147">
        <ele>273</ele>
        <time>2017-06-12T09:03:07Z</time>
      </trkpt>
      <trkpt lat="45.94923" lon="4.86153">
        <ele>273</ele>
        <time>2017-06-12T09:03:08Z</time>
      </trkpt>
      <trkpt lat="45.94926" lon="4.86158">
        <ele>273</ele>
        <time>2017-06-12T09:03:09Z</time>
      </trkpt>
      <trkpt lat="45.9493" lon="4.86164">
        <ele>273</ele>
        <time>2017-06-12T09:03:10Z</time>
      </trkpt>
      <trkpt lat="45.94934" lon="4.86169">
        <ele>273</ele>
        <time>2017-06-12T09:03:11Z</time>
      </trkpt>
      <trkpt lat="45.94938" lon="4.86174">
        <ele>273</ele>
        <time>2017-06-12T09:03:12Z</time>
      </trkpt>
      <trkpt lat="45.94942" lon="4.86179">
        <ele>273</ele>
        <time>2017-06-12T09:03:13Z</time>
      </trkpt>
      <trkpt lat="45.94946" lon="4.86184">
        <ele>273</ele>
        <time>2017-06-12T09:03:14Z</time>
      </trkpt>
      <trkpt lat="45.9495" lon="4.86189">
        <ele>273</ele>
        <time>2017-06-12T09:03:15Z</time>
      </trkpt>
      <trkpt lat="45.94954" lon="4.86194">
        <ele>273</ele>
        <time>2017-06-12T09:03:16Z</time>
      </trkpt>
      <trkpt lat="45.94958" lon="4.86199">
        <ele>273</ele>
        <time>2017-06-12T09:03:17Z</time>
      </trkpt>
      <trkpt lat="45.94962" lon="4.86203">
        <ele>272</ele>
        <time>2017-06-12T09:03:18Z</time>
      </trkpt>
      <trkpt lat="45.94966" lon="4.86207">
        <ele>272</ele>
        <time>2017-06-12T09:03:19Z</time>
      </trkpt>
      <trkpt lat="45.9497" lon="4.86211">
        <ele>272</ele>
        <time>2017-06-12T09:03:20Z</time>
      </trkpt>
      <trkpt lat="45.94974" lon="4.86216">
        <ele>272</ele>
        <time>2017-06-12T09:03:21Z</time>
      </trkpt>
      <trkpt lat="45.94977" lon="4.86221">
        <ele>272</ele>
        <time>2017-06-12T09:03:22Z</time>
      </trkpt>
      <trkpt lat="45.94981" lon="4.86226">
        <ele>272</ele>
        <time>2017-06-12T09:03:23Z</time>
      </trkpt>
      <trkpt lat="45.94985" lon="4.8623">
        <ele>272</ele>
        <time>2017-06-12T09:03:24Z</time>
      </trkpt>
      <trkpt lat="45.94989" lon="4.86235">
        <ele>272</ele>
        <time>2017-06-12T09:03:25Z</time>
      </trkpt>
      <trkpt lat="45.94994" lon="4.86241">
        <ele>272</ele>
        <time>2017-06-12T09:03:26Z</time>
      </trkpt>
      <trkpt lat="45.94998" lon="4.86247">
        <ele>272</ele>
        <time>2017-06-12T09:03:27Z</time>
      </trkpt>
      <trkpt lat="45.95003" lon="4.86253">
        <ele>272</ele>
        <time>2017-06-12T09:03:28Z</time>
      </trkpt>
      <trkpt lat="45.95008" lon="4.86259">
        <ele>272</ele>
        <time>2017-06-12T09:03:29Z</time>
      </trkpt>
      <trkpt lat="45.95013" lon="4.86265">
        <ele>272</ele>
        <time>2017-06-12T09:03:30Z</time>
      </trkpt>
      <trkpt lat="45.95019" lon="4.86272">
        <ele>271</ele>
        <time>2017-06-12T09:03:31Z</time>
      </trkpt>
      <trkpt lat="45.95024" lon="4.86279">
        <ele>271</ele>
        <time>2017-06-12T09:03:32Z</time>
      </trkpt>
      <trkpt lat="45.9503" lon="4.86285">
        <ele>271</ele>
        <time>2017-06-12T09:03:33Z</time>
      </trkpt>
      <trkpt lat="45.95036" lon="4.86292">
        <ele>271</ele>
        <time>2017-06-12T09:03:34Z</time>
      </trkpt>
      <trkpt lat="45.95041" lon="4.86298">
        <ele>271</ele>
        <time>2017-06-12T09:03:35Z</time>
      </trkpt>
      <trkpt lat="45.95047" lon="4.86305">
        <ele>271</ele>
        <time>2017-06-12T09:03:36Z</time>
      </trkpt>
      <trkpt lat="45.95052" lon="4.86311">
        <ele>271</ele>
        <time>2017-06-12T09:03:37Z</time>
      </trkpt>
      <trkpt lat="45.95057" lon="4.86318">
        <ele>271</ele>
        <time>2017-06-12T09:03:38Z</time>
      </trkpt>
      <trkpt lat="45.95062" lon="4.86324">
        <ele>270</ele>
        <time>2017-06-12T09:03:39Z</time>
      </trkpt>
      <trkpt lat="45.95067" lon="4.8633">
        <ele>270</ele>
        <time>2017-06-12T09:03:40Z</time>
      </trkpt>
      <trkpt lat="45.95072" lon="4.86336">
        <ele>270</ele>
        <time>2017-06-12T09:03:41Z</time>
      </trkpt>
      <trkpt lat="45.95076" lon="4.86343">
        <ele>270</ele>
        <time>2017-06-12T09:03:42Z</time>
      </trkpt>
      <trkpt lat="45.95081" lon="4.86348">
        <ele>270</ele>
        <time>2017-06-12T09:03:43Z</time>
      </trkpt>
      <trkpt lat="45.95086" lon="4.86354">
        <ele>269</ele>
        <time>2017-06-12T09:03:44Z</time>
      </trkpt>
      <trkpt lat="45.95091" lon="4.86359">
        <ele>269</ele>
        <time>2017-06-12T09:03:45Z</time>
      </trkpt>
      <trkpt lat="45.95095" lon="4.86365">
        <ele>269</ele>
        <time>2017-06-12T09:03:46Z</time>
      </trkpt>
      <trkpt lat="45.95099" lon="4.8637">
        <ele>269</ele>
        <time>2017-06-12T09:03:47Z</time>
      </trkpt>
      <trkpt lat="45.95103" lon="4.86376">
        <ele>269</ele>
        <time>2017-06-12T09:03:48Z</time>
      </trkpt>
      <trkpt lat="45.95108" lon="4.86381">
        <ele>269</ele>
        <time>2017-06-12T09:03:49Z</time>
      </trkpt>
      <trkpt lat="45.95112" lon="4.86386">
        <ele>269</ele>
        <time>2017-06-12T09:03:50Z</time>
      </trkpt>
      <trkpt lat="45.95116" lon="4.86391">
        <ele>269</ele>
        <time>2017-06-12T09:03:51Z</time>
      </trkpt>
      <trkpt lat="45.9512" lon="4.86396">
        <ele>269</ele>
        <time>2017-06-12T09:03:52Z</time>
      </trkpt>
      <trkpt lat="45.95124" lon="4.86401">
        <ele>269</ele>
        <time>2017-06-12T09:03:53Z</time>
      </trkpt>
      <trkpt lat="45.95128" lon="4.86406">
        <ele>268</ele>
        <time>2017-06-12T09:03:54Z</time>
      </trkpt>
      <trkpt lat="45.95132" lon="4.86411">
        <ele>268</ele>
        <time>2017-06-12T09:03:55Z</time>
      </trkpt>
      <trkpt lat="45.95136" lon="4.86416">
        <ele>268</ele>
        <time>2017-06-12T09:03:56Z</time>
      </trkpt>
      <trkpt lat="45.9514" lon="4.86421">
        <ele>269</ele>
        <time>2017-06-12T09:03:57Z</time>
      </trkpt>
      <trkpt lat="45.95144" lon="4.86426">
        <ele>268</ele>
        <time>2017-06-12T09:03:58Z</time>
      </trkpt>
      <trkpt lat="45.95148" lon="4.86431">
        <ele>268</ele>
        <time>2017-06-12T09:03:59Z</time>
      </trkpt>
      <trkpt lat="45.95152" lon="4.86435">
        <ele>268</ele>
        <time>2017-06-12T09:04:00Z</time>
      </trkpt>
      <trkpt lat="45.95155" lon="4.8644">
        <ele>268</ele>
        <time>2017-06-12T09:04:01Z</time>
      </trkpt>
      <trkpt lat="45.9516" lon="4.86445">
        <ele>269</ele>
        <time>2017-06-12T09:04:02Z</time>
      </trkpt>
      <trkpt lat="45.95164" lon="4.86451">
        <ele>269</ele>
        <time>2017-06-12T09:04:03Z</time>
      </trkpt>
      <trkpt lat="45.95169" lon="4.86456">
        <ele>268</ele>
        <time>2017-06-12T09:04:04Z</time>
      </trkpt>
      <trkpt lat="45.95174" lon="4.86462">
        <ele>268</ele>
        <time>2017-06-12T09:04:05Z</time>
      </trkpt>
      <trkpt lat="45.95179" lon="4.86468">
        <ele>268</ele>
        <time>2017-06-12T09:04:06Z</time>
      </trkpt>
      <trkpt lat="45.95184" lon="4.86474">
        <ele>268</ele>
        <time>2017-06-12T09:04:07Z</time>
      </trkpt>
      <trkpt lat="45.9519" lon="4.8648">
        <ele>268</ele>
        <time>2017-06-12T09:04:08Z</time>
      </trkpt>
      <trkpt lat="45.95195" lon="4.86486">
        <ele>268</ele>
        <time>2017-06-12T09:04:09Z</time>
      </trkpt>
      <trkpt lat="45.95201" lon="4.86492">
        <ele>268</ele>
        <time>2017-06-12T09:04:10Z</time>
      </trkpt>
      <trkpt lat="45.95206" lon="4.86499">
        <ele>268</ele>
        <time>2017-06-12T09:04:11Z</time>
      </trkpt>
      <trkpt lat="45.95212" lon="4.86505">
        <ele>268</ele>
        <time>2017-06-12T09:04:12Z</time>
      </trkpt>
      <trkpt lat="45.95217" lon="4.86512">
        <ele>268</ele>
        <time>2017-06-12T09:04:13Z</time>
      </trkpt>
      <trkpt lat="45.95222" lon="4.86518">
        <ele>268</ele>
        <time>2017-06-12T09:04:14Z</time>
      </trkpt>
      <trkpt lat="45.95228" lon="4.86524">
        <ele>268</ele>
        <time>2017-06-12T09:04:15Z</time>
      </trkpt>
      <trkpt lat="45.95233" lon="4.8653">
        <ele>268</ele>
        <time>2017-06-12T09:04:16Z</time>
      </trkpt>
      <trkpt lat="45.95238" lon="4.86536">
        <ele>268</ele>
        <time>2017-06-12T09:04:17Z</time>
      </trkpt>
      <trkpt lat="45.95242" lon="4.86542">
        <ele>268</ele>
        <time>2017-06-12T09:04:18Z</time>
      </trkpt>
      <trkpt lat="45.95246" lon="4.86548">
        <ele>268</ele>
        <time>2017-06-12T09:04:19Z</time>
      </trkpt>
      <trkpt lat="45.95252" lon="4.86557">
        <ele>267</ele>
        <time>2017-06-12T09:04:21Z</time>
      </trkpt>
      <trkpt lat="45.95255" lon="4.86562">
        <ele>267</ele>
        <time>2017-06-12T09:04:22Z</time>
      </trkpt>
      <trkpt lat="45.95259" lon="4.86571">
        <ele>267</ele>
        <time>2017-06-12T09:04:24Z</time>
      </trkpt>
      <trkpt lat="45.95256" lon="4.86576">
        <ele>268</ele>
        <time>2017-06-12T09:04:25Z</time>
      </trkpt>
      <trkpt lat="45.95248" lon="4.86582">
        <ele>268</ele>
        <time>2017-06-12T09:04:27Z</time>
      </trkpt>
      <trkpt lat="45.95244" lon="4.86582">
        <ele>268</ele>
        <time>2017-06-12T09:04:28Z</time>
      </trkpt>
      <trkpt lat="45.95236" lon="4.86581">
        <ele>268</ele>
        <time>2017-06-12T09:04:30Z</time>
      </trkpt>
      <trkpt lat="45.95231" lon="4.86581">
        <ele>268</ele>
        <time>2017-06-12T09:04:31Z</time>
      </trkpt>
      <trkpt lat="45.95226" lon="4.8658">
        <ele>268</ele>
        <time>2017-06-12T09:04:32Z</time>
      </trkpt>
      <trkpt lat="45.95222" lon="4.8658">
        <ele>268</ele>
        <time>2017-06-12T09:04:33Z</time>
      </trkpt>
      <trkpt lat="45.95217" lon="4.8658">
        <ele>268</ele>
        <time>2017-06-12T09:04:34Z</time>
      </trkpt>
      <trkpt lat="45.95212" lon="4.86579">
        <ele>268</ele>
        <time>2017-06-12T09:04:35Z</time>
      </trkpt>
      <trkpt lat="45.95207" lon="4.86578">
        <ele>268</ele>
        <time>2017-06-12T09:04:36Z</time>
      </trkpt>
      <trkpt lat="45.95203" lon="4.86578">
        <ele>268</ele>
        <time>2017-06-12T09:04:37Z</time>
      </trkpt>
      <trkpt lat="45.95198" lon="4.86578">
        <ele>268</ele>
        <time>2017-06-12T09:04:38Z</time>
      </trkpt>
      <trkpt lat="45.95193" lon="4.86579">
        <ele>269</ele>
        <time>2017-06-12T09:04:39Z</time>
      </trkpt>
      <trkpt lat="45.95184" lon="4.8658">
        <ele>269</ele>
        <time>2017-06-12T09:04:41Z</time>
      </trkpt>
      <trkpt lat="45.9518" lon="4.8658">
        <ele>269</ele>
        <time>2017-06-12T09:04:42Z</time>
      </trkpt>
      <trkpt lat="45.95173" lon="4.86579">
        <ele>269</ele>
        <time>2017-06-12T09:04:44Z</time>
      </trkpt>
      <trkpt lat="45.95169" lon="4.8658">
        <ele>269</ele>
        <time>2017-06-12T09:04:45Z</time>
      </trkpt>
      <trkpt lat="45.95161" lon="4.86581">
        <ele>269</ele>
        <time>2017-06-12T09:04:47Z</time>
      </trkpt>
      <trkpt lat="45.95157" lon="4.86581">
        <ele>269</ele>
        <time>2017-06-12T09:04:48Z</time>
      </trkpt>
      <trkpt lat="45.95153" lon="4.86582">
        <ele>269</ele>
        <time>2017-06-12T09:04:49Z</time>
      </trkpt>
      <trkpt lat="45.95148" lon="4.86582">
        <ele>270</ele>
        <time>2017-06-12T09:04:50Z</time>
      </trkpt>
      <trkpt lat="45.95139" lon="4.86584">
        <ele>270</ele>
        <time>2017-06-12T09:04:52Z</time>
      </trkpt>
      <trkpt lat="45.95135" lon="4.86584">
        <ele>270</ele>
        <time>2017-06-12T09:04:53Z</time>
      </trkpt>
      <trkpt lat="45.95127" lon="4.86586">
        <ele>270</ele>
        <time>2017-06-12T09:04:55Z</time>
      </trkpt>
      <trkpt lat="45.95123" lon="4.86586">
        <ele>270</ele>
        <time>2017-06-12T09:04:56Z</time>
      </trkpt>
      <trkpt lat="45.95114" lon="4.86587">
        <ele>270</ele>
        <time>2017-06-12T09:04:58Z</time>
      </trkpt>
      <trkpt lat="45.9511" lon="4.86588">
        <ele>271</ele>
        <time>2017-06-12T09:04:59Z</time>
      </trkpt>
      <trkpt lat="45.95102" lon="4.86589">
        <ele>271</ele>
        <time>2017-06-12T09:05:01Z</time>
      </trkpt>
      <trkpt lat="45.95098" lon="4.8659">
        <ele>271</ele>
        <time>2017-06-12T09:05:02Z</time>
      </trkpt>
      <trkpt lat="45.95089" lon="4.86592">
        <ele>271</ele>
        <time>2017-06-12T09:05:04Z</time>
      </trkpt>
      <trkpt lat="45.95085" lon="4.86593">
        <ele>271</ele>
        <time>2017-06-12T09:05:05Z</time>
      </trkpt>
      <trkpt lat="45.9508" lon="4.86595">
        <ele>272</ele>
        <time>2017-06-12T09:05:06Z</time>
      </trkpt>
      <trkpt lat="45.95076" lon="4.86596">
        <ele>272</ele>
        <time>2017-06-12T09:05:07Z</time>
      </trkpt>
      <trkpt lat="45.95068" lon="4.86598">
        <ele>272</ele>
        <time>2017-06-12T09:05:09Z</time>
      </trkpt>
      <trkpt lat="45.95063" lon="4.86599">
        <ele>272</ele>
        <time>2017-06-12T09:05:10Z</time>
      </trkpt>
      <trkpt lat="45.95055" lon="4.86601">
        <ele>272</ele>
        <time>2017-06-12T09:05:12Z</time>
      </trkpt>
      <trkpt lat="45.95051" lon="4.86603">
        <ele>272</ele>
        <time>2017-06-12T09:05:13Z</time>
      </trkpt>
      <trkpt lat="45.95043" lon="4.86605">
        <ele>272</ele>
        <time>2017-06-12T09:05:15Z</time>
      </trkpt>
      <trkpt lat="45.95038" lon="4.86607">
        <ele>273</ele>
        <time>2017-06-12T09:05:16Z</time>
      </trkpt>
      <trkpt lat="45.9503" lon="4.86609">
        <ele>273</ele>
        <time>2017-06-12T09:05:18Z</time>
      </trkpt>
      <trkpt lat="45.95025" lon="4.8661">
        <ele>273</ele>
        <time>2017-06-12T09:05:19Z</time>
      </trkpt>
      <trkpt lat="45.95021" lon="4.86611">
        <ele>273</ele>
        <time>2017-06-12T09:05:20Z</time>
      </trkpt>
      <trkpt lat="45.95016" lon="4.86612">
        <ele>273</ele>
        <time>2017-06-12T09:05:21Z</time>
      </trkpt>
      <trkpt lat="45.95007" lon="4.86614">
        <ele>273</ele>
        <time>2017-06-12T09:05:23Z</time>
      </trkpt>
      <trkpt lat="45.95003" lon="4.86614">
        <ele>273</ele>
        <time>2017-06-12T09:05:24Z</time>
      </trkpt>
      <trkpt lat="45.94995" lon="4.86615">
        <ele>275</ele>
        <time>2017-06-12T09:05:26Z</time>
      </trkpt>
      <trkpt lat="45.94991" lon="4.86616">
        <ele>275</ele>
        <time>2017-06-12T09:05:27Z</time>
      </trkpt>
      <trkpt lat="45.94984" lon="4.86617">
        <ele>275</ele>
        <time>2017-06-12T09:05:29Z</time>
      </trkpt>
      <trkpt lat="45.94979" lon="4.86618">
        <ele>275</ele>
        <time>2017-06-12T09:05:30Z</time>
      </trkpt>
      <trkpt lat="45.94975" lon="4.8662">
        <ele>275</ele>
        <time>2017-06-12T09:05:31Z</time>
      </trkpt>
      <trkpt lat="45.9497" lon="4.86622">
        <ele>275</ele>
        <time>2017-06-12T09:05:32Z</time>
      </trkpt>
      <trkpt lat="45.94965" lon="4.86625">
        <ele>275</ele>
        <time>2017-06-12T09:05:33Z</time>
      </trkpt>
      <trkpt lat="45.9496" lon="4.86629">
        <ele>275</ele>
        <time>2017-06-12T09:05:34Z</time>
      </trkpt>
      <trkpt lat="45.94956" lon="4.86632">
        <ele>276</ele>
        <time>2017-06-12T09:05:35Z</time>
      </trkpt>
      <trkpt lat="45.94952" lon="4.86637">
        <ele>276</ele>
        <time>2017-06-12T09:05:36Z</time>
      </trkpt>
      <trkpt lat="45.94949" lon="4.86642">
        <ele>276</ele>
        <time>2017-06-12T09:05:37Z</time>
      </trkpt>
      <trkpt lat="45.94946" lon="4.86647">
        <ele>276</ele>
        <time>2017-06-12T09:05:38Z</time>
      </trkpt>
      <trkpt lat="45.94943" lon="4.86659">
        <ele>276</ele>
        <time>2017-06-12T09:05:40Z</time>
      </trkpt>
      <trkpt lat="45.94941" lon="4.86665">
        <ele>276</ele>
        <time>2017-06-12T09:05:41Z</time>
      </trkpt>
      <trkpt lat="45.94941" lon="4.86677">
        <ele>276</ele>
        <time>2017-06-12T09:05:43Z</time>
      </trkpt>
      <trkpt lat="45.94941" lon="4.86684">
        <ele>276</ele>
        <time>2017-06-12T09:05:44Z</time>
      </trkpt>
      <trkpt lat="45.94943" lon="4.86695">
        <ele>276</ele>
        <time>2017-06-12T09:05:46Z</time>
      </trkpt>
      <trkpt lat="45.94943" lon="4.86701">
        <ele>276</ele>
        <time>2017-06-12T09:05:47Z</time>
      </trkpt>
      <trkpt lat="45.94945" lon="4.86712">
        <ele>275</ele>
        <time>2017-06-12T09:05:49Z</time>
      </trkpt>
      <trkpt lat="45.94947" lon="4.86718">
        <ele>275</ele>
        <time>2017-06-12T09:05:50Z</time>
      </trkpt>
      <trkpt lat="45.94949" lon="4.86724">
        <ele>275</ele>
        <time>2017-06-12T09:05:51Z</time>
      </trkpt>
      <trkpt lat="45.94951" lon="4.86731">
        <ele>275</ele>
        <time>2017-06-12T09:05:52Z</time>
      </trkpt>
      <trkpt lat="45.94956" lon="4.86742">
        <ele>275</ele>
        <time>2017-06-12T09:05:54Z</time>
      </trkpt>
      <trkpt lat="45.94958" lon="4.86746">
        <ele>275</ele>
        <time>2017-06-12T09:05:55Z</time>
      </trkpt>
      <trkpt lat="45.94962" lon="4.86756">
        <ele>275</ele>
        <time>2017-06-12T09:05:57Z</time>
      </trkpt>
      <trkpt lat="45.94964" lon="4.8676">
        <ele>275</ele>
        <time>2017-06-12T09:05:58Z</time>
      </trkpt>
      <trkpt lat="45.9497" lon="4.86768">
        <ele>275</ele>
        <time>2017-06-12T09:06:00Z</time>
      </trkpt>
      <trkpt lat="45.94972" lon="4.86773">
        <ele>275</ele>
        <time>2017-06-12T09:06:01Z</time>
      </trkpt>
      <trkpt lat="45.94977" lon="4.86781">
        <ele>275</ele>
        <time>2017-06-12T09:06:03Z</time>
      </trkpt>
      <trkpt lat="45.94979" lon="4.86786">
        <ele>275</ele>
        <time>2017-06-12T09:06:04Z</time>
      </trkpt>
      <trkpt lat="45.94984" lon="4.86795">
        <ele>276</ele>
        <time>2017-06-12T09:06:06Z</time>
      </trkpt>
      <trkpt lat="45.94987" lon="4.868">
        <ele>276</ele>
        <time>2017-06-12T09:06:07Z</time>
      </trkpt>
      <trkpt lat="45.94989" lon="4.86805">
        <ele>276</ele>
        <time>2017-06-12T09:06:08Z</time>
      </trkpt>
      <trkpt lat="45.94992" lon="4.86811">
        <ele>276</ele>
        <time>2017-06-12T09:06:09Z</time>
      </trkpt>
      <trkpt lat="45.94995" lon="4.86816">
        <ele>276</ele>
        <time>2017-06-12T09:06:10Z</time>
      </trkpt>
      <trkpt lat="45.94997" lon="4.86822">
        <ele>276</ele>
        <time>2017-06-12T09:06:11Z</time>
      </trkpt>
      <trkpt lat="45.94999" lon="4.86828">
        <ele>276</ele>
        <time>2017-06-12T09:06:12Z</time>
      </trkpt>
      <trkpt lat="45.95002" lon="4.86834">
        <ele>276</ele>
        <time>2017-06-12T09:06:13Z</time>
      </trkpt>
      <trkpt lat="45.95004" lon="4.8684">
        <ele>276</ele>
        <time>2017-06-12T09:06:14Z</time>
      </trkpt>
      <trkpt lat="45.95006" lon="4.86845">
        <ele>276</ele>
        <time>2017-06-12T09:06:15Z</time>
      </trkpt>
      <trkpt lat="45.9501" lon="4.86857">
        <ele>275</ele>
        <time>2017-06-12T09:06:17Z</time>
      </trkpt>
      <trkpt lat="45.95012" lon="4.86863">
        <ele>275</ele>
        <time>2017-06-12T09:06:18Z</time>
      </trkpt>
      <trkpt lat="45.95014" lon="4.86869">
        <ele>275</ele>
        <time>2017-06-12T09:06:19Z</time>
      </trkpt>
      <trkpt lat="45.95016" lon="4.86876">
        <ele>275</ele>
        <time>2017-06-12T09:06:20Z</time>
      </trkpt>
      <trkpt lat="45.95018" lon="4.86883">
        <ele>275</ele>
        <time>2017-06-12T09:06:21Z</time>
      </trkpt>
      <trkpt lat="45.95021" lon="4.8689">
        <ele>275</ele>
        <time>2017-06-12T09:06:22Z</time>
      </trkpt>
      <trkpt lat="45.95023" lon="4.86897">
        <ele>275</ele>
        <time>2017-06-12T09:06:23Z</time>
      </trkpt>
      <trkpt lat="45.95025" lon="4.86904">
        <ele>275</ele>
        <time>2017-06-12T09:06:24Z</time>
      </trkpt>
      <trkpt lat="45.95027" lon="4.86911">
        <ele>275</ele>
        <time>2017-06-12T09:06:25Z</time>
      </trkpt>
      <trkpt lat="45.95029" lon="4.86917">
        <ele>276</ele>
        <time>2017-06-12T09:06:26Z</time>
      </trkpt>
      <trkpt lat="45.95031" lon="4.86924">
        <ele>276</ele>
        <time>2017-06-12T09:06:27Z</time>
      </trkpt>
      <trkpt lat="45.95032" lon="4.8693">
        <ele>276</ele>
        <time>2017-06-12T09:06:28Z</time>
      </trkpt>
      <trkpt lat="45.95036" lon="4.8694">
        <ele>276</ele>
        <time>2017-06-12T09:06:30Z</time>
      </trkpt>
      <trkpt lat="45.95037" lon="4.86946">
        <ele>276</ele>
        <time>2017-06-12T09:06:31Z</time>
      </trkpt>
      <trkpt lat="45.9504" lon="4.86958">
        <ele>276</ele>
        <time>2017-06-12T09:06:33Z</time>
      </trkpt>
      <trkpt lat="45.95043" lon="4.86964">
        <ele>276</ele>
        <time>2017-06-12T09:06:34Z</time>
      </trkpt>
      <trkpt lat="45.95045" lon="4.86971">
        <ele>276</ele>
        <time>2017-06-12T09:06:35Z</time>
      </trkpt>
      <trkpt lat="45.95047" lon="4.86978">
        <ele>276</ele>
        <time>2017-06-12T09:06:36Z</time>
      </trkpt>
      <trkpt lat="45.9505" lon="4.86985">
        <ele>276</ele>
        <time>2017-06-12T09:06:37Z</time>
      </trkpt>
      <trkpt lat="45.95052" lon="4.86991">
        <ele>276</ele>
        <time>2017-06-12T09:06:38Z</time>
      </trkpt>
      <trkpt lat="45.95056" lon="4.87002">
        <ele>277</ele>
        <time>2017-06-12T09:06:40Z</time>
      </trkpt>
      <trkpt lat="45.95059" lon="4.87007">
        <ele>277</ele>
        <time>2017-06-12T09:06:41Z</time>
      </trkpt>
      <trkpt lat="45.95062" lon="4.87012">
        <ele>277</ele>
        <time>2017-06-12T09:06:42Z</time>
      </trkpt>
      <trkpt lat="45.95064" lon="4.87017">
        <ele>277</ele>
        <time>2017-06-12T09:06:43Z</time>
      </trkpt>
      <trkpt lat="45.95067" lon="4.87022">
        <ele>277</ele>
        <time>2017-06-12T09:06:44Z</time>
      </trkpt>
      <trkpt lat="45.95069" lon="4.87028">
        <ele>277</ele>
        <time>2017-06-12T09:06:45Z</time>
      </trkpt>
      <trkpt lat="45.95073" lon="4.87033">
        <ele>277</ele>
        <time>2017-06-12T09:06:46Z</time>
      </trkpt>
      <trkpt lat="45.95076" lon="4.87039">
        <ele>277</ele>
        <time>2017-06-12T09:06:47Z</time>
      </trkpt>
      <trkpt lat="45.95079" lon="4.87045">
        <ele>277</ele>
        <time>2017-06-12T09:06:48Z</time>
      </trkpt>
      <trkpt lat="45.95082" lon="4.87051">
        <ele>277</ele>
        <time>2017-06-12T09:06:49Z</time>
      </trkpt>
      <trkpt lat="45.95086" lon="4.87062">
        <ele>277</ele>
        <time>2017-06-12T09:06:51Z</time>
      </trkpt>
      <trkpt lat="45.95089" lon="4.87067">
        <ele>277</ele>
        <time>2017-06-12T09:06:52Z</time>
      </trkpt>
      <trkpt lat="45.95094" lon="4.87077">
        <ele>277</ele>
        <time>2017-06-12T09:06:54Z</time>
      </trkpt>
      <trkpt lat="45.95096" lon="4.87082">
        <ele>277</ele>
        <time>2017-06-12T09:06:55Z</time>
      </trkpt>
      <trkpt lat="45.951" lon="4.87091">
        <ele>277</ele>
        <time>2017-06-12T09:06:57Z</time>
      </trkpt>
      <trkpt lat="45.95102" lon="4.87096">
        <ele>277</ele>
        <time>2017-06-12T09:06:58Z</time>
      </trkpt>
      <trkpt lat="45.95105" lon="4.87108">
        <ele>277</ele>
        <time>2017-06-12T09:07:00Z</time>
      </trkpt>
      <trkpt lat="45.95107" lon="4.87113">
        <ele>277</ele>
        <time>2017-06-12T09:07:01Z</time>
      </trkpt>
      <trkpt lat="45.9511" lon="4.87122">
        <ele>277</ele>
        <time>2017-06-12T09:07:03Z</time>
      </trkpt>
      <trkpt lat="45.95112" lon="4.87128">
        <ele>277</ele>
        <time>2017-06-12T09:07:04Z</time>
      </trkpt>
      <trkpt lat="45.95115" lon="4.8714">
        <ele>277</ele>
        <time>2017-06-12T09:07:06Z</time>
      </trkpt>
      <trkpt lat="45.95116" lon="4.87146">
        <ele>277</ele>
        <time>2017-06-12T09:07:07Z</time>
      </trkpt>
      <trkpt lat="45.95117" lon="4.87153">
        <ele>277</ele>
        <time>2017-06-12T09:07:08Z</time>
      </trkpt>
      <trkpt lat="45.95119" lon="4.87159">
        <ele>277</ele>
        <time>2017-06-12T09:07:09Z</time>
      </trkpt>
      <trkpt lat="45.9512" lon="4.87166">
        <ele>277</ele>
        <time>2017-06-12T09:07:10Z</time>
      </trkpt>
      <trkpt lat="45.95121" lon="4.87173">
        <ele>277</ele>
        <time>2017-06-12T09:07:11Z</time>
      </trkpt>
      <trkpt lat="45.95123" lon="4.8718">
        <ele>276</ele>
        <time>2017-06-12T09:07:12Z</time>
      </trkpt>
      <trkpt lat="45.95124" lon="4.87187">
        <ele>276</ele>
        <time>2017-06-12T09:07:13Z</time>
      </trkpt>
      <trkpt lat="45.95126" lon="4.87194">
        <ele>276</ele>
        <time>2017-06-12T09:07:14Z</time>
      </trkpt>
      <trkpt lat="45.95128" lon="4.87202">
        <ele>276</ele>
        <time>2017-06-12T09:07:15Z</time>
      </trkpt>
      <trkpt lat="45.95129" lon="4.8721">
        <ele>276</ele>
        <time>2017-06-12T09:07:16Z</time>
      </trkpt>
      <trkpt lat="45.95131" lon="4.87218">
        <ele>276</ele>
        <time>2017-06-12T09:07:17Z</time>
      </trkpt>
      <trkpt lat="45.95133" lon="4.87226">
        <ele>276</ele>
        <time>2017-06-12T09:07:18Z</time>
      </trkpt>
      <trkpt lat="45.95136" lon="4.87235">
        <ele>276</ele>
        <time>2017-06-12T09:07:19Z</time>
      </trkpt>
      <trkpt lat="45.95138" lon="4.87244">
        <ele>275</ele>
        <time>2017-06-12T09:07:20Z</time>
      </trkpt>
      <trkpt lat="45.95139" lon="4.87253">
        <ele>274</ele>
        <time>2017-06-12T09:07:21Z</time>
      </trkpt>
      <trkpt lat="45.95141" lon="4.87263">
        <ele>274</ele>
        <time>2017-06-12T09:07:22Z</time>
      </trkpt>
      <trkpt lat="45.95143" lon="4.87273">
        <ele>274</ele>
        <time>2017-06-12T09:07:23Z</time>
      </trkpt>
      <trkpt lat="45.95145" lon="4.87283">
        <ele>274</ele>
        <time>2017-06-12T09:07:24Z</time>
      </trkpt>
      <trkpt lat="45.95148" lon="4.87293">
        <ele>274</ele>
        <time>2017-06-12T09:07:25Z</time>
      </trkpt>
      <trkpt lat="45.9515" lon="4.87303">
        <ele>274</ele>
        <time>2017-06-12T09:07:26Z</time>
      </trkpt>
      <trkpt lat="45.95152" lon="4.87313">
        <ele>273</ele>
        <time>2017-06-12T09:07:27Z</time>
      </trkpt>
      <trkpt lat="45.95154" lon="4.87323">
        <ele>273</ele>
        <time>2017-06-12T09:07:28Z</time>
      </trkpt>
      <trkpt lat="45.95156" lon="4.87333">
        <ele>272</ele>
        <time>2017-06-12T09:07:29Z</time>
      </trkpt>
      <trkpt lat="45.95158" lon="4.87343">
        <ele>272</ele>
        <time>2017-06-12T09:07:30Z</time>
      </trkpt>
      <trkpt lat="45.9516" lon="4.87354">
        <ele>272</ele>
        <time>2017-06-12T09:07:31Z</time>
      </trkpt>
      <trkpt lat="45.95161" lon="4.87365">
        <ele>272</ele>
        <time>2017-06-12T09:07:32Z</time>
      </trkpt>
      <trkpt lat="45.95163" lon="4.87375">
        <ele>272</ele>
        <time>2017-06-12T09:07:33Z</time>
      </trkpt>
      <trkpt lat="45.95165" lon="4.87384">
        <ele>272</ele>
        <time>2017-06-12T09:07:34Z</time>
      </trkpt>
      <trkpt lat="45.95168" lon="4.87393">
        <ele>271</ele>
        <time>2017-06-12T09:07:35Z</time>
      </trkpt>
      <trkpt lat="45.95169" lon="4.87402">
        <ele>271</ele>
        <time>2017-06-12T09:07:36Z</time>
      </trkpt>
      <trkpt lat="45.95171" lon="4.8741">
        <ele>271</ele>
        <time>2017-06-12T09:07:37Z</time>
      </trkpt>
      <trkpt lat="45.95173" lon="4.87418">
        <ele>271</ele>
        <time>2017-06-12T09:07:38Z</time>
      </trkpt>
      <trkpt lat="45.95175" lon="4.87426">
        <ele>271</ele>
        <time>2017-06-12T09:07:39Z</time>
      </trkpt>
      <trkpt lat="45.95177" lon="4.87433">
        <ele>271</ele>
        <time>2017-06-12T09:07:40Z</time>
      </trkpt>
      <trkpt lat="45.95178" lon="4.8744">
        <ele>272</ele>
        <time>2017-06-12T09:07:41Z</time>
      </trkpt>
      <trkpt lat="45.9518" lon="4.87448">
        <ele>272</ele>
        <time>2017-06-12T09:07:42Z</time>
      </trkpt>
      <trkpt lat="45.95182" lon="4.87455">
        <ele>272</ele>
        <time>2017-06-12T09:07:43Z</time>
      </trkpt>
      <trkpt lat="45.95183" lon="4.87463">
        <ele>272</ele>
        <time>2017-06-12T09:07:44Z</time>
      </trkpt>
      <trkpt lat="45.95185" lon="4.87469">
        <ele>272</ele>
        <time>2017-06-12T09:07:45Z</time>
      </trkpt>
      <trkpt lat="45.95188" lon="4.87481">
        <ele>272</ele>
        <time>2017-06-12T09:07:47Z</time>
      </trkpt>
      <trkpt lat="45.95189" lon="4.87487">
        <ele>272</ele>
        <time>2017-06-12T09:07:48Z</time>
      </trkpt>
      <trkpt lat="45.95192" lon="4.87497">
        <ele>272</ele>
        <time>2017-06-12T09:07:50Z</time>
      </trkpt>
      <trkpt lat="45.95193" lon="4.87503">
        <ele>273</ele>
        <time>2017-06-12T09:07:51Z</time>
      </trkpt>
      <trkpt lat="45.95194" lon="4.87509">
        <ele>273</ele>
        <time>2017-06-12T09:07:52Z</time>
      </trkpt>
      <trkpt lat="45.95196" lon="4.87516">
        <ele>273</ele>
        <time>2017-06-12T09:07:53Z</time>
      </trkpt>
      <trkpt lat="45.95198" lon="4.87523">
        <ele>274</ele>
        <time>2017-06-12T09:07:54Z</time>
      </trkpt>
      <trkpt lat="45.95199" lon="4.87531">
        <ele>274</ele>
        <time>2017-06-12T09:07:55Z</time>
      </trkpt>
      <trkpt lat="45.95201" lon="4.87538">
        <ele>274</ele>
        <time>2017-06-12T09:07:56Z</time>
      </trkpt>
      <trkpt lat="45.95203" lon="4.87547">
        <ele>274</ele>
        <time>2017-06-12T09:07:57Z</time>
      </trkpt>
      <trkpt lat="45.95203" lon="4.87555">
        <ele>274</ele>
        <time>2017-06-12T09:07:58Z</time>
      </trkpt>
      <trkpt lat="45.95204" lon="4.87563">
        <ele>274</ele>
        <time>2017-06-12T09:07:59Z</time>
      </trkpt>
      <trkpt lat="45.95205" lon="4.87571">
        <ele>274</ele>
        <time>2017-06-12T09:08:00Z</time>
      </trkpt>
      <trkpt lat="45.95205" lon="4.87579">
        <ele>274</ele>
        <time>2017-06-12T09:08:01Z</time>
      </trkpt>
      <trkpt lat="45.95206" lon="4.87587">
        <ele>276</ele>
        <time>2017-06-12T09:08:02Z</time>
      </trkpt>
      <trkpt lat="45.95206" lon="4.87595">
        <ele>276</ele>
        <time>2017-06-12T09:08:03Z</time>
      </trkpt>
      <trkpt lat="45.95207" lon="4.87603">
        <ele>276</ele>
        <time>2017-06-12T09:08:04Z</time>
      </trkpt>
      <trkpt lat="45.95208" lon="4.87611">
        <ele>276</ele>
        <time>2017-06-12T09:08:05Z</time>
      </trkpt>
      <trkpt lat="45.95209" lon="4.87619">
        <ele>276</ele>
        <time>2017-06-12T09:08:06Z</time>
      </trkpt>
      <trkpt lat="45.9521" lon="4.87627">
        <ele>276</ele>
        <time>2017-06-12T09:08:07Z</time>
      </trkpt>
      <trkpt lat="45.95211" lon="4.87636">
        <ele>276</ele>
        <time>2017-06-12T09:08:08Z</time>
      </trkpt>
      <trkpt lat="45.95212" lon="4.87644">
        <ele>276</ele>
        <time>2017-06-12T09:08:09Z</time>
      </trkpt>
      <trkpt lat="45.95213" lon="4.87652">
        <ele>277</ele>
        <time>2017-06-12T09:08:10Z</time>
      </trkpt>
      <trkpt lat="45.95214" lon="4.8766">
        <ele>277</ele>
        <time>2017-06-12T09:08:11Z</time>
      </trkpt>
      <trkpt lat="45.95215" lon="4.87669">
        <ele>279</ele>
        <time>2017-06-12T09:08:12Z</time>
      </trkpt>
      <trkpt lat="45.95216" lon="4.87677">
        <ele>279</ele>
        <time>2017-06-12T09:08:13Z</time>
      </trkpt>
      <trkpt lat="45.95218" lon="4.87685">
        <ele>279</ele>
        <time>2017-06-12T09:08:14Z</time>
      </trkpt>
      <trkpt lat="45.9522" lon="4.87693">
        <ele>279</ele>
        <time>2017-06-12T09:08:15Z</time>
      </trkpt>
      <trkpt lat="45.95221" lon="4.877">
        <ele>279</ele>
        <time>2017-06-12T09:08:16Z</time>
      </trkpt>
      <trkpt lat="45.95222" lon="4.87706">
        <ele>279</ele>
        <time>2017-06-12T09:08:17Z</time>
      </trkpt>
      <trkpt lat="45.95224" lon="4.87718">
        <ele>279</ele>
        <time>2017-06-12T09:08:19Z</time>
      </trkpt>
      <trkpt lat="45.95225" lon="4.87724">
        <ele>280</ele>
        <time>2017-06-12T09:08:20Z</time>
      </trkpt>
      <trkpt lat="45.95228" lon="4.87735">
        <ele>280</ele>
        <time>2017-06-12T09:08:22Z</time>
      </trkpt>
      <trkpt lat="45.95229" lon="4.87741">
        <ele>280</ele>
        <time>2017-06-12T09:08:23Z</time>
      </trkpt>
      <trkpt lat="45.9523" lon="4.8775">
        <ele>281</ele>
        <time>2017-06-12T09:08:25Z</time>
      </trkpt>
      <trkpt lat="45.95231" lon="4.87755">
        <ele>281</ele>
        <time>2017-06-12T09:08:26Z</time>
      </trkpt>
      <trkpt lat="45.95233" lon="4.87768">
        <ele>282</ele>
        <time>2017-06-12T09:08:28Z</time>
      </trkpt>
      <trkpt lat="45.95234" lon="4.87775">
        <ele>282</ele>
        <time>2017-06-12T09:08:29Z</time>
      </trkpt>
      <trkpt lat="45.95236" lon="4.87782">
        <ele>282</ele>
        <time>2017-06-12T09:08:30Z</time>
      </trkpt>
      <trkpt lat="45.95237" lon="4.87789">
        <ele>282</ele>
        <time>2017-06-12T09:08:31Z</time>
      </trkpt>
      <trkpt lat="45.95238" lon="4.87796">
        <ele>282</ele>
        <time>2017-06-12T09:08:32Z</time>
      </trkpt>
      <trkpt lat="45.95239" lon="4.87802">
        <ele>282</ele>
        <time>2017-06-12T09:08:33Z</time>
      </trkpt>
      <trkpt lat="45.95243" lon="4.87813">
        <ele>282</ele>
        <time>2017-06-12T09:08:35Z</time>
      </trkpt>
      <trkpt lat="45.95243" lon="4.87819">
        <ele>282</ele>
        <time>2017-06-12T09:08:36Z</time>
      </trkpt>
      <trkpt lat="45.95245" lon="4.8783">
        <ele>282</ele>
        <time>2017-06-12T09:08:38Z</time>
      </trkpt>
      <trkpt lat="45.95245" lon="4.87835">
        <ele>282</ele>
        <time>2017-06-12T09:08:39Z</time>
      </trkpt>
      <trkpt lat="45.95246" lon="4.87844">
        <ele>283</ele>
        <time>2017-06-12T09:08:41Z</time>
      </trkpt>
      <trkpt lat="45.95247" lon="4.8785">
        <ele>283</ele>
        <time>2017-06-12T09:08:42Z</time>
      </trkpt>
      <trkpt lat="45.95249" lon="4.87859">
        <ele>283</ele>
        <time>2017-06-12T09:08:44Z</time>
      </trkpt>
      <trkpt lat="45.9525" lon="4.87863">
        <ele>281</ele>
        <time>2017-06-12T09:08:45Z</time>
      </trkpt>
      <trkpt lat="45.95253" lon="4.87873">
        <ele>281</ele>
        <time>2017-06-12T09:08:47Z</time>
      </trkpt>
      <trkpt lat="45.95254" lon="4.87879">
        <ele>281</ele>
        <time>2017-06-12T09:08:48Z</time>
      </trkpt>
      <trkpt lat="45.95257" lon="4.87891">
        <ele>281</ele>
        <time>2017-06-12T09:08:50Z</time>
      </trkpt>
      <trkpt lat="45.95258" lon="4.87896">
        <ele>281</ele>
        <time>2017-06-12T09:08:51Z</time>
      </trkpt>
      <trkpt lat="45.9526" lon="4.87907">
        <ele>282</ele>
        <time>2017-06-12T09:08:53Z</time>
      </trkpt>
      <trkpt lat="45.95259" lon="4.87913">
        <ele>282</ele>
        <time>2017-06-12T09:08:54Z</time>
      </trkpt>
      <trkpt lat="45.95258" lon="4.87923">
        <ele>282</ele>
        <time>2017-06-12T09:08:56Z</time>
      </trkpt>
      <trkpt lat="45.95257" lon="4.87927">
        <ele>281</ele>
        <time>2017-06-12T09:08:57Z</time>
      </trkpt>
      <trkpt lat="45.95255" lon="4.87936">
        <ele>281</ele>
        <time>2017-06-12T09:08:59Z</time>
      </trkpt>
      <trkpt lat="45.95254" lon="4.87942">
        <ele>280</ele>
        <time>2017-06-12T09:09:00Z</time>
      </trkpt>
      <trkpt lat="45.95251" lon="4.87952">
        <ele>280</ele>
        <time>2017-06-12T09:09:02Z</time>
      </trkpt>
      <trkpt lat="45.95249" lon="4.87957">
        <ele>282</ele>
        <time>2017-06-12T09:09:03Z</time>
      </trkpt>
      <trkpt lat="45.95245" lon="4.87967">
        <ele>282</ele>
        <time>2017-06-12T09:09:05Z</time>
      </trkpt>
      <trkpt lat="45.95243" lon="4.87971">
        <ele>282</ele>
        <time>2017-06-12T09:09:06Z</time>
      </trkpt>
      <trkpt lat="45.95239" lon="4.8798">
        <ele>282</ele>
        <time>2017-06-12T09:09:08Z</time>
      </trkpt>
      <trkpt lat="45.95236" lon="4.87985">
        <ele>281</ele>
        <time>2017-06-12T09:09:09Z</time>
      </trkpt>
      <trkpt lat="45.95231" lon="4.87993">
        <ele>281</ele>
        <time>2017-06-12T09:09:11Z</time>
      </trkpt>
      <trkpt lat="45.95228" lon="4.87997">
        <ele>281</ele>
        <time>2017-06-12T09:09:12Z</time>
      </trkpt>
      <trkpt lat="45.95222" lon="4.88005">
        <ele>281</ele>
        <time>2017-06-12T09:09:14Z</time>
      </trkpt>
      <trkpt lat="45.95219" lon="4.8801">
        <ele>281</ele>
        <time>2017-06-12T09:09:15Z</time>
      </trkpt>
      <trkpt lat="45.95213" lon="4.88019">
        <ele>281</ele>
        <time>2017-06-12T09:09:17Z</time>
      </trkpt>
      <trkpt lat="45.9521" lon="4.88023">
        <ele>281</ele>
        <time>2017-06-12T09:09:18Z</time>
      </trkpt>
      <trkpt lat="45.95204" lon="4.88031">
        <ele>281</ele>
        <time>2017-06-12T09:09:20Z</time>
      </trkpt>
      <trkpt lat="45.95201" lon="4.88036">
        <ele>281</ele>
        <time>2017-06-12T09:09:21Z</time>
      </trkpt>
      <trkpt lat="45.95198" lon="4.88042">
        <ele>281</ele>
        <time>2017-06-12T09:09:22Z</time>
      </trkpt>
      <trkpt lat="45.95195" lon="4.88048">
        <ele>281</ele>
        <time>2017-06-12T09:09:23Z</time>
      </trkpt>
      <trkpt lat="45.95193" lon="4.88054">
        <ele>281</ele>
        <time>2017-06-12T09:09:24Z</time>
      </trkpt>
      <trkpt lat="45.95191" lon="4.8806">
        <ele>281</ele>
        <time>2017-06-12T09:09:25Z</time>
      </trkpt>
      <trkpt lat="45.95189" lon="4.88067">
        <ele>281</ele>
        <time>2017-06-12T09:09:26Z</time>
      </trkpt>
      <trkpt lat="45.95187" lon="4.88073">
        <ele>281</ele>
        <time>2017-06-12T09:09:27Z</time>
      </trkpt>
      <trkpt lat="45.95184" lon="4.88084">
        <ele>282</ele>
        <time>2017-06-12T09:09:29Z</time>
      </trkpt>
      <trkpt lat="45.95183" lon="4.8809">
        <ele>282</ele>
        <time>2017-06-12T09:09:30Z</time>
      </trkpt>
      <trkpt lat="45.9518" lon="4.881">
        <ele>282</ele>
        <time>2017-06-12T09:09:32Z</time>
      </trkpt>
      <trkpt lat="45.95179" lon="4.88105">
        <ele>282</ele>
        <time>2017-06-12T09:09:33Z</time>
      </trkpt>
      <trkpt lat="45.95178" lon="4.88113">
        <ele>282</ele>
        <time>2017-06-12T09:09:35Z</time>
      </trkpt>
      <trkpt lat="45.95177" lon="4.88118">
        <ele>282</ele>
        <time>2017-06-12T09:09:36Z</time>
      </trkpt>
      <trkpt lat="45.95175" lon="4.88127">
        <ele>282</ele>
        <time>2017-06-12T09:09:38Z</time>
      </trkpt>
      <trkpt lat="45.95173" lon="4.88132">
        <ele>283</ele>
        <time>2017-06-12T09:09:39Z</time>
      </trkpt>
      <trkpt lat="45.95169" lon="4.88142">
        <ele>283</ele>
        <time>2017-06-12T09:09:41Z</time>
      </trkpt>
      <trkpt lat="45.95168" lon="4.88148">
        <ele>283</ele>
        <time>2017-06-12T09:09:42Z</time>
      </trkpt>
      <trkpt lat="45.95166" lon="4.88157">
        <ele>285</ele>
        <time>2017-06-12T09:09:44Z</time>
      </trkpt>
      <trkpt lat="45.95166" lon="4.8816">
        <ele>285</ele>
        <time>2017-06-12T09:09:45Z</time>
      </trkpt>
      <trkpt lat="45.95164" lon="4.88171">
        <ele>285</ele>
        <time>2017-06-12T09:09:49Z</time>
      </trkpt>
      <trkpt lat="45.95164" lon="4.88174">
        <ele>286</ele>
        <time>2017-06-12T09:09:50Z</time>
      </trkpt>
      <trkpt lat="45.9517" lon="4.8818">
        <ele>285</ele>
        <time>2017-06-12T09:09:53Z</time>
      </trkpt>
      <trkpt lat="45.95174" lon="4.88179">
        <ele>285</ele>
        <time>2017-06-12T09:09:54Z</time>
      </trkpt>
      <trkpt lat="45.95181" lon="4.88178">
        <ele>285</ele>
        <time>2017-06-12T09:09:56Z</time>
      </trkpt>
      <trkpt lat="45.95185" lon="4.88177">
        <ele>285</ele>
        <time>2017-06-12T09:09:57Z</time>
      </trkpt>
      <trkpt lat="45.9519" lon="4.88176">
        <ele>285</ele>
        <time>2017-06-12T09:09:58Z</time>
      </trkpt>
      <trkpt lat="45.95195" lon="4.88176">
        <ele>285</ele>
        <time>2017-06-12T09:09:59Z</time>
      </trkpt>
      <trkpt lat="45.952" lon="4.88176">
        <ele>285</ele>
        <time>2017-06-12T09:10:00Z</time>
      </trkpt>
      <trkpt lat="45.95205" lon="4.88176">
        <ele>285</ele>
        <time>2017-06-12T09:10:01Z</time>
      </trkpt>
      <trkpt lat="45.9521" lon="4.88175">
        <ele>284</ele>
        <time>2017-06-12T09:10:02Z</time>
      </trkpt>
      <trkpt lat="45.95216" lon="4.88174">
        <ele>284</ele>
        <time>2017-06-12T09:10:03Z</time>
      </trkpt>
      <trkpt lat="45.95221" lon="4.88174">
        <ele>284</ele>
        <time>2017-06-12T09:10:04Z</time>
      </trkpt>
      <trkpt lat="45.95227" lon="4.88174">
        <ele>284</ele>
        <time>2017-06-12T09:10:05Z</time>
      </trkpt>
      <trkpt lat="45.95234" lon="4.88174">
        <ele>283</ele>
        <time>2017-06-12T09:10:06Z</time>
      </trkpt>
      <trkpt lat="45.95241" lon="4.88174">
        <ele>283</ele>
        <time>2017-06-12T09:10:07Z</time>
      </trkpt>
      <trkpt lat="45.95248" lon="4.88175">
        <ele>282</ele>
        <time>2017-06-12T09:10:08Z</time>
      </trkpt>
      <trkpt lat="45.95255" lon="4.88175">
        <ele>281</ele>
        <time>2017-06-12T09:10:09Z</time>
      </trkpt>
      <trkpt lat="45.95262" lon="4.88174">
        <ele>281</ele>
        <time>2017-06-12T09:10:10Z</time>
      </trkpt>
      <trkpt lat="45.95269" lon="4.88175">
        <ele>281</ele>
        <time>2017-06-12T09:10:11Z</time>
      </trkpt>
      <trkpt lat="45.95277" lon="4.88176">
        <ele>281</ele>
        <time>2017-06-12T09:10:12Z</time>
      </trkpt>
      <trkpt lat="45.95284" lon="4.88177">
        <ele>281</ele>
        <time>2017-06-12T09:10:13Z</time>
      </trkpt>
      <trkpt lat="45.95291" lon="4.88178">
        <ele>281</ele>
        <time>2017-06-12T09:10:14Z</time>
      </trkpt>
      <trkpt lat="45.95299" lon="4.88179">
        <ele>281</ele>
        <time>2017-06-12T09:10:15Z</time>
      </trkpt>
      <trkpt lat="45.95306" lon="4.8818">
        <ele>281</ele>
        <time>2017-06-12T09:10:16Z</time>
      </trkpt>
      <trkpt lat="45.95314" lon="4.8818">
        <ele>280</ele>
        <time>2017-06-12T09:10:17Z</time>
      </trkpt>
      <trkpt lat="45.95322" lon="4.8818">
        <ele>280</ele>
        <time>2017-06-12T09:10:18Z</time>
      </trkpt>
      <trkpt lat="45.9533" lon="4.8818">
        <ele>280</ele>
        <time>2017-06-12T09:10:19Z</time>
      </trkpt>
      <trkpt lat="45.95338" lon="4.8818">
        <ele>278</ele>
        <time>2017-06-12T09:10:20Z</time>
      </trkpt>
      <trkpt lat="45.95346" lon="4.88179">
        <ele>278</ele>
        <time>2017-06-12T09:10:21Z</time>
      </trkpt>
      <trkpt lat="45.95354" lon="4.88178">
        <ele>278</ele>
        <time>2017-06-12T09:10:22Z</time>
      </trkpt>
      <trkpt lat="45.95362" lon="4.88177">
        <ele>278</ele>
        <time>2017-06-12T09:10:23Z</time>
      </trkpt>
      <trkpt lat="45.95369" lon="4.88175">
        <ele>278</ele>
        <time>2017-06-12T09:10:24Z</time>
      </trkpt>
      <trkpt lat="45.95376" lon="4.88173">
        <ele>278</ele>
        <time>2017-06-12T09:10:25Z</time>
      </trkpt>
      <trkpt lat="45.95383" lon="4.88171">
        <ele>278</ele>
        <time>2017-06-12T09:10:26Z</time>
      </trkpt>
      <trkpt lat="45.9539" lon="4.88168">
        <ele>278</ele>
        <time>2017-06-12T09:10:27Z</time>
      </trkpt>
      <trkpt lat="45.95397" lon="4.88165">
        <ele>276</ele>
        <time>2017-06-12T09:10:28Z</time>
      </trkpt>
      <trkpt lat="45.95403" lon="4.88163">
        <ele>276</ele>
        <time>2017-06-12T09:10:29Z</time>
      </trkpt>
      <trkpt lat="45.95409" lon="4.8816">
        <ele>276</ele>
        <time>2017-06-12T09:10:30Z</time>
      </trkpt>
      <trkpt lat="45.95415" lon="4.88157">
        <ele>276</ele>
        <time>2017-06-12T09:10:31Z</time>
      </trkpt>
      <trkpt lat="45.9542" lon="4.88155">
        <ele>276</ele>
        <time>2017-06-12T09:10:32Z</time>
      </trkpt>
      <trkpt lat="45.95425" lon="4.88152">
        <ele>276</ele>
        <time>2017-06-12T09:10:33Z</time>
      </trkpt>
      <trkpt lat="45.9543" lon="4.8815">
        <ele>276</ele>
        <time>2017-06-12T09:10:34Z</time>
      </trkpt>
      <trkpt lat="45.95435" lon="4.88148">
        <ele>276</ele>
        <time>2017-06-12T09:10:35Z</time>
      </trkpt>
      <trkpt lat="45.95439" lon="4.88146">
        <ele>276</ele>
        <time>2017-06-12T09:10:36Z</time>
      </trkpt>
      <trkpt lat="45.95444" lon="4.88144">
        <ele>276</ele>
        <time>2017-06-12T09:10:37Z</time>
      </trkpt>
      <trkpt lat="45.95452" lon="4.8814">
        <ele>276</ele>
        <time>2017-06-12T09:10:39Z</time>
      </trkpt>
      <trkpt lat="45.95456" lon="4.8814">
        <ele>276</ele>
        <time>2017-06-12T09:10:40Z</time>
      </trkpt>
      <trkpt lat="45.95464" lon="4.88135">
        <ele>276</ele>
        <time>2017-06-12T09:10:42Z</time>
      </trkpt>
      <trkpt lat="45.95468" lon="4.88133">
        <ele>276</ele>
        <time>2017-06-12T09:10:43Z</time>
      </trkpt>
      <trkpt lat="45.95472" lon="4.88131">
        <ele>276</ele>
        <time>2017-06-12T09:10:44Z</time>
      </trkpt>
      <trkpt lat="45.95476" lon="4.88128">
        <ele>276</ele>
        <time>2017-06-12T09:10:45Z</time>
      </trkpt>
      <trkpt lat="45.95481" lon="4.88126">
        <ele>276</ele>
        <time>2017-06-12T09:10:46Z</time>
      </trkpt>
      <trkpt lat="45.95486" lon="4.88124">
        <ele>276</ele>
        <time>2017-06-12T09:10:47Z</time>
      </trkpt>
      <trkpt lat="45.95491" lon="4.88122">
        <ele>276</ele>
        <time>2017-06-12T09:10:48Z</time>
      </trkpt>
      <trkpt lat="45.95496" lon="4.88119">
        <ele>276</ele>
        <time>2017-06-12T09:10:49Z</time>
      </trkpt>
      <trkpt lat="45.955" lon="4.88117">
        <ele>276</ele>
        <time>2017-06-12T09:10:50Z</time>
      </trkpt>
      <trkpt lat="45.95505" lon="4.88115">
        <ele>276</ele>
        <time>2017-06-12T09:10:51Z</time>
      </trkpt>
      <trkpt lat="45.95512" lon="4.88113">
        <ele>276</ele>
        <time>2017-06-12T09:10:53Z</time>
      </trkpt>
      <trkpt lat="45.95516" lon="4.88111">
        <ele>276</ele>
        <time>2017-06-12T09:10:54Z</time>
      </trkpt>
      <trkpt lat="45.95524" lon="4.88106">
        <ele>277</ele>
        <time>2017-06-12T09:10:56Z</time>
      </trkpt>
      <trkpt lat="45.95528" lon="4.88104">
        <ele>277</ele>
        <time>2017-06-12T09:10:57Z</time>
      </trkpt>
      <trkpt lat="45.95532" lon="4.88102">
        <ele>277</ele>
        <time>2017-06-12T09:10:58Z</time>
      </trkpt>
      <trkpt lat="45.95537" lon="4.881">
        <ele>277</ele>
        <time>2017-06-12T09:10:59Z</time>
      </trkpt>
      <trkpt lat="45.95542" lon="4.88097">
        <ele>277</ele>
        <time>2017-06-12T09:11:00Z</time>
      </trkpt>
      <trkpt lat="45.95547" lon="4.88095">
        <ele>277</ele>
        <time>2017-06-12T09:11:01Z</time>
      </trkpt>
      <trkpt lat="45.95552" lon="4.88093">
        <ele>277</ele>
        <time>2017-06-12T09:11:02Z</time>
      </trkpt>
      <trkpt lat="45.95557" lon="4.88091">
        <ele>277</ele>
        <time>2017-06-12T09:11:03Z</time>
      </trkpt>
      <trkpt lat="45.95563" lon="4.88088">
        <ele>277</ele>
        <time>2017-06-12T09:11:04Z</time>
      </trkpt>
      <trkpt lat="45.95568" lon="4.88085">
        <ele>277</ele>
        <time>2017-06-12T09:11:05Z</time>
      </trkpt>
      <trkpt lat="45.95572" lon="4.88082">
        <ele>277</ele>
        <time>2017-06-12T09:11:06Z</time>
      </trkpt>
      <trkpt lat="45.95577" lon="4.88078">
        <ele>277</ele>
        <time>2017-06-12T09:11:07Z</time>
      </trkpt>
      <trkpt lat="45.95581" lon="4.88075">
        <ele>277</ele>
        <time>2017-06-12T09:11:08Z</time>
      </trkpt>
      <trkpt lat="45.95585" lon="4.88071">
        <ele>278</ele>
        <time>2017-06-12T09:11:09Z</time>
      </trkpt>
      <trkpt lat="45.95593" lon="4.88065">
        <ele>278</ele>
        <time>2017-06-12T09:11:11Z</time>
      </trkpt>
      <trkpt lat="45.95598" lon="4.88062">
        <ele>278</ele>
        <time>2017-06-12T09:11:12Z</time>
      </trkpt>
      <trkpt lat="45.95602" lon="4.88058">
        <ele>278</ele>
        <time>2017-06-12T09:11:13Z</time>
      </trkpt>
      <trkpt lat="45.95606" lon="4.88053">
        <ele>278</ele>
        <time>2017-06-12T09:11:14Z</time>
      </trkpt>
      <trkpt lat="45.95611" lon="4.88049">
        <ele>278</ele>
        <time>2017-06-12T09:11:15Z</time>
      </trkpt>
      <trkpt lat="45.95616" lon="4.88044">
        <ele>278</ele>
        <time>2017-06-12T09:11:16Z</time>
      </trkpt>
      <trkpt lat="45.9562" lon="4.8804">
        <ele>278</ele>
        <time>2017-06-12T09:11:17Z</time>
      </trkpt>
      <trkpt lat="45.95625" lon="4.88036">
        <ele>278</ele>
        <time>2017-06-12T09:11:18Z</time>
      </trkpt>
      <trkpt lat="45.95629" lon="4.88032">
        <ele>279</ele>
        <time>2017-06-12T09:11:19Z</time>
      </trkpt>
      <trkpt lat="45.95632" lon="4.88029">
        <ele>279</ele>
        <time>2017-06-12T09:11:20Z</time>
      </trkpt>
      <trkpt lat="45.95639" lon="4.88022">
        <ele>279</ele>
        <time>2017-06-12T09:11:22Z</time>
      </trkpt>
      <trkpt lat="45.95642" lon="4.88019">
        <ele>279</ele>
        <time>2017-06-12T09:11:23Z</time>
      </trkpt>
      <trkpt lat="45.95648" lon="4.88012">
        <ele>279</ele>
        <time>2017-06-12T09:11:25Z</time>
      </trkpt>
      <trkpt lat="45.95652" lon="4.88009">
        <ele>280</ele>
        <time>2017-06-12T09:11:26Z</time>
      </trkpt>
      <trkpt lat="45.95659" lon="4.88003">
        <ele>280</ele>
        <time>2017-06-12T09:11:28Z</time>
      </trkpt>
      <trkpt lat="45.95663" lon="4.88">
        <ele>280</ele>
        <time>2017-06-12T09:11:29Z</time>
      </trkpt>
      <trkpt lat="45.95667" lon="4.87996">
        <ele>280</ele>
        <time>2017-06-12T09:11:30Z</time>
      </trkpt>
      <trkpt lat="45.9567" lon="4.87992">
        <ele>281</ele>
        <time>2017-06-12T09:11:31Z</time>
      </trkpt>
      <trkpt lat="45.95675" lon="4.87988">
        <ele>282</ele>
        <time>2017-06-12T09:11:32Z</time>
      </trkpt>
      <trkpt lat="45.95679" lon="4.87984">
        <ele>282</ele>
        <time>2017-06-12T09:11:33Z</time>
      </trkpt>
      <trkpt lat="45.95683" lon="4.8798">
        <ele>282</ele>
        <time>2017-06-12T09:11:34Z</time>
      </trkpt>
      <trkpt lat="45.95687" lon="4.87976">
        <ele>282</ele>
        <time>2017-06-12T09:11:35Z</time>
      </trkpt>
      <trkpt lat="45.95694" lon="4.87969">
        <ele>282</ele>
        <time>2017-06-12T09:11:37Z</time>
      </trkpt>
      <trkpt lat="45.95697" lon="4.87966">
        <ele>282</ele>
        <time>2017-06-12T09:11:38Z</time>
      </trkpt>
      <trkpt lat="45.95702" lon="4.87962">
        <ele>283</ele>
        <time>2017-06-12T09:11:40Z</time>
      </trkpt>
      <trkpt lat="45.95705" lon="4.8796">
        <ele>283</ele>
        <time>2017-06-12T09:11:41Z</time>
      </trkpt>
      <trkpt lat="45.95713" lon="4.87956">
        <ele>283</ele>
        <time>2017-06-12T09:11:43Z</time>
      </trkpt>
      <trkpt lat="45.95716" lon="4.87953">
        <ele>283</ele>
        <time>2017-06-12T09:11:44Z</time>
      </trkpt>
      <trkpt lat="45.95722" lon="4.87947">
        <ele>283</ele>
        <time>2017-06-12T09:11:46Z</time>
      </trkpt>
      <trkpt lat="45.95725" lon="4.87944">
        <ele>283</ele>
        <time>2017-06-12T09:11:47Z</time>
      </trkpt>
      <trkpt lat="45.95731" lon="4.87938">
        <ele>283</ele>
        <time>2017-06-12T09:11:49Z</time>
      </trkpt>
      <trkpt lat="45.95734" lon="4.87935">
        <ele>284</ele>
        <time>2017-06-12T09:11:50Z</time>
      </trkpt>
      <trkpt lat="45.9574" lon="4.8793">
        <ele>284</ele>
        <time>2017-06-12T09:11:52Z</time>
      </trkpt>
      <trkpt lat="45.95743" lon="4.87927">
        <ele>284</ele>
        <time>2017-06-12T09:11:53Z</time>
      </trkpt>
      <trkpt lat="45.95751" lon="4.87923">
        <ele>285</ele>
        <time>2017-06-12T09:11:55Z</time>
      </trkpt>
      <trkpt lat="45.95755" lon="4.87921">
        <ele>285</ele>
        <time>2017-06-12T09:11:56Z</time>
      </trkpt>
      <trkpt lat="45.95762" lon="4.87916">
        <ele>285</ele>
        <time>2017-06-12T09:11:58Z</time>
      </trkpt>
      <trkpt lat="45.95765" lon="4.87914">
        <ele>286</ele>
        <time>2017-06-12T09:11:59Z</time>
      </trkpt>
      <trkpt lat="45.95772" lon="4.8791">
        <ele>286</ele>
        <time>2017-06-12T09:12:01Z</time>
      </trkpt>
      <trkpt lat="45.95774" lon="4.87908">
        <ele>286</ele>
        <time>2017-06-12T09:12:02Z</time>
      </trkpt>
      <trkpt lat="45.95782" lon="4.87902">
        <ele>286</ele>
        <time>2017-06-12T09:12:05Z</time>
      </trkpt>
      <trkpt lat="45.95785" lon="4.879">
        <ele>286</ele>
        <time>2017-06-12T09:12:06Z</time>
      </trkpt>
      <trkpt lat="45.95792" lon="4.87896">
        <ele>286</ele>
        <time>2017-06-12T09:12:08Z</time>
      </trkpt>
      <trkpt lat="45.95795" lon="4.87894">
        <ele>287</ele>
        <time>2017-06-12T09:12:09Z</time>
      </trkpt>
      <trkpt lat="45.95801" lon="4.87891">
        <ele>287</ele>
        <time>2017-06-12T09:12:11Z</time>
      </trkpt>
      <trkpt lat="45.95804" lon="4.87889">
        <ele>287</ele>
        <time>2017-06-12T09:12:12Z</time>
      </trkpt>
      <trkpt lat="45.95811" lon="4.87887">
        <ele>287</ele>
        <time>2017-06-12T09:12:14Z</time>
      </trkpt>
      <trkpt lat="45.95815" lon="4.87886">
        <ele>287</ele>
        <time>2017-06-12T09:12:15Z</time>
      </trkpt>
      <trkpt lat="45.95821" lon="4.87884">
        <ele>287</ele>
        <time>2017-06-12T09:12:17Z</time>
      </trkpt>
      <trkpt lat="45.95824" lon="4.87883">
        <ele>287</ele>
        <time>2017-06-12T09:12:18Z</time>
      </trkpt>
      <trkpt lat="45.95833" lon="4.87882">
        <ele>287</ele>
        <time>2017-06-12T09:12:21Z</time>
      </trkpt>
      <trkpt lat="45.95836" lon="4.8788">
        <ele>289</ele>
        <time>2017-06-12T09:12:22Z</time>
      </trkpt>
      <trkpt lat="45.95841" lon="4.87874">
        <ele>289</ele>
        <time>2017-06-12T09:12:24Z</time>
      </trkpt>
      <trkpt lat="45.95843" lon="4.8787">
        <ele>289</ele>
        <time>2017-06-12T09:12:25Z</time>
      </trkpt>
      <trkpt lat="45.95849" lon="4.87863">
        <ele>289</ele>
        <time>2017-06-12T09:12:27Z</time>
      </trkpt>
      <trkpt lat="45.95852" lon="4.8786">
        <ele>289</ele>
        <time>2017-06-12T09:12:28Z</time>
      </trkpt>
      <trkpt lat="45.95858" lon="4.87855">
        <ele>289</ele>
        <time>2017-06-12T09:12:30Z</time>
      </trkpt>
      <trkpt lat="45.95861" lon="4.87851">
        <ele>289</ele>
        <time>2017-06-12T09:12:31Z</time>
      </trkpt>
      <trkpt lat="45.95868" lon="4.87844">
        <ele>289</ele>
        <time>2017-06-12T09:12:33Z</time>
      </trkpt>
      <trkpt lat="45.95871" lon="4.87841">
        <ele>289</ele>
        <time>2017-06-12T09:12:34Z</time>
      </trkpt>
      <trkpt lat="45.95877" lon="4.87834">
        <ele>289</ele>
        <time>2017-06-12T09:12:36Z</time>
      </trkpt>
      <trkpt lat="45.9588" lon="4.87832">
        <ele>288</ele>
        <time>2017-06-12T09:12:37Z</time>
      </trkpt>
      <trkpt lat="45.95886" lon="4.87826">
        <ele>288</ele>
        <time>2017-06-12T09:12:39Z</time>
      </trkpt>
      <trkpt lat="45.95889" lon="4.87822">
        <ele>288</ele>
        <time>2017-06-12T09:12:40Z</time>
      </trkpt>
      <trkpt lat="45.95893" lon="4.87814">
        <ele>288</ele>
        <time>2017-06-12T09:12:42Z</time>
      </trkpt>
      <trkpt lat="45.95896" lon="4.87811">
        <ele>288</ele>
        <time>2017-06-12T09:12:43Z</time>
      </trkpt>
      <trkpt lat="45.95901" lon="4.87803">
        <ele>288</ele>
        <time>2017-06-12T09:12:45Z</time>
      </trkpt>
      <trkpt lat="45.95903" lon="4.87799">
        <ele>288</ele>
        <time>2017-06-12T09:12:46Z</time>
      </trkpt>
      <trkpt lat="45.95908" lon="4.87791">
        <ele>288</ele>
        <time>2017-06-12T09:12:48Z</time>
      </trkpt>
      <trkpt lat="45.95911" lon="4.87787">
        <ele>288</ele>
        <time>2017-06-12T09:12:49Z</time>
      </trkpt>
      <trkpt lat="45.95915" lon="4.87779">
        <ele>288</ele>
        <time>2017-06-12T09:12:51Z</time>
      </trkpt>
      <trkpt lat="45.95917" lon="4.87776">
        <ele>289</ele>
        <time>2017-06-12T09:12:52Z</time>
      </trkpt>
      <trkpt lat="45.95922" lon="4.87768">
        <ele>289</ele>
        <time>2017-06-12T09:12:54Z</time>
      </trkpt>
      <trkpt lat="45.95924" lon="4.87764">
        <ele>288</ele>
        <time>2017-06-12T09:12:55Z</time>
      </trkpt>
      <trkpt lat="45.95929" lon="4.87756">
        <ele>288</ele>
        <time>2017-06-12T09:12:57Z</time>
      </trkpt>
      <trkpt lat="45.95931" lon="4.87752">
        <ele>288</ele>
        <time>2017-06-12T09:12:58Z</time>
      </trkpt>
      <trkpt lat="45.95937" lon="4.87745">
        <ele>288</ele>
        <time>2017-06-12T09:13:00Z</time>
      </trkpt>
      <trkpt lat="45.9594" lon="4.87741">
        <ele>288</ele>
        <time>2017-06-12T09:13:01Z</time>
      </trkpt>
      <trkpt lat="45.95946" lon="4.87733">
        <ele>289</ele>
        <time>2017-06-12T09:13:03Z</time>
      </trkpt>
      <trkpt lat="45.95948" lon="4.87729">
        <ele>289</ele>
        <time>2017-06-12T09:13:04Z</time>
      </trkpt>
      <trkpt lat="45.95954" lon="4.8772">
        <ele>289</ele>
        <time>2017-06-12T09:13:06Z</time>
      </trkpt>
      <trkpt lat="45.95957" lon="4.87716">
        <ele>289</ele>
        <time>2017-06-12T09:13:07Z</time>
      </trkpt>
      <trkpt lat="45.95962" lon="4.8771">
        <ele>289</ele>
        <time>2017-06-12T09:13:09Z</time>
      </trkpt>
      <trkpt lat="45.95965" lon="4.87706">
        <ele>289</ele>
        <time>2017-06-12T09:13:10Z</time>
      </trkpt>
      <trkpt lat="45.95971" lon="4.87699">
        <ele>289</ele>
        <time>2017-06-12T09:13:12Z</time>
      </trkpt>
      <trkpt lat="45.95974" lon="4.87695">
        <ele>289</ele>
        <time>2017-06-12T09:13:13Z</time>
      </trkpt>
      <trkpt lat="45.95979" lon="4.87688">
        <ele>289</ele>
        <time>2017-06-12T09:13:15Z</time>
      </trkpt>
      <trkpt lat="45.95982" lon="4.87685">
        <ele>289</ele>
        <time>2017-06-12T09:13:16Z</time>
      </trkpt>
      <trkpt lat="45.95989" lon="4.87677">
        <ele>289</ele>
        <time>2017-06-12T09:13:18Z</time>
      </trkpt>
      <trkpt lat="45.95992" lon="4.87673">
        <ele>290</ele>
        <time>2017-06-12T09:13:19Z</time>
      </trkpt>
      <trkpt lat="45.95999" lon="4.87666">
        <ele>290</ele>
        <time>2017-06-12T09:13:21Z</time>
      </trkpt>
      <trkpt lat="45.96002" lon="4.87662">
        <ele>290</ele>
        <time>2017-06-12T09:13:22Z</time>
      </trkpt>
      <trkpt lat="45.96007" lon="4.87655">
        <ele>289</ele>
        <time>2017-06-12T09:13:24Z</time>
      </trkpt>
      <trkpt lat="45.96011" lon="4.87651">
        <ele>289</ele>
        <time>2017-06-12T09:13:25Z</time>
      </trkpt>
      <trkpt lat="45.96015" lon="4.87646">
        <ele>289</ele>
        <time>2017-06-12T09:13:26Z</time>
      </trkpt>
      <trkpt lat="45.96019" lon="4.87642">
        <ele>289</ele>
        <time>2017-06-12T09:13:27Z</time>
      </trkpt>
      <trkpt lat="45.96023" lon="4.87637">
        <ele>289</ele>
        <time>2017-06-12T09:13:28Z</time>
      </trkpt>
      <trkpt lat="45.96027" lon="4.87633">
        <ele>289</ele>
        <time>2017-06-12T09:13:29Z</time>
      </trkpt>
      <trkpt lat="45.96034" lon="4.87625">
        <ele>289</ele>
        <time>2017-06-12T09:13:31Z</time>
      </trkpt>
      <trkpt lat="45.96038" lon="4.87622">
        <ele>289</ele>
        <time>2017-06-12T09:13:32Z</time>
      </trkpt>
      <trkpt lat="45.96045" lon="4.87615">
        <ele>289</ele>
        <time>2017-06-12T09:13:34Z</time>
      </trkpt>
      <trkpt lat="45.96048" lon="4.87611">
        <ele>289</ele>
        <time>2017-06-12T09:13:35Z</time>
      </trkpt>
      <trkpt lat="45.96054" lon="4.87604">
        <ele>289</ele>
        <time>2017-06-12T09:13:37Z</time>
      </trkpt>
      <trkpt lat="45.96057" lon="4.876">
        <ele>288</ele>
        <time>2017-06-12T09:13:38Z</time>
      </trkpt>
      <trkpt lat="45.96063" lon="4.87593">
        <ele>288</ele>
        <time>2017-06-12T09:13:40Z</time>
      </trkpt>
      <trkpt lat="45.96066" lon="4.8759">
        <ele>288</ele>
        <time>2017-06-12T09:13:41Z</time>
      </trkpt>
      <trkpt lat="45.96073" lon="4.87582">
        <ele>288</ele>
        <time>2017-06-12T09:13:43Z</time>
      </trkpt>
      <trkpt lat="45.96077" lon="4.87578">
        <ele>288</ele>
        <time>2017-06-12T09:13:44Z</time>
      </trkpt>
      <trkpt lat="45.9608" lon="4.87573">
        <ele>288</ele>
        <time>2017-06-12T09:13:45Z</time>
      </trkpt>
      <trkpt lat="45.96084" lon="4.87569">
        <ele>287</ele>
        <time>2017-06-12T09:13:46Z</time>
      </trkpt>
      <trkpt lat="45.96088" lon="4.87565">
        <ele>287</ele>
        <time>2017-06-12T09:13:47Z</time>
      </trkpt>
      <trkpt lat="45.96091" lon="4.87561">
        <ele>287</ele>
        <time>2017-06-12T09:13:48Z</time>
      </trkpt>
      <trkpt lat="45.96095" lon="4.87557">
        <ele>287</ele>
        <time>2017-06-12T09:13:49Z</time>
      </trkpt>
      <trkpt lat="45.96098" lon="4.87553">
        <ele>287</ele>
        <time>2017-06-12T09:13:50Z</time>
      </trkpt>
      <trkpt lat="45.96102" lon="4.87549">
        <ele>287</ele>
        <time>2017-06-12T09:13:51Z</time>
      </trkpt>
      <trkpt lat="45.96105" lon="4.87545">
        <ele>287</ele>
        <time>2017-06-12T09:13:52Z</time>
      </trkpt>
      <trkpt lat="45.96109" lon="4.8754">
        <ele>287</ele>
        <time>2017-06-12T09:13:53Z</time>
      </trkpt>
      <trkpt lat="45.96112" lon="4.87536">
        <ele>287</ele>
        <time>2017-06-12T09:13:54Z</time>
      </trkpt>
      <trkpt lat="45.96116" lon="4.87532">
        <ele>287</ele>
        <time>2017-06-12T09:13:55Z</time>
      </trkpt>
      <trkpt lat="45.9612" lon="4.87527">
        <ele>286</ele>
        <time>2017-06-12T09:13:56Z</time>
      </trkpt>
      <trkpt lat="45.96124" lon="4.87523">
        <ele>286</ele>
        <time>2017-06-12T09:13:57Z</time>
      </trkpt>
      <trkpt lat="45.96128" lon="4.87519">
        <ele>286</ele>
        <time>2017-06-12T09:13:58Z</time>
      </trkpt>
      <trkpt lat="45.96132" lon="4.87514">
        <ele>286</ele>
        <time>2017-06-12T09:13:59Z</time>
      </trkpt>
      <trkpt lat="45.96136" lon="4.87509">
        <ele>286</ele>
        <time>2017-06-12T09:14:00Z</time>
      </trkpt>
      <trkpt lat="45.96141" lon="4.87504">
        <ele>286</ele>
        <time>2017-06-12T09:14:01Z</time>
      </trkpt>
      <trkpt lat="45.96145" lon="4.87499">
        <ele>285</ele>
        <time>2017-06-12T09:14:02Z</time>
      </trkpt>
      <trkpt lat="45.96149" lon="4.87494">
        <ele>285</ele>
        <time>2017-06-12T09:14:03Z</time>
      </trkpt>
      <trkpt lat="45.96154" lon="4.87489">
        <ele>285</ele>
        <time>2017-06-12T09:14:04Z</time>
      </trkpt>
      <trkpt lat="45.96158" lon="4.87485">
        <ele>285</ele>
        <time>2017-06-12T09:14:05Z</time>
      </trkpt>
      <trkpt lat="45.96163" lon="4.8748">
        <ele>285</ele>
        <time>2017-06-12T09:14:06Z</time>
      </trkpt>
      <trkpt lat="45.96167" lon="4.87475">
        <ele>284</ele>
        <time>2017-06-12T09:14:07Z</time>
      </trkpt>
      <trkpt lat="45.96172" lon="4.8747">
        <ele>284</ele>
        <time>2017-06-12T09:14:08Z</time>
      </trkpt>
      <trkpt lat="45.96176" lon="4.87465">
        <ele>284</ele>
        <time>2017-06-12T09:14:09Z</time>
      </trkpt>
      <trkpt lat="45.96181" lon="4.87459">
        <ele>284</ele>
        <time>2017-06-12T09:14:10Z</time>
      </trkpt>
      <trkpt lat="45.96185" lon="4.87454">
        <ele>284</ele>
        <time>2017-06-12T09:14:11Z</time>
      </trkpt>
      <trkpt lat="45.9619" lon="4.87449">
        <ele>284</ele>
        <time>2017-06-12T09:14:12Z</time>
      </trkpt>
      <trkpt lat="45.96194" lon="4.87443">
        <ele>284</ele>
        <time>2017-06-12T09:14:13Z</time>
      </trkpt>
      <trkpt lat="45.96198" lon="4.87439">
        <ele>284</ele>
        <time>2017-06-12T09:14:14Z</time>
      </trkpt>
      <trkpt lat="45.96203" lon="4.87434">
        <ele>284</ele>
        <time>2017-06-12T09:14:15Z</time>
      </trkpt>
      <trkpt lat="45.96207" lon="4.87429">
        <ele>284</ele>
        <time>2017-06-12T09:14:16Z</time>
      </trkpt>
      <trkpt lat="45.96212" lon="4.87423">
        <ele>284</ele>
        <time>2017-06-12T09:14:17Z</time>
      </trkpt>
      <trkpt lat="45.96216" lon="4.87419">
        <ele>284</ele>
        <time>2017-06-12T09:14:18Z</time>
      </trkpt>
      <trkpt lat="45.96221" lon="4.87413">
        <ele>283</ele>
        <time>2017-06-12T09:14:19Z</time>
      </trkpt>
      <trkpt lat="45.96225" lon="4.87408">
        <ele>283</ele>
        <time>2017-06-12T09:14:20Z</time>
      </trkpt>
      <trkpt lat="45.9623" lon="4.87403">
        <ele>283</ele>
        <time>2017-06-12T09:14:21Z</time>
      </trkpt>
      <trkpt lat="45.96234" lon="4.87398">
        <ele>283</ele>
        <time>2017-06-12T09:14:22Z</time>
      </trkpt>
      <trkpt lat="45.96238" lon="4.87393">
        <ele>283</ele>
        <time>2017-06-12T09:14:23Z</time>
      </trkpt>
      <trkpt lat="45.96243" lon="4.87388">
        <ele>283</ele>
        <time>2017-06-12T09:14:24Z</time>
      </trkpt>
      <trkpt lat="45.96247" lon="4.87383">
        <ele>283</ele>
        <time>2017-06-12T09:14:25Z</time>
      </trkpt>
      <trkpt lat="45.96251" lon="4.87379">
        <ele>283</ele>
        <time>2017-06-12T09:14:26Z</time>
      </trkpt>
      <trkpt lat="45.96254" lon="4.87374">
        <ele>283</ele>
        <time>2017-06-12T09:14:27Z</time>
      </trkpt>
      <trkpt lat="45.96257" lon="4.87369">
        <ele>283</ele>
        <time>2017-06-12T09:14:28Z</time>
      </trkpt>
      <trkpt lat="45.96261" lon="4.87365">
        <ele>283</ele>
        <time>2017-06-12T09:14:29Z</time>
      </trkpt>
      <trkpt lat="45.96264" lon="4.87361">
        <ele>283</ele>
        <time>2017-06-12T09:14:30Z</time>
      </trkpt>
      <trkpt lat="45.96268" lon="4.87356">
        <ele>283</ele>
        <time>2017-06-12T09:14:31Z</time>
      </trkpt>
      <trkpt lat="45.96272" lon="4.87352">
        <ele>283</ele>
        <time>2017-06-12T09:14:32Z</time>
      </trkpt>
      <trkpt lat="45.96275" lon="4.87347">
        <ele>284</ele>
        <time>2017-06-12T09:14:33Z</time>
      </trkpt>
      <trkpt lat="45.96279" lon="4.87342">
        <ele>284</ele>
        <time>2017-06-12T09:14:34Z</time>
      </trkpt>
      <trkpt lat="45.96283" lon="4.87337">
        <ele>284</ele>
        <time>2017-06-12T09:14:35Z</time>
      </trkpt>
      <trkpt lat="45.96286" lon="4.87333">
        <ele>283</ele>
        <time>2017-06-12T09:14:36Z</time>
      </trkpt>
      <trkpt lat="45.9629" lon="4.87327">
        <ele>283</ele>
        <time>2017-06-12T09:14:37Z</time>
      </trkpt>
      <trkpt lat="45.96295" lon="4.87323">
        <ele>283</ele>
        <time>2017-06-12T09:14:38Z</time>
      </trkpt>
      <trkpt lat="45.96299" lon="4.87317">
        <ele>283</ele>
        <time>2017-06-12T09:14:39Z</time>
      </trkpt>
      <trkpt lat="45.96303" lon="4.87312">
        <ele>283</ele>
        <time>2017-06-12T09:14:40Z</time>
      </trkpt>
      <trkpt lat="45.96307" lon="4.87306">
        <ele>283</ele>
        <time>2017-06-12T09:14:41Z</time>
      </trkpt>
      <trkpt lat="45.96311" lon="4.87301">
        <ele>283</ele>
        <time>2017-06-12T09:14:42Z</time>
      </trkpt>
      <trkpt lat="45.96315" lon="4.87296">
        <ele>283</ele>
        <time>2017-06-12T09:14:43Z</time>
      </trkpt>
      <trkpt lat="45.96318" lon="4.87291">
        <ele>283</ele>
        <time>2017-06-12T09:14:44Z</time>
      </trkpt>
      <trkpt lat="45.96322" lon="4.87286">
        <ele>283</ele>
        <time>2017-06-12T09:14:45Z</time>
      </trkpt>
      <trkpt lat="45.96326" lon="4.87281">
        <ele>283</ele>
        <time>2017-06-12T09:14:46Z</time>
      </trkpt>
      <trkpt lat="45.96329" lon="4.87277">
        <ele>283</ele>
        <time>2017-06-12T09:14:47Z</time>
      </trkpt>
      <trkpt lat="45.96333" lon="4.87272">
        <ele>283</ele>
        <time>2017-06-12T09:14:48Z</time>
      </trkpt>
      <trkpt lat="45.96336" lon="4.87267">
        <ele>283</ele>
        <time>2017-06-12T09:14:49Z</time>
      </trkpt>
      <trkpt lat="45.9634" lon="4.87261">
        <ele>283</ele>
        <time>2017-06-12T09:14:50Z</time>
      </trkpt>
      <trkpt lat="45.96344" lon="4.87255">
        <ele>283</ele>
        <time>2017-06-12T09:14:51Z</time>
      </trkpt>
      <trkpt lat="45.96349" lon="4.8725">
        <ele>283</ele>
        <time>2017-06-12T09:14:52Z</time>
      </trkpt>
      <trkpt lat="45.96353" lon="4.87244">
        <ele>282</ele>
        <time>2017-06-12T09:14:53Z</time>
      </trkpt>
      <trkpt lat="45.96358" lon="4.87238">
        <ele>282</ele>
        <time>2017-06-12T09:14:54Z</time>
      </trkpt>
      <trkpt lat="45.96362" lon="4.87232">
        <ele>282</ele>
        <time>2017-06-12T09:14:55Z</time>
      </trkpt>
      <trkpt lat="45.96367" lon="4.87226">
        <ele>282</ele>
        <time>2017-06-12T09:14:56Z</time>
      </trkpt>
      <trkpt lat="45.96371" lon="4.87221">
        <ele>282</ele>
        <time>2017-06-12T09:14:57Z</time>
      </trkpt>
      <trkpt lat="45.96375" lon="4.87216">
        <ele>282</ele>
        <time>2017-06-12T09:14:58Z</time>
      </trkpt>
      <trkpt lat="45.9638" lon="4.87211">
        <ele>282</ele>
        <time>2017-06-12T09:14:59Z</time>
      </trkpt>
      <trkpt lat="45.96384" lon="4.87206">
        <ele>282</ele>
        <time>2017-06-12T09:15:00Z</time>
      </trkpt>
      <trkpt lat="45.96388" lon="4.872">
        <ele>282</ele>
        <time>2017-06-12T09:15:01Z</time>
      </trkpt>
      <trkpt lat="45.96392" lon="4.87195">
        <ele>282</ele>
        <time>2017-06-12T09:15:02Z</time>
      </trkpt>
      <trkpt lat="45.96395" lon="4.8719">
        <ele>282</ele>
        <time>2017-06-12T09:15:03Z</time>
      </trkpt>
      <trkpt lat="45.96399" lon="4.87185">
        <ele>282</ele>
        <time>2017-06-12T09:15:04Z</time>
      </trkpt>
      <trkpt lat="45.96403" lon="4.8718">
        <ele>282</ele>
        <time>2017-06-12T09:15:05Z</time>
      </trkpt>
      <trkpt lat="45.96407" lon="4.87175">
        <ele>281</ele>
        <time>2017-06-12T09:15:06Z</time>
      </trkpt>
      <trkpt lat="45.9641" lon="4.8717">
        <ele>281</ele>
        <time>2017-06-12T09:15:07Z</time>
      </trkpt>
      <trkpt lat="45.96414" lon="4.87166">
        <ele>281</ele>
        <time>2017-06-12T09:15:08Z</time>
      </trkpt>
      <trkpt lat="45.96417" lon="4.87161">
        <ele>281</ele>
        <time>2017-06-12T09:15:09Z</time>
      </trkpt>
      <trkpt lat="45.96421" lon="4.87156">
        <ele>281</ele>
        <time>2017-06-12T09:15:10Z</time>
      </trkpt>
      <trkpt lat="45.96424" lon="4.87151">
        <ele>281</ele>
        <time>2017-06-12T09:15:11Z</time>
      </trkpt>
      <trkpt lat="45.96428" lon="4.87146">
        <ele>281</ele>
        <time>2017-06-12T09:15:12Z</time>
      </trkpt>
      <trkpt lat="45.96431" lon="4.87142">
        <ele>281</ele>
        <time>2017-06-12T09:15:13Z</time>
      </trkpt>
      <trkpt lat="45.96435" lon="4.87138">
        <ele>281</ele>
        <time>2017-06-12T09:15:14Z</time>
      </trkpt>
      <trkpt lat="45.96438" lon="4.87133">
        <ele>281</ele>
        <time>2017-06-12T09:15:15Z</time>
      </trkpt>
      <trkpt lat="45.96441" lon="4.87128">
        <ele>281</ele>
        <time>2017-06-12T09:15:16Z</time>
      </trkpt>
      <trkpt lat="45.96448" lon="4.87119">
        <ele>281</ele>
        <time>2017-06-12T09:15:18Z</time>
      </trkpt>
      <trkpt lat="45.9645" lon="4.87115">
        <ele>281</ele>
        <time>2017-06-12T09:15:19Z</time>
      </trkpt>
      <trkpt lat="45.96456" lon="4.87107">
        <ele>281</ele>
        <time>2017-06-12T09:15:21Z</time>
      </trkpt>
      <trkpt lat="45.96459" lon="4.87103">
        <ele>282</ele>
        <time>2017-06-12T09:15:22Z</time>
      </trkpt>
      <trkpt lat="45.96465" lon="4.87094">
        <ele>282</ele>
        <time>2017-06-12T09:15:24Z</time>
      </trkpt>
      <trkpt lat="45.96468" lon="4.87089">
        <ele>282</ele>
        <time>2017-06-12T09:15:25Z</time>
      </trkpt>
      <trkpt lat="45.96471" lon="4.87085">
        <ele>282</ele>
        <time>2017-06-12T09:15:26Z</time>
      </trkpt>
      <trkpt lat="45.96475" lon="4.87079">
        <ele>281</ele>
        <time>2017-06-12T09:15:27Z</time>
      </trkpt>
      <trkpt lat="45.96479" lon="4.87074">
        <ele>282</ele>
        <time>2017-06-12T09:15:28Z</time>
      </trkpt>
      <trkpt lat="45.96483" lon="4.87068">
        <ele>282</ele>
        <time>2017-06-12T09:15:29Z</time>
      </trkpt>
      <trkpt lat="45.96487" lon="4.87063">
        <ele>282</ele>
        <time>2017-06-12T09:15:30Z</time>
      </trkpt>
      <trkpt lat="45.96491" lon="4.87058">
        <ele>281</ele>
        <time>2017-06-12T09:15:31Z</time>
      </trkpt>
      <trkpt lat="45.96494" lon="4.87053">
        <ele>281</ele>
        <time>2017-06-12T09:15:32Z</time>
      </trkpt>
      <trkpt lat="45.96497" lon="4.87048">
        <ele>281</ele>
        <time>2017-06-12T09:15:33Z</time>
      </trkpt>
      <trkpt lat="45.96505" lon="4.87047">
        <ele>282</ele>
        <time>2017-06-12T09:15:35Z</time>
      </trkpt>
      <trkpt lat="45.96509" lon="4.87049">
        <ele>283</ele>
        <time>2017-06-12T09:15:36Z</time>
      </trkpt>
      <trkpt lat="45.96513" lon="4.87056">
        <ele>283</ele>
        <time>2017-06-12T09:15:38Z</time>
      </trkpt>
      <trkpt lat="45.96515" lon="4.87061">
        <ele>283</ele>
        <time>2017-06-12T09:15:39Z</time>
      </trkpt>
      <trkpt lat="45.96522" lon="4.87068">
        <ele>283</ele>
        <time>2017-06-12T09:15:42Z</time>
      </trkpt>
      <trkpt lat="45.96524" lon="4.87068">
        <ele>283</ele>
        <time>2017-06-12T09:15:43Z</time>
      </trkpt>
      <trkpt lat="45.96532" lon="4.87063">
        <ele>283</ele>
        <time>2017-06-12T09:15:47Z</time>
      </trkpt>
      <trkpt lat="45.96535" lon="4.87065">
        <ele>283</ele>
        <time>2017-06-12T09:15:48Z</time>
      </trkpt>
      <trkpt lat="45.96537" lon="4.87076">
        <ele>283</ele>
        <time>2017-06-12T09:15:52Z</time>
      </trkpt>
      <trkpt lat="45.96537" lon="4.87078">
        <ele>283</ele>
        <time>2017-06-12T09:15:53Z</time>
      </trkpt>
      <trkpt lat="45.96546" lon="4.87082">
        <ele>283</ele>
        <time>2017-06-12T09:15:58Z</time>
      </trkpt>
      <trkpt lat="45.96548" lon="4.87081">
        <ele>283</ele>
        <time>2017-06-12T09:15:59Z</time>
      </trkpt>
      <trkpt lat="45.96555" lon="4.87079">
        <ele>283</ele>
        <time>2017-06-12T09:16:01Z</time>
      </trkpt>
      <trkpt lat="45.96557" lon="4.87076">
        <ele>283</ele>
        <time>2017-06-12T09:16:02Z</time>
      </trkpt>
      <trkpt lat="45.96559" lon="4.87067">
        <ele>283</ele>
        <time>2017-06-12T09:16:04Z</time>
      </trkpt>
      <trkpt lat="45.96559" lon="4.87062">
        <ele>283</ele>
        <time>2017-06-12T09:16:05Z</time>
      </trkpt>
      <trkpt lat="45.96559" lon="4.87052">
        <ele>283</ele>
        <time>2017-06-12T09:16:07Z</time>
      </trkpt>
      <trkpt lat="45.96559" lon="4.87048">
        <ele>283</ele>
        <time>2017-06-12T09:16:08Z</time>
      </trkpt>
      <trkpt lat="45.96558" lon="4.87038">
        <ele>283</ele>
        <time>2017-06-12T09:16:10Z</time>
      </trkpt>
      <trkpt lat="45.96557" lon="4.87034">
        <ele>283</ele>
        <time>2017-06-12T09:16:11Z</time>
      </trkpt>
      <trkpt lat="45.96552" lon="4.87028">
        <ele>283</ele>
        <time>2017-06-12T09:16:15Z</time>
      </trkpt>
      <trkpt lat="45.96551" lon="4.87028">
        <ele>283</ele>
        <time>2017-06-12T09:16:16Z</time>
      </trkpt>
      <trkpt lat="45.96551" lon="4.87028">
        <ele>283</ele>
        <time>2017-06-12T09:22:50Z</time>
      </trkpt>
      <trkpt lat="45.96551" lon="4.87031">
        <ele>283</ele>
        <time>2017-06-12T09:22:51Z</time>
      </trkpt>
      <trkpt lat="45.96543" lon="4.87028">
        <ele>283</ele>
        <time>2017-06-12T09:23:03Z</time>
      </trkpt>
      <trkpt lat="45.96542" lon="4.87027">
        <ele>283</ele>
        <time>2017-06-12T09:23:04Z</time>
      </trkpt>
      <trkpt lat="45.96533" lon="4.87025">
        <ele>283</ele>
        <time>2017-06-12T09:23:12Z</time>
      </trkpt>
      <trkpt lat="45.96532" lon="4.87025">
        <ele>283</ele>
        <time>2017-06-12T09:23:13Z</time>
      </trkpt>
      <trkpt lat="45.96539" lon="4.87032">
        <ele>283</ele>
        <time>2017-06-12T09:23:29Z</time>
      </trkpt>
      <trkpt lat="45.9654" lon="4.87032">
        <ele>283</ele>
        <time>2017-06-12T09:23:30Z</time>
      </trkpt>
      <trkpt lat="45.96547" lon="4.87025">
        <ele>283</ele>
        <time>2017-06-12T09:23:48Z</time>
      </trkpt>
      <trkpt lat="45.96547" lon="4.87023">
        <ele>283</ele>
        <time>2017-06-12T09:23:49Z</time>
      </trkpt>
      <trkpt lat="45.96545" lon="4.87011">
        <ele>283</ele>
        <time>2017-06-12T09:23:53Z</time>
      </trkpt>
      <trkpt lat="45.96544" lon="4.87008">
        <ele>283</ele>
        <time>2017-06-12T09:23:54Z</time>
      </trkpt>
      <trkpt lat="45.96544" lon="4.86996">
        <ele>283</ele>
        <time>2017-06-12T09:23:57Z</time>
      </trkpt>
      <trkpt lat="45.96546" lon="4.86993">
        <ele>283</ele>
        <time>2017-06-12T09:23:58Z</time>
      </trkpt>
      <trkpt lat="45.96552" lon="4.86985">
        <ele>283</ele>
        <time>2017-06-12T09:24:01Z</time>
      </trkpt>
      <trkpt lat="45.96554" lon="4.86981">
        <ele>283</ele>
        <time>2017-06-12T09:24:02Z</time>
      </trkpt>
      <trkpt lat="45.96558" lon="4.86972">
        <ele>283</ele>
        <time>2017-06-12T09:24:04Z</time>
      </trkpt>
      <trkpt lat="45.9656" lon="4.86968">
        <ele>283</ele>
        <time>2017-06-12T09:24:05Z</time>
      </trkpt>
      <trkpt lat="45.96565" lon="4.86961">
        <ele>284</ele>
        <time>2017-06-12T09:24:07Z</time>
      </trkpt>
      <trkpt lat="45.96568" lon="4.86956">
        <ele>284</ele>
        <time>2017-06-12T09:24:08Z</time>
      </trkpt>
      <trkpt lat="45.96572" lon="4.86947">
        <ele>284</ele>
        <time>2017-06-12T09:24:10Z</time>
      </trkpt>
      <trkpt lat="45.96575" lon="4.86943">
        <ele>284</ele>
        <time>2017-06-12T09:24:11Z</time>
      </trkpt>
      <trkpt lat="45.9658" lon="4.86934">
        <ele>284</ele>
        <time>2017-06-12T09:24:13Z</time>
      </trkpt>
      <trkpt lat="45.96583" lon="4.86929">
        <ele>284</ele>
        <time>2017-06-12T09:24:14Z</time>
      </trkpt>
      <trkpt lat="45.96588" lon="4.86921">
        <ele>285</ele>
        <time>2017-06-12T09:24:16Z</time>
      </trkpt>
      <trkpt lat="45.96591" lon="4.86917">
        <ele>286</ele>
        <time>2017-06-12T09:24:17Z</time>
      </trkpt>
      <trkpt lat="45.96595" lon="4.86909">
        <ele>286</ele>
        <time>2017-06-12T09:24:19Z</time>
      </trkpt>
      <trkpt lat="45.96597" lon="4.86906">
        <ele>286</ele>
        <time>2017-06-12T09:24:20Z</time>
      </trkpt>
      <trkpt lat="45.96603" lon="4.86897">
        <ele>286</ele>
        <time>2017-06-12T09:24:23Z</time>
      </trkpt>
      <trkpt lat="45.96604" lon="4.86895">
        <ele>286</ele>
        <time>2017-06-12T09:24:24Z</time>
      </trkpt>
      <trkpt lat="45.96608" lon="4.86887">
        <ele>287</ele>
        <time>2017-06-12T09:24:26Z</time>
      </trkpt>
      <trkpt lat="45.9661" lon="4.86884">
        <ele>287</ele>
        <time>2017-06-12T09:24:27Z</time>
      </trkpt>
      <trkpt lat="45.96615" lon="4.86876">
        <ele>287</ele>
        <time>2017-06-12T09:24:29Z</time>
      </trkpt>
      <trkpt lat="45.96617" lon="4.86872">
        <ele>287</ele>
        <time>2017-06-12T09:24:30Z</time>
      </trkpt>
      <trkpt lat="45.96623" lon="4.86863">
        <ele>287</ele>
        <time>2017-06-12T09:24:32Z</time>
      </trkpt>
      <trkpt lat="45.96626" lon="4.86859">
        <ele>287</ele>
        <time>2017-06-12T09:24:33Z</time>
      </trkpt>
      <trkpt lat="45.96631" lon="4.86851">
        <ele>287</ele>
        <time>2017-06-12T09:24:35Z</time>
      </trkpt>
      <trkpt lat="45.96633" lon="4.86847">
        <ele>287</ele>
        <time>2017-06-12T09:24:36Z</time>
      </trkpt>
      <trkpt lat="45.96638" lon="4.86839">
        <ele>287</ele>
        <time>2017-06-12T09:24:38Z</time>
      </trkpt>
      <trkpt lat="45.96641" lon="4.86834">
        <ele>287</ele>
        <time>2017-06-12T09:24:39Z</time>
      </trkpt>
      <trkpt lat="45.96646" lon="4.86825">
        <ele>288</ele>
        <time>2017-06-12T09:24:41Z</time>
      </trkpt>
      <trkpt lat="45.96649" lon="4.86821">
        <ele>288</ele>
        <time>2017-06-12T09:24:42Z</time>
      </trkpt>
      <trkpt lat="45.96655" lon="4.86811">
        <ele>288</ele>
        <time>2017-06-12T09:24:44Z</time>
      </trkpt>
      <trkpt lat="45.96657" lon="4.86806">
        <ele>288</ele>
        <time>2017-06-12T09:24:45Z</time>
      </trkpt>
      <trkpt lat="45.96662" lon="4.86797">
        <ele>288</ele>
        <time>2017-06-12T09:24:47Z</time>
      </trkpt>
      <trkpt lat="45.96665" lon="4.86793">
        <ele>288</ele>
        <time>2017-06-12T09:24:48Z</time>
      </trkpt>
      <trkpt lat="45.9667" lon="4.86783">
        <ele>289</ele>
        <time>2017-06-12T09:24:50Z</time>
      </trkpt>
      <trkpt lat="45.96672" lon="4.86778">
        <ele>289</ele>
        <time>2017-06-12T09:24:51Z</time>
      </trkpt>
      <trkpt lat="45.96678" lon="4.86769">
        <ele>289</ele>
        <time>2017-06-12T09:24:53Z</time>
      </trkpt>
      <trkpt lat="45.96681" lon="4.86764">
        <ele>289</ele>
        <time>2017-06-12T09:24:54Z</time>
      </trkpt>
      <trkpt lat="45.96687" lon="4.86754">
        <ele>289</ele>
        <time>2017-06-12T09:24:56Z</time>
      </trkpt>
      <trkpt lat="45.9669" lon="4.8675">
        <ele>289</ele>
        <time>2017-06-12T09:24:57Z</time>
      </trkpt>
      <trkpt lat="45.96695" lon="4.86741">
        <ele>289</ele>
        <time>2017-06-12T09:24:59Z</time>
      </trkpt>
      <trkpt lat="45.96698" lon="4.86736">
        <ele>289</ele>
        <time>2017-06-12T09:25:00Z</time>
      </trkpt>
      <trkpt lat="45.96704" lon="4.86728">
        <ele>289</ele>
        <time>2017-06-12T09:25:02Z</time>
      </trkpt>
      <trkpt lat="45.96706" lon="4.86723">
        <ele>289</ele>
        <time>2017-06-12T09:25:03Z</time>
      </trkpt>
      <trkpt lat="45.96712" lon="4.86714">
        <ele>289</ele>
        <time>2017-06-12T09:25:05Z</time>
      </trkpt>
      <trkpt lat="45.96715" lon="4.86709">
        <ele>289</ele>
        <time>2017-06-12T09:25:06Z</time>
      </trkpt>
      <trkpt lat="45.9672" lon="4.86701">
        <ele>289</ele>
        <time>2017-06-12T09:25:08Z</time>
      </trkpt>
      <trkpt lat="45.96722" lon="4.86697">
        <ele>289</ele>
        <time>2017-06-12T09:25:09Z</time>
      </trkpt>
      <trkpt lat="45.96727" lon="4.86689">
        <ele>289</ele>
        <time>2017-06-12T09:25:11Z</time>
      </trkpt>
      <trkpt lat="45.9673" lon="4.86685">
        <ele>289</ele>
        <time>2017-06-12T09:25:12Z</time>
      </trkpt>
      <trkpt lat="45.96736" lon="4.86677">
        <ele>290</ele>
        <time>2017-06-12T09:25:14Z</time>
      </trkpt>
      <trkpt lat="45.96738" lon="4.86673">
        <ele>290</ele>
        <time>2017-06-12T09:25:15Z</time>
      </trkpt>
      <trkpt lat="45.96744" lon="4.86663">
        <ele>290</ele>
        <time>2017-06-12T09:25:17Z</time>
      </trkpt>
      <trkpt lat="45.96746" lon="4.86659">
        <ele>290</ele>
        <time>2017-06-12T09:25:18Z</time>
      </trkpt>
      <trkpt lat="45.96751" lon="4.86651">
        <ele>290</ele>
        <time>2017-06-12T09:25:20Z</time>
      </trkpt>
      <trkpt lat="45.96753" lon="4.86647">
        <ele>290</ele>
        <time>2017-06-12T09:25:21Z</time>
      </trkpt>
      <trkpt lat="45.96757" lon="4.8664">
        <ele>290</ele>
        <time>2017-06-12T09:25:23Z</time>
      </trkpt>
      <trkpt lat="45.9676" lon="4.86636">
        <ele>290</ele>
        <time>2017-06-12T09:25:24Z</time>
      </trkpt>
      <trkpt lat="45.96765" lon="4.86628">
        <ele>289</ele>
        <time>2017-06-12T09:25:26Z</time>
      </trkpt>
      <trkpt lat="45.96767" lon="4.86623">
        <ele>289</ele>
        <time>2017-06-12T09:25:27Z</time>
      </trkpt>
      <trkpt lat="45.96773" lon="4.86614">
        <ele>289</ele>
        <time>2017-06-12T09:25:29Z</time>
      </trkpt>
      <trkpt lat="45.96775" lon="4.8661">
        <ele>289</ele>
        <time>2017-06-12T09:25:30Z</time>
      </trkpt>
      <trkpt lat="45.9678" lon="4.86601">
        <ele>289</ele>
        <time>2017-06-12T09:25:32Z</time>
      </trkpt>
      <trkpt lat="45.96783" lon="4.86596">
        <ele>289</ele>
        <time>2017-06-12T09:25:33Z</time>
      </trkpt>
      <trkpt lat="45.96788" lon="4.86588">
        <ele>289</ele>
        <time>2017-06-12T09:25:35Z</time>
      </trkpt>
      <trkpt lat="45.96791" lon="4.86583">
        <ele>290</ele>
        <time>2017-06-12T09:25:36Z</time>
      </trkpt>
      <trkpt lat="45.96798" lon="4.86574">
        <ele>290</ele>
        <time>2017-06-12T09:25:38Z</time>
      </trkpt>
      <trkpt lat="45.968" lon="4.86569">
        <ele>290</ele>
        <time>2017-06-12T09:25:39Z</time>
      </trkpt>
      <trkpt lat="45.96806" lon="4.86559">
        <ele>290</ele>
        <time>2017-06-12T09:25:41Z</time>
      </trkpt>
      <trkpt lat="45.96809" lon="4.86555">
        <ele>290</ele>
        <time>2017-06-12T09:25:42Z</time>
      </trkpt>
      <trkpt lat="45.96815" lon="4.86547">
        <ele>290</ele>
        <time>2017-06-12T09:25:44Z</time>
      </trkpt>
      <trkpt lat="45.96818" lon="4.86542">
        <ele>290</ele>
        <time>2017-06-12T09:25:45Z</time>
      </trkpt>
      <trkpt lat="45.96823" lon="4.86532">
        <ele>290</ele>
        <time>2017-06-12T09:25:47Z</time>
      </trkpt>
      <trkpt lat="45.96826" lon="4.86527">
        <ele>289</ele>
        <time>2017-06-12T09:25:48Z</time>
      </trkpt>
      <trkpt lat="45.9683" lon="4.86518">
        <ele>289</ele>
        <time>2017-06-12T09:25:50Z</time>
      </trkpt>
      <trkpt lat="45.96833" lon="4.86513">
        <ele>289</ele>
        <time>2017-06-12T09:25:51Z</time>
      </trkpt>
      <trkpt lat="45.96838" lon="4.86503">
        <ele>289</ele>
        <time>2017-06-12T09:25:53Z</time>
      </trkpt>
      <trkpt lat="45.96841" lon="4.86498">
        <ele>289</ele>
        <time>2017-06-12T09:25:54Z</time>
      </trkpt>
      <trkpt lat="45.96846" lon="4.86487">
        <ele>289</ele>
        <time>2017-06-12T09:25:56Z</time>
      </trkpt>
      <trkpt lat="45.96847" lon="4.86481">
        <ele>289</ele>
        <time>2017-06-12T09:25:57Z</time>
      </trkpt>
      <trkpt lat="45.96851" lon="4.8647">
        <ele>289</ele>
        <time>2017-06-12T09:25:59Z</time>
      </trkpt>
      <trkpt lat="45.96852" lon="4.86465">
        <ele>289</ele>
        <time>2017-06-12T09:26:00Z</time>
      </trkpt>
      <trkpt lat="45.96855" lon="4.86452">
        <ele>289</ele>
        <time>2017-06-12T09:26:02Z</time>
      </trkpt>
      <trkpt lat="45.96856" lon="4.86446">
        <ele>289</ele>
        <time>2017-06-12T09:26:03Z</time>
      </trkpt>
      <trkpt lat="45.96859" lon="4.86434">
        <ele>290</ele>
        <time>2017-06-12T09:26:05Z</time>
      </trkpt>
      <trkpt lat="45.9686" lon="4.86428">
        <ele>290</ele>
        <time>2017-06-12T09:26:06Z</time>
      </trkpt>
      <trkpt lat="45.96862" lon="4.86417">
        <ele>290</ele>
        <time>2017-06-12T09:26:08Z</time>
      </trkpt>
      <trkpt lat="45.96863" lon="4.86411">
        <ele>290</ele>
        <time>2017-06-12T09:26:09Z</time>
      </trkpt>
      <trkpt lat="45.96865" lon="4.86399">
        <ele>290</ele>
        <time>2017-06-12T09:26:11Z</time>
      </trkpt>
      <trkpt lat="45.96866" lon="4.86393">
        <ele>290</ele>
        <time>2017-06-12T09:26:12Z</time>
      </trkpt>
      <trkpt lat="45.96867" lon="4.86381">
        <ele>290</ele>
        <time>2017-06-12T09:26:14Z</time>
      </trkpt>
      <trkpt lat="45.96868" lon="4.86375">
        <ele>290</ele>
        <time>2017-06-12T09:26:15Z</time>
      </trkpt>
      <trkpt lat="45.96869" lon="4.86363">
        <ele>290</ele>
        <time>2017-06-12T09:26:17Z</time>
      </trkpt>
      <trkpt lat="45.9687" lon="4.86357">
        <ele>290</ele>
        <time>2017-06-12T09:26:18Z</time>
      </trkpt>
      <trkpt lat="45.96871" lon="4.86351">
        <ele>290</ele>
        <time>2017-06-12T09:26:19Z</time>
      </trkpt>
      <trkpt lat="45.96871" lon="4.86344">
        <ele>290</ele>
        <time>2017-06-12T09:26:20Z</time>
      </trkpt>
      <trkpt lat="45.96873" lon="4.86332">
        <ele>289</ele>
        <time>2017-06-12T09:26:22Z</time>
      </trkpt>
      <trkpt lat="45.96873" lon="4.86326">
        <ele>289</ele>
        <time>2017-06-12T09:26:23Z</time>
      </trkpt>
      <trkpt lat="45.96875" lon="4.86315">
        <ele>289</ele>
        <time>2017-06-12T09:26:25Z</time>
      </trkpt>
      <trkpt lat="45.96875" lon="4.86309">
        <ele>289</ele>
        <time>2017-06-12T09:26:26Z</time>
      </trkpt>
      <trkpt lat="45.96876" lon="4.86298">
        <ele>289</ele>
        <time>2017-06-12T09:26:28Z</time>
      </trkpt>
      <trkpt lat="45.96877" lon="4.86293">
        <ele>289</ele>
        <time>2017-06-12T09:26:29Z</time>
      </trkpt>
      <trkpt lat="45.96879" lon="4.86283">
        <ele>289</ele>
        <time>2017-06-12T09:26:31Z</time>
      </trkpt>
      <trkpt lat="45.9688" lon="4.86277">
        <ele>289</ele>
        <time>2017-06-12T09:26:32Z</time>
      </trkpt>
      <trkpt lat="45.96881" lon="4.86266">
        <ele>288</ele>
        <time>2017-06-12T09:26:34Z</time>
      </trkpt>
      <trkpt lat="45.96882" lon="4.8626">
        <ele>288</ele>
        <time>2017-06-12T09:26:35Z</time>
      </trkpt>
      <trkpt lat="45.96884" lon="4.86249">
        <ele>288</ele>
        <time>2017-06-12T09:26:37Z</time>
      </trkpt>
      <trkpt lat="45.96885" lon="4.86243">
        <ele>288</ele>
        <time>2017-06-12T09:26:38Z</time>
      </trkpt>
      <trkpt lat="45.96887" lon="4.86231">
        <ele>288</ele>
        <time>2017-06-12T09:26:40Z</time>
      </trkpt>
      <trkpt lat="45.96888" lon="4.86225">
        <ele>289</ele>
        <time>2017-06-12T09:26:41Z</time>
      </trkpt>
      <trkpt lat="45.96889" lon="4.86218">
        <ele>289</ele>
        <time>2017-06-12T09:26:42Z</time>
      </trkpt>
      <trkpt lat="45.96889" lon="4.86212">
        <ele>289</ele>
        <time>2017-06-12T09:26:43Z</time>
      </trkpt>
      <trkpt lat="45.96891" lon="4.86205">
        <ele>289</ele>
        <time>2017-06-12T09:26:44Z</time>
      </trkpt>
      <trkpt lat="45.96892" lon="4.86198">
        <ele>289</ele>
        <time>2017-06-12T09:26:45Z</time>
      </trkpt>
      <trkpt lat="45.96892" lon="4.86191">
        <ele>289</ele>
        <time>2017-06-12T09:26:46Z</time>
      </trkpt>
      <trkpt lat="45.96893" lon="4.86184">
        <ele>289</ele>
        <time>2017-06-12T09:26:47Z</time>
      </trkpt>
      <trkpt lat="45.96894" lon="4.86177">
        <ele>289</ele>
        <time>2017-06-12T09:26:48Z</time>
      </trkpt>
      <trkpt lat="45.96895" lon="4.8617">
        <ele>288</ele>
        <time>2017-06-12T09:26:49Z</time>
      </trkpt>
      <trkpt lat="45.96896" lon="4.86163">
        <ele>289</ele>
        <time>2017-06-12T09:26:50Z</time>
      </trkpt>
      <trkpt lat="45.96897" lon="4.86155">
        <ele>289</ele>
        <time>2017-06-12T09:26:51Z</time>
      </trkpt>
      <trkpt lat="45.96897" lon="4.86147">
        <ele>289</ele>
        <time>2017-06-12T09:26:52Z</time>
      </trkpt>
      <trkpt lat="45.96898" lon="4.8614">
        <ele>289</ele>
        <time>2017-06-12T09:26:53Z</time>
      </trkpt>
      <trkpt lat="45.96899" lon="4.86132">
        <ele>289</ele>
        <time>2017-06-12T09:26:54Z</time>
      </trkpt>
      <trkpt lat="45.969" lon="4.86124">
        <ele>289</ele>
        <time>2017-06-12T09:26:55Z</time>
      </trkpt>
      <trkpt lat="45.96901" lon="4.86116">
        <ele>289</ele>
        <time>2017-06-12T09:26:56Z</time>
      </trkpt>
      <trkpt lat="45.96902" lon="4.86108">
        <ele>289</ele>
        <time>2017-06-12T09:26:57Z</time>
      </trkpt>
      <trkpt lat="45.96903" lon="4.861">
        <ele>288</ele>
        <time>2017-06-12T09:26:58Z</time>
      </trkpt>
      <trkpt lat="45.96904" lon="4.86091">
        <ele>288</ele>
        <time>2017-06-12T09:26:59Z</time>
      </trkpt>
      <trkpt lat="45.96905" lon="4.86083">
        <ele>288</ele>
        <time>2017-06-12T09:27:00Z</time>
      </trkpt>
      <trkpt lat="45.96906" lon="4.86075">
        <ele>288</ele>
        <time>2017-06-12T09:27:01Z</time>
      </trkpt>
      <trkpt lat="45.96907" lon="4.86066">
        <ele>288</ele>
        <time>2017-06-12T09:27:02Z</time>
      </trkpt>
      <trkpt lat="45.96907" lon="4.86058">
        <ele>288</ele>
        <time>2017-06-12T09:27:03Z</time>
      </trkpt>
      <trkpt lat="45.96908" lon="4.8605">
        <ele>289</ele>
        <time>2017-06-12T09:27:04Z</time>
      </trkpt>
      <trkpt lat="45.96909" lon="4.86042">
        <ele>289</ele>
        <time>2017-06-12T09:27:05Z</time>
      </trkpt>
      <trkpt lat="45.9691" lon="4.86034">
        <ele>289</ele>
        <time>2017-06-12T09:27:06Z</time>
      </trkpt>
      <trkpt lat="45.96912" lon="4.86026">
        <ele>289</ele>
        <time>2017-06-12T09:27:07Z</time>
      </trkpt>
      <trkpt lat="45.96913" lon="4.86017">
        <ele>289</ele>
        <time>2017-06-12T09:27:08Z</time>
      </trkpt>
      <trkpt lat="45.96914" lon="4.86009">
        <ele>288</ele>
        <time>2017-06-12T09:27:09Z</time>
      </trkpt>
      <trkpt lat="45.96915" lon="4.86001">
        <ele>288</ele>
        <time>2017-06-12T09:27:10Z</time>
      </trkpt>
      <trkpt lat="45.96916" lon="4.85993">
        <ele>288</ele>
        <time>2017-06-12T09:27:11Z</time>
      </trkpt>
      <trkpt lat="45.96918" lon="4.85984">
        <ele>287</ele>
        <time>2017-06-12T09:27:12Z</time>
      </trkpt>
      <trkpt lat="45.9692" lon="4.85976">
        <ele>287</ele>
        <time>2017-06-12T09:27:13Z</time>
      </trkpt>
      <trkpt lat="45.96922" lon="4.85968">
        <ele>287</ele>
        <time>2017-06-12T09:27:14Z</time>
      </trkpt>
      <trkpt lat="45.96924" lon="4.8596">
        <ele>287</ele>
        <time>2017-06-12T09:27:15Z</time>
      </trkpt>
      <trkpt lat="45.96927" lon="4.85952">
        <ele>287</ele>
        <time>2017-06-12T09:27:16Z</time>
      </trkpt>
      <trkpt lat="45.96929" lon="4.85943">
        <ele>286</ele>
        <time>2017-06-12T09:27:17Z</time>
      </trkpt>
      <trkpt lat="45.96932" lon="4.85935">
        <ele>286</ele>
        <time>2017-06-12T09:27:18Z</time>
      </trkpt>
      <trkpt lat="45.96934" lon="4.85926">
        <ele>286</ele>
        <time>2017-06-12T09:27:19Z</time>
      </trkpt>
      <trkpt lat="45.96936" lon="4.85917">
        <ele>286</ele>
        <time>2017-06-12T09:27:20Z</time>
      </trkpt>
      <trkpt lat="45.96938" lon="4.85908">
        <ele>286</ele>
        <time>2017-06-12T09:27:21Z</time>
      </trkpt>
      <trkpt lat="45.96941" lon="4.85899">
        <ele>285</ele>
        <time>2017-06-12T09:27:22Z</time>
      </trkpt>
      <trkpt lat="45.96943" lon="4.85891">
        <ele>285</ele>
        <time>2017-06-12T09:27:23Z</time>
      </trkpt>
      <trkpt lat="45.96946" lon="4.85882">
        <ele>285</ele>
        <time>2017-06-12T09:27:24Z</time>
      </trkpt>
      <trkpt lat="45.96948" lon="4.85873">
        <ele>285</ele>
        <time>2017-06-12T09:27:25Z</time>
      </trkpt>
      <trkpt lat="45.9695" lon="4.85865">
        <ele>285</ele>
        <time>2017-06-12T09:27:26Z</time>
      </trkpt>
      <trkpt lat="45.96952" lon="4.85857">
        <ele>285</ele>
        <time>2017-06-12T09:27:27Z</time>
      </trkpt>
      <trkpt lat="45.96954" lon="4.85849">
        <ele>285</ele>
        <time>2017-06-12T09:27:28Z</time>
      </trkpt>
      <trkpt lat="45.96956" lon="4.85841">
        <ele>285</ele>
        <time>2017-06-12T09:27:29Z</time>
      </trkpt>
      <trkpt lat="45.96958" lon="4.85833">
        <ele>285</ele>
        <time>2017-06-12T09:27:30Z</time>
      </trkpt>
      <trkpt lat="45.9696" lon="4.85826">
        <ele>285</ele>
        <time>2017-06-12T09:27:31Z</time>
      </trkpt>
      <trkpt lat="45.96962" lon="4.85818">
        <ele>285</ele>
        <time>2017-06-12T09:27:32Z</time>
      </trkpt>
      <trkpt lat="45.96964" lon="4.85811">
        <ele>285</ele>
        <time>2017-06-12T09:27:33Z</time>
      </trkpt>
      <trkpt lat="45.96965" lon="4.85804">
        <ele>285</ele>
        <time>2017-06-12T09:27:34Z</time>
      </trkpt>
      <trkpt lat="45.96967" lon="4.85798">
        <ele>285</ele>
        <time>2017-06-12T09:27:35Z</time>
      </trkpt>
      <trkpt lat="45.96969" lon="4.85791">
        <ele>285</ele>
        <time>2017-06-12T09:27:36Z</time>
      </trkpt>
      <trkpt lat="45.96971" lon="4.85783">
        <ele>285</ele>
        <time>2017-06-12T09:27:37Z</time>
      </trkpt>
      <trkpt lat="45.96973" lon="4.85775">
        <ele>285</ele>
        <time>2017-06-12T09:27:38Z</time>
      </trkpt>
      <trkpt lat="45.96975" lon="4.85766">
        <ele>285</ele>
        <time>2017-06-12T09:27:39Z</time>
      </trkpt>
      <trkpt lat="45.96977" lon="4.85757">
        <ele>285</ele>
        <time>2017-06-12T09:27:40Z</time>
      </trkpt>
      <trkpt lat="45.9698" lon="4.85749">
        <ele>285</ele>
        <time>2017-06-12T09:27:41Z</time>
      </trkpt>
      <trkpt lat="45.96982" lon="4.85741">
        <ele>285</ele>
        <time>2017-06-12T09:27:42Z</time>
      </trkpt>
      <trkpt lat="45.96984" lon="4.85733">
        <ele>285</ele>
        <time>2017-06-12T09:27:43Z</time>
      </trkpt>
      <trkpt lat="45.96986" lon="4.85725">
        <ele>285</ele>
        <time>2017-06-12T09:27:44Z</time>
      </trkpt>
      <trkpt lat="45.96989" lon="4.85718">
        <ele>285</ele>
        <time>2017-06-12T09:27:45Z</time>
      </trkpt>
      <trkpt lat="45.96991" lon="4.85711">
        <ele>285</ele>
        <time>2017-06-12T09:27:46Z</time>
      </trkpt>
      <trkpt lat="45.96993" lon="4.85703">
        <ele>285</ele>
        <time>2017-06-12T09:27:47Z</time>
      </trkpt>
      <trkpt lat="45.96995" lon="4.85696">
        <ele>285</ele>
        <time>2017-06-12T09:27:48Z</time>
      </trkpt>
      <trkpt lat="45.96997" lon="4.85689">
        <ele>285</ele>
        <time>2017-06-12T09:27:49Z</time>
      </trkpt>
      <trkpt lat="45.96999" lon="4.85682">
        <ele>286</ele>
        <time>2017-06-12T09:27:50Z</time>
      </trkpt>
      <trkpt lat="45.97" lon="4.85675">
        <ele>285</ele>
        <time>2017-06-12T09:27:51Z</time>
      </trkpt>
      <trkpt lat="45.97002" lon="4.85667">
        <ele>286</ele>
        <time>2017-06-12T09:27:52Z</time>
      </trkpt>
      <trkpt lat="45.97004" lon="4.8566">
        <ele>285</ele>
        <time>2017-06-12T09:27:53Z</time>
      </trkpt>
      <trkpt lat="45.97006" lon="4.85653">
        <ele>285</ele>
        <time>2017-06-12T09:27:54Z</time>
      </trkpt>
      <trkpt lat="45.97008" lon="4.85645">
        <ele>284</ele>
        <time>2017-06-12T09:27:55Z</time>
      </trkpt>
      <trkpt lat="45.9701" lon="4.85638">
        <ele>284</ele>
        <time>2017-06-12T09:27:56Z</time>
      </trkpt>
      <trkpt lat="45.97012" lon="4.8563">
        <ele>284</ele>
        <time>2017-06-12T09:27:57Z</time>
      </trkpt>
      <trkpt lat="45.97015" lon="4.85621">
        <ele>284</ele>
        <time>2017-06-12T09:27:58Z</time>
      </trkpt>
      <trkpt lat="45.97017" lon="4.85613">
        <ele>284</ele>
        <time>2017-06-12T09:27:59Z</time>
      </trkpt>
      <trkpt lat="45.97019" lon="4.85605">
        <ele>284</ele>
        <time>2017-06-12T09:28:00Z</time>
      </trkpt>
      <trkpt lat="45.97021" lon="4.85596">
        <ele>284</ele>
        <time>2017-06-12T09:28:01Z</time>
      </trkpt>
      <trkpt lat="45.97023" lon="4.85588">
        <ele>284</ele>
        <time>2017-06-12T09:28:02Z</time>
      </trkpt>
      <trkpt lat="45.97026" lon="4.8558">
        <ele>283</ele>
        <time>2017-06-12T09:28:03Z</time>
      </trkpt>
      <trkpt lat="45.97028" lon="4.85572">
        <ele>283</ele>
        <time>2017-06-12T09:28:04Z</time>
      </trkpt>
      <trkpt lat="45.9703" lon="4.85563">
        <ele>283</ele>
        <time>2017-06-12T09:28:05Z</time>
      </trkpt>
      <trkpt lat="45.97032" lon="4.85555">
        <ele>283</ele>
        <time>2017-06-12T09:28:06Z</time>
      </trkpt>
      <trkpt lat="45.97034" lon="4.85547">
        <ele>282</ele>
        <time>2017-06-12T09:28:07Z</time>
      </trkpt>
      <trkpt lat="45.97037" lon="4.85539">
        <ele>282</ele>
        <time>2017-06-12T09:28:08Z</time>
      </trkpt>
      <trkpt lat="45.97039" lon="4.85531">
        <ele>282</ele>
        <time>2017-06-12T09:28:09Z</time>
      </trkpt>
      <trkpt lat="45.97041" lon="4.85523">
        <ele>282</ele>
        <time>2017-06-12T09:28:10Z</time>
      </trkpt>
      <trkpt lat="45.97044" lon="4.85515">
        <ele>282</ele>
        <time>2017-06-12T09:28:11Z</time>
      </trkpt>
      <trkpt lat="45.97047" lon="4.85507">
        <ele>282</ele>
        <time>2017-06-12T09:28:12Z</time>
      </trkpt>
      <trkpt lat="45.97049" lon="4.85499">
        <ele>281</ele>
        <time>2017-06-12T09:28:13Z</time>
      </trkpt>
      <trkpt lat="45.97052" lon="4.85491">
        <ele>281</ele>
        <time>2017-06-12T09:28:14Z</time>
      </trkpt>
      <trkpt lat="45.97055" lon="4.85483">
        <ele>281</ele>
        <time>2017-06-12T09:28:15Z</time>
      </trkpt>
      <trkpt lat="45.97057" lon="4.85475">
        <ele>281</ele>
        <time>2017-06-12T09:28:16Z</time>
      </trkpt>
      <trkpt lat="45.9706" lon="4.85467">
        <ele>281</ele>
        <time>2017-06-12T09:28:17Z</time>
      </trkpt>
      <trkpt lat="45.97063" lon="4.8546">
        <ele>281</ele>
        <time>2017-06-12T09:28:18Z</time>
      </trkpt>
      <trkpt lat="45.97065" lon="4.85451">
        <ele>281</ele>
        <time>2017-06-12T09:28:19Z</time>
      </trkpt>
      <trkpt lat="45.97068" lon="4.85443">
        <ele>281</ele>
        <time>2017-06-12T09:28:20Z</time>
      </trkpt>
      <trkpt lat="45.9707" lon="4.85436">
        <ele>281</ele>
        <time>2017-06-12T09:28:21Z</time>
      </trkpt>
      <trkpt lat="45.97073" lon="4.85428">
        <ele>281</ele>
        <time>2017-06-12T09:28:22Z</time>
      </trkpt>
      <trkpt lat="45.97075" lon="4.8542">
        <ele>280</ele>
        <time>2017-06-12T09:28:23Z</time>
      </trkpt>
      <trkpt lat="45.97077" lon="4.85413">
        <ele>280</ele>
        <time>2017-06-12T09:28:24Z</time>
      </trkpt>
      <trkpt lat="45.9708" lon="4.85406">
        <ele>281</ele>
        <time>2017-06-12T09:28:25Z</time>
      </trkpt>
      <trkpt lat="45.97082" lon="4.85398">
        <ele>281</ele>
        <time>2017-06-12T09:28:26Z</time>
      </trkpt>
      <trkpt lat="45.97085" lon="4.85392">
        <ele>280</ele>
        <time>2017-06-12T09:28:27Z</time>
      </trkpt>
      <trkpt lat="45.97087" lon="4.85384">
        <ele>280</ele>
        <time>2017-06-12T09:28:28Z</time>
      </trkpt>
      <trkpt lat="45.97089" lon="4.85376">
        <ele>280</ele>
        <time>2017-06-12T09:28:29Z</time>
      </trkpt>
      <trkpt lat="45.97091" lon="4.85369">
        <ele>280</ele>
        <time>2017-06-12T09:28:30Z</time>
      </trkpt>
      <trkpt lat="45.97094" lon="4.85361">
        <ele>280</ele>
        <time>2017-06-12T09:28:31Z</time>
      </trkpt>
      <trkpt lat="45.97096" lon="4.85353">
        <ele>280</ele>
        <time>2017-06-12T09:28:32Z</time>
      </trkpt>
      <trkpt lat="45.97099" lon="4.85346">
        <ele>280</ele>
        <time>2017-06-12T09:28:33Z</time>
      </trkpt>
      <trkpt lat="45.97101" lon="4.85339">
        <ele>280</ele>
        <time>2017-06-12T09:28:34Z</time>
      </trkpt>
      <trkpt lat="45.97104" lon="4.85331">
        <ele>280</ele>
        <time>2017-06-12T09:28:35Z</time>
      </trkpt>
      <trkpt lat="45.97107" lon="4.85323">
        <ele>280</ele>
        <time>2017-06-12T09:28:36Z</time>
      </trkpt>
      <trkpt lat="45.97111" lon="4.85314">
        <ele>280</ele>
        <time>2017-06-12T09:28:37Z</time>
      </trkpt>
      <trkpt lat="45.97115" lon="4.85305">
        <ele>280</ele>
        <time>2017-06-12T09:28:38Z</time>
      </trkpt>
      <trkpt lat="45.97119" lon="4.85296">
        <ele>280</ele>
        <time>2017-06-12T09:28:39Z</time>
      </trkpt>
      <trkpt lat="45.97122" lon="4.85287">
        <ele>280</ele>
        <time>2017-06-12T09:28:40Z</time>
      </trkpt>
      <trkpt lat="45.97126" lon="4.85279">
        <ele>279</ele>
        <time>2017-06-12T09:28:41Z</time>
      </trkpt>
      <trkpt lat="45.9713" lon="4.85271">
        <ele>279</ele>
        <time>2017-06-12T09:28:42Z</time>
      </trkpt>
      <trkpt lat="45.97134" lon="4.85263">
        <ele>279</ele>
        <time>2017-06-12T09:28:43Z</time>
      </trkpt>
      <trkpt lat="45.97139" lon="4.85255">
        <ele>279</ele>
        <time>2017-06-12T09:28:44Z</time>
      </trkpt>
      <trkpt lat="45.97143" lon="4.85247">
        <ele>279</ele>
        <time>2017-06-12T09:28:45Z</time>
      </trkpt>
      <trkpt lat="45.97147" lon="4.85239">
        <ele>279</ele>
        <time>2017-06-12T09:28:46Z</time>
      </trkpt>
      <trkpt lat="45.97151" lon="4.85231">
        <ele>279</ele>
        <time>2017-06-12T09:28:47Z</time>
      </trkpt>
      <trkpt lat="45.97155" lon="4.85223">
        <ele>279</ele>
        <time>2017-06-12T09:28:48Z</time>
      </trkpt>
      <trkpt lat="45.97158" lon="4.85216">
        <ele>279</ele>
        <time>2017-06-12T09:28:49Z</time>
      </trkpt>
      <trkpt lat="45.97162" lon="4.85208">
        <ele>279</ele>
        <time>2017-06-12T09:28:50Z</time>
      </trkpt>
      <trkpt lat="45.97165" lon="4.852">
        <ele>279</ele>
        <time>2017-06-12T09:28:51Z</time>
      </trkpt>
      <trkpt lat="45.97169" lon="4.85193">
        <ele>278</ele>
        <time>2017-06-12T09:28:52Z</time>
      </trkpt>
      <trkpt lat="45.97172" lon="4.85186">
        <ele>278</ele>
        <time>2017-06-12T09:28:53Z</time>
      </trkpt>
      <trkpt lat="45.97176" lon="4.85179">
        <ele>278</ele>
        <time>2017-06-12T09:28:54Z</time>
      </trkpt>
      <trkpt lat="45.97179" lon="4.85172">
        <ele>278</ele>
        <time>2017-06-12T09:28:55Z</time>
      </trkpt>
      <trkpt lat="45.97182" lon="4.85165">
        <ele>278</ele>
        <time>2017-06-12T09:28:56Z</time>
      </trkpt>
      <trkpt lat="45.97185" lon="4.85158">
        <ele>278</ele>
        <time>2017-06-12T09:28:57Z</time>
      </trkpt>
      <trkpt lat="45.97189" lon="4.85152">
        <ele>278</ele>
        <time>2017-06-12T09:28:58Z</time>
      </trkpt>
      <trkpt lat="45.97192" lon="4.85145">
        <ele>278</ele>
        <time>2017-06-12T09:28:59Z</time>
      </trkpt>
      <trkpt lat="45.97195" lon="4.85139">
        <ele>278</ele>
        <time>2017-06-12T09:29:00Z</time>
      </trkpt>
      <trkpt lat="45.97198" lon="4.85132">
        <ele>278</ele>
        <time>2017-06-12T09:29:01Z</time>
      </trkpt>
      <trkpt lat="45.97201" lon="4.85125">
        <ele>278</ele>
        <time>2017-06-12T09:29:02Z</time>
      </trkpt>
      <trkpt lat="45.97204" lon="4.85117">
        <ele>278</ele>
        <time>2017-06-12T09:29:03Z</time>
      </trkpt>
      <trkpt lat="45.97208" lon="4.85111">
        <ele>278</ele>
        <time>2017-06-12T09:29:04Z</time>
      </trkpt>
      <trkpt lat="45.97211" lon="4.85104">
        <ele>278</ele>
        <time>2017-06-12T09:29:05Z</time>
      </trkpt>
      <trkpt lat="45.97214" lon="4.85097">
        <ele>278</ele>
        <time>2017-06-12T09:29:06Z</time>
      </trkpt>
      <trkpt lat="45.97217" lon="4.85091">
        <ele>278</ele>
        <time>2017-06-12T09:29:07Z</time>
      </trkpt>
      <trkpt lat="45.9722" lon="4.85084">
        <ele>278</ele>
        <time>2017-06-12T09:29:08Z</time>
      </trkpt>
      <trkpt lat="45.97223" lon="4.85078">
        <ele>278</ele>
        <time>2017-06-12T09:29:09Z</time>
      </trkpt>
      <trkpt lat="45.97225" lon="4.85072">
        <ele>278</ele>
        <time>2017-06-12T09:29:10Z</time>
      </trkpt>
      <trkpt lat="45.97228" lon="4.85065">
        <ele>278</ele>
        <time>2017-06-12T09:29:11Z</time>
      </trkpt>
      <trkpt lat="45.97232" lon="4.85058">
        <ele>279</ele>
        <time>2017-06-12T09:29:12Z</time>
      </trkpt>
      <trkpt lat="45.97236" lon="4.8505">
        <ele>279</ele>
        <time>2017-06-12T09:29:13Z</time>
      </trkpt>
      <trkpt lat="45.97239" lon="4.85042">
        <ele>279</ele>
        <time>2017-06-12T09:29:14Z</time>
      </trkpt>
      <trkpt lat="45.97243" lon="4.85033">
        <ele>279</ele>
        <time>2017-06-12T09:29:15Z</time>
      </trkpt>
      <trkpt lat="45.97246" lon="4.85025">
        <ele>279</ele>
        <time>2017-06-12T09:29:16Z</time>
      </trkpt>
      <trkpt lat="45.9725" lon="4.85017">
        <ele>279</ele>
        <time>2017-06-12T09:29:17Z</time>
      </trkpt>
      <trkpt lat="45.97253" lon="4.8501">
        <ele>279</ele>
        <time>2017-06-12T09:29:18Z</time>
      </trkpt>
      <trkpt lat="45.97257" lon="4.85003">
        <ele>279</ele>
        <time>2017-06-12T09:29:19Z</time>
      </trkpt>
      <trkpt lat="45.9726" lon="4.84995">
        <ele>279</ele>
        <time>2017-06-12T09:29:20Z</time>
      </trkpt>
      <trkpt lat="45.97263" lon="4.84988">
        <ele>279</ele>
        <time>2017-06-12T09:29:21Z</time>
      </trkpt>
      <trkpt lat="45.97267" lon="4.84982">
        <ele>279</ele>
        <time>2017-06-12T09:29:22Z</time>
      </trkpt>
      <trkpt lat="45.9727" lon="4.84975">
        <ele>279</ele>
        <time>2017-06-12T09:29:23Z</time>
      </trkpt>
      <trkpt lat="45.97273" lon="4.84969">
        <ele>278</ele>
        <time>2017-06-12T09:29:24Z</time>
      </trkpt>
      <trkpt lat="45.97277" lon="4.84963">
        <ele>278</ele>
        <time>2017-06-12T09:29:25Z</time>
      </trkpt>
      <trkpt lat="45.9728" lon="4.84957">
        <ele>278</ele>
        <time>2017-06-12T09:29:26Z</time>
      </trkpt>
      <trkpt lat="45.97283" lon="4.84951">
        <ele>278</ele>
        <time>2017-06-12T09:29:27Z</time>
      </trkpt>
      <trkpt lat="45.97286" lon="4.84945">
        <ele>278</ele>
        <time>2017-06-12T09:29:28Z</time>
      </trkpt>
      <trkpt lat="45.97288" lon="4.84939">
        <ele>278</ele>
        <time>2017-06-12T09:29:29Z</time>
      </trkpt>
      <trkpt lat="45.97291" lon="4.84933">
        <ele>278</ele>
        <time>2017-06-12T09:29:30Z</time>
      </trkpt>
      <trkpt lat="45.97295" lon="4.84927">
        <ele>278</ele>
        <time>2017-06-12T09:29:31Z</time>
      </trkpt>
      <trkpt lat="45.97299" lon="4.84922">
        <ele>278</ele>
        <time>2017-06-12T09:29:32Z</time>
      </trkpt>
      <trkpt lat="45.97302" lon="4.84916">
        <ele>278</ele>
        <time>2017-06-12T09:29:33Z</time>
      </trkpt>
      <trkpt lat="45.97306" lon="4.84909">
        <ele>278</ele>
        <time>2017-06-12T09:29:34Z</time>
      </trkpt>
      <trkpt lat="45.9731" lon="4.84903">
        <ele>278</ele>
        <time>2017-06-12T09:29:35Z</time>
      </trkpt>
      <trkpt lat="45.97314" lon="4.84897">
        <ele>278</ele>
        <time>2017-06-12T09:29:36Z</time>
      </trkpt>
      <trkpt lat="45.97318" lon="4.84891">
        <ele>278</ele>
        <time>2017-06-12T09:29:37Z</time>
      </trkpt>
      <trkpt lat="45.97321" lon="4.84885">
        <ele>278</ele>
        <time>2017-06-12T09:29:38Z</time>
      </trkpt>
      <trkpt lat="45.97324" lon="4.84879">
        <ele>278</ele>
        <time>2017-06-12T09:29:39Z</time>
      </trkpt>
      <trkpt lat="45.97328" lon="4.84873">
        <ele>278</ele>
        <time>2017-06-12T09:29:40Z</time>
      </trkpt>
      <trkpt lat="45.97331" lon="4.84867">
        <ele>278</ele>
        <time>2017-06-12T09:29:41Z</time>
      </trkpt>
      <trkpt lat="45.97335" lon="4.84861">
        <ele>277</ele>
        <time>2017-06-12T09:29:42Z</time>
      </trkpt>
      <trkpt lat="45.97338" lon="4.84855">
        <ele>277</ele>
        <time>2017-06-12T09:29:43Z</time>
      </trkpt>
      <trkpt lat="45.97341" lon="4.8485">
        <ele>277</ele>
        <time>2017-06-12T09:29:44Z</time>
      </trkpt>
      <trkpt lat="45.97343" lon="4.84844">
        <ele>277</ele>
        <time>2017-06-12T09:29:45Z</time>
      </trkpt>
      <trkpt lat="45.97345" lon="4.84837">
        <ele>277</ele>
        <time>2017-06-12T09:29:46Z</time>
      </trkpt>
      <trkpt lat="45.97348" lon="4.84831">
        <ele>278</ele>
        <time>2017-06-12T09:29:47Z</time>
      </trkpt>
      <trkpt lat="45.97351" lon="4.84825">
        <ele>278</ele>
        <time>2017-06-12T09:29:48Z</time>
      </trkpt>
      <trkpt lat="45.97354" lon="4.84819">
        <ele>278</ele>
        <time>2017-06-12T09:29:49Z</time>
      </trkpt>
      <trkpt lat="45.97357" lon="4.84811">
        <ele>278</ele>
        <time>2017-06-12T09:29:50Z</time>
      </trkpt>
      <trkpt lat="45.9736" lon="4.84803">
        <ele>278</ele>
        <time>2017-06-12T09:29:51Z</time>
      </trkpt>
      <trkpt lat="45.97363" lon="4.84796">
        <ele>278</ele>
        <time>2017-06-12T09:29:52Z</time>
      </trkpt>
      <trkpt lat="45.97366" lon="4.84788">
        <ele>278</ele>
        <time>2017-06-12T09:29:53Z</time>
      </trkpt>
      <trkpt lat="45.97369" lon="4.8478">
        <ele>278</ele>
        <time>2017-06-12T09:29:54Z</time>
      </trkpt>
      <trkpt lat="45.97372" lon="4.84773">
        <ele>278</ele>
        <time>2017-06-12T09:29:55Z</time>
      </trkpt>
      <trkpt lat="45.97375" lon="4.84766">
        <ele>278</ele>
        <time>2017-06-12T09:29:56Z</time>
      </trkpt>
      <trkpt lat="45.97378" lon="4.84759">
        <ele>278</ele>
        <time>2017-06-12T09:29:57Z</time>
      </trkpt>
      <trkpt lat="45.9738" lon="4.84753">
        <ele>278</ele>
        <time>2017-06-12T09:29:58Z</time>
      </trkpt>
      <trkpt lat="45.97383" lon="4.84747">
        <ele>278</ele>
        <time>2017-06-12T09:29:59Z</time>
      </trkpt>
      <trkpt lat="45.97387" lon="4.8474">
        <ele>278</ele>
        <time>2017-06-12T09:30:00Z</time>
      </trkpt>
      <trkpt lat="45.9739" lon="4.84734">
        <ele>278</ele>
        <time>2017-06-12T09:30:01Z</time>
      </trkpt>
      <trkpt lat="45.97394" lon="4.8473">
        <ele>278</ele>
        <time>2017-06-12T09:30:02Z</time>
      </trkpt>
      <trkpt lat="45.97398" lon="4.84726">
        <ele>278</ele>
        <time>2017-06-12T09:30:03Z</time>
      </trkpt>
      <trkpt lat="45.97403" lon="4.84723">
        <ele>278</ele>
        <time>2017-06-12T09:30:04Z</time>
      </trkpt>
      <trkpt lat="45.97408" lon="4.84719">
        <ele>278</ele>
        <time>2017-06-12T09:30:05Z</time>
      </trkpt>
      <trkpt lat="45.97413" lon="4.84715">
        <ele>278</ele>
        <time>2017-06-12T09:30:06Z</time>
      </trkpt>
      <trkpt lat="45.97419" lon="4.8471">
        <ele>276</ele>
        <time>2017-06-12T09:30:07Z</time>
      </trkpt>
      <trkpt lat="45.97425" lon="4.84707">
        <ele>276</ele>
        <time>2017-06-12T09:30:08Z</time>
      </trkpt>
      <trkpt lat="45.97431" lon="4.84702">
        <ele>276</ele>
        <time>2017-06-12T09:30:09Z</time>
      </trkpt>
      <trkpt lat="45.97436" lon="4.84698">
        <ele>276</ele>
        <time>2017-06-12T09:30:10Z</time>
      </trkpt>
      <trkpt lat="45.97442" lon="4.84694">
        <ele>276</ele>
        <time>2017-06-12T09:30:11Z</time>
      </trkpt>
      <trkpt lat="45.97448" lon="4.84691">
        <ele>276</ele>
        <time>2017-06-12T09:30:12Z</time>
      </trkpt>
      <trkpt lat="45.97453" lon="4.84687">
        <ele>276</ele>
        <time>2017-06-12T09:30:13Z</time>
      </trkpt>
      <trkpt lat="45.97458" lon="4.84684">
        <ele>276</ele>
        <time>2017-06-12T09:30:14Z</time>
      </trkpt>
      <trkpt lat="45.97463" lon="4.8468">
        <ele>276</ele>
        <time>2017-06-12T09:30:15Z</time>
      </trkpt>
      <trkpt lat="45.97468" lon="4.84676">
        <ele>276</ele>
        <time>2017-06-12T09:30:16Z</time>
      </trkpt>
      <trkpt lat="45.97473" lon="4.84673">
        <ele>276</ele>
        <time>2017-06-12T09:30:17Z</time>
      </trkpt>
      <trkpt lat="45.97478" lon="4.8467">
        <ele>276</ele>
        <time>2017-06-12T09:30:18Z</time>
      </trkpt>
      <trkpt lat="45.97482" lon="4.84667">
        <ele>276</ele>
        <time>2017-06-12T09:30:19Z</time>
      </trkpt>
      <trkpt lat="45.97487" lon="4.84664">
        <ele>275</ele>
        <time>2017-06-12T09:30:20Z</time>
      </trkpt>
      <trkpt lat="45.97491" lon="4.84661">
        <ele>275</ele>
        <time>2017-06-12T09:30:21Z</time>
      </trkpt>
      <trkpt lat="45.97496" lon="4.84658">
        <ele>275</ele>
        <time>2017-06-12T09:30:22Z</time>
      </trkpt>
      <trkpt lat="45.97501" lon="4.84655">
        <ele>275</ele>
        <time>2017-06-12T09:30:23Z</time>
      </trkpt>
      <trkpt lat="45.97505" lon="4.84651">
        <ele>275</ele>
        <time>2017-06-12T09:30:24Z</time>
      </trkpt>
      <trkpt lat="45.9751" lon="4.84648">
        <ele>275</ele>
        <time>2017-06-12T09:30:25Z</time>
      </trkpt>
      <trkpt lat="45.97516" lon="4.84644">
        <ele>275</ele>
        <time>2017-06-12T09:30:26Z</time>
      </trkpt>
      <trkpt lat="45.97521" lon="4.8464">
        <ele>275</ele>
        <time>2017-06-12T09:30:27Z</time>
      </trkpt>
      <trkpt lat="45.97526" lon="4.84636">
        <ele>275</ele>
        <time>2017-06-12T09:30:28Z</time>
      </trkpt>
      <trkpt lat="45.97531" lon="4.84632">
        <ele>275</ele>
        <time>2017-06-12T09:30:29Z</time>
      </trkpt>
      <trkpt lat="45.97536" lon="4.84628">
        <ele>275</ele>
        <time>2017-06-12T09:30:30Z</time>
      </trkpt>
      <trkpt lat="45.97541" lon="4.84624">
        <ele>275</ele>
        <time>2017-06-12T09:30:31Z</time>
      </trkpt>
      <trkpt lat="45.97546" lon="4.84619">
        <ele>274</ele>
        <time>2017-06-12T09:30:32Z</time>
      </trkpt>
      <trkpt lat="45.9755" lon="4.84615">
        <ele>274</ele>
        <time>2017-06-12T09:30:33Z</time>
      </trkpt>
      <trkpt lat="45.97554" lon="4.84611">
        <ele>274</ele>
        <time>2017-06-12T09:30:34Z</time>
      </trkpt>
      <trkpt lat="45.97558" lon="4.84606">
        <ele>274</ele>
        <time>2017-06-12T09:30:35Z</time>
      </trkpt>
      <trkpt lat="45.97562" lon="4.84602">
        <ele>274</ele>
        <time>2017-06-12T09:30:36Z</time>
      </trkpt>
      <trkpt lat="45.97566" lon="4.84598">
        <ele>274</ele>
        <time>2017-06-12T09:30:37Z</time>
      </trkpt>
      <trkpt lat="45.9757" lon="4.84594">
        <ele>274</ele>
        <time>2017-06-12T09:30:38Z</time>
      </trkpt>
      <trkpt lat="45.97573" lon="4.8459">
        <ele>274</ele>
        <time>2017-06-12T09:30:39Z</time>
      </trkpt>
      <trkpt lat="45.9758" lon="4.84582">
        <ele>274</ele>
        <time>2017-06-12T09:30:41Z</time>
      </trkpt>
      <trkpt lat="45.97583" lon="4.84578">
        <ele>274</ele>
        <time>2017-06-12T09:30:42Z</time>
      </trkpt>
      <trkpt lat="45.97586" lon="4.84573">
        <ele>274</ele>
        <time>2017-06-12T09:30:43Z</time>
      </trkpt>
      <trkpt lat="45.9759" lon="4.84568">
        <ele>274</ele>
        <time>2017-06-12T09:30:44Z</time>
      </trkpt>
      <trkpt lat="45.97594" lon="4.84562">
        <ele>274</ele>
        <time>2017-06-12T09:30:45Z</time>
      </trkpt>
      <trkpt lat="45.97599" lon="4.84557">
        <ele>275</ele>
        <time>2017-06-12T09:30:46Z</time>
      </trkpt>
      <trkpt lat="45.97604" lon="4.84552">
        <ele>275</ele>
        <time>2017-06-12T09:30:47Z</time>
      </trkpt>
      <trkpt lat="45.97608" lon="4.84546">
        <ele>275</ele>
        <time>2017-06-12T09:30:48Z</time>
      </trkpt>
      <trkpt lat="45.97613" lon="4.8454">
        <ele>275</ele>
        <time>2017-06-12T09:30:49Z</time>
      </trkpt>
      <trkpt lat="45.97618" lon="4.84534">
        <ele>275</ele>
        <time>2017-06-12T09:30:50Z</time>
      </trkpt>
      <trkpt lat="45.97622" lon="4.84528">
        <ele>275</ele>
        <time>2017-06-12T09:30:51Z</time>
      </trkpt>
      <trkpt lat="45.97626" lon="4.84522">
        <ele>275</ele>
        <time>2017-06-12T09:30:52Z</time>
      </trkpt>
      <trkpt lat="45.9763" lon="4.84517">
        <ele>275</ele>
        <time>2017-06-12T09:30:53Z</time>
      </trkpt>
      <trkpt lat="45.97634" lon="4.84512">
        <ele>275</ele>
        <time>2017-06-12T09:30:54Z</time>
      </trkpt>
      <trkpt lat="45.97638" lon="4.84507">
        <ele>275</ele>
        <time>2017-06-12T09:30:55Z</time>
      </trkpt>
      <trkpt lat="45.97642" lon="4.84503">
        <ele>275</ele>
        <time>2017-06-12T09:30:56Z</time>
      </trkpt>
      <trkpt lat="45.97646" lon="4.84498">
        <ele>275</ele>
        <time>2017-06-12T09:30:57Z</time>
      </trkpt>
      <trkpt lat="45.9765" lon="4.84494">
        <ele>275</ele>
        <time>2017-06-12T09:30:58Z</time>
      </trkpt>
      <trkpt lat="45.97657" lon="4.84487">
        <ele>275</ele>
        <time>2017-06-12T09:31:00Z</time>
      </trkpt>
      <trkpt lat="45.97661" lon="4.84484">
        <ele>275</ele>
        <time>2017-06-12T09:31:01Z</time>
      </trkpt>
      <trkpt lat="45.97665" lon="4.8448">
        <ele>276</ele>
        <time>2017-06-12T09:31:02Z</time>
      </trkpt>
      <trkpt lat="45.97669" lon="4.84476">
        <ele>276</ele>
        <time>2017-06-12T09:31:03Z</time>
      </trkpt>
      <trkpt lat="45.97674" lon="4.84473">
        <ele>276</ele>
        <time>2017-06-12T09:31:04Z</time>
      </trkpt>
      <trkpt lat="45.97679" lon="4.8447">
        <ele>277</ele>
        <time>2017-06-12T09:31:05Z</time>
      </trkpt>
      <trkpt lat="45.97685" lon="4.84467">
        <ele>277</ele>
        <time>2017-06-12T09:31:06Z</time>
      </trkpt>
      <trkpt lat="45.9769" lon="4.84463">
        <ele>277</ele>
        <time>2017-06-12T09:31:07Z</time>
      </trkpt>
      <trkpt lat="45.97696" lon="4.8446">
        <ele>277</ele>
        <time>2017-06-12T09:31:08Z</time>
      </trkpt>
      <trkpt lat="45.97702" lon="4.84457">
        <ele>277</ele>
        <time>2017-06-12T09:31:09Z</time>
      </trkpt>
      <trkpt lat="45.97708" lon="4.84454">
        <ele>277</ele>
        <time>2017-06-12T09:31:10Z</time>
      </trkpt>
      <trkpt lat="45.97714" lon="4.84452">
        <ele>277</ele>
        <time>2017-06-12T09:31:11Z</time>
      </trkpt>
      <trkpt lat="45.9772" lon="4.8445">
        <ele>277</ele>
        <time>2017-06-12T09:31:12Z</time>
      </trkpt>
      <trkpt lat="45.97725" lon="4.84448">
        <ele>277</ele>
        <time>2017-06-12T09:31:13Z</time>
      </trkpt>
      <trkpt lat="45.9773" lon="4.84446">
        <ele>277</ele>
        <time>2017-06-12T09:31:14Z</time>
      </trkpt>
      <trkpt lat="45.97735" lon="4.84445">
        <ele>277</ele>
        <time>2017-06-12T09:31:15Z</time>
      </trkpt>
      <trkpt lat="45.9774" lon="4.84443">
        <ele>277</ele>
        <time>2017-06-12T09:31:16Z</time>
      </trkpt>
      <trkpt lat="45.97745" lon="4.84441">
        <ele>277</ele>
        <time>2017-06-12T09:31:17Z</time>
      </trkpt>
      <trkpt lat="45.9775" lon="4.8444">
        <ele>277</ele>
        <time>2017-06-12T09:31:18Z</time>
      </trkpt>
      <trkpt lat="45.97754" lon="4.84438">
        <ele>277</ele>
        <time>2017-06-12T09:31:19Z</time>
      </trkpt>
      <trkpt lat="45.97759" lon="4.84437">
        <ele>277</ele>
        <time>2017-06-12T09:31:20Z</time>
      </trkpt>
      <trkpt lat="45.97763" lon="4.84436">
        <ele>277</ele>
        <time>2017-06-12T09:31:21Z</time>
      </trkpt>
      <trkpt lat="45.97768" lon="4.84434">
        <ele>277</ele>
        <time>2017-06-12T09:31:22Z</time>
      </trkpt>
      <trkpt lat="45.97774" lon="4.84432">
        <ele>277</ele>
        <time>2017-06-12T09:31:23Z</time>
      </trkpt>
      <trkpt lat="45.97779" lon="4.8443">
        <ele>277</ele>
        <time>2017-06-12T09:31:24Z</time>
      </trkpt>
      <trkpt lat="45.97785" lon="4.84428">
        <ele>277</ele>
        <time>2017-06-12T09:31:25Z</time>
      </trkpt>
      <trkpt lat="45.97791" lon="4.84426">
        <ele>277</ele>
        <time>2017-06-12T09:31:26Z</time>
      </trkpt>
      <trkpt lat="45.97797" lon="4.84422">
        <ele>277</ele>
        <time>2017-06-12T09:31:27Z</time>
      </trkpt>
      <trkpt lat="45.97803" lon="4.84419">
        <ele>277</ele>
        <time>2017-06-12T09:31:28Z</time>
      </trkpt>
      <trkpt lat="45.97808" lon="4.84416">
        <ele>277</ele>
        <time>2017-06-12T09:31:29Z</time>
      </trkpt>
      <trkpt lat="45.97814" lon="4.84413">
        <ele>276</ele>
        <time>2017-06-12T09:31:30Z</time>
      </trkpt>
      <trkpt lat="45.97819" lon="4.8441">
        <ele>276</ele>
        <time>2017-06-12T09:31:31Z</time>
      </trkpt>
      <trkpt lat="45.97824" lon="4.84406">
        <ele>276</ele>
        <time>2017-06-12T09:31:32Z</time>
      </trkpt>
      <trkpt lat="45.97829" lon="4.84402">
        <ele>276</ele>
        <time>2017-06-12T09:31:33Z</time>
      </trkpt>
      <trkpt lat="45.97833" lon="4.84398">
        <ele>276</ele>
        <time>2017-06-12T09:31:34Z</time>
      </trkpt>
      <trkpt lat="45.97838" lon="4.84394">
        <ele>276</ele>
        <time>2017-06-12T09:31:35Z</time>
      </trkpt>
      <trkpt lat="45.97842" lon="4.8439">
        <ele>276</ele>
        <time>2017-06-12T09:31:36Z</time>
      </trkpt>
      <trkpt lat="45.97845" lon="4.84385">
        <ele>276</ele>
        <time>2017-06-12T09:31:37Z</time>
      </trkpt>
      <trkpt lat="45.97849" lon="4.84381">
        <ele>276</ele>
        <time>2017-06-12T09:31:38Z</time>
      </trkpt>
      <trkpt lat="45.97853" lon="4.84376">
        <ele>276</ele>
        <time>2017-06-12T09:31:39Z</time>
      </trkpt>
      <trkpt lat="45.97857" lon="4.84371">
        <ele>276</ele>
        <time>2017-06-12T09:31:40Z</time>
      </trkpt>
      <trkpt lat="45.97861" lon="4.84366">
        <ele>276</ele>
        <time>2017-06-12T09:31:41Z</time>
      </trkpt>
      <trkpt lat="45.97865" lon="4.84361">
        <ele>276</ele>
        <time>2017-06-12T09:31:42Z</time>
      </trkpt>
      <trkpt lat="45.97868" lon="4.84355">
        <ele>276</ele>
        <time>2017-06-12T09:31:43Z</time>
      </trkpt>
      <trkpt lat="45.97872" lon="4.84349">
        <ele>276</ele>
        <time>2017-06-12T09:31:44Z</time>
      </trkpt>
      <trkpt lat="45.97876" lon="4.84343">
        <ele>275</ele>
        <time>2017-06-12T09:31:45Z</time>
      </trkpt>
      <trkpt lat="45.9788" lon="4.84337">
        <ele>275</ele>
        <time>2017-06-12T09:31:46Z</time>
      </trkpt>
      <trkpt lat="45.97883" lon="4.84331">
        <ele>275</ele>
        <time>2017-06-12T09:31:47Z</time>
      </trkpt>
      <trkpt lat="45.97887" lon="4.84325">
        <ele>275</ele>
        <time>2017-06-12T09:31:48Z</time>
      </trkpt>
      <trkpt lat="45.97891" lon="4.84319">
        <ele>275</ele>
        <time>2017-06-12T09:31:49Z</time>
      </trkpt>
      <trkpt lat="45.97894" lon="4.84314">
        <ele>275</ele>
        <time>2017-06-12T09:31:50Z</time>
      </trkpt>
      <trkpt lat="45.97897" lon="4.84308">
        <ele>275</ele>
        <time>2017-06-12T09:31:51Z</time>
      </trkpt>
      <trkpt lat="45.97901" lon="4.84303">
        <ele>275</ele>
        <time>2017-06-12T09:31:52Z</time>
      </trkpt>
      <trkpt lat="45.97904" lon="4.84298">
        <ele>275</ele>
        <time>2017-06-12T09:31:53Z</time>
      </trkpt>
      <trkpt lat="45.97908" lon="4.84293">
        <ele>275</ele>
        <time>2017-06-12T09:31:54Z</time>
      </trkpt>
      <trkpt lat="45.97912" lon="4.84287">
        <ele>275</ele>
        <time>2017-06-12T09:31:55Z</time>
      </trkpt>
      <trkpt lat="45.97916" lon="4.84282">
        <ele>275</ele>
        <time>2017-06-12T09:31:56Z</time>
      </trkpt>
      <trkpt lat="45.97921" lon="4.84278">
        <ele>275</ele>
        <time>2017-06-12T09:31:57Z</time>
      </trkpt>
      <trkpt lat="45.97925" lon="4.84273">
        <ele>275</ele>
        <time>2017-06-12T09:31:58Z</time>
      </trkpt>
      <trkpt lat="45.9793" lon="4.84268">
        <ele>275</ele>
        <time>2017-06-12T09:31:59Z</time>
      </trkpt>
      <trkpt lat="45.97935" lon="4.84263">
        <ele>275</ele>
        <time>2017-06-12T09:32:00Z</time>
      </trkpt>
      <trkpt lat="45.97939" lon="4.84257">
        <ele>275</ele>
        <time>2017-06-12T09:32:01Z</time>
      </trkpt>
      <trkpt lat="45.97945" lon="4.84252">
        <ele>275</ele>
        <time>2017-06-12T09:32:02Z</time>
      </trkpt>
      <trkpt lat="45.9795" lon="4.84248">
        <ele>275</ele>
        <time>2017-06-12T09:32:03Z</time>
      </trkpt>
      <trkpt lat="45.97955" lon="4.84243">
        <ele>275</ele>
        <time>2017-06-12T09:32:04Z</time>
      </trkpt>
      <trkpt lat="45.9796" lon="4.84238">
        <ele>274</ele>
        <time>2017-06-12T09:32:05Z</time>
      </trkpt>
      <trkpt lat="45.97965" lon="4.84234">
        <ele>274</ele>
        <time>2017-06-12T09:32:06Z</time>
      </trkpt>
      <trkpt lat="45.9797" lon="4.84229">
        <ele>274</ele>
        <time>2017-06-12T09:32:07Z</time>
      </trkpt>
      <trkpt lat="45.97974" lon="4.84223">
        <ele>274</ele>
        <time>2017-06-12T09:32:08Z</time>
      </trkpt>
      <trkpt lat="45.97979" lon="4.84219">
        <ele>274</ele>
        <time>2017-06-12T09:32:09Z</time>
      </trkpt>
      <trkpt lat="45.97984" lon="4.84214">
        <ele>274</ele>
        <time>2017-06-12T09:32:10Z</time>
      </trkpt>
      <trkpt lat="45.97988" lon="4.8421">
        <ele>274</ele>
        <time>2017-06-12T09:32:11Z</time>
      </trkpt>
      <trkpt lat="45.97993" lon="4.84206">
        <ele>274</ele>
        <time>2017-06-12T09:32:12Z</time>
      </trkpt>
      <trkpt lat="45.97997" lon="4.84202">
        <ele>274</ele>
        <time>2017-06-12T09:32:13Z</time>
      </trkpt>
      <trkpt lat="45.98002" lon="4.84197">
        <ele>274</ele>
        <time>2017-06-12T09:32:14Z</time>
      </trkpt>
      <trkpt lat="45.98007" lon="4.84192">
        <ele>274</ele>
        <time>2017-06-12T09:32:15Z</time>
      </trkpt>
      <trkpt lat="45.98011" lon="4.84187">
        <ele>274</ele>
        <time>2017-06-12T09:32:16Z</time>
      </trkpt>
      <trkpt lat="45.98016" lon="4.84183">
        <ele>274</ele>
        <time>2017-06-12T09:32:17Z</time>
      </trkpt>
      <trkpt lat="45.98021" lon="4.84179">
        <ele>274</ele>
        <time>2017-06-12T09:32:18Z</time>
      </trkpt>
      <trkpt lat="45.98025" lon="4.84175">
        <ele>274</ele>
        <time>2017-06-12T09:32:19Z</time>
      </trkpt>
      <trkpt lat="45.9803" lon="4.84171">
        <ele>274</ele>
        <time>2017-06-12T09:32:20Z</time>
      </trkpt>
      <trkpt lat="45.98034" lon="4.84167">
        <ele>273</ele>
        <time>2017-06-12T09:32:21Z</time>
      </trkpt>
      <trkpt lat="45.98038" lon="4.84163">
        <ele>273</ele>
        <time>2017-06-12T09:32:22Z</time>
      </trkpt>
      <trkpt lat="45.98043" lon="4.84159">
        <ele>273</ele>
        <time>2017-06-12T09:32:23Z</time>
      </trkpt>
      <trkpt lat="45.98048" lon="4.84154">
        <ele>273</ele>
        <time>2017-06-12T09:32:24Z</time>
      </trkpt>
      <trkpt lat="45.98053" lon="4.84149">
        <ele>273</ele>
        <time>2017-06-12T09:32:25Z</time>
      </trkpt>
      <trkpt lat="45.98058" lon="4.84144">
        <ele>273</ele>
        <time>2017-06-12T09:32:26Z</time>
      </trkpt>
      <trkpt lat="45.98064" lon="4.84139">
        <ele>273</ele>
        <time>2017-06-12T09:32:27Z</time>
      </trkpt>
      <trkpt lat="45.98069" lon="4.84134">
        <ele>273</ele>
        <time>2017-06-12T09:32:28Z</time>
      </trkpt>
      <trkpt lat="45.98074" lon="4.84129">
        <ele>273</ele>
        <time>2017-06-12T09:32:29Z</time>
      </trkpt>
      <trkpt lat="45.9808" lon="4.84125">
        <ele>273</ele>
        <time>2017-06-12T09:32:30Z</time>
      </trkpt>
      <trkpt lat="45.98085" lon="4.8412">
        <ele>273</ele>
        <time>2017-06-12T09:32:31Z</time>
      </trkpt>
      <trkpt lat="45.98089" lon="4.84116">
        <ele>273</ele>
        <time>2017-06-12T09:32:32Z</time>
      </trkpt>
      <trkpt lat="45.98094" lon="4.84111">
        <ele>273</ele>
        <time>2017-06-12T09:32:33Z</time>
      </trkpt>
      <trkpt lat="45.98099" lon="4.84107">
        <ele>273</ele>
        <time>2017-06-12T09:32:34Z</time>
      </trkpt>
      <trkpt lat="45.98104" lon="4.84103">
        <ele>273</ele>
        <time>2017-06-12T09:32:35Z</time>
      </trkpt>
      <trkpt lat="45.98108" lon="4.84098">
        <ele>273</ele>
        <time>2017-06-12T09:32:36Z</time>
      </trkpt>
      <trkpt lat="45.98112" lon="4.84094">
        <ele>273</ele>
        <time>2017-06-12T09:32:37Z</time>
      </trkpt>
      <trkpt lat="45.98117" lon="4.84089">
        <ele>273</ele>
        <time>2017-06-12T09:32:38Z</time>
      </trkpt>
      <trkpt lat="45.98121" lon="4.84085">
        <ele>273</ele>
        <time>2017-06-12T09:32:39Z</time>
      </trkpt>
      <trkpt lat="45.98125" lon="4.84081">
        <ele>273</ele>
        <time>2017-06-12T09:32:40Z</time>
      </trkpt>
      <trkpt lat="45.98129" lon="4.84077">
        <ele>273</ele>
        <time>2017-06-12T09:32:41Z</time>
      </trkpt>
      <trkpt lat="45.98133" lon="4.84072">
        <ele>273</ele>
        <time>2017-06-12T09:32:42Z</time>
      </trkpt>
      <trkpt lat="45.98137" lon="4.84066">
        <ele>273</ele>
        <time>2017-06-12T09:32:43Z</time>
      </trkpt>
      <trkpt lat="45.98142" lon="4.8406">
        <ele>273</ele>
        <time>2017-06-12T09:32:44Z</time>
      </trkpt>
      <trkpt lat="45.98147" lon="4.84054">
        <ele>273</ele>
        <time>2017-06-12T09:32:45Z</time>
      </trkpt>
      <trkpt lat="45.98151" lon="4.84047">
        <ele>273</ele>
        <time>2017-06-12T09:32:46Z</time>
      </trkpt>
      <trkpt lat="45.98156" lon="4.84039">
        <ele>273</ele>
        <time>2017-06-12T09:32:47Z</time>
      </trkpt>
      <trkpt lat="45.9816" lon="4.84031">
        <ele>273</ele>
        <time>2017-06-12T09:32:48Z</time>
      </trkpt>
      <trkpt lat="45.98164" lon="4.84024">
        <ele>273</ele>
        <time>2017-06-12T09:32:49Z</time>
      </trkpt>
      <trkpt lat="45.98168" lon="4.84017">
        <ele>273</ele>
        <time>2017-06-12T09:32:50Z</time>
      </trkpt>
      <trkpt lat="45.98172" lon="4.8401">
        <ele>273</ele>
        <time>2017-06-12T09:32:51Z</time>
      </trkpt>
      <trkpt lat="45.98176" lon="4.84003">
        <ele>273</ele>
        <time>2017-06-12T09:32:52Z</time>
      </trkpt>
      <trkpt lat="45.98179" lon="4.83995">
        <ele>273</ele>
        <time>2017-06-12T09:32:53Z</time>
      </trkpt>
      <trkpt lat="45.98182" lon="4.83988">
        <ele>273</ele>
        <time>2017-06-12T09:32:54Z</time>
      </trkpt>
      <trkpt lat="45.98185" lon="4.83981">
        <ele>273</ele>
        <time>2017-06-12T09:32:55Z</time>
      </trkpt>
      <trkpt lat="45.98188" lon="4.83974">
        <ele>273</ele>
        <time>2017-06-12T09:32:56Z</time>
      </trkpt>
      <trkpt lat="45.9819" lon="4.83967">
        <ele>273</ele>
        <time>2017-06-12T09:32:57Z</time>
      </trkpt>
      <trkpt lat="45.98193" lon="4.8396">
        <ele>273</ele>
        <time>2017-06-12T09:32:58Z</time>
      </trkpt>
      <trkpt lat="45.98196" lon="4.83953">
        <ele>273</ele>
        <time>2017-06-12T09:32:59Z</time>
      </trkpt>
      <trkpt lat="45.98198" lon="4.83946">
        <ele>273</ele>
        <time>2017-06-12T09:33:00Z</time>
      </trkpt>
      <trkpt lat="45.98201" lon="4.83939">
        <ele>273</ele>
        <time>2017-06-12T09:33:01Z</time>
      </trkpt>
      <trkpt lat="45.98203" lon="4.83932">
        <ele>273</ele>
        <time>2017-06-12T09:33:02Z</time>
      </trkpt>
      <trkpt lat="45.98206" lon="4.83925">
        <ele>273</ele>
        <time>2017-06-12T09:33:03Z</time>
      </trkpt>
      <trkpt lat="45.98208" lon="4.83918">
        <ele>273</ele>
        <time>2017-06-12T09:33:04Z</time>
      </trkpt>
      <trkpt lat="45.9821" lon="4.83911">
        <ele>273</ele>
        <time>2017-06-12T09:33:05Z</time>
      </trkpt>
      <trkpt lat="45.98213" lon="4.83903">
        <ele>273</ele>
        <time>2017-06-12T09:33:06Z</time>
      </trkpt>
      <trkpt lat="45.98215" lon="4.83896">
        <ele>273</ele>
        <time>2017-06-12T09:33:07Z</time>
      </trkpt>
      <trkpt lat="45.98217" lon="4.8389">
        <ele>273</ele>
        <time>2017-06-12T09:33:08Z</time>
      </trkpt>
      <trkpt lat="45.9822" lon="4.83884">
        <ele>272</ele>
        <time>2017-06-12T09:33:09Z</time>
      </trkpt>
      <trkpt lat="45.98222" lon="4.83878">
        <ele>272</ele>
        <time>2017-06-12T09:33:10Z</time>
      </trkpt>
      <trkpt lat="45.98224" lon="4.83871">
        <ele>272</ele>
        <time>2017-06-12T09:33:11Z</time>
      </trkpt>
      <trkpt lat="45.98226" lon="4.83865">
        <ele>272</ele>
        <time>2017-06-12T09:33:12Z</time>
      </trkpt>
      <trkpt lat="45.98228" lon="4.83859">
        <ele>272</ele>
        <time>2017-06-12T09:33:13Z</time>
      </trkpt>
      <trkpt lat="45.9823" lon="4.83852">
        <ele>272</ele>
        <time>2017-06-12T09:33:14Z</time>
      </trkpt>
      <trkpt lat="45.98233" lon="4.83846">
        <ele>272</ele>
        <time>2017-06-12T09:33:15Z</time>
      </trkpt>
      <trkpt lat="45.98235" lon="4.83839">
        <ele>272</ele>
        <time>2017-06-12T09:33:16Z</time>
      </trkpt>
      <trkpt lat="45.98237" lon="4.83831">
        <ele>272</ele>
        <time>2017-06-12T09:33:17Z</time>
      </trkpt>
      <trkpt lat="45.9824" lon="4.83824">
        <ele>272</ele>
        <time>2017-06-12T09:33:18Z</time>
      </trkpt>
      <trkpt lat="45.98243" lon="4.83816">
        <ele>272</ele>
        <time>2017-06-12T09:33:19Z</time>
      </trkpt>
      <trkpt lat="45.98246" lon="4.83809">
        <ele>272</ele>
        <time>2017-06-12T09:33:20Z</time>
      </trkpt>
      <trkpt lat="45.98248" lon="4.83801">
        <ele>272</ele>
        <time>2017-06-12T09:33:21Z</time>
      </trkpt>
      <trkpt lat="45.98251" lon="4.83792">
        <ele>272</ele>
        <time>2017-06-12T09:33:22Z</time>
      </trkpt>
      <trkpt lat="45.98254" lon="4.83784">
        <ele>272</ele>
        <time>2017-06-12T09:33:23Z</time>
      </trkpt>
      <trkpt lat="45.98256" lon="4.83776">
        <ele>272</ele>
        <time>2017-06-12T09:33:24Z</time>
      </trkpt>
      <trkpt lat="45.98259" lon="4.83768">
        <ele>272</ele>
        <time>2017-06-12T09:33:25Z</time>
      </trkpt>
      <trkpt lat="45.98262" lon="4.83761">
        <ele>272</ele>
        <time>2017-06-12T09:33:26Z</time>
      </trkpt>
      <trkpt lat="45.98264" lon="4.83753">
        <ele>272</ele>
        <time>2017-06-12T09:33:27Z</time>
      </trkpt>
      <trkpt lat="45.98267" lon="4.83746">
        <ele>272</ele>
        <time>2017-06-12T09:33:28Z</time>
      </trkpt>
      <trkpt lat="45.98269" lon="4.83739">
        <ele>272</ele>
        <time>2017-06-12T09:33:29Z</time>
      </trkpt>
      <trkpt lat="45.98272" lon="4.83732">
        <ele>272</ele>
        <time>2017-06-12T09:33:30Z</time>
      </trkpt>
      <trkpt lat="45.98274" lon="4.83725">
        <ele>272</ele>
        <time>2017-06-12T09:33:31Z</time>
      </trkpt>
      <trkpt lat="45.98277" lon="4.83718">
        <ele>272</ele>
        <time>2017-06-12T09:33:32Z</time>
      </trkpt>
      <trkpt lat="45.98279" lon="4.83712">
        <ele>272</ele>
        <time>2017-06-12T09:33:33Z</time>
      </trkpt>
      <trkpt lat="45.98281" lon="4.83705">
        <ele>272</ele>
        <time>2017-06-12T09:33:34Z</time>
      </trkpt>
      <trkpt lat="45.98283" lon="4.83698">
        <ele>272</ele>
        <time>2017-06-12T09:33:35Z</time>
      </trkpt>
      <trkpt lat="45.98286" lon="4.83692">
        <ele>272</ele>
        <time>2017-06-12T09:33:36Z</time>
      </trkpt>
      <trkpt lat="45.98288" lon="4.83685">
        <ele>272</ele>
        <time>2017-06-12T09:33:37Z</time>
      </trkpt>
      <trkpt lat="45.9829" lon="4.83679">
        <ele>272</ele>
        <time>2017-06-12T09:33:38Z</time>
      </trkpt>
      <trkpt lat="45.98293" lon="4.83672">
        <ele>272</ele>
        <time>2017-06-12T09:33:39Z</time>
      </trkpt>
      <trkpt lat="45.98296" lon="4.83665">
        <ele>271</ele>
        <time>2017-06-12T09:33:40Z</time>
      </trkpt>
      <trkpt lat="45.98299" lon="4.83659">
        <ele>271</ele>
        <time>2017-06-12T09:33:41Z</time>
      </trkpt>
      <trkpt lat="45.98302" lon="4.83652">
        <ele>271</ele>
        <time>2017-06-12T09:33:42Z</time>
      </trkpt>
      <trkpt lat="45.98306" lon="4.83645">
        <ele>271</ele>
        <time>2017-06-12T09:33:43Z</time>
      </trkpt>
      <trkpt lat="45.98309" lon="4.83637">
        <ele>271</ele>
        <time>2017-06-12T09:33:44Z</time>
      </trkpt>
      <trkpt lat="45.98313" lon="4.83631">
        <ele>271</ele>
        <time>2017-06-12T09:33:45Z</time>
      </trkpt>
      <trkpt lat="45.98317" lon="4.83624">
        <ele>271</ele>
        <time>2017-06-12T09:33:46Z</time>
      </trkpt>
      <trkpt lat="45.98321" lon="4.83617">
        <ele>271</ele>
        <time>2017-06-12T09:33:47Z</time>
      </trkpt>
      <trkpt lat="45.98324" lon="4.83611">
        <ele>271</ele>
        <time>2017-06-12T09:33:48Z</time>
      </trkpt>
      <trkpt lat="45.98328" lon="4.83605">
        <ele>271</ele>
        <time>2017-06-12T09:33:49Z</time>
      </trkpt>
      <trkpt lat="45.98332" lon="4.836">
        <ele>271</ele>
        <time>2017-06-12T09:33:50Z</time>
      </trkpt>
      <trkpt lat="45.98336" lon="4.83594">
        <ele>270</ele>
        <time>2017-06-12T09:33:51Z</time>
      </trkpt>
      <trkpt lat="45.9834" lon="4.83588">
        <ele>270</ele>
        <time>2017-06-12T09:33:52Z</time>
      </trkpt>
      <trkpt lat="45.98344" lon="4.83582">
        <ele>270</ele>
        <time>2017-06-12T09:33:53Z</time>
      </trkpt>
      <trkpt lat="45.98348" lon="4.83576">
        <ele>270</ele>
        <time>2017-06-12T09:33:54Z</time>
      </trkpt>
      <trkpt lat="45.98352" lon="4.83571">
        <ele>269</ele>
        <time>2017-06-12T09:33:55Z</time>
      </trkpt>
      <trkpt lat="45.98356" lon="4.83565">
        <ele>269</ele>
        <time>2017-06-12T09:33:56Z</time>
      </trkpt>
      <trkpt lat="45.98361" lon="4.8356">
        <ele>269</ele>
        <time>2017-06-12T09:33:57Z</time>
      </trkpt>
      <trkpt lat="45.98365" lon="4.83554">
        <ele>269</ele>
        <time>2017-06-12T09:33:58Z</time>
      </trkpt>
      <trkpt lat="45.9837" lon="4.83547">
        <ele>269</ele>
        <time>2017-06-12T09:33:59Z</time>
      </trkpt>
      <trkpt lat="45.98375" lon="4.83541">
        <ele>269</ele>
        <time>2017-06-12T09:34:00Z</time>
      </trkpt>
      <trkpt lat="45.9838" lon="4.83534">
        <ele>269</ele>
        <time>2017-06-12T09:34:01Z</time>
      </trkpt>
      <trkpt lat="45.98385" lon="4.83528">
        <ele>269</ele>
        <time>2017-06-12T09:34:02Z</time>
      </trkpt>
      <trkpt lat="45.9839" lon="4.8352">
        <ele>269</ele>
        <time>2017-06-12T09:34:03Z</time>
      </trkpt>
      <trkpt lat="45.98395" lon="4.83513">
        <ele>269</ele>
        <time>2017-06-12T09:34:04Z</time>
      </trkpt>
      <trkpt lat="45.984" lon="4.83506">
        <ele>269</ele>
        <time>2017-06-12T09:34:05Z</time>
      </trkpt>
      <trkpt lat="45.98404" lon="4.835">
        <ele>269</ele>
        <time>2017-06-12T09:34:06Z</time>
      </trkpt>
      <trkpt lat="45.98409" lon="4.83494">
        <ele>268</ele>
        <time>2017-06-12T09:34:07Z</time>
      </trkpt>
      <trkpt lat="45.98413" lon="4.83488">
        <ele>269</ele>
        <time>2017-06-12T09:34:08Z</time>
      </trkpt>
      <trkpt lat="45.98417" lon="4.83481">
        <ele>268</ele>
        <time>2017-06-12T09:34:09Z</time>
      </trkpt>
      <trkpt lat="45.98421" lon="4.83475">
        <ele>268</ele>
        <time>2017-06-12T09:34:10Z</time>
      </trkpt>
      <trkpt lat="45.98425" lon="4.8347">
        <ele>268</ele>
        <time>2017-06-12T09:34:11Z</time>
      </trkpt>
      <trkpt lat="45.98429" lon="4.83464">
        <ele>268</ele>
        <time>2017-06-12T09:34:12Z</time>
      </trkpt>
      <trkpt lat="45.98433" lon="4.83459">
        <ele>268</ele>
        <time>2017-06-12T09:34:13Z</time>
      </trkpt>
      <trkpt lat="45.98437" lon="4.83454">
        <ele>268</ele>
        <time>2017-06-12T09:34:14Z</time>
      </trkpt>
      <trkpt lat="45.98441" lon="4.8345">
        <ele>268</ele>
        <time>2017-06-12T09:34:15Z</time>
      </trkpt>
      <trkpt lat="45.98445" lon="4.83445">
        <ele>268</ele>
        <time>2017-06-12T09:34:16Z</time>
      </trkpt>
      <trkpt lat="45.98448" lon="4.8344">
        <ele>268</ele>
        <time>2017-06-12T09:34:17Z</time>
      </trkpt>
      <trkpt lat="45.98452" lon="4.83435">
        <ele>268</ele>
        <time>2017-06-12T09:34:18Z</time>
      </trkpt>
      <trkpt lat="45.98455" lon="4.8343">
        <ele>268</ele>
        <time>2017-06-12T09:34:19Z</time>
      </trkpt>
      <trkpt lat="45.9846" lon="4.83425">
        <ele>269</ele>
        <time>2017-06-12T09:34:20Z</time>
      </trkpt>
      <trkpt lat="45.98464" lon="4.8342">
        <ele>269</ele>
        <time>2017-06-12T09:34:21Z</time>
      </trkpt>
      <trkpt lat="45.98468" lon="4.83414">
        <ele>269</ele>
        <time>2017-06-12T09:34:22Z</time>
      </trkpt>
      <trkpt lat="45.98472" lon="4.83407">
        <ele>269</ele>
        <time>2017-06-12T09:34:23Z</time>
      </trkpt>
      <trkpt lat="45.98476" lon="4.83401">
        <ele>269</ele>
        <time>2017-06-12T09:34:24Z</time>
      </trkpt>
      <trkpt lat="45.98481" lon="4.83395">
        <ele>269</ele>
        <time>2017-06-12T09:34:25Z</time>
      </trkpt>
      <trkpt lat="45.98485" lon="4.83389">
        <ele>269</ele>
        <time>2017-06-12T09:34:26Z</time>
      </trkpt>
      <trkpt lat="45.98489" lon="4.83383">
        <ele>269</ele>
        <time>2017-06-12T09:34:27Z</time>
      </trkpt>
      <trkpt lat="45.98492" lon="4.83378">
        <ele>269</ele>
        <time>2017-06-12T09:34:28Z</time>
      </trkpt>
      <trkpt lat="45.98496" lon="4.83373">
        <ele>270</ele>
        <time>2017-06-12T09:34:29Z</time>
      </trkpt>
      <trkpt lat="45.985" lon="4.83368">
        <ele>270</ele>
        <time>2017-06-12T09:34:30Z</time>
      </trkpt>
      <trkpt lat="45.98503" lon="4.83364">
        <ele>269</ele>
        <time>2017-06-12T09:34:31Z</time>
      </trkpt>
      <trkpt lat="45.98507" lon="4.83359">
        <ele>269</ele>
        <time>2017-06-12T09:34:32Z</time>
      </trkpt>
      <trkpt lat="45.98511" lon="4.83354">
        <ele>270</ele>
        <time>2017-06-12T09:34:33Z</time>
      </trkpt>
      <trkpt lat="45.98514" lon="4.83349">
        <ele>270</ele>
        <time>2017-06-12T09:34:34Z</time>
      </trkpt>
      <trkpt lat="45.98518" lon="4.83344">
        <ele>270</ele>
        <time>2017-06-12T09:34:35Z</time>
      </trkpt>
      <trkpt lat="45.98521" lon="4.8334">
        <ele>270</ele>
        <time>2017-06-12T09:34:36Z</time>
      </trkpt>
      <trkpt lat="45.98525" lon="4.83335">
        <ele>270</ele>
        <time>2017-06-12T09:34:37Z</time>
      </trkpt>
      <trkpt lat="45.98528" lon="4.83331">
        <ele>269</ele>
        <time>2017-06-12T09:34:38Z</time>
      </trkpt>
      <trkpt lat="45.98532" lon="4.83326">
        <ele>269</ele>
        <time>2017-06-12T09:34:39Z</time>
      </trkpt>
      <trkpt lat="45.98536" lon="4.83321">
        <ele>269</ele>
        <time>2017-06-12T09:34:40Z</time>
      </trkpt>
      <trkpt lat="45.98539" lon="4.83316">
        <ele>269</ele>
        <time>2017-06-12T09:34:41Z</time>
      </trkpt>
      <trkpt lat="45.98543" lon="4.83311">
        <ele>269</ele>
        <time>2017-06-12T09:34:42Z</time>
      </trkpt>
      <trkpt lat="45.98546" lon="4.83306">
        <ele>269</ele>
        <time>2017-06-12T09:34:43Z</time>
      </trkpt>
      <trkpt lat="45.9855" lon="4.83301">
        <ele>269</ele>
        <time>2017-06-12T09:34:44Z</time>
      </trkpt>
      <trkpt lat="45.98554" lon="4.83296">
        <ele>269</ele>
        <time>2017-06-12T09:34:45Z</time>
      </trkpt>
      <trkpt lat="45.98558" lon="4.83291">
        <ele>269</ele>
        <time>2017-06-12T09:34:46Z</time>
      </trkpt>
      <trkpt lat="45.98562" lon="4.83286">
        <ele>269</ele>
        <time>2017-06-12T09:34:47Z</time>
      </trkpt>
      <trkpt lat="45.98566" lon="4.8328">
        <ele>269</ele>
        <time>2017-06-12T09:34:48Z</time>
      </trkpt>
      <trkpt lat="45.9857" lon="4.83275">
        <ele>269</ele>
        <time>2017-06-12T09:34:49Z</time>
      </trkpt>
      <trkpt lat="45.98573" lon="4.83269">
        <ele>269</ele>
        <time>2017-06-12T09:34:50Z</time>
      </trkpt>
      <trkpt lat="45.98577" lon="4.83264">
        <ele>269</ele>
        <time>2017-06-12T09:34:51Z</time>
      </trkpt>
      <trkpt lat="45.98581" lon="4.83259">
        <ele>268</ele>
        <time>2017-06-12T09:34:52Z</time>
      </trkpt>
      <trkpt lat="45.98585" lon="4.83254">
        <ele>268</ele>
        <time>2017-06-12T09:34:53Z</time>
      </trkpt>
      <trkpt lat="45.98589" lon="4.83249">
        <ele>268</ele>
        <time>2017-06-12T09:34:54Z</time>
      </trkpt>
      <trkpt lat="45.98593" lon="4.83244">
        <ele>268</ele>
        <time>2017-06-12T09:34:55Z</time>
      </trkpt>
      <trkpt lat="45.98597" lon="4.83239">
        <ele>268</ele>
        <time>2017-06-12T09:34:56Z</time>
      </trkpt>
      <trkpt lat="45.986" lon="4.83234">
        <ele>268</ele>
        <time>2017-06-12T09:34:57Z</time>
      </trkpt>
      <trkpt lat="45.98604" lon="4.83229">
        <ele>268</ele>
        <time>2017-06-12T09:34:58Z</time>
      </trkpt>
      <trkpt lat="45.98608" lon="4.83224">
        <ele>267</ele>
        <time>2017-06-12T09:34:59Z</time>
      </trkpt>
      <trkpt lat="45.98612" lon="4.8322">
        <ele>267</ele>
        <time>2017-06-12T09:35:00Z</time>
      </trkpt>
      <trkpt lat="45.98616" lon="4.83214">
        <ele>267</ele>
        <time>2017-06-12T09:35:01Z</time>
      </trkpt>
      <trkpt lat="45.9862" lon="4.8321">
        <ele>267</ele>
        <time>2017-06-12T09:35:02Z</time>
      </trkpt>
      <trkpt lat="45.98624" lon="4.83205">
        <ele>267</ele>
        <time>2017-06-12T09:35:03Z</time>
      </trkpt>
      <trkpt lat="45.98628" lon="4.832">
        <ele>267</ele>
        <time>2017-06-12T09:35:04Z</time>
      </trkpt>
      <trkpt lat="45.98632" lon="4.83195">
        <ele>267</ele>
        <time>2017-06-12T09:35:05Z</time>
      </trkpt>
      <trkpt lat="45.98636" lon="4.83191">
        <ele>267</ele>
        <time>2017-06-12T09:35:06Z</time>
      </trkpt>
      <trkpt lat="45.9864" lon="4.83187">
        <ele>267</ele>
        <time>2017-06-12T09:35:07Z</time>
      </trkpt>
      <trkpt lat="45.98645" lon="4.83182">
        <ele>267</ele>
        <time>2017-06-12T09:35:08Z</time>
      </trkpt>
      <trkpt lat="45.98649" lon="4.83178">
        <ele>267</ele>
        <time>2017-06-12T09:35:09Z</time>
      </trkpt>
      <trkpt lat="45.98654" lon="4.83174">
        <ele>267</ele>
        <time>2017-06-12T09:35:10Z</time>
      </trkpt>
      <trkpt lat="45.98659" lon="4.8317">
        <ele>266</ele>
        <time>2017-06-12T09:35:11Z</time>
      </trkpt>
      <trkpt lat="45.98664" lon="4.83166">
        <ele>266</ele>
        <time>2017-06-12T09:35:12Z</time>
      </trkpt>
      <trkpt lat="45.98669" lon="4.83162">
        <ele>266</ele>
        <time>2017-06-12T09:35:13Z</time>
      </trkpt>
      <trkpt lat="45.98675" lon="4.83158">
        <ele>266</ele>
        <time>2017-06-12T09:35:14Z</time>
      </trkpt>
      <trkpt lat="45.98679" lon="4.83154">
        <ele>266</ele>
        <time>2017-06-12T09:35:15Z</time>
      </trkpt>
      <trkpt lat="45.98684" lon="4.8315">
        <ele>266</ele>
        <time>2017-06-12T09:35:16Z</time>
      </trkpt>
      <trkpt lat="45.9869" lon="4.83146">
        <ele>266</ele>
        <time>2017-06-12T09:35:17Z</time>
      </trkpt>
      <trkpt lat="45.98695" lon="4.83142">
        <ele>266</ele>
        <time>2017-06-12T09:35:18Z</time>
      </trkpt>
      <trkpt lat="45.98701" lon="4.83137">
        <ele>266</ele>
        <time>2017-06-12T09:35:19Z</time>
      </trkpt>
      <trkpt lat="45.98707" lon="4.83132">
        <ele>266</ele>
        <time>2017-06-12T09:35:20Z</time>
      </trkpt>
      <trkpt lat="45.98713" lon="4.83126">
        <ele>266</ele>
        <time>2017-06-12T09:35:21Z</time>
      </trkpt>
      <trkpt lat="45.9872" lon="4.83121">
        <ele>266</ele>
        <time>2017-06-12T09:35:22Z</time>
      </trkpt>
      <trkpt lat="45.98726" lon="4.83115">
        <ele>267</ele>
        <time>2017-06-12T09:35:23Z</time>
      </trkpt>
      <trkpt lat="45.98732" lon="4.83109">
        <ele>267</ele>
        <time>2017-06-12T09:35:24Z</time>
      </trkpt>
      <trkpt lat="45.98739" lon="4.83104">
        <ele>267</ele>
        <time>2017-06-12T09:35:25Z</time>
      </trkpt>
      <trkpt lat="45.98745" lon="4.83098">
        <ele>267</ele>
        <time>2017-06-12T09:35:26Z</time>
      </trkpt>
      <trkpt lat="45.98751" lon="4.83093">
        <ele>266</ele>
        <time>2017-06-12T09:35:27Z</time>
      </trkpt>
      <trkpt lat="45.98758" lon="4.83088">
        <ele>266</ele>
        <time>2017-06-12T09:35:28Z</time>
      </trkpt>
      <trkpt lat="45.98764" lon="4.83083">
        <ele>266</ele>
        <time>2017-06-12T09:35:29Z</time>
      </trkpt>
      <trkpt lat="45.9877" lon="4.83078">
        <ele>266</ele>
        <time>2017-06-12T09:35:30Z</time>
      </trkpt>
      <trkpt lat="45.98777" lon="4.83073">
        <ele>265</ele>
        <time>2017-06-12T09:35:31Z</time>
      </trkpt>
      <trkpt lat="45.98783" lon="4.83067">
        <ele>265</ele>
        <time>2017-06-12T09:35:32Z</time>
      </trkpt>
      <trkpt lat="45.9879" lon="4.83062">
        <ele>265</ele>
        <time>2017-06-12T09:35:33Z</time>
      </trkpt>
      <trkpt lat="45.98796" lon="4.83056">
        <ele>264</ele>
        <time>2017-06-12T09:35:34Z</time>
      </trkpt>
      <trkpt lat="45.98803" lon="4.8305">
        <ele>264</ele>
        <time>2017-06-12T09:35:35Z</time>
      </trkpt>
      <trkpt lat="45.98811" lon="4.83044">
        <ele>264</ele>
        <time>2017-06-12T09:35:36Z</time>
      </trkpt>
      <trkpt lat="45.98818" lon="4.83038">
        <ele>264</ele>
        <time>2017-06-12T09:35:37Z</time>
      </trkpt>
      <trkpt lat="45.98825" lon="4.83032">
        <ele>264</ele>
        <time>2017-06-12T09:35:38Z</time>
      </trkpt>
      <trkpt lat="45.98833" lon="4.83026">
        <ele>264</ele>
        <time>2017-06-12T09:35:39Z</time>
      </trkpt>
      <trkpt lat="45.98841" lon="4.83021">
        <ele>261</ele>
        <time>2017-06-12T09:35:40Z</time>
      </trkpt>
      <trkpt lat="45.98849" lon="4.83015">
        <ele>261</ele>
        <time>2017-06-12T09:35:41Z</time>
      </trkpt>
      <trkpt lat="45.98858" lon="4.83009">
        <ele>261</ele>
        <time>2017-06-12T09:35:42Z</time>
      </trkpt>
      <trkpt lat="45.98866" lon="4.83003">
        <ele>260</ele>
        <time>2017-06-12T09:35:43Z</time>
      </trkpt>
      <trkpt lat="45.98875" lon="4.82997">
        <ele>260</ele>
        <time>2017-06-12T09:35:44Z</time>
      </trkpt>
      <trkpt lat="45.98884" lon="4.8299">
        <ele>259</ele>
        <time>2017-06-12T09:35:45Z</time>
      </trkpt>
      <trkpt lat="45.98893" lon="4.82983">
        <ele>259</ele>
        <time>2017-06-12T09:35:46Z</time>
      </trkpt>
      <trkpt lat="45.98902" lon="4.82975">
        <ele>259</ele>
        <time>2017-06-12T09:35:47Z</time>
      </trkpt>
      <trkpt lat="45.98911" lon="4.82964">
        <ele>258</ele>
        <time>2017-06-12T09:35:48Z</time>
      </trkpt>
      <trkpt lat="45.98919" lon="4.82953">
        <ele>255</ele>
        <time>2017-06-12T09:35:49Z</time>
      </trkpt>
      <trkpt lat="45.98926" lon="4.82939">
        <ele>255</ele>
        <time>2017-06-12T09:35:50Z</time>
      </trkpt>
      <trkpt lat="45.98933" lon="4.82925">
        <ele>255</ele>
        <time>2017-06-12T09:35:51Z</time>
      </trkpt>
      <trkpt lat="45.98939" lon="4.82909">
        <ele>254</ele>
        <time>2017-06-12T09:35:52Z</time>
      </trkpt>
      <trkpt lat="45.98946" lon="4.82893">
        <ele>253</ele>
        <time>2017-06-12T09:35:53Z</time>
      </trkpt>
      <trkpt lat="45.98952" lon="4.82877">
        <ele>253</ele>
        <time>2017-06-12T09:35:54Z</time>
      </trkpt>
      <trkpt lat="45.98959" lon="4.82861">
        <ele>252</ele>
        <time>2017-06-12T09:35:55Z</time>
      </trkpt>
      <trkpt lat="45.98966" lon="4.82845">
        <ele>252</ele>
        <time>2017-06-12T09:35:56Z</time>
      </trkpt>
      <trkpt lat="45.98974" lon="4.82829">
        <ele>249</ele>
        <time>2017-06-12T09:35:57Z</time>
      </trkpt>
      <trkpt lat="45.98981" lon="4.82812">
        <ele>248</ele>
        <time>2017-06-12T09:35:58Z</time>
      </trkpt>
      <trkpt lat="45.98989" lon="4.82795">
        <ele>247</ele>
        <time>2017-06-12T09:35:59Z</time>
      </trkpt>
      <trkpt lat="45.98996" lon="4.82778">
        <ele>246</ele>
        <time>2017-06-12T09:36:00Z</time>
      </trkpt>
      <trkpt lat="45.99003" lon="4.82761">
        <ele>241</ele>
        <time>2017-06-12T09:36:01Z</time>
      </trkpt>
      <trkpt lat="45.9901" lon="4.82745">
        <ele>240</ele>
        <time>2017-06-12T09:36:02Z</time>
      </trkpt>
      <trkpt lat="45.99017" lon="4.82728">
        <ele>239</ele>
        <time>2017-06-12T09:36:03Z</time>
      </trkpt>
      <trkpt lat="45.99024" lon="4.82712">
        <ele>238</ele>
        <time>2017-06-12T09:36:04Z</time>
      </trkpt>
      <trkpt lat="45.99031" lon="4.82696">
        <ele>238</ele>
        <time>2017-06-12T09:36:05Z</time>
      </trkpt>
      <trkpt lat="45.99038" lon="4.8268">
        <ele>238</ele>
        <time>2017-06-12T09:36:06Z</time>
      </trkpt>
      <trkpt lat="45.99044" lon="4.82665">
        <ele>236</ele>
        <time>2017-06-12T09:36:07Z</time>
      </trkpt>
      <trkpt lat="45.9905" lon="4.82652">
        <ele>236</ele>
        <time>2017-06-12T09:36:08Z</time>
      </trkpt>
      <trkpt lat="45.99055" lon="4.82639">
        <ele>236</ele>
        <time>2017-06-12T09:36:09Z</time>
      </trkpt>
      <trkpt lat="45.99061" lon="4.82627">
        <ele>236</ele>
        <time>2017-06-12T09:36:10Z</time>
      </trkpt>
      <trkpt lat="45.99065" lon="4.82617">
        <ele>236</ele>
        <time>2017-06-12T09:36:11Z</time>
      </trkpt>
      <trkpt lat="45.9907" lon="4.82608">
        <ele>236</ele>
        <time>2017-06-12T09:36:12Z</time>
      </trkpt>
      <trkpt lat="45.99073" lon="4.826">
        <ele>235</ele>
        <time>2017-06-12T09:36:13Z</time>
      </trkpt>
      <trkpt lat="45.99075" lon="4.82593">
        <ele>235</ele>
        <time>2017-06-12T09:36:14Z</time>
      </trkpt>
      <trkpt lat="45.99076" lon="4.82587">
        <ele>235</ele>
        <time>2017-06-12T09:36:15Z</time>
      </trkpt>
      <trkpt lat="45.99075" lon="4.8258">
        <ele>235</ele>
        <time>2017-06-12T09:36:16Z</time>
      </trkpt>
      <trkpt lat="45.99072" lon="4.82575">
        <ele>235</ele>
        <time>2017-06-12T09:36:17Z</time>
      </trkpt>
      <trkpt lat="45.99068" lon="4.82571">
        <ele>235</ele>
        <time>2017-06-12T09:36:18Z</time>
      </trkpt>
      <trkpt lat="45.99063" lon="4.82569">
        <ele>235</ele>
        <time>2017-06-12T09:36:19Z</time>
      </trkpt>
      <trkpt lat="45.99058" lon="4.82568">
        <ele>235</ele>
        <time>2017-06-12T09:36:20Z</time>
      </trkpt>
      <trkpt lat="45.99052" lon="4.82566">
        <ele>235</ele>
        <time>2017-06-12T09:36:21Z</time>
      </trkpt>
      <trkpt lat="45.99048" lon="4.82564">
        <ele>235</ele>
        <time>2017-06-12T09:36:22Z</time>
      </trkpt>
      <trkpt lat="45.9904" lon="4.82558">
        <ele>235</ele>
        <time>2017-06-12T09:36:24Z</time>
      </trkpt>
      <trkpt lat="45.99036" lon="4.82555">
        <ele>235</ele>
        <time>2017-06-12T09:36:25Z</time>
      </trkpt>
      <trkpt lat="45.99032" lon="4.82551">
        <ele>235</ele>
        <time>2017-06-12T09:36:26Z</time>
      </trkpt>
      <trkpt lat="45.99028" lon="4.82547">
        <ele>235</ele>
        <time>2017-06-12T09:36:27Z</time>
      </trkpt>
      <trkpt lat="45.99022" lon="4.82539">
        <ele>235</ele>
        <time>2017-06-12T09:36:29Z</time>
      </trkpt>
      <trkpt lat="45.99019" lon="4.82535">
        <ele>235</ele>
        <time>2017-06-12T09:36:30Z</time>
      </trkpt>
      <trkpt lat="45.99014" lon="4.82526">
        <ele>235</ele>
        <time>2017-06-12T09:36:32Z</time>
      </trkpt>
      <trkpt lat="45.99012" lon="4.82521">
        <ele>235</ele>
        <time>2017-06-12T09:36:33Z</time>
      </trkpt>
      <trkpt lat="45.99007" lon="4.8251">
        <ele>235</ele>
        <time>2017-06-12T09:36:35Z</time>
      </trkpt>
      <trkpt lat="45.99005" lon="4.82504">
        <ele>235</ele>
        <time>2017-06-12T09:36:36Z</time>
      </trkpt>
      <trkpt lat="45.99002" lon="4.82497">
        <ele>235</ele>
        <time>2017-06-12T09:36:37Z</time>
      </trkpt>
      <trkpt lat="45.98999" lon="4.82491">
        <ele>236</ele>
        <time>2017-06-12T09:36:38Z</time>
      </trkpt>
      <trkpt lat="45.98996" lon="4.82484">
        <ele>236</ele>
        <time>2017-06-12T09:36:39Z</time>
      </trkpt>
      <trkpt lat="45.98994" lon="4.82478">
        <ele>236</ele>
        <time>2017-06-12T09:36:40Z</time>
      </trkpt>
      <trkpt lat="45.98992" lon="4.82471">
        <ele>236</ele>
        <time>2017-06-12T09:36:41Z</time>
      </trkpt>
      <trkpt lat="45.9899" lon="4.82464">
        <ele>236</ele>
        <time>2017-06-12T09:36:42Z</time>
      </trkpt>
      <trkpt lat="45.98988" lon="4.82458">
        <ele>236</ele>
        <time>2017-06-12T09:36:43Z</time>
      </trkpt>
      <trkpt lat="45.98987" lon="4.82451">
        <ele>236</ele>
        <time>2017-06-12T09:36:44Z</time>
      </trkpt>
      <trkpt lat="45.98985" lon="4.82446">
        <ele>236</ele>
        <time>2017-06-12T09:36:45Z</time>
      </trkpt>
      <trkpt lat="45.98982" lon="4.8244">
        <ele>236</ele>
        <time>2017-06-12T09:36:46Z</time>
      </trkpt>
      <trkpt lat="45.98981" lon="4.82434">
        <ele>236</ele>
        <time>2017-06-12T09:36:47Z</time>
      </trkpt>
      <trkpt lat="45.98979" lon="4.82427">
        <ele>236</ele>
        <time>2017-06-12T09:36:48Z</time>
      </trkpt>
      <trkpt lat="45.98977" lon="4.82421">
        <ele>236</ele>
        <time>2017-06-12T09:36:49Z</time>
      </trkpt>
      <trkpt lat="45.98975" lon="4.82414">
        <ele>235</ele>
        <time>2017-06-12T09:36:50Z</time>
      </trkpt>
      <trkpt lat="45.98974" lon="4.82407">
        <ele>235</ele>
        <time>2017-06-12T09:36:51Z</time>
      </trkpt>
      <trkpt lat="45.98972" lon="4.824">
        <ele>235</ele>
        <time>2017-06-12T09:36:52Z</time>
      </trkpt>
      <trkpt lat="45.9897" lon="4.82393">
        <ele>235</ele>
        <time>2017-06-12T09:36:53Z</time>
      </trkpt>
      <trkpt lat="45.98968" lon="4.82386">
        <ele>235</ele>
        <time>2017-06-12T09:36:54Z</time>
      </trkpt>
      <trkpt lat="45.98967" lon="4.82379">
        <ele>235</ele>
        <time>2017-06-12T09:36:55Z</time>
      </trkpt>
      <trkpt lat="45.98965" lon="4.82373">
        <ele>235</ele>
        <time>2017-06-12T09:36:56Z</time>
      </trkpt>
      <trkpt lat="45.98963" lon="4.82366">
        <ele>235</ele>
        <time>2017-06-12T09:36:57Z</time>
      </trkpt>
      <trkpt lat="45.98961" lon="4.8236">
        <ele>235</ele>
        <time>2017-06-12T09:36:58Z</time>
      </trkpt>
      <trkpt lat="45.98959" lon="4.82354">
        <ele>235</ele>
        <time>2017-06-12T09:36:59Z</time>
      </trkpt>
      <trkpt lat="45.98956" lon="4.82348">
        <ele>235</ele>
        <time>2017-06-12T09:37:00Z</time>
      </trkpt>
      <trkpt lat="45.98953" lon="4.82342">
        <ele>235</ele>
        <time>2017-06-12T09:37:01Z</time>
      </trkpt>
      <trkpt lat="45.9895" lon="4.82336">
        <ele>235</ele>
        <time>2017-06-12T09:37:02Z</time>
      </trkpt>
      <trkpt lat="45.98946" lon="4.8233">
        <ele>234</ele>
        <time>2017-06-12T09:37:03Z</time>
      </trkpt>
      <trkpt lat="45.98943" lon="4.82324">
        <ele>234</ele>
        <time>2017-06-12T09:37:04Z</time>
      </trkpt>
      <trkpt lat="45.98938" lon="4.82319">
        <ele>234</ele>
        <time>2017-06-12T09:37:05Z</time>
      </trkpt>
      <trkpt lat="45.98934" lon="4.82314">
        <ele>234</ele>
        <time>2017-06-12T09:37:06Z</time>
      </trkpt>
      <trkpt lat="45.9893" lon="4.82309">
        <ele>234</ele>
        <time>2017-06-12T09:37:07Z</time>
      </trkpt>
      <trkpt lat="45.98925" lon="4.82305">
        <ele>234</ele>
        <time>2017-06-12T09:37:08Z</time>
      </trkpt>
      <trkpt lat="45.98921" lon="4.823">
        <ele>234</ele>
        <time>2017-06-12T09:37:09Z</time>
      </trkpt>
      <trkpt lat="45.98917" lon="4.82295">
        <ele>234</ele>
        <time>2017-06-12T09:37:10Z</time>
      </trkpt>
      <trkpt lat="45.98913" lon="4.82291">
        <ele>236</ele>
        <time>2017-06-12T09:37:11Z</time>
      </trkpt>
      <trkpt lat="45.98909" lon="4.82287">
        <ele>236</ele>
        <time>2017-06-12T09:37:12Z</time>
      </trkpt>
      <trkpt lat="45.98905" lon="4.82282">
        <ele>236</ele>
        <time>2017-06-12T09:37:13Z</time>
      </trkpt>
      <trkpt lat="45.98902" lon="4.82277">
        <ele>236</ele>
        <time>2017-06-12T09:37:14Z</time>
      </trkpt>
      <trkpt lat="45.98899" lon="4.82272">
        <ele>236</ele>
        <time>2017-06-12T09:37:15Z</time>
      </trkpt>
      <trkpt lat="45.98896" lon="4.82266">
        <ele>236</ele>
        <time>2017-06-12T09:37:16Z</time>
      </trkpt>
      <trkpt lat="45.98893" lon="4.8226">
        <ele>236</ele>
        <time>2017-06-12T09:37:17Z</time>
      </trkpt>
      <trkpt lat="45.9889" lon="4.82254">
        <ele>236</ele>
        <time>2017-06-12T09:37:18Z</time>
      </trkpt>
      <trkpt lat="45.98887" lon="4.82248">
        <ele>235</ele>
        <time>2017-06-12T09:37:19Z</time>
      </trkpt>
      <trkpt lat="45.98884" lon="4.82242">
        <ele>236</ele>
        <time>2017-06-12T09:37:20Z</time>
      </trkpt>
      <trkpt lat="45.9888" lon="4.82235">
        <ele>236</ele>
        <time>2017-06-12T09:37:21Z</time>
      </trkpt>
      <trkpt lat="45.98877" lon="4.82228">
        <ele>236</ele>
        <time>2017-06-12T09:37:22Z</time>
      </trkpt>
      <trkpt lat="45.98874" lon="4.8222">
        <ele>236</ele>
        <time>2017-06-12T09:37:23Z</time>
      </trkpt>
      <trkpt lat="45.98871" lon="4.82213">
        <ele>236</ele>
        <time>2017-06-12T09:37:24Z</time>
      </trkpt>
      <trkpt lat="45.98868" lon="4.82205">
        <ele>236</ele>
        <time>2017-06-12T09:37:25Z</time>
      </trkpt>
      <trkpt lat="45.98865" lon="4.82197">
        <ele>236</ele>
        <time>2017-06-12T09:37:26Z</time>
      </trkpt>
      <trkpt lat="45.98862" lon="4.82189">
        <ele>236</ele>
        <time>2017-06-12T09:37:27Z</time>
      </trkpt>
      <trkpt lat="45.98859" lon="4.82181">
        <ele>236</ele>
        <time>2017-06-12T09:37:28Z</time>
      </trkpt>
      <trkpt lat="45.98857" lon="4.82174">
        <ele>236</ele>
        <time>2017-06-12T09:37:29Z</time>
      </trkpt>
      <trkpt lat="45.98855" lon="4.82166">
        <ele>236</ele>
        <time>2017-06-12T09:37:30Z</time>
      </trkpt>
      <trkpt lat="45.98852" lon="4.82158">
        <ele>236</ele>
        <time>2017-06-12T09:37:31Z</time>
      </trkpt>
      <trkpt lat="45.9885" lon="4.82151">
        <ele>236</ele>
        <time>2017-06-12T09:37:32Z</time>
      </trkpt>
      <trkpt lat="45.98848" lon="4.82143">
        <ele>236</ele>
        <time>2017-06-12T09:37:33Z</time>
      </trkpt>
      <trkpt lat="45.98846" lon="4.82135">
        <ele>236</ele>
        <time>2017-06-12T09:37:34Z</time>
      </trkpt>
      <trkpt lat="45.98844" lon="4.82127">
        <ele>236</ele>
        <time>2017-06-12T09:37:35Z</time>
      </trkpt>
      <trkpt lat="45.98843" lon="4.82119">
        <ele>235</ele>
        <time>2017-06-12T09:37:36Z</time>
      </trkpt>
      <trkpt lat="45.98841" lon="4.82111">
        <ele>235</ele>
        <time>2017-06-12T09:37:37Z</time>
      </trkpt>
      <trkpt lat="45.98839" lon="4.82102">
        <ele>236</ele>
        <time>2017-06-12T09:37:38Z</time>
      </trkpt>
      <trkpt lat="45.98837" lon="4.82094">
        <ele>236</ele>
        <time>2017-06-12T09:37:39Z</time>
      </trkpt>
      <trkpt lat="45.98836" lon="4.82086">
        <ele>236</ele>
        <time>2017-06-12T09:37:40Z</time>
      </trkpt>
      <trkpt lat="45.98835" lon="4.82078">
        <ele>236</ele>
        <time>2017-06-12T09:37:41Z</time>
      </trkpt>
      <trkpt lat="45.98834" lon="4.82071">
        <ele>236</ele>
        <time>2017-06-12T09:37:42Z</time>
      </trkpt>
      <trkpt lat="45.98833" lon="4.82063">
        <ele>237</ele>
        <time>2017-06-12T09:37:43Z</time>
      </trkpt>
      <trkpt lat="45.98832" lon="4.82056">
        <ele>237</ele>
        <time>2017-06-12T09:37:44Z</time>
      </trkpt>
      <trkpt lat="45.98831" lon="4.82049">
        <ele>238</ele>
        <time>2017-06-12T09:37:45Z</time>
      </trkpt>
      <trkpt lat="45.9883" lon="4.82042">
        <ele>238</ele>
        <time>2017-06-12T09:37:46Z</time>
      </trkpt>
      <trkpt lat="45.98828" lon="4.82035">
        <ele>238</ele>
        <time>2017-06-12T09:37:47Z</time>
      </trkpt>
      <trkpt lat="45.98827" lon="4.82029">
        <ele>238</ele>
        <time>2017-06-12T09:37:48Z</time>
      </trkpt>
      <trkpt lat="45.98826" lon="4.82023">
        <ele>238</ele>
        <time>2017-06-12T09:37:49Z</time>
      </trkpt>
      <trkpt lat="45.98825" lon="4.82015">
        <ele>238</ele>
        <time>2017-06-12T09:37:50Z</time>
      </trkpt>
      <trkpt lat="45.98824" lon="4.82008">
        <ele>238</ele>
        <time>2017-06-12T09:37:51Z</time>
      </trkpt>
      <trkpt lat="45.98823" lon="4.82001">
        <ele>238</ele>
        <time>2017-06-12T09:37:52Z</time>
      </trkpt>
      <trkpt lat="45.98822" lon="4.81993">
        <ele>238</ele>
        <time>2017-06-12T09:37:53Z</time>
      </trkpt>
      <trkpt lat="45.98821" lon="4.81985">
        <ele>238</ele>
        <time>2017-06-12T09:37:54Z</time>
      </trkpt>
      <trkpt lat="45.98819" lon="4.81978">
        <ele>239</ele>
        <time>2017-06-12T09:37:55Z</time>
      </trkpt>
      <trkpt lat="45.98818" lon="4.8197">
        <ele>239</ele>
        <time>2017-06-12T09:37:56Z</time>
      </trkpt>
      <trkpt lat="45.98817" lon="4.81963">
        <ele>239</ele>
        <time>2017-06-12T09:37:57Z</time>
      </trkpt>
      <trkpt lat="45.98816" lon="4.81956">
        <ele>239</ele>
        <time>2017-06-12T09:37:58Z</time>
      </trkpt>
      <trkpt lat="45.98816" lon="4.81949">
        <ele>239</ele>
        <time>2017-06-12T09:37:59Z</time>
      </trkpt>
      <trkpt lat="45.98815" lon="4.81943">
        <ele>239</ele>
        <time>2017-06-12T09:38:00Z</time>
      </trkpt>
      <trkpt lat="45.98813" lon="4.81936">
        <ele>239</ele>
        <time>2017-06-12T09:38:01Z</time>
      </trkpt>
      <trkpt lat="45.98812" lon="4.81929">
        <ele>239</ele>
        <time>2017-06-12T09:38:02Z</time>
      </trkpt>
      <trkpt lat="45.98811" lon="4.81923">
        <ele>239</ele>
        <time>2017-06-12T09:38:03Z</time>
      </trkpt>
      <trkpt lat="45.9881" lon="4.81917">
        <ele>239</ele>
        <time>2017-06-12T09:38:04Z</time>
      </trkpt>
      <trkpt lat="45.98808" lon="4.8191">
        <ele>239</ele>
        <time>2017-06-12T09:38:05Z</time>
      </trkpt>
      <trkpt lat="45.98807" lon="4.81904">
        <ele>239</ele>
        <time>2017-06-12T09:38:06Z</time>
      </trkpt>
      <trkpt lat="45.98804" lon="4.81891">
        <ele>239</ele>
        <time>2017-06-12T09:38:08Z</time>
      </trkpt>
      <trkpt lat="45.98803" lon="4.81885">
        <ele>239</ele>
        <time>2017-06-12T09:38:09Z</time>
      </trkpt>
      <trkpt lat="45.98801" lon="4.81878">
        <ele>239</ele>
        <time>2017-06-12T09:38:10Z</time>
      </trkpt>
      <trkpt lat="45.98798" lon="4.81872">
        <ele>239</ele>
        <time>2017-06-12T09:38:11Z</time>
      </trkpt>
      <trkpt lat="45.98796" lon="4.81866">
        <ele>239</ele>
        <time>2017-06-12T09:38:12Z</time>
      </trkpt>
      <trkpt lat="45.98794" lon="4.81859">
        <ele>239</ele>
        <time>2017-06-12T09:38:13Z</time>
      </trkpt>
      <trkpt lat="45.9879" lon="4.81848">
        <ele>239</ele>
        <time>2017-06-12T09:38:15Z</time>
      </trkpt>
      <trkpt lat="45.98788" lon="4.81843">
        <ele>239</ele>
        <time>2017-06-12T09:38:16Z</time>
      </trkpt>
      <trkpt lat="45.98784" lon="4.81833">
        <ele>240</ele>
        <time>2017-06-12T09:38:18Z</time>
      </trkpt>
      <trkpt lat="45.98781" lon="4.81827">
        <ele>240</ele>
        <time>2017-06-12T09:38:19Z</time>
      </trkpt>
      <trkpt lat="45.98779" lon="4.81821">
        <ele>240</ele>
        <time>2017-06-12T09:38:20Z</time>
      </trkpt>
      <trkpt lat="45.98777" lon="4.81815">
        <ele>240</ele>
        <time>2017-06-12T09:38:21Z</time>
      </trkpt>
      <trkpt lat="45.98772" lon="4.81806">
        <ele>240</ele>
        <time>2017-06-12T09:38:23Z</time>
      </trkpt>
      <trkpt lat="45.98769" lon="4.81801">
        <ele>240</ele>
        <time>2017-06-12T09:38:24Z</time>
      </trkpt>
      <trkpt lat="45.98767" lon="4.81792">
        <ele>241</ele>
        <time>2017-06-12T09:38:26Z</time>
      </trkpt>
      <trkpt lat="45.98765" lon="4.81788">
        <ele>241</ele>
        <time>2017-06-12T09:38:27Z</time>
      </trkpt>
      <trkpt lat="45.98761" lon="4.8178">
        <ele>241</ele>
        <time>2017-06-12T09:38:29Z</time>
      </trkpt>
      <trkpt lat="45.98759" lon="4.81777">
        <ele>241</ele>
        <time>2017-06-12T09:38:30Z</time>
      </trkpt>
      <trkpt lat="45.98755" lon="4.81769">
        <ele>241</ele>
        <time>2017-06-12T09:38:32Z</time>
      </trkpt>
      <trkpt lat="45.98753" lon="4.81763">
        <ele>241</ele>
        <time>2017-06-12T09:38:33Z</time>
      </trkpt>
      <trkpt lat="45.98751" lon="4.81758">
        <ele>241</ele>
        <time>2017-06-12T09:38:34Z</time>
      </trkpt>
      <trkpt lat="45.98749" lon="4.81752">
        <ele>241</ele>
        <time>2017-06-12T09:38:35Z</time>
      </trkpt>
      <trkpt lat="45.98746" lon="4.81746">
        <ele>240</ele>
        <time>2017-06-12T09:38:36Z</time>
      </trkpt>
      <trkpt lat="45.98743" lon="4.81742">
        <ele>240</ele>
        <time>2017-06-12T09:38:37Z</time>
      </trkpt>
      <trkpt lat="45.98736" lon="4.81737">
        <ele>240</ele>
        <time>2017-06-12T09:38:39Z</time>
      </trkpt>
      <trkpt lat="45.98732" lon="4.81737">
        <ele>240</ele>
        <time>2017-06-12T09:38:40Z</time>
      </trkpt>
      <trkpt lat="45.98723" lon="4.81738">
        <ele>239</ele>
        <time>2017-06-12T09:38:42Z</time>
      </trkpt>
      <trkpt lat="45.98718" lon="4.81739">
        <ele>239</ele>
        <time>2017-06-12T09:38:43Z</time>
      </trkpt>
      <trkpt lat="45.9871" lon="4.8174">
        <ele>239</ele>
        <time>2017-06-12T09:38:45Z</time>
      </trkpt>
      <trkpt lat="45.98706" lon="4.81741">
        <ele>239</ele>
        <time>2017-06-12T09:38:46Z</time>
      </trkpt>
      <trkpt lat="45.98702" lon="4.81742">
        <ele>239</ele>
        <time>2017-06-12T09:38:47Z</time>
      </trkpt>
      <trkpt lat="45.98697" lon="4.81743">
        <ele>239</ele>
        <time>2017-06-12T09:38:48Z</time>
      </trkpt>
      <trkpt lat="45.9869" lon="4.81744">
        <ele>238</ele>
        <time>2017-06-12T09:38:49Z</time>
      </trkpt>
      <trkpt lat="45.98684" lon="4.81745">
        <ele>238</ele>
        <time>2017-06-12T09:38:50Z</time>
      </trkpt>
      <trkpt lat="45.98678" lon="4.81746">
        <ele>238</ele>
        <time>2017-06-12T09:38:51Z</time>
      </trkpt>
      <trkpt lat="45.98673" lon="4.81746">
        <ele>238</ele>
        <time>2017-06-12T09:38:52Z</time>
      </trkpt>
      <trkpt lat="45.98668" lon="4.81747">
        <ele>238</ele>
        <time>2017-06-12T09:38:53Z</time>
      </trkpt>
      <trkpt lat="45.98661" lon="4.81747">
        <ele>238</ele>
        <time>2017-06-12T09:38:54Z</time>
      </trkpt>
      <trkpt lat="45.98655" lon="4.81748">
        <ele>237</ele>
        <time>2017-06-12T09:38:55Z</time>
      </trkpt>
      <trkpt lat="45.9865" lon="4.8175">
        <ele>237</ele>
        <time>2017-06-12T09:38:56Z</time>
      </trkpt>
      <trkpt lat="45.98645" lon="4.81751">
        <ele>238</ele>
        <time>2017-06-12T09:38:57Z</time>
      </trkpt>
      <trkpt lat="45.9864" lon="4.81752">
        <ele>238</ele>
        <time>2017-06-12T09:38:58Z</time>
      </trkpt>
      <trkpt lat="45.98635" lon="4.81753">
        <ele>238</ele>
        <time>2017-06-12T09:38:59Z</time>
      </trkpt>
      <trkpt lat="45.9863" lon="4.81755">
        <ele>238</ele>
        <time>2017-06-12T09:39:00Z</time>
      </trkpt>
      <trkpt lat="45.98625" lon="4.81756">
        <ele>238</ele>
        <time>2017-06-12T09:39:01Z</time>
      </trkpt>
      <trkpt lat="45.98621" lon="4.81758">
        <ele>238</ele>
        <time>2017-06-12T09:39:02Z</time>
      </trkpt>
      <trkpt lat="45.98616" lon="4.8176">
        <ele>238</ele>
        <time>2017-06-12T09:39:03Z</time>
      </trkpt>
      <trkpt lat="45.98611" lon="4.81762">
        <ele>238</ele>
        <time>2017-06-12T09:39:04Z</time>
      </trkpt>
      <trkpt lat="45.98604" lon="4.81764">
        <ele>238</ele>
        <time>2017-06-12T09:39:05Z</time>
      </trkpt>
      <trkpt lat="45.98597" lon="4.81767">
        <ele>238</ele>
        <time>2017-06-12T09:39:06Z</time>
      </trkpt>
      <trkpt lat="45.98591" lon="4.81771">
        <ele>238</ele>
        <time>2017-06-12T09:39:07Z</time>
      </trkpt>
      <trkpt lat="45.98586" lon="4.81775">
        <ele>238</ele>
        <time>2017-06-12T09:39:08Z</time>
      </trkpt>
      <trkpt lat="45.9858" lon="4.8178">
        <ele>238</ele>
        <time>2017-06-12T09:39:09Z</time>
      </trkpt>
      <trkpt lat="45.98575" lon="4.81784">
        <ele>238</ele>
        <time>2017-06-12T09:39:10Z</time>
      </trkpt>
      <trkpt lat="45.98571" lon="4.81789">
        <ele>238</ele>
        <time>2017-06-12T09:39:11Z</time>
      </trkpt>
      <trkpt lat="45.98566" lon="4.81794">
        <ele>238</ele>
        <time>2017-06-12T09:39:12Z</time>
      </trkpt>
      <trkpt lat="45.98561" lon="4.81798">
        <ele>238</ele>
        <time>2017-06-12T09:39:13Z</time>
      </trkpt>
      <trkpt lat="45.98557" lon="4.81801">
        <ele>238</ele>
        <time>2017-06-12T09:39:14Z</time>
      </trkpt>
      <trkpt lat="45.98552" lon="4.81802">
        <ele>238</ele>
        <time>2017-06-12T09:39:15Z</time>
      </trkpt>
      <trkpt lat="45.98548" lon="4.81801">
        <ele>238</ele>
        <time>2017-06-12T09:39:16Z</time>
      </trkpt>
      <trkpt lat="45.9854" lon="4.81796">
        <ele>238</ele>
        <time>2017-06-12T09:39:18Z</time>
      </trkpt>
      <trkpt lat="45.98537" lon="4.81793">
        <ele>238</ele>
        <time>2017-06-12T09:39:19Z</time>
      </trkpt>
      <trkpt lat="45.9853" lon="4.81785">
        <ele>238</ele>
        <time>2017-06-12T09:39:21Z</time>
      </trkpt>
      <trkpt lat="45.98527" lon="4.81781">
        <ele>238</ele>
        <time>2017-06-12T09:39:22Z</time>
      </trkpt>
      <trkpt lat="45.98521" lon="4.81773">
        <ele>238</ele>
        <time>2017-06-12T09:39:24Z</time>
      </trkpt>
      <trkpt lat="45.98517" lon="4.81768">
        <ele>238</ele>
        <time>2017-06-12T09:39:25Z</time>
      </trkpt>
      <trkpt lat="45.98514" lon="4.81764">
        <ele>237</ele>
        <time>2017-06-12T09:39:26Z</time>
      </trkpt>
      <trkpt lat="45.98511" lon="4.81759">
        <ele>237</ele>
        <time>2017-06-12T09:39:27Z</time>
      </trkpt>
      <trkpt lat="45.98507" lon="4.81754">
        <ele>237</ele>
        <time>2017-06-12T09:39:28Z</time>
      </trkpt>
      <trkpt lat="45.98503" lon="4.8175">
        <ele>237</ele>
        <time>2017-06-12T09:39:29Z</time>
      </trkpt>
      <trkpt lat="45.98498" lon="4.81746">
        <ele>237</ele>
        <time>2017-06-12T09:39:30Z</time>
      </trkpt>
      <trkpt lat="45.98494" lon="4.81741">
        <ele>238</ele>
        <time>2017-06-12T09:39:31Z</time>
      </trkpt>
      <trkpt lat="45.9849" lon="4.81737">
        <ele>238</ele>
        <time>2017-06-12T09:39:32Z</time>
      </trkpt>
      <trkpt lat="45.98485" lon="4.81733">
        <ele>238</ele>
        <time>2017-06-12T09:39:33Z</time>
      </trkpt>
      <trkpt lat="45.98481" lon="4.81729">
        <ele>238</ele>
        <time>2017-06-12T09:39:34Z</time>
      </trkpt>
      <trkpt lat="45.98477" lon="4.81724">
        <ele>238</ele>
        <time>2017-06-12T09:39:35Z</time>
      </trkpt>
      <trkpt lat="45.98473" lon="4.8172">
        <ele>239</ele>
        <time>2017-06-12T09:39:36Z</time>
      </trkpt>
      <trkpt lat="45.9847" lon="4.81716">
        <ele>239</ele>
        <time>2017-06-12T09:39:37Z</time>
      </trkpt>
      <trkpt lat="45.98463" lon="4.81707">
        <ele>239</ele>
        <time>2017-06-12T09:39:39Z</time>
      </trkpt>
      <trkpt lat="45.9846" lon="4.81702">
        <ele>239</ele>
        <time>2017-06-12T09:39:40Z</time>
      </trkpt>
      <trkpt lat="45.98455" lon="4.81692">
        <ele>239</ele>
        <time>2017-06-12T09:39:42Z</time>
      </trkpt>
      <trkpt lat="45.98452" lon="4.81687">
        <ele>239</ele>
        <time>2017-06-12T09:39:43Z</time>
      </trkpt>
      <trkpt lat="45.98448" lon="4.81682">
        <ele>239</ele>
        <time>2017-06-12T09:39:44Z</time>
      </trkpt>
      <trkpt lat="45.98444" lon="4.81678">
        <ele>239</ele>
        <time>2017-06-12T09:39:45Z</time>
      </trkpt>
      <trkpt lat="45.98436" lon="4.81671">
        <ele>240</ele>
        <time>2017-06-12T09:39:47Z</time>
      </trkpt>
      <trkpt lat="45.98432" lon="4.81669">
        <ele>240</ele>
        <time>2017-06-12T09:39:48Z</time>
      </trkpt>
      <trkpt lat="45.98423" lon="4.81667">
        <ele>240</ele>
        <time>2017-06-12T09:39:50Z</time>
      </trkpt>
      <trkpt lat="45.98418" lon="4.81667">
        <ele>241</ele>
        <time>2017-06-12T09:39:51Z</time>
      </trkpt>
      <trkpt lat="45.98413" lon="4.81667">
        <ele>241</ele>
        <time>2017-06-12T09:39:52Z</time>
      </trkpt>
      <trkpt lat="45.98408" lon="4.81668">
        <ele>242</ele>
        <time>2017-06-12T09:39:53Z</time>
      </trkpt>
      <trkpt lat="45.98403" lon="4.81669">
        <ele>242</ele>
        <time>2017-06-12T09:39:54Z</time>
      </trkpt>
      <trkpt lat="45.98398" lon="4.8167">
        <ele>243</ele>
        <time>2017-06-12T09:39:55Z</time>
      </trkpt>
      <trkpt lat="45.98393" lon="4.81671">
        <ele>243</ele>
        <time>2017-06-12T09:39:56Z</time>
      </trkpt>
      <trkpt lat="45.98388" lon="4.81672">
        <ele>243</ele>
        <time>2017-06-12T09:39:57Z</time>
      </trkpt>
      <trkpt lat="45.98383" lon="4.81674">
        <ele>243</ele>
        <time>2017-06-12T09:39:58Z</time>
      </trkpt>
      <trkpt lat="45.98378" lon="4.81675">
        <ele>244</ele>
        <time>2017-06-12T09:39:59Z</time>
      </trkpt>
      <trkpt lat="45.98373" lon="4.81676">
        <ele>244</ele>
        <time>2017-06-12T09:40:00Z</time>
      </trkpt>
      <trkpt lat="45.98368" lon="4.81676">
        <ele>244</ele>
        <time>2017-06-12T09:40:01Z</time>
      </trkpt>
      <trkpt lat="45.98363" lon="4.81677">
        <ele>244</ele>
        <time>2017-06-12T09:40:02Z</time>
      </trkpt>
      <trkpt lat="45.98358" lon="4.81677">
        <ele>245</ele>
        <time>2017-06-12T09:40:03Z</time>
      </trkpt>
      <trkpt lat="45.98353" lon="4.81677">
        <ele>245</ele>
        <time>2017-06-12T09:40:04Z</time>
      </trkpt>
      <trkpt lat="45.98348" lon="4.81676">
        <ele>245</ele>
        <time>2017-06-12T09:40:05Z</time>
      </trkpt>
      <trkpt lat="45.98343" lon="4.81674">
        <ele>245</ele>
        <time>2017-06-12T09:40:06Z</time>
      </trkpt>
      <trkpt lat="45.98339" lon="4.81671">
        <ele>245</ele>
        <time>2017-06-12T09:40:07Z</time>
      </trkpt>
      <trkpt lat="45.98331" lon="4.81666">
        <ele>246</ele>
        <time>2017-06-12T09:40:09Z</time>
      </trkpt>
      <trkpt lat="45.98327" lon="4.81664">
        <ele>246</ele>
        <time>2017-06-12T09:40:10Z</time>
      </trkpt>
      <trkpt lat="45.9832" lon="4.8166">
        <ele>246</ele>
        <time>2017-06-12T09:40:12Z</time>
      </trkpt>
      <trkpt lat="45.98317" lon="4.81657">
        <ele>246</ele>
        <time>2017-06-12T09:40:13Z</time>
      </trkpt>
      <trkpt lat="45.9831" lon="4.8165">
        <ele>246</ele>
        <time>2017-06-12T09:40:15Z</time>
      </trkpt>
      <trkpt lat="45.98306" lon="4.81646">
        <ele>246</ele>
        <time>2017-06-12T09:40:16Z</time>
      </trkpt>
      <trkpt lat="45.98299" lon="4.81638">
        <ele>246</ele>
        <time>2017-06-12T09:40:18Z</time>
      </trkpt>
      <trkpt lat="45.98295" lon="4.81634">
        <ele>247</ele>
        <time>2017-06-12T09:40:19Z</time>
      </trkpt>
      <trkpt lat="45.98292" lon="4.81629">
        <ele>247</ele>
        <time>2017-06-12T09:40:20Z</time>
      </trkpt>
      <trkpt lat="45.98288" lon="4.81624">
        <ele>247</ele>
        <time>2017-06-12T09:40:21Z</time>
      </trkpt>
      <trkpt lat="45.98284" lon="4.8162">
        <ele>247</ele>
        <time>2017-06-12T09:40:22Z</time>
      </trkpt>
      <trkpt lat="45.98281" lon="4.81615">
        <ele>247</ele>
        <time>2017-06-12T09:40:23Z</time>
      </trkpt>
      <trkpt lat="45.98277" lon="4.81604">
        <ele>247</ele>
        <time>2017-06-12T09:40:25Z</time>
      </trkpt>
      <trkpt lat="45.98275" lon="4.81598">
        <ele>247</ele>
        <time>2017-06-12T09:40:26Z</time>
      </trkpt>
      <trkpt lat="45.98271" lon="4.81587">
        <ele>247</ele>
        <time>2017-06-12T09:40:28Z</time>
      </trkpt>
      <trkpt lat="45.9827" lon="4.81581">
        <ele>247</ele>
        <time>2017-06-12T09:40:29Z</time>
      </trkpt>
      <trkpt lat="45.98267" lon="4.81575">
        <ele>247</ele>
        <time>2017-06-12T09:40:30Z</time>
      </trkpt>
      <trkpt lat="45.98265" lon="4.81568">
        <ele>247</ele>
        <time>2017-06-12T09:40:31Z</time>
      </trkpt>
      <trkpt lat="45.98263" lon="4.81561">
        <ele>247</ele>
        <time>2017-06-12T09:40:32Z</time>
      </trkpt>
      <trkpt lat="45.98261" lon="4.81555">
        <ele>247</ele>
        <time>2017-06-12T09:40:33Z</time>
      </trkpt>
      <trkpt lat="45.98259" lon="4.81548">
        <ele>247</ele>
        <time>2017-06-12T09:40:34Z</time>
      </trkpt>
      <trkpt lat="45.98257" lon="4.81542">
        <ele>247</ele>
        <time>2017-06-12T09:40:35Z</time>
      </trkpt>
      <trkpt lat="45.98256" lon="4.81536">
        <ele>247</ele>
        <time>2017-06-12T09:40:36Z</time>
      </trkpt>
      <trkpt lat="45.98254" lon="4.8153">
        <ele>247</ele>
        <time>2017-06-12T09:40:37Z</time>
      </trkpt>
      <trkpt lat="45.98252" lon="4.81524">
        <ele>247</ele>
        <time>2017-06-12T09:40:38Z</time>
      </trkpt>
      <trkpt lat="45.9825" lon="4.81518">
        <ele>249</ele>
        <time>2017-06-12T09:40:39Z</time>
      </trkpt>
      <trkpt lat="45.98248" lon="4.81511">
        <ele>249</ele>
        <time>2017-06-12T09:40:40Z</time>
      </trkpt>
      <trkpt lat="45.98246" lon="4.81504">
        <ele>249</ele>
        <time>2017-06-12T09:40:41Z</time>
      </trkpt>
      <trkpt lat="45.98244" lon="4.81497">
        <ele>249</ele>
        <time>2017-06-12T09:40:42Z</time>
      </trkpt>
      <trkpt lat="45.98242" lon="4.81491">
        <ele>249</ele>
        <time>2017-06-12T09:40:43Z</time>
      </trkpt>
      <trkpt lat="45.9824" lon="4.81484">
        <ele>249</ele>
        <time>2017-06-12T09:40:44Z</time>
      </trkpt>
      <trkpt lat="45.98237" lon="4.81478">
        <ele>249</ele>
        <time>2017-06-12T09:40:45Z</time>
      </trkpt>
      <trkpt lat="45.98235" lon="4.81471">
        <ele>249</ele>
        <time>2017-06-12T09:40:46Z</time>
      </trkpt>
      <trkpt lat="45.98233" lon="4.81465">
        <ele>249</ele>
        <time>2017-06-12T09:40:47Z</time>
      </trkpt>
      <trkpt lat="45.98231" lon="4.81458">
        <ele>249</ele>
        <time>2017-06-12T09:40:48Z</time>
      </trkpt>
      <trkpt lat="45.98229" lon="4.81451">
        <ele>249</ele>
        <time>2017-06-12T09:40:49Z</time>
      </trkpt>
      <trkpt lat="45.98227" lon="4.81444">
        <ele>249</ele>
        <time>2017-06-12T09:40:50Z</time>
      </trkpt>
      <trkpt lat="45.98225" lon="4.81437">
        <ele>249</ele>
        <time>2017-06-12T09:40:51Z</time>
      </trkpt>
      <trkpt lat="45.98222" lon="4.81431">
        <ele>249</ele>
        <time>2017-06-12T09:40:52Z</time>
      </trkpt>
      <trkpt lat="45.98219" lon="4.81424">
        <ele>249</ele>
        <time>2017-06-12T09:40:53Z</time>
      </trkpt>
      <trkpt lat="45.98216" lon="4.81418">
        <ele>249</ele>
        <time>2017-06-12T09:40:54Z</time>
      </trkpt>
      <trkpt lat="45.98213" lon="4.81412">
        <ele>248</ele>
        <time>2017-06-12T09:40:55Z</time>
      </trkpt>
      <trkpt lat="45.98211" lon="4.81405">
        <ele>248</ele>
        <time>2017-06-12T09:40:56Z</time>
      </trkpt>
      <trkpt lat="45.98209" lon="4.81398">
        <ele>248</ele>
        <time>2017-06-12T09:40:57Z</time>
      </trkpt>
      <trkpt lat="45.98208" lon="4.81391">
        <ele>248</ele>
        <time>2017-06-12T09:40:58Z</time>
      </trkpt>
      <trkpt lat="45.98206" lon="4.81384">
        <ele>248</ele>
        <time>2017-06-12T09:40:59Z</time>
      </trkpt>
      <trkpt lat="45.98204" lon="4.81377">
        <ele>248</ele>
        <time>2017-06-12T09:41:00Z</time>
      </trkpt>
      <trkpt lat="45.98202" lon="4.8137">
        <ele>248</ele>
        <time>2017-06-12T09:41:01Z</time>
      </trkpt>
      <trkpt lat="45.982" lon="4.81362">
        <ele>248</ele>
        <time>2017-06-12T09:41:02Z</time>
      </trkpt>
      <trkpt lat="45.98198" lon="4.81355">
        <ele>248</ele>
        <time>2017-06-12T09:41:03Z</time>
      </trkpt>
      <trkpt lat="45.98196" lon="4.81347">
        <ele>248</ele>
        <time>2017-06-12T09:41:04Z</time>
      </trkpt>
      <trkpt lat="45.98195" lon="4.81339">
        <ele>248</ele>
        <time>2017-06-12T09:41:05Z</time>
      </trkpt>
      <trkpt lat="45.98193" lon="4.81331">
        <ele>247</ele>
        <time>2017-06-12T09:41:06Z</time>
      </trkpt>
      <trkpt lat="45.98192" lon="4.81323">
        <ele>247</ele>
        <time>2017-06-12T09:41:07Z</time>
      </trkpt>
      <trkpt lat="45.9819" lon="4.81315">
        <ele>247</ele>
        <time>2017-06-12T09:41:08Z</time>
      </trkpt>
      <trkpt lat="45.98188" lon="4.81308">
        <ele>247</ele>
        <time>2017-06-12T09:41:09Z</time>
      </trkpt>
      <trkpt lat="45.98186" lon="4.813">
        <ele>247</ele>
        <time>2017-06-12T09:41:10Z</time>
      </trkpt>
      <trkpt lat="45.98185" lon="4.81292">
        <ele>247</ele>
        <time>2017-06-12T09:41:11Z</time>
      </trkpt>
      <trkpt lat="45.98184" lon="4.81284">
        <ele>247</ele>
        <time>2017-06-12T09:41:12Z</time>
      </trkpt>
      <trkpt lat="45.98183" lon="4.81276">
        <ele>247</ele>
        <time>2017-06-12T09:41:13Z</time>
      </trkpt>
      <trkpt lat="45.98181" lon="4.81268">
        <ele>247</ele>
        <time>2017-06-12T09:41:14Z</time>
      </trkpt>
      <trkpt lat="45.9818" lon="4.8126">
        <ele>247</ele>
        <time>2017-06-12T09:41:15Z</time>
      </trkpt>
      <trkpt lat="45.98179" lon="4.81252">
        <ele>247</ele>
        <time>2017-06-12T09:41:16Z</time>
      </trkpt>
      <trkpt lat="45.98177" lon="4.81244">
        <ele>247</ele>
        <time>2017-06-12T09:41:17Z</time>
      </trkpt>
      <trkpt lat="45.98176" lon="4.81236">
        <ele>246</ele>
        <time>2017-06-12T09:41:18Z</time>
      </trkpt>
      <trkpt lat="45.98175" lon="4.81227">
        <ele>246</ele>
        <time>2017-06-12T09:41:19Z</time>
      </trkpt>
      <trkpt lat="45.98174" lon="4.81219">
        <ele>246</ele>
        <time>2017-06-12T09:41:20Z</time>
      </trkpt>
      <trkpt lat="45.98174" lon="4.81211">
        <ele>246</ele>
        <time>2017-06-12T09:41:21Z</time>
      </trkpt>
      <trkpt lat="45.98173" lon="4.81202">
        <ele>245</ele>
        <time>2017-06-12T09:41:22Z</time>
      </trkpt>
      <trkpt lat="45.98172" lon="4.81194">
        <ele>245</ele>
        <time>2017-06-12T09:41:23Z</time>
      </trkpt>
      <trkpt lat="45.98171" lon="4.81185">
        <ele>245</ele>
        <time>2017-06-12T09:41:24Z</time>
      </trkpt>
      <trkpt lat="45.9817" lon="4.81177">
        <ele>245</ele>
        <time>2017-06-12T09:41:25Z</time>
      </trkpt>
      <trkpt lat="45.98169" lon="4.81168">
        <ele>245</ele>
        <time>2017-06-12T09:41:26Z</time>
      </trkpt>
      <trkpt lat="45.98167" lon="4.8116">
        <ele>245</ele>
        <time>2017-06-12T09:41:27Z</time>
      </trkpt>
      <trkpt lat="45.98165" lon="4.81152">
        <ele>245</ele>
        <time>2017-06-12T09:41:28Z</time>
      </trkpt>
      <trkpt lat="45.98162" lon="4.81144">
        <ele>245</ele>
        <time>2017-06-12T09:41:29Z</time>
      </trkpt>
      <trkpt lat="45.9816" lon="4.81136">
        <ele>245</ele>
        <time>2017-06-12T09:41:30Z</time>
      </trkpt>
      <trkpt lat="45.98157" lon="4.81128">
        <ele>245</ele>
        <time>2017-06-12T09:41:31Z</time>
      </trkpt>
      <trkpt lat="45.98153" lon="4.8112">
        <ele>245</ele>
        <time>2017-06-12T09:41:32Z</time>
      </trkpt>
      <trkpt lat="45.98151" lon="4.81112">
        <ele>245</ele>
        <time>2017-06-12T09:41:33Z</time>
      </trkpt>
      <trkpt lat="45.98148" lon="4.81104">
        <ele>245</ele>
        <time>2017-06-12T09:41:34Z</time>
      </trkpt>
      <trkpt lat="45.98145" lon="4.81097">
        <ele>245</ele>
        <time>2017-06-12T09:41:35Z</time>
      </trkpt>
      <trkpt lat="45.98142" lon="4.81089">
        <ele>245</ele>
        <time>2017-06-12T09:41:36Z</time>
      </trkpt>
      <trkpt lat="45.98139" lon="4.81081">
        <ele>243</ele>
        <time>2017-06-12T09:41:37Z</time>
      </trkpt>
      <trkpt lat="45.98137" lon="4.81073">
        <ele>243</ele>
        <time>2017-06-12T09:41:38Z</time>
      </trkpt>
      <trkpt lat="45.98134" lon="4.81065">
        <ele>243</ele>
        <time>2017-06-12T09:41:39Z</time>
      </trkpt>
      <trkpt lat="45.98132" lon="4.81056">
        <ele>243</ele>
        <time>2017-06-12T09:41:40Z</time>
      </trkpt>
      <trkpt lat="45.98129" lon="4.81048">
        <ele>242</ele>
        <time>2017-06-12T09:41:41Z</time>
      </trkpt>
      <trkpt lat="45.98126" lon="4.8104">
        <ele>242</ele>
        <time>2017-06-12T09:41:42Z</time>
      </trkpt>
      <trkpt lat="45.98124" lon="4.81032">
        <ele>242</ele>
        <time>2017-06-12T09:41:43Z</time>
      </trkpt>
      <trkpt lat="45.98121" lon="4.81025">
        <ele>242</ele>
        <time>2017-06-12T09:41:44Z</time>
      </trkpt>
      <trkpt lat="45.98119" lon="4.81018">
        <ele>242</ele>
        <time>2017-06-12T09:41:45Z</time>
      </trkpt>
      <trkpt lat="45.98117" lon="4.81011">
        <ele>242</ele>
        <time>2017-06-12T09:41:46Z</time>
      </trkpt>
      <trkpt lat="45.98115" lon="4.81005">
        <ele>242</ele>
        <time>2017-06-12T09:41:47Z</time>
      </trkpt>
      <trkpt lat="45.98112" lon="4.80998">
        <ele>239</ele>
        <time>2017-06-12T09:41:48Z</time>
      </trkpt>
      <trkpt lat="45.9811" lon="4.80993">
        <ele>239</ele>
        <time>2017-06-12T09:41:49Z</time>
      </trkpt>
      <trkpt lat="45.98105" lon="4.80983">
        <ele>239</ele>
        <time>2017-06-12T09:41:51Z</time>
      </trkpt>
      <trkpt lat="45.98103" lon="4.80978">
        <ele>239</ele>
        <time>2017-06-12T09:41:52Z</time>
      </trkpt>
      <trkpt lat="45.98101" lon="4.80971">
        <ele>239</ele>
        <time>2017-06-12T09:41:53Z</time>
      </trkpt>
      <trkpt lat="45.98099" lon="4.80964">
        <ele>239</ele>
        <time>2017-06-12T09:41:54Z</time>
      </trkpt>
      <trkpt lat="45.98097" lon="4.80956">
        <ele>238</ele>
        <time>2017-06-12T09:41:55Z</time>
      </trkpt>
      <trkpt lat="45.98096" lon="4.80946">
        <ele>238</ele>
        <time>2017-06-12T09:41:56Z</time>
      </trkpt>
      <trkpt lat="45.98092" lon="4.80936">
        <ele>238</ele>
        <time>2017-06-12T09:41:57Z</time>
      </trkpt>
      <trkpt lat="45.98089" lon="4.80926">
        <ele>238</ele>
        <time>2017-06-12T09:41:58Z</time>
      </trkpt>
      <trkpt lat="45.98086" lon="4.80915">
        <ele>238</ele>
        <time>2017-06-12T09:41:59Z</time>
      </trkpt>
      <trkpt lat="45.98083" lon="4.80904">
        <ele>238</ele>
        <time>2017-06-12T09:42:00Z</time>
      </trkpt>
      <trkpt lat="45.9808" lon="4.80892">
        <ele>238</ele>
        <time>2017-06-12T09:42:01Z</time>
      </trkpt>
      <trkpt lat="45.98077" lon="4.80879">
        <ele>237</ele>
        <time>2017-06-12T09:42:02Z</time>
      </trkpt>
      <trkpt lat="45.98074" lon="4.80866">
        <ele>237</ele>
        <time>2017-06-12T09:42:03Z</time>
      </trkpt>
      <trkpt lat="45.98071" lon="4.80853">
        <ele>236</ele>
        <time>2017-06-12T09:42:04Z</time>
      </trkpt>
      <trkpt lat="45.98069" lon="4.8084">
        <ele>236</ele>
        <time>2017-06-12T09:42:05Z</time>
      </trkpt>
      <trkpt lat="45.98065" lon="4.80827">
        <ele>234</ele>
        <time>2017-06-12T09:42:06Z</time>
      </trkpt>
      <trkpt lat="45.98061" lon="4.80815">
        <ele>234</ele>
        <time>2017-06-12T09:42:07Z</time>
      </trkpt>
      <trkpt lat="45.98058" lon="4.80803">
        <ele>234</ele>
        <time>2017-06-12T09:42:08Z</time>
      </trkpt>
      <trkpt lat="45.98056" lon="4.80791">
        <ele>233</ele>
        <time>2017-06-12T09:42:09Z</time>
      </trkpt>
      <trkpt lat="45.98053" lon="4.80781">
        <ele>233</ele>
        <time>2017-06-12T09:42:10Z</time>
      </trkpt>
      <trkpt lat="45.98051" lon="4.80771">
        <ele>233</ele>
        <time>2017-06-12T09:42:11Z</time>
      </trkpt>
      <trkpt lat="45.98048" lon="4.80762">
        <ele>233</ele>
        <time>2017-06-12T09:42:12Z</time>
      </trkpt>
      <trkpt lat="45.98046" lon="4.80754">
        <ele>233</ele>
        <time>2017-06-12T09:42:13Z</time>
      </trkpt>
      <trkpt lat="45.98044" lon="4.80745">
        <ele>231</ele>
        <time>2017-06-12T09:42:14Z</time>
      </trkpt>
      <trkpt lat="45.98042" lon="4.80737">
        <ele>231</ele>
        <time>2017-06-12T09:42:15Z</time>
      </trkpt>
      <trkpt lat="45.9804" lon="4.8073">
        <ele>231</ele>
        <time>2017-06-12T09:42:16Z</time>
      </trkpt>
      <trkpt lat="45.98039" lon="4.80723">
        <ele>231</ele>
        <time>2017-06-12T09:42:17Z</time>
      </trkpt>
      <trkpt lat="45.98037" lon="4.80712">
        <ele>231</ele>
        <time>2017-06-12T09:42:19Z</time>
      </trkpt>
      <trkpt lat="45.98036" lon="4.80706">
        <ele>231</ele>
        <time>2017-06-12T09:42:20Z</time>
      </trkpt>
      <trkpt lat="45.98041" lon="4.80698">
        <ele>230</ele>
        <time>2017-06-12T09:42:22Z</time>
      </trkpt>
      <trkpt lat="45.98046" lon="4.80696">
        <ele>230</ele>
        <time>2017-06-12T09:42:23Z</time>
      </trkpt>
      <trkpt lat="45.98051" lon="4.80695">
        <ele>230</ele>
        <time>2017-06-12T09:42:24Z</time>
      </trkpt>
      <trkpt lat="45.98056" lon="4.80694">
        <ele>230</ele>
        <time>2017-06-12T09:42:25Z</time>
      </trkpt>
      <trkpt lat="45.98061" lon="4.80695">
        <ele>230</ele>
        <time>2017-06-12T09:42:26Z</time>
      </trkpt>
      <trkpt lat="45.98067" lon="4.80695">
        <ele>230</ele>
        <time>2017-06-12T09:42:27Z</time>
      </trkpt>
      <trkpt lat="45.98072" lon="4.80694">
        <ele>230</ele>
        <time>2017-06-12T09:42:28Z</time>
      </trkpt>
      <trkpt lat="45.98079" lon="4.80694">
        <ele>230</ele>
        <time>2017-06-12T09:42:29Z</time>
      </trkpt>
      <trkpt lat="45.98085" lon="4.80695">
        <ele>228</ele>
        <time>2017-06-12T09:42:30Z</time>
      </trkpt>
      <trkpt lat="45.98091" lon="4.80695">
        <ele>228</ele>
        <time>2017-06-12T09:42:31Z</time>
      </trkpt>
      <trkpt lat="45.98098" lon="4.80695">
        <ele>228</ele>
        <time>2017-06-12T09:42:32Z</time>
      </trkpt>
      <trkpt lat="45.98105" lon="4.80694">
        <ele>228</ele>
        <time>2017-06-12T09:42:33Z</time>
      </trkpt>
      <trkpt lat="45.98112" lon="4.80695">
        <ele>228</ele>
        <time>2017-06-12T09:42:34Z</time>
      </trkpt>
      <trkpt lat="45.98119" lon="4.80694">
        <ele>228</ele>
        <time>2017-06-12T09:42:35Z</time>
      </trkpt>
      <trkpt lat="45.98125" lon="4.80694">
        <ele>228</ele>
        <time>2017-06-12T09:42:36Z</time>
      </trkpt>
      <trkpt lat="45.98132" lon="4.80695">
        <ele>228</ele>
        <time>2017-06-12T09:42:37Z</time>
      </trkpt>
      <trkpt lat="45.98138" lon="4.80695">
        <ele>228</ele>
        <time>2017-06-12T09:42:38Z</time>
      </trkpt>
      <trkpt lat="45.98145" lon="4.80695">
        <ele>228</ele>
        <time>2017-06-12T09:42:39Z</time>
      </trkpt>
      <trkpt lat="45.98152" lon="4.80695">
        <ele>228</ele>
        <time>2017-06-12T09:42:40Z</time>
      </trkpt>
      <trkpt lat="45.98158" lon="4.80694">
        <ele>228</ele>
        <time>2017-06-12T09:42:41Z</time>
      </trkpt>
      <trkpt lat="45.98165" lon="4.80693">
        <ele>227</ele>
        <time>2017-06-12T09:42:42Z</time>
      </trkpt>
      <trkpt lat="45.98171" lon="4.80692">
        <ele>225</ele>
        <time>2017-06-12T09:42:43Z</time>
      </trkpt>
      <trkpt lat="45.98178" lon="4.80691">
        <ele>225</ele>
        <time>2017-06-12T09:42:44Z</time>
      </trkpt>
      <trkpt lat="45.98185" lon="4.80689">
        <ele>225</ele>
        <time>2017-06-12T09:42:45Z</time>
      </trkpt>
      <trkpt lat="45.98191" lon="4.80687">
        <ele>225</ele>
        <time>2017-06-12T09:42:46Z</time>
      </trkpt>
      <trkpt lat="45.98198" lon="4.80684">
        <ele>225</ele>
        <time>2017-06-12T09:42:47Z</time>
      </trkpt>
      <trkpt lat="45.98204" lon="4.80681">
        <ele>225</ele>
        <time>2017-06-12T09:42:48Z</time>
      </trkpt>
      <trkpt lat="45.9821" lon="4.80678">
        <ele>224</ele>
        <time>2017-06-12T09:42:49Z</time>
      </trkpt>
      <trkpt lat="45.98216" lon="4.80673">
        <ele>224</ele>
        <time>2017-06-12T09:42:50Z</time>
      </trkpt>
      <trkpt lat="45.98221" lon="4.80666">
        <ele>224</ele>
        <time>2017-06-12T09:42:51Z</time>
      </trkpt>
      <trkpt lat="45.98226" lon="4.80659">
        <ele>223</ele>
        <time>2017-06-12T09:42:52Z</time>
      </trkpt>
      <trkpt lat="45.9823" lon="4.80651">
        <ele>223</ele>
        <time>2017-06-12T09:42:53Z</time>
      </trkpt>
      <trkpt lat="45.98234" lon="4.80642">
        <ele>223</ele>
        <time>2017-06-12T09:42:54Z</time>
      </trkpt>
      <trkpt lat="45.98237" lon="4.80633">
        <ele>224</ele>
        <time>2017-06-12T09:42:55Z</time>
      </trkpt>
      <trkpt lat="45.9824" lon="4.80623">
        <ele>224</ele>
        <time>2017-06-12T09:42:56Z</time>
      </trkpt>
      <trkpt lat="45.98243" lon="4.80614">
        <ele>224</ele>
        <time>2017-06-12T09:42:57Z</time>
      </trkpt>
      <trkpt lat="45.98246" lon="4.80605">
        <ele>224</ele>
        <time>2017-06-12T09:42:58Z</time>
      </trkpt>
      <trkpt lat="45.98249" lon="4.80595">
        <ele>224</ele>
        <time>2017-06-12T09:42:59Z</time>
      </trkpt>
      <trkpt lat="45.98252" lon="4.80586">
        <ele>224</ele>
        <time>2017-06-12T09:43:00Z</time>
      </trkpt>
      <trkpt lat="45.98254" lon="4.80576">
        <ele>224</ele>
        <time>2017-06-12T09:43:01Z</time>
      </trkpt>
      <trkpt lat="45.98256" lon="4.80567">
        <ele>224</ele>
        <time>2017-06-12T09:43:02Z</time>
      </trkpt>
      <trkpt lat="45.98259" lon="4.80558">
        <ele>224</ele>
        <time>2017-06-12T09:43:03Z</time>
      </trkpt>
      <trkpt lat="45.98261" lon="4.8055">
        <ele>224</ele>
        <time>2017-06-12T09:43:04Z</time>
      </trkpt>
      <trkpt lat="45.98263" lon="4.80542">
        <ele>224</ele>
        <time>2017-06-12T09:43:05Z</time>
      </trkpt>
      <trkpt lat="45.98266" lon="4.80534">
        <ele>224</ele>
        <time>2017-06-12T09:43:06Z</time>
      </trkpt>
      <trkpt lat="45.98269" lon="4.80525">
        <ele>224</ele>
        <time>2017-06-12T09:43:07Z</time>
      </trkpt>
      <trkpt lat="45.98272" lon="4.80517">
        <ele>224</ele>
        <time>2017-06-12T09:43:08Z</time>
      </trkpt>
      <trkpt lat="45.98274" lon="4.80509">
        <ele>223</ele>
        <time>2017-06-12T09:43:09Z</time>
      </trkpt>
      <trkpt lat="45.98276" lon="4.80501">
        <ele>223</ele>
        <time>2017-06-12T09:43:10Z</time>
      </trkpt>
      <trkpt lat="45.98278" lon="4.80493">
        <ele>223</ele>
        <time>2017-06-12T09:43:11Z</time>
      </trkpt>
      <trkpt lat="45.98279" lon="4.80487">
        <ele>223</ele>
        <time>2017-06-12T09:43:12Z</time>
      </trkpt>
      <trkpt lat="45.9828" lon="4.8048">
        <ele>223</ele>
        <time>2017-06-12T09:43:13Z</time>
      </trkpt>
      <trkpt lat="45.98282" lon="4.80473">
        <ele>223</ele>
        <time>2017-06-12T09:43:14Z</time>
      </trkpt>
      <trkpt lat="45.98284" lon="4.80466">
        <ele>223</ele>
        <time>2017-06-12T09:43:15Z</time>
      </trkpt>
      <trkpt lat="45.98286" lon="4.80454">
        <ele>224</ele>
        <time>2017-06-12T09:43:17Z</time>
      </trkpt>
      <trkpt lat="45.98287" lon="4.80449">
        <ele>224</ele>
        <time>2017-06-12T09:43:18Z</time>
      </trkpt>
      <trkpt lat="45.98288" lon="4.80443">
        <ele>224</ele>
        <time>2017-06-12T09:43:19Z</time>
      </trkpt>
      <trkpt lat="45.9829" lon="4.80436">
        <ele>224</ele>
        <time>2017-06-12T09:43:20Z</time>
      </trkpt>
      <trkpt lat="45.98291" lon="4.80429">
        <ele>224</ele>
        <time>2017-06-12T09:43:21Z</time>
      </trkpt>
      <trkpt lat="45.98292" lon="4.80422">
        <ele>224</ele>
        <time>2017-06-12T09:43:22Z</time>
      </trkpt>
      <trkpt lat="45.98293" lon="4.80416">
        <ele>224</ele>
        <time>2017-06-12T09:43:23Z</time>
      </trkpt>
      <trkpt lat="45.98294" lon="4.80409">
        <ele>224</ele>
        <time>2017-06-12T09:43:24Z</time>
      </trkpt>
      <trkpt lat="45.98296" lon="4.80403">
        <ele>224</ele>
        <time>2017-06-12T09:43:25Z</time>
      </trkpt>
      <trkpt lat="45.98297" lon="4.80396">
        <ele>225</ele>
        <time>2017-06-12T09:43:26Z</time>
      </trkpt>
      <trkpt lat="45.98299" lon="4.80389">
        <ele>225</ele>
        <time>2017-06-12T09:43:27Z</time>
      </trkpt>
      <trkpt lat="45.98301" lon="4.80382">
        <ele>225</ele>
        <time>2017-06-12T09:43:28Z</time>
      </trkpt>
      <trkpt lat="45.98304" lon="4.8037">
        <ele>225</ele>
        <time>2017-06-12T09:43:30Z</time>
      </trkpt>
      <trkpt lat="45.98305" lon="4.80364">
        <ele>225</ele>
        <time>2017-06-12T09:43:31Z</time>
      </trkpt>
      <trkpt lat="45.98306" lon="4.80357">
        <ele>225</ele>
        <time>2017-06-12T09:43:32Z</time>
      </trkpt>
      <trkpt lat="45.98307" lon="4.8035">
        <ele>226</ele>
        <time>2017-06-12T09:43:33Z</time>
      </trkpt>
      <trkpt lat="45.98308" lon="4.80344">
        <ele>226</ele>
        <time>2017-06-12T09:43:34Z</time>
      </trkpt>
      <trkpt lat="45.98309" lon="4.80337">
        <ele>226</ele>
        <time>2017-06-12T09:43:35Z</time>
      </trkpt>
      <trkpt lat="45.9831" lon="4.8033">
        <ele>227</ele>
        <time>2017-06-12T09:43:36Z</time>
      </trkpt>
      <trkpt lat="45.98312" lon="4.80324">
        <ele>227</ele>
        <time>2017-06-12T09:43:37Z</time>
      </trkpt>
      <trkpt lat="45.98313" lon="4.80318">
        <ele>227</ele>
        <time>2017-06-12T09:43:38Z</time>
      </trkpt>
      <trkpt lat="45.98314" lon="4.80311">
        <ele>227</ele>
        <time>2017-06-12T09:43:39Z</time>
      </trkpt>
      <trkpt lat="45.98317" lon="4.803">
        <ele>226</ele>
        <time>2017-06-12T09:43:41Z</time>
      </trkpt>
      <trkpt lat="45.98319" lon="4.80294">
        <ele>226</ele>
        <time>2017-06-12T09:43:42Z</time>
      </trkpt>
      <trkpt lat="45.9832" lon="4.80288">
        <ele>227</ele>
        <time>2017-06-12T09:43:43Z</time>
      </trkpt>
      <trkpt lat="45.98321" lon="4.80281">
        <ele>227</ele>
        <time>2017-06-12T09:43:44Z</time>
      </trkpt>
      <trkpt lat="45.98323" lon="4.80274">
        <ele>227</ele>
        <time>2017-06-12T09:43:45Z</time>
      </trkpt>
      <trkpt lat="45.98324" lon="4.80267">
        <ele>227</ele>
        <time>2017-06-12T09:43:46Z</time>
      </trkpt>
      <trkpt lat="45.98325" lon="4.8026">
        <ele>228</ele>
        <time>2017-06-12T09:43:47Z</time>
      </trkpt>
      <trkpt lat="45.98327" lon="4.80253">
        <ele>229</ele>
        <time>2017-06-12T09:43:48Z</time>
      </trkpt>
      <trkpt lat="45.98329" lon="4.80246">
        <ele>229</ele>
        <time>2017-06-12T09:43:49Z</time>
      </trkpt>
      <trkpt lat="45.98331" lon="4.8024">
        <ele>229</ele>
        <time>2017-06-12T09:43:50Z</time>
      </trkpt>
      <trkpt lat="45.98333" lon="4.80228">
        <ele>228</ele>
        <time>2017-06-12T09:43:52Z</time>
      </trkpt>
      <trkpt lat="45.98333" lon="4.80222">
        <ele>227</ele>
        <time>2017-06-12T09:43:53Z</time>
      </trkpt>
      <trkpt lat="45.98332" lon="4.80212">
        <ele>227</ele>
        <time>2017-06-12T09:43:55Z</time>
      </trkpt>
      <trkpt lat="45.98331" lon="4.80208">
        <ele>227</ele>
        <time>2017-06-12T09:43:56Z</time>
      </trkpt>
      <trkpt lat="45.98329" lon="4.802">
        <ele>227</ele>
        <time>2017-06-12T09:43:58Z</time>
      </trkpt>
      <trkpt lat="45.98328" lon="4.80193">
        <ele>227</ele>
        <time>2017-06-12T09:43:59Z</time>
      </trkpt>
      <trkpt lat="45.98326" lon="4.80184">
        <ele>227</ele>
        <time>2017-06-12T09:44:01Z</time>
      </trkpt>
      <trkpt lat="45.98324" lon="4.80179">
        <ele>227</ele>
        <time>2017-06-12T09:44:02Z</time>
      </trkpt>
      <trkpt lat="45.98322" lon="4.80173">
        <ele>227</ele>
        <time>2017-06-12T09:44:03Z</time>
      </trkpt>
      <trkpt lat="45.98319" lon="4.80166">
        <ele>228</ele>
        <time>2017-06-12T09:44:04Z</time>
      </trkpt>
      <trkpt lat="45.98317" lon="4.80159">
        <ele>228</ele>
        <time>2017-06-12T09:44:05Z</time>
      </trkpt>
      <trkpt lat="45.98314" lon="4.80152">
        <ele>228</ele>
        <time>2017-06-12T09:44:06Z</time>
      </trkpt>
      <trkpt lat="45.98311" lon="4.80141">
        <ele>228</ele>
        <time>2017-06-12T09:44:08Z</time>
      </trkpt>
      <trkpt lat="45.98308" lon="4.80135">
        <ele>228</ele>
        <time>2017-06-12T09:44:09Z</time>
      </trkpt>
      <trkpt lat="45.98306" lon="4.80129">
        <ele>228</ele>
        <time>2017-06-12T09:44:10Z</time>
      </trkpt>
      <trkpt lat="45.98303" lon="4.80123">
        <ele>228</ele>
        <time>2017-06-12T09:44:11Z</time>
      </trkpt>
      <trkpt lat="45.98301" lon="4.80118">
        <ele>228</ele>
        <time>2017-06-12T09:44:12Z</time>
      </trkpt>
      <trkpt lat="45.98299" lon="4.80112">
        <ele>228</ele>
        <time>2017-06-12T09:44:13Z</time>
      </trkpt>
      <trkpt lat="45.98296" lon="4.80106">
        <ele>228</ele>
        <time>2017-06-12T09:44:14Z</time>
      </trkpt>
      <trkpt lat="45.98294" lon="4.801">
        <ele>228</ele>
        <time>2017-06-12T09:44:15Z</time>
      </trkpt>
      <trkpt lat="45.9829" lon="4.80089">
        <ele>228</ele>
        <time>2017-06-12T09:44:17Z</time>
      </trkpt>
      <trkpt lat="45.98288" lon="4.80083">
        <ele>229</ele>
        <time>2017-06-12T09:44:18Z</time>
      </trkpt>
      <trkpt lat="45.98286" lon="4.80077">
        <ele>229</ele>
        <time>2017-06-12T09:44:19Z</time>
      </trkpt>
      <trkpt lat="45.98285" lon="4.80071">
        <ele>229</ele>
        <time>2017-06-12T09:44:20Z</time>
      </trkpt>
      <trkpt lat="45.98282" lon="4.80059">
        <ele>229</ele>
        <time>2017-06-12T09:44:22Z</time>
      </trkpt>
      <trkpt lat="45.9828" lon="4.80054">
        <ele>229</ele>
        <time>2017-06-12T09:44:23Z</time>
      </trkpt>
      <trkpt lat="45.98276" lon="4.80042">
        <ele>229</ele>
        <time>2017-06-12T09:44:25Z</time>
      </trkpt>
      <trkpt lat="45.98274" lon="4.80036">
        <ele>229</ele>
        <time>2017-06-12T09:44:26Z</time>
      </trkpt>
      <trkpt lat="45.9827" lon="4.80025">
        <ele>229</ele>
        <time>2017-06-12T09:44:28Z</time>
      </trkpt>
      <trkpt lat="45.98268" lon="4.80019">
        <ele>228</ele>
        <time>2017-06-12T09:44:29Z</time>
      </trkpt>
      <trkpt lat="45.98266" lon="4.80011">
        <ele>228</ele>
        <time>2017-06-12T09:44:30Z</time>
      </trkpt>
      <trkpt lat="45.98263" lon="4.80004">
        <ele>228</ele>
        <time>2017-06-12T09:44:31Z</time>
      </trkpt>
      <trkpt lat="45.98261" lon="4.79996">
        <ele>227</ele>
        <time>2017-06-12T09:44:32Z</time>
      </trkpt>
      <trkpt lat="45.98259" lon="4.79989">
        <ele>228</ele>
        <time>2017-06-12T09:44:33Z</time>
      </trkpt>
      <trkpt lat="45.98257" lon="4.79981">
        <ele>228</ele>
        <time>2017-06-12T09:44:34Z</time>
      </trkpt>
      <trkpt lat="45.98254" lon="4.79974">
        <ele>228</ele>
        <time>2017-06-12T09:44:35Z</time>
      </trkpt>
      <trkpt lat="45.98252" lon="4.79967">
        <ele>228</ele>
        <time>2017-06-12T09:44:36Z</time>
      </trkpt>
      <trkpt lat="45.98249" lon="4.79961">
        <ele>225</ele>
        <time>2017-06-12T09:44:37Z</time>
      </trkpt>
      <trkpt lat="45.98248" lon="4.79955">
        <ele>225</ele>
        <time>2017-06-12T09:44:38Z</time>
      </trkpt>
      <trkpt lat="45.98246" lon="4.79948">
        <ele>225</ele>
        <time>2017-06-12T09:44:39Z</time>
      </trkpt>
      <trkpt lat="45.98245" lon="4.79942">
        <ele>225</ele>
        <time>2017-06-12T09:44:40Z</time>
      </trkpt>
      <trkpt lat="45.98243" lon="4.79935">
        <ele>225</ele>
        <time>2017-06-12T09:44:41Z</time>
      </trkpt>
      <trkpt lat="45.98241" lon="4.79929">
        <ele>225</ele>
        <time>2017-06-12T09:44:42Z</time>
      </trkpt>
      <trkpt lat="45.98239" lon="4.79923">
        <ele>225</ele>
        <time>2017-06-12T09:44:43Z</time>
      </trkpt>
      <trkpt lat="45.98237" lon="4.79917">
        <ele>225</ele>
        <time>2017-06-12T09:44:44Z</time>
      </trkpt>
      <trkpt lat="45.98234" lon="4.79911">
        <ele>225</ele>
        <time>2017-06-12T09:44:45Z</time>
      </trkpt>
      <trkpt lat="45.98232" lon="4.79904">
        <ele>225</ele>
        <time>2017-06-12T09:44:46Z</time>
      </trkpt>
      <trkpt lat="45.98231" lon="4.79899">
        <ele>225</ele>
        <time>2017-06-12T09:44:47Z</time>
      </trkpt>
      <trkpt lat="45.98229" lon="4.79893">
        <ele>225</ele>
        <time>2017-06-12T09:44:48Z</time>
      </trkpt>
      <trkpt lat="45.98227" lon="4.79887">
        <ele>225</ele>
        <time>2017-06-12T09:44:49Z</time>
      </trkpt>
      <trkpt lat="45.98224" lon="4.79881">
        <ele>225</ele>
        <time>2017-06-12T09:44:50Z</time>
      </trkpt>
      <trkpt lat="45.98222" lon="4.79875">
        <ele>225</ele>
        <time>2017-06-12T09:44:51Z</time>
      </trkpt>
      <trkpt lat="45.9822" lon="4.79868">
        <ele>225</ele>
        <time>2017-06-12T09:44:52Z</time>
      </trkpt>
      <trkpt lat="45.98218" lon="4.7986">
        <ele>225</ele>
        <time>2017-06-12T09:44:53Z</time>
      </trkpt>
      <trkpt lat="45.98215" lon="4.79852">
        <ele>225</ele>
        <time>2017-06-12T09:44:54Z</time>
      </trkpt>
      <trkpt lat="45.98213" lon="4.79845">
        <ele>225</ele>
        <time>2017-06-12T09:44:55Z</time>
      </trkpt>
      <trkpt lat="45.9821" lon="4.79838">
        <ele>225</ele>
        <time>2017-06-12T09:44:56Z</time>
      </trkpt>
      <trkpt lat="45.98208" lon="4.79831">
        <ele>226</ele>
        <time>2017-06-12T09:44:57Z</time>
      </trkpt>
      <trkpt lat="45.98205" lon="4.79824">
        <ele>226</ele>
        <time>2017-06-12T09:44:58Z</time>
      </trkpt>
      <trkpt lat="45.98203" lon="4.79817">
        <ele>226</ele>
        <time>2017-06-12T09:44:59Z</time>
      </trkpt>
      <trkpt lat="45.982" lon="4.7981">
        <ele>226</ele>
        <time>2017-06-12T09:45:00Z</time>
      </trkpt>
      <trkpt lat="45.98197" lon="4.79801">
        <ele>226</ele>
        <time>2017-06-12T09:45:01Z</time>
      </trkpt>
      <trkpt lat="45.98194" lon="4.79794">
        <ele>226</ele>
        <time>2017-06-12T09:45:02Z</time>
      </trkpt>
      <trkpt lat="45.98192" lon="4.79788">
        <ele>226</ele>
        <time>2017-06-12T09:45:03Z</time>
      </trkpt>
      <trkpt lat="45.98191" lon="4.7978">
        <ele>226</ele>
        <time>2017-06-12T09:45:04Z</time>
      </trkpt>
      <trkpt lat="45.98189" lon="4.79772">
        <ele>226</ele>
        <time>2017-06-12T09:45:05Z</time>
      </trkpt>
      <trkpt lat="45.98188" lon="4.79765">
        <ele>226</ele>
        <time>2017-06-12T09:45:06Z</time>
      </trkpt>
      <trkpt lat="45.98188" lon="4.79759">
        <ele>226</ele>
        <time>2017-06-12T09:45:07Z</time>
      </trkpt>
      <trkpt lat="45.98186" lon="4.79748">
        <ele>227</ele>
        <time>2017-06-12T09:45:09Z</time>
      </trkpt>
      <trkpt lat="45.98183" lon="4.79744">
        <ele>227</ele>
        <time>2017-06-12T09:45:10Z</time>
      </trkpt>
      <trkpt lat="45.98179" lon="4.79741">
        <ele>227</ele>
        <time>2017-06-12T09:45:11Z</time>
      </trkpt>
      <trkpt lat="45.98174" lon="4.79741">
        <ele>227</ele>
        <time>2017-06-12T09:45:12Z</time>
      </trkpt>
      <trkpt lat="45.98169" lon="4.79743">
        <ele>227</ele>
        <time>2017-06-12T09:45:13Z</time>
      </trkpt>
      <trkpt lat="45.98163" lon="4.79747">
        <ele>226</ele>
        <time>2017-06-12T09:45:14Z</time>
      </trkpt>
      <trkpt lat="45.98158" lon="4.79751">
        <ele>225</ele>
        <time>2017-06-12T09:45:15Z</time>
      </trkpt>
      <trkpt lat="45.98153" lon="4.79754">
        <ele>225</ele>
        <time>2017-06-12T09:45:16Z</time>
      </trkpt>
      <trkpt lat="45.98147" lon="4.79756">
        <ele>225</ele>
        <time>2017-06-12T09:45:17Z</time>
      </trkpt>
      <trkpt lat="45.9814" lon="4.79757">
        <ele>224</ele>
        <time>2017-06-12T09:45:18Z</time>
      </trkpt>
      <trkpt lat="45.98134" lon="4.79758">
        <ele>224</ele>
        <time>2017-06-12T09:45:19Z</time>
      </trkpt>
      <trkpt lat="45.98127" lon="4.79759">
        <ele>224</ele>
        <time>2017-06-12T09:45:20Z</time>
      </trkpt>
      <trkpt lat="45.9812" lon="4.7976">
        <ele>224</ele>
        <time>2017-06-12T09:45:21Z</time>
      </trkpt>
      <trkpt lat="45.98113" lon="4.79762">
        <ele>224</ele>
        <time>2017-06-12T09:45:22Z</time>
      </trkpt>
      <trkpt lat="45.98106" lon="4.79763">
        <ele>224</ele>
        <time>2017-06-12T09:45:23Z</time>
      </trkpt>
      <trkpt lat="45.98098" lon="4.79764">
        <ele>223</ele>
        <time>2017-06-12T09:45:24Z</time>
      </trkpt>
      <trkpt lat="45.98091" lon="4.79765">
        <ele>223</ele>
        <time>2017-06-12T09:45:25Z</time>
      </trkpt>
      <trkpt lat="45.98083" lon="4.79766">
        <ele>223</ele>
        <time>2017-06-12T09:45:26Z</time>
      </trkpt>
      <trkpt lat="45.98076" lon="4.79768">
        <ele>223</ele>
        <time>2017-06-12T09:45:27Z</time>
      </trkpt>
      <trkpt lat="45.98068" lon="4.79769">
        <ele>223</ele>
        <time>2017-06-12T09:45:28Z</time>
      </trkpt>
      <trkpt lat="45.98061" lon="4.7977">
        <ele>223</ele>
        <time>2017-06-12T09:45:29Z</time>
      </trkpt>
      <trkpt lat="45.98053" lon="4.7977">
        <ele>223</ele>
        <time>2017-06-12T09:45:30Z</time>
      </trkpt>
      <trkpt lat="45.98046" lon="4.79772">
        <ele>223</ele>
        <time>2017-06-12T09:45:31Z</time>
      </trkpt>
      <trkpt lat="45.98039" lon="4.79773">
        <ele>223</ele>
        <time>2017-06-12T09:45:32Z</time>
      </trkpt>
      <trkpt lat="45.98032" lon="4.79774">
        <ele>223</ele>
        <time>2017-06-12T09:45:33Z</time>
      </trkpt>
      <trkpt lat="45.98025" lon="4.79774">
        <ele>223</ele>
        <time>2017-06-12T09:45:34Z</time>
      </trkpt>
      <trkpt lat="45.98019" lon="4.79775">
        <ele>223</ele>
        <time>2017-06-12T09:45:35Z</time>
      </trkpt>
      <trkpt lat="45.98012" lon="4.79776">
        <ele>223</ele>
        <time>2017-06-12T09:45:36Z</time>
      </trkpt>
      <trkpt lat="45.98005" lon="4.79777">
        <ele>223</ele>
        <time>2017-06-12T09:45:37Z</time>
      </trkpt>
      <trkpt lat="45.97998" lon="4.79778">
        <ele>224</ele>
        <time>2017-06-12T09:45:38Z</time>
      </trkpt>
      <trkpt lat="45.97992" lon="4.79778">
        <ele>224</ele>
        <time>2017-06-12T09:45:39Z</time>
      </trkpt>
      <trkpt lat="45.97985" lon="4.79779">
        <ele>224</ele>
        <time>2017-06-12T09:45:40Z</time>
      </trkpt>
      <trkpt lat="45.97979" lon="4.7978">
        <ele>224</ele>
        <time>2017-06-12T09:45:41Z</time>
      </trkpt>
      <trkpt lat="45.97972" lon="4.79781">
        <ele>224</ele>
        <time>2017-06-12T09:45:42Z</time>
      </trkpt>
      <trkpt lat="45.97966" lon="4.79781">
        <ele>224</ele>
        <time>2017-06-12T09:45:43Z</time>
      </trkpt>
      <trkpt lat="45.9796" lon="4.79782">
        <ele>224</ele>
        <time>2017-06-12T09:45:44Z</time>
      </trkpt>
      <trkpt lat="45.97955" lon="4.79782">
        <ele>224</ele>
        <time>2017-06-12T09:45:45Z</time>
      </trkpt>
      <trkpt lat="45.97949" lon="4.79783">
        <ele>224</ele>
        <time>2017-06-12T09:45:46Z</time>
      </trkpt>
      <trkpt lat="45.97943" lon="4.79784">
        <ele>224</ele>
        <time>2017-06-12T09:45:47Z</time>
      </trkpt>
      <trkpt lat="45.97937" lon="4.79785">
        <ele>224</ele>
        <time>2017-06-12T09:45:48Z</time>
      </trkpt>
      <trkpt lat="45.97931" lon="4.79786">
        <ele>224</ele>
        <time>2017-06-12T09:45:49Z</time>
      </trkpt>
      <trkpt lat="45.97925" lon="4.79787">
        <ele>224</ele>
        <time>2017-06-12T09:45:50Z</time>
      </trkpt>
      <trkpt lat="45.97918" lon="4.79789">
        <ele>224</ele>
        <time>2017-06-12T09:45:51Z</time>
      </trkpt>
      <trkpt lat="45.97911" lon="4.7979">
        <ele>225</ele>
        <time>2017-06-12T09:45:52Z</time>
      </trkpt>
      <trkpt lat="45.97904" lon="4.79791">
        <ele>225</ele>
        <time>2017-06-12T09:45:53Z</time>
      </trkpt>
      <trkpt lat="45.97898" lon="4.79792">
        <ele>224</ele>
        <time>2017-06-12T09:45:54Z</time>
      </trkpt>
      <trkpt lat="45.97891" lon="4.79793">
        <ele>224</ele>
        <time>2017-06-12T09:45:55Z</time>
      </trkpt>
      <trkpt lat="45.97884" lon="4.79794">
        <ele>224</ele>
        <time>2017-06-12T09:45:56Z</time>
      </trkpt>
      <trkpt lat="45.97878" lon="4.79795">
        <ele>224</ele>
        <time>2017-06-12T09:45:57Z</time>
      </trkpt>
      <trkpt lat="45.97872" lon="4.79796">
        <ele>224</ele>
        <time>2017-06-12T09:45:58Z</time>
      </trkpt>
      <trkpt lat="45.97865" lon="4.79797">
        <ele>224</ele>
        <time>2017-06-12T09:45:59Z</time>
      </trkpt>
      <trkpt lat="45.97859" lon="4.79798">
        <ele>224</ele>
        <time>2017-06-12T09:46:00Z</time>
      </trkpt>
      <trkpt lat="45.97852" lon="4.79799">
        <ele>224</ele>
        <time>2017-06-12T09:46:01Z</time>
      </trkpt>
      <trkpt lat="45.97845" lon="4.798">
        <ele>224</ele>
        <time>2017-06-12T09:46:02Z</time>
      </trkpt>
      <trkpt lat="45.97837" lon="4.79802">
        <ele>224</ele>
        <time>2017-06-12T09:46:03Z</time>
      </trkpt>
      <trkpt lat="45.97829" lon="4.79804">
        <ele>223</ele>
        <time>2017-06-12T09:46:04Z</time>
      </trkpt>
      <trkpt lat="45.97822" lon="4.79804">
        <ele>223</ele>
        <time>2017-06-12T09:46:05Z</time>
      </trkpt>
      <trkpt lat="45.97814" lon="4.79805">
        <ele>223</ele>
        <time>2017-06-12T09:46:06Z</time>
      </trkpt>
      <trkpt lat="45.97807" lon="4.79808">
        <ele>223</ele>
        <time>2017-06-12T09:46:07Z</time>
      </trkpt>
      <trkpt lat="45.978" lon="4.79809">
        <ele>223</ele>
        <time>2017-06-12T09:46:08Z</time>
      </trkpt>
      <trkpt lat="45.97793" lon="4.79811">
        <ele>223</ele>
        <time>2017-06-12T09:46:09Z</time>
      </trkpt>
      <trkpt lat="45.97787" lon="4.79812">
        <ele>223</ele>
        <time>2017-06-12T09:46:10Z</time>
      </trkpt>
      <trkpt lat="45.9778" lon="4.79813">
        <ele>223</ele>
        <time>2017-06-12T09:46:11Z</time>
      </trkpt>
      <trkpt lat="45.97773" lon="4.79814">
        <ele>223</ele>
        <time>2017-06-12T09:46:12Z</time>
      </trkpt>
      <trkpt lat="45.97767" lon="4.79815">
        <ele>223</ele>
        <time>2017-06-12T09:46:13Z</time>
      </trkpt>
      <trkpt lat="45.97761" lon="4.79816">
        <ele>223</ele>
        <time>2017-06-12T09:46:14Z</time>
      </trkpt>
      <trkpt lat="45.97756" lon="4.79817">
        <ele>223</ele>
        <time>2017-06-12T09:46:15Z</time>
      </trkpt>
      <trkpt lat="45.9775" lon="4.79818">
        <ele>223</ele>
        <time>2017-06-12T09:46:16Z</time>
      </trkpt>
      <trkpt lat="45.97744" lon="4.79819">
        <ele>223</ele>
        <time>2017-06-12T09:46:17Z</time>
      </trkpt>
      <trkpt lat="45.97738" lon="4.7982">
        <ele>223</ele>
        <time>2017-06-12T09:46:18Z</time>
      </trkpt>
      <trkpt lat="45.97732" lon="4.79822">
        <ele>223</ele>
        <time>2017-06-12T09:46:19Z</time>
      </trkpt>
      <trkpt lat="45.97726" lon="4.79823">
        <ele>223</ele>
        <time>2017-06-12T09:46:20Z</time>
      </trkpt>
      <trkpt lat="45.97719" lon="4.79824">
        <ele>223</ele>
        <time>2017-06-12T09:46:21Z</time>
      </trkpt>
      <trkpt lat="45.97713" lon="4.79825">
        <ele>223</ele>
        <time>2017-06-12T09:46:22Z</time>
      </trkpt>
      <trkpt lat="45.97706" lon="4.79826">
        <ele>223</ele>
        <time>2017-06-12T09:46:23Z</time>
      </trkpt>
      <trkpt lat="45.977" lon="4.79827">
        <ele>223</ele>
        <time>2017-06-12T09:46:24Z</time>
      </trkpt>
      <trkpt lat="45.97694" lon="4.79828">
        <ele>223</ele>
        <time>2017-06-12T09:46:25Z</time>
      </trkpt>
      <trkpt lat="45.97689" lon="4.7983">
        <ele>223</ele>
        <time>2017-06-12T09:46:26Z</time>
      </trkpt>
      <trkpt lat="45.97683" lon="4.79831">
        <ele>223</ele>
        <time>2017-06-12T09:46:27Z</time>
      </trkpt>
      <trkpt lat="45.97678" lon="4.79833">
        <ele>223</ele>
        <time>2017-06-12T09:46:28Z</time>
      </trkpt>
      <trkpt lat="45.97672" lon="4.79834">
        <ele>221</ele>
        <time>2017-06-12T09:46:29Z</time>
      </trkpt>
      <trkpt lat="45.97667" lon="4.79836">
        <ele>222</ele>
        <time>2017-06-12T09:46:30Z</time>
      </trkpt>
      <trkpt lat="45.97662" lon="4.79838">
        <ele>222</ele>
        <time>2017-06-12T09:46:31Z</time>
      </trkpt>
      <trkpt lat="45.97657" lon="4.79839">
        <ele>221</ele>
        <time>2017-06-12T09:46:32Z</time>
      </trkpt>
      <trkpt lat="45.97652" lon="4.7984">
        <ele>221</ele>
        <time>2017-06-12T09:46:33Z</time>
      </trkpt>
      <trkpt lat="45.97647" lon="4.79842">
        <ele>221</ele>
        <time>2017-06-12T09:46:34Z</time>
      </trkpt>
      <trkpt lat="45.97643" lon="4.79844">
        <ele>221</ele>
        <time>2017-06-12T09:46:35Z</time>
      </trkpt>
      <trkpt lat="45.97637" lon="4.79846">
        <ele>221</ele>
        <time>2017-06-12T09:46:36Z</time>
      </trkpt>
      <trkpt lat="45.97632" lon="4.79847">
        <ele>221</ele>
        <time>2017-06-12T09:46:37Z</time>
      </trkpt>
      <trkpt lat="45.97627" lon="4.79849">
        <ele>221</ele>
        <time>2017-06-12T09:46:38Z</time>
      </trkpt>
      <trkpt lat="45.97621" lon="4.79851">
        <ele>221</ele>
        <time>2017-06-12T09:46:39Z</time>
      </trkpt>
      <trkpt lat="45.97616" lon="4.79853">
        <ele>221</ele>
        <time>2017-06-12T09:46:40Z</time>
      </trkpt>
      <trkpt lat="45.9761" lon="4.79856">
        <ele>221</ele>
        <time>2017-06-12T09:46:41Z</time>
      </trkpt>
      <trkpt lat="45.97605" lon="4.79858">
        <ele>221</ele>
        <time>2017-06-12T09:46:42Z</time>
      </trkpt>
      <trkpt lat="45.97599" lon="4.7986">
        <ele>221</ele>
        <time>2017-06-12T09:46:43Z</time>
      </trkpt>
      <trkpt lat="45.97593" lon="4.79862">
        <ele>221</ele>
        <time>2017-06-12T09:46:44Z</time>
      </trkpt>
      <trkpt lat="45.97587" lon="4.79865">
        <ele>221</ele>
        <time>2017-06-12T09:46:45Z</time>
      </trkpt>
      <trkpt lat="45.97581" lon="4.79867">
        <ele>222</ele>
        <time>2017-06-12T09:46:46Z</time>
      </trkpt>
      <trkpt lat="45.97575" lon="4.79869">
        <ele>222</ele>
        <time>2017-06-12T09:46:47Z</time>
      </trkpt>
      <trkpt lat="45.97569" lon="4.79872">
        <ele>222</ele>
        <time>2017-06-12T09:46:48Z</time>
      </trkpt>
      <trkpt lat="45.97562" lon="4.79874">
        <ele>222</ele>
        <time>2017-06-12T09:46:49Z</time>
      </trkpt>
      <trkpt lat="45.97556" lon="4.79876">
        <ele>222</ele>
        <time>2017-06-12T09:46:50Z</time>
      </trkpt>
      <trkpt lat="45.97549" lon="4.79878">
        <ele>222</ele>
        <time>2017-06-12T09:46:51Z</time>
      </trkpt>
      <trkpt lat="45.97542" lon="4.7988">
        <ele>222</ele>
        <time>2017-06-12T09:46:52Z</time>
      </trkpt>
      <trkpt lat="45.97535" lon="4.79882">
        <ele>222</ele>
        <time>2017-06-12T09:46:53Z</time>
      </trkpt>
      <trkpt lat="45.97527" lon="4.79883">
        <ele>222</ele>
        <time>2017-06-12T09:46:54Z</time>
      </trkpt>
      <trkpt lat="45.97519" lon="4.79883">
        <ele>222</ele>
        <time>2017-06-12T09:46:55Z</time>
      </trkpt>
      <trkpt lat="45.97511" lon="4.79884">
        <ele>221</ele>
        <time>2017-06-12T09:46:56Z</time>
      </trkpt>
      <trkpt lat="45.97502" lon="4.79885">
        <ele>221</ele>
        <time>2017-06-12T09:46:57Z</time>
      </trkpt>
      <trkpt lat="45.97493" lon="4.79886">
        <ele>221</ele>
        <time>2017-06-12T09:46:58Z</time>
      </trkpt>
      <trkpt lat="45.97484" lon="4.79887">
        <ele>221</ele>
        <time>2017-06-12T09:46:59Z</time>
      </trkpt>
      <trkpt lat="45.97475" lon="4.79887">
        <ele>221</ele>
        <time>2017-06-12T09:47:00Z</time>
      </trkpt>
      <trkpt lat="45.97466" lon="4.79887">
        <ele>221</ele>
        <time>2017-06-12T09:47:01Z</time>
      </trkpt>
      <trkpt lat="45.97457" lon="4.79887">
        <ele>221</ele>
        <time>2017-06-12T09:47:02Z</time>
      </trkpt>
      <trkpt lat="45.97447" lon="4.79886">
        <ele>221</ele>
        <time>2017-06-12T09:47:03Z</time>
      </trkpt>
      <trkpt lat="45.97438" lon="4.79886">
        <ele>220</ele>
        <time>2017-06-12T09:47:04Z</time>
      </trkpt>
      <trkpt lat="45.97429" lon="4.79886">
        <ele>220</ele>
        <time>2017-06-12T09:47:05Z</time>
      </trkpt>
      <trkpt lat="45.9742" lon="4.79887">
        <ele>220</ele>
        <time>2017-06-12T09:47:06Z</time>
      </trkpt>
      <trkpt lat="45.97411" lon="4.79889">
        <ele>218</ele>
        <time>2017-06-12T09:47:07Z</time>
      </trkpt>
      <trkpt lat="45.97402" lon="4.7989">
        <ele>218</ele>
        <time>2017-06-12T09:47:08Z</time>
      </trkpt>
      <trkpt lat="45.97393" lon="4.79892">
        <ele>217</ele>
        <time>2017-06-12T09:47:09Z</time>
      </trkpt>
      <trkpt lat="45.97384" lon="4.79895">
        <ele>217</ele>
        <time>2017-06-12T09:47:10Z</time>
      </trkpt>
      <trkpt lat="45.97374" lon="4.79897">
        <ele>217</ele>
        <time>2017-06-12T09:47:11Z</time>
      </trkpt>
      <trkpt lat="45.97365" lon="4.79899">
        <ele>217</ele>
        <time>2017-06-12T09:47:12Z</time>
      </trkpt>
      <trkpt lat="45.97356" lon="4.79901">
        <ele>216</ele>
        <time>2017-06-12T09:47:13Z</time>
      </trkpt>
      <trkpt lat="45.97346" lon="4.79902">
        <ele>216</ele>
        <time>2017-06-12T09:47:14Z</time>
      </trkpt>
      <trkpt lat="45.97337" lon="4.79903">
        <ele>215</ele>
        <time>2017-06-12T09:47:15Z</time>
      </trkpt>
      <trkpt lat="45.97327" lon="4.79903">
        <ele>213</ele>
        <time>2017-06-12T09:47:16Z</time>
      </trkpt>
      <trkpt lat="45.97317" lon="4.79903">
        <ele>214</ele>
        <time>2017-06-12T09:47:17Z</time>
      </trkpt>
      <trkpt lat="45.97309" lon="4.79904">
        <ele>214</ele>
        <time>2017-06-12T09:47:18Z</time>
      </trkpt>
      <trkpt lat="45.97301" lon="4.79905">
        <ele>213</ele>
        <time>2017-06-12T09:47:19Z</time>
      </trkpt>
      <trkpt lat="45.97293" lon="4.79906">
        <ele>213</ele>
        <time>2017-06-12T09:47:20Z</time>
      </trkpt>
      <trkpt lat="45.97285" lon="4.79907">
        <ele>213</ele>
        <time>2017-06-12T09:47:21Z</time>
      </trkpt>
      <trkpt lat="45.97278" lon="4.79908">
        <ele>213</ele>
        <time>2017-06-12T09:47:22Z</time>
      </trkpt>
      <trkpt lat="45.97272" lon="4.7991">
        <ele>213</ele>
        <time>2017-06-12T09:47:23Z</time>
      </trkpt>
      <trkpt lat="45.97264" lon="4.79911">
        <ele>213</ele>
        <time>2017-06-12T09:47:25Z</time>
      </trkpt>
      <trkpt lat="45.9726" lon="4.79911">
        <ele>213</ele>
        <time>2017-06-12T09:47:26Z</time>
      </trkpt>
      <trkpt lat="45.97255" lon="4.79904">
        <ele>213</ele>
        <time>2017-06-12T09:47:28Z</time>
      </trkpt>
      <trkpt lat="45.97252" lon="4.79898">
        <ele>213</ele>
        <time>2017-06-12T09:47:29Z</time>
      </trkpt>
      <trkpt lat="45.9725" lon="4.79892">
        <ele>213</ele>
        <time>2017-06-12T09:47:30Z</time>
      </trkpt>
      <trkpt lat="45.97249" lon="4.79886">
        <ele>211</ele>
        <time>2017-06-12T09:47:31Z</time>
      </trkpt>
      <trkpt lat="45.97246" lon="4.79878">
        <ele>211</ele>
        <time>2017-06-12T09:47:32Z</time>
      </trkpt>
      <trkpt lat="45.97244" lon="4.7987">
        <ele>211</ele>
        <time>2017-06-12T09:47:33Z</time>
      </trkpt>
      <trkpt lat="45.97241" lon="4.79862">
        <ele>211</ele>
        <time>2017-06-12T09:47:34Z</time>
      </trkpt>
      <trkpt lat="45.9724" lon="4.79853">
        <ele>211</ele>
        <time>2017-06-12T09:47:35Z</time>
      </trkpt>
      <trkpt lat="45.9724" lon="4.79844">
        <ele>211</ele>
        <time>2017-06-12T09:47:36Z</time>
      </trkpt>
      <trkpt lat="45.9724" lon="4.79836">
        <ele>212</ele>
        <time>2017-06-12T09:47:37Z</time>
      </trkpt>
      <trkpt lat="45.97241" lon="4.79828">
        <ele>211</ele>
        <time>2017-06-12T09:47:38Z</time>
      </trkpt>
      <trkpt lat="45.97241" lon="4.79819">
        <ele>211</ele>
        <time>2017-06-12T09:47:39Z</time>
      </trkpt>
      <trkpt lat="45.97241" lon="4.79811">
        <ele>211</ele>
        <time>2017-06-12T09:47:40Z</time>
      </trkpt>
      <trkpt lat="45.97242" lon="4.79803">
        <ele>210</ele>
        <time>2017-06-12T09:47:41Z</time>
      </trkpt>
      <trkpt lat="45.97242" lon="4.79795">
        <ele>210</ele>
        <time>2017-06-12T09:47:42Z</time>
      </trkpt>
      <trkpt lat="45.97243" lon="4.79788">
        <ele>210</ele>
        <time>2017-06-12T09:47:43Z</time>
      </trkpt>
      <trkpt lat="45.97243" lon="4.7978">
        <ele>210</ele>
        <time>2017-06-12T09:47:44Z</time>
      </trkpt>
      <trkpt lat="45.97244" lon="4.79772">
        <ele>210</ele>
        <time>2017-06-12T09:47:45Z</time>
      </trkpt>
      <trkpt lat="45.97244" lon="4.79765">
        <ele>209</ele>
        <time>2017-06-12T09:47:46Z</time>
      </trkpt>
      <trkpt lat="45.97244" lon="4.79758">
        <ele>209</ele>
        <time>2017-06-12T09:47:47Z</time>
      </trkpt>
      <trkpt lat="45.97245" lon="4.79751">
        <ele>209</ele>
        <time>2017-06-12T09:47:48Z</time>
      </trkpt>
      <trkpt lat="45.97245" lon="4.79743">
        <ele>209</ele>
        <time>2017-06-12T09:47:49Z</time>
      </trkpt>
      <trkpt lat="45.97246" lon="4.79735">
        <ele>209</ele>
        <time>2017-06-12T09:47:50Z</time>
      </trkpt>
      <trkpt lat="45.97247" lon="4.79727">
        <ele>209</ele>
        <time>2017-06-12T09:47:51Z</time>
      </trkpt>
      <trkpt lat="45.97249" lon="4.79718">
        <ele>209</ele>
        <time>2017-06-12T09:47:52Z</time>
      </trkpt>
      <trkpt lat="45.97251" lon="4.7971">
        <ele>212</ele>
        <time>2017-06-12T09:47:53Z</time>
      </trkpt>
      <trkpt lat="45.97252" lon="4.79703">
        <ele>212</ele>
        <time>2017-06-12T09:47:54Z</time>
      </trkpt>
      <trkpt lat="45.97252" lon="4.79696">
        <ele>212</ele>
        <time>2017-06-12T09:47:55Z</time>
      </trkpt>
      <trkpt lat="45.97253" lon="4.79689">
        <ele>211</ele>
        <time>2017-06-12T09:47:56Z</time>
      </trkpt>
      <trkpt lat="45.97253" lon="4.79681">
        <ele>211</ele>
        <time>2017-06-12T09:47:57Z</time>
      </trkpt>
      <trkpt lat="45.97254" lon="4.79673">
        <ele>210</ele>
        <time>2017-06-12T09:47:58Z</time>
      </trkpt>
      <trkpt lat="45.97255" lon="4.79665">
        <ele>209</ele>
        <time>2017-06-12T09:47:59Z</time>
      </trkpt>
      <trkpt lat="45.97255" lon="4.79656">
        <ele>211</ele>
        <time>2017-06-12T09:48:00Z</time>
      </trkpt>
      <trkpt lat="45.97255" lon="4.79647">
        <ele>212</ele>
        <time>2017-06-12T09:48:01Z</time>
      </trkpt>
      <trkpt lat="45.97256" lon="4.79639">
        <ele>212</ele>
        <time>2017-06-12T09:48:02Z</time>
      </trkpt>
      <trkpt lat="45.97256" lon="4.79631">
        <ele>213</ele>
        <time>2017-06-12T09:48:03Z</time>
      </trkpt>
      <trkpt lat="45.97256" lon="4.79624">
        <ele>213</ele>
        <time>2017-06-12T09:48:04Z</time>
      </trkpt>
      <trkpt lat="45.97255" lon="4.79616">
        <ele>213</ele>
        <time>2017-06-12T09:48:05Z</time>
      </trkpt>
      <trkpt lat="45.97255" lon="4.79609">
        <ele>213</ele>
        <time>2017-06-12T09:48:06Z</time>
      </trkpt>
      <trkpt lat="45.97255" lon="4.79601">
        <ele>212</ele>
        <time>2017-06-12T09:48:07Z</time>
      </trkpt>
      <trkpt lat="45.97255" lon="4.79593">
        <ele>212</ele>
        <time>2017-06-12T09:48:08Z</time>
      </trkpt>
      <trkpt lat="45.97255" lon="4.79585">
        <ele>211</ele>
        <time>2017-06-12T09:48:09Z</time>
      </trkpt>
      <trkpt lat="45.97255" lon="4.79578">
        <ele>211</ele>
        <time>2017-06-12T09:48:10Z</time>
      </trkpt>
      <trkpt lat="45.97255" lon="4.79571">
        <ele>212</ele>
        <time>2017-06-12T09:48:11Z</time>
      </trkpt>
      <trkpt lat="45.97254" lon="4.79564">
        <ele>213</ele>
        <time>2017-06-12T09:48:12Z</time>
      </trkpt>
      <trkpt lat="45.97254" lon="4.79558">
        <ele>213</ele>
        <time>2017-06-12T09:48:13Z</time>
      </trkpt>
      <trkpt lat="45.97253" lon="4.79545">
        <ele>214</ele>
        <time>2017-06-12T09:48:15Z</time>
      </trkpt>
      <trkpt lat="45.97253" lon="4.79539">
        <ele>214</ele>
        <time>2017-06-12T09:48:16Z</time>
      </trkpt>
      <trkpt lat="45.97252" lon="4.79532">
        <ele>214</ele>
        <time>2017-06-12T09:48:17Z</time>
      </trkpt>
      <trkpt lat="45.97251" lon="4.79526">
        <ele>214</ele>
        <time>2017-06-12T09:48:18Z</time>
      </trkpt>
      <trkpt lat="45.9725" lon="4.79519">
        <ele>210</ele>
        <time>2017-06-12T09:48:19Z</time>
      </trkpt>
      <trkpt lat="45.97248" lon="4.79512">
        <ele>210</ele>
        <time>2017-06-12T09:48:20Z</time>
      </trkpt>
      <trkpt lat="45.97248" lon="4.79505">
        <ele>211</ele>
        <time>2017-06-12T09:48:21Z</time>
      </trkpt>
      <trkpt lat="45.97247" lon="4.79499">
        <ele>211</ele>
        <time>2017-06-12T09:48:22Z</time>
      </trkpt>
      <trkpt lat="45.97247" lon="4.79492">
        <ele>210</ele>
        <time>2017-06-12T09:48:23Z</time>
      </trkpt>
      <trkpt lat="45.97246" lon="4.79485">
        <ele>210</ele>
        <time>2017-06-12T09:48:24Z</time>
      </trkpt>
      <trkpt lat="45.97245" lon="4.79479">
        <ele>209</ele>
        <time>2017-06-12T09:48:25Z</time>
      </trkpt>
      <trkpt lat="45.97243" lon="4.79472">
        <ele>209</ele>
        <time>2017-06-12T09:48:26Z</time>
      </trkpt>
      <trkpt lat="45.97242" lon="4.79465">
        <ele>209</ele>
        <time>2017-06-12T09:48:27Z</time>
      </trkpt>
      <trkpt lat="45.9724" lon="4.79459">
        <ele>209</ele>
        <time>2017-06-12T09:48:28Z</time>
      </trkpt>
      <trkpt lat="45.97237" lon="4.79452">
        <ele>209</ele>
        <time>2017-06-12T09:48:29Z</time>
      </trkpt>
      <trkpt lat="45.97235" lon="4.79445">
        <ele>209</ele>
        <time>2017-06-12T09:48:30Z</time>
      </trkpt>
      <trkpt lat="45.97233" lon="4.79438">
        <ele>209</ele>
        <time>2017-06-12T09:48:31Z</time>
      </trkpt>
      <trkpt lat="45.9723" lon="4.79431">
        <ele>209</ele>
        <time>2017-06-12T09:48:32Z</time>
      </trkpt>
      <trkpt lat="45.97227" lon="4.79425">
        <ele>209</ele>
        <time>2017-06-12T09:48:33Z</time>
      </trkpt>
      <trkpt lat="45.97225" lon="4.79419">
        <ele>209</ele>
        <time>2017-06-12T09:48:34Z</time>
      </trkpt>
      <trkpt lat="45.97222" lon="4.79413">
        <ele>208</ele>
        <time>2017-06-12T09:48:35Z</time>
      </trkpt>
      <trkpt lat="45.9722" lon="4.79407">
        <ele>208</ele>
        <time>2017-06-12T09:48:36Z</time>
      </trkpt>
      <trkpt lat="45.97218" lon="4.794">
        <ele>208</ele>
        <time>2017-06-12T09:48:37Z</time>
      </trkpt>
      <trkpt lat="45.97216" lon="4.79393">
        <ele>208</ele>
        <time>2017-06-12T09:48:38Z</time>
      </trkpt>
      <trkpt lat="45.97213" lon="4.79386">
        <ele>208</ele>
        <time>2017-06-12T09:48:39Z</time>
      </trkpt>
      <trkpt lat="45.9721" lon="4.79379">
        <ele>208</ele>
        <time>2017-06-12T09:48:40Z</time>
      </trkpt>
      <trkpt lat="45.97207" lon="4.79372">
        <ele>208</ele>
        <time>2017-06-12T09:48:41Z</time>
      </trkpt>
      <trkpt lat="45.97203" lon="4.79365">
        <ele>208</ele>
        <time>2017-06-12T09:48:42Z</time>
      </trkpt>
      <trkpt lat="45.972" lon="4.79358">
        <ele>207</ele>
        <time>2017-06-12T09:48:43Z</time>
      </trkpt>
      <trkpt lat="45.97195" lon="4.79351">
        <ele>207</ele>
        <time>2017-06-12T09:48:44Z</time>
      </trkpt>
      <trkpt lat="45.97191" lon="4.79344">
        <ele>207</ele>
        <time>2017-06-12T09:48:45Z</time>
      </trkpt>
      <trkpt lat="45.97188" lon="4.79336">
        <ele>207</ele>
        <time>2017-06-12T09:48:46Z</time>
      </trkpt>
      <trkpt lat="45.97185" lon="4.79328">
        <ele>207</ele>
        <time>2017-06-12T09:48:47Z</time>
      </trkpt>
      <trkpt lat="45.97181" lon="4.7932">
        <ele>207</ele>
        <time>2017-06-12T09:48:48Z</time>
      </trkpt>
      <trkpt lat="45.97177" lon="4.79311">
        <ele>207</ele>
        <time>2017-06-12T09:48:49Z</time>
      </trkpt>
      <trkpt lat="45.97174" lon="4.79302">
        <ele>207</ele>
        <time>2017-06-12T09:48:50Z</time>
      </trkpt>
      <trkpt lat="45.9717" lon="4.79294">
        <ele>207</ele>
        <time>2017-06-12T09:48:51Z</time>
      </trkpt>
      <trkpt lat="45.97167" lon="4.79286">
        <ele>207</ele>
        <time>2017-06-12T09:48:52Z</time>
      </trkpt>
      <trkpt lat="45.97164" lon="4.79278">
        <ele>204</ele>
        <time>2017-06-12T09:48:53Z</time>
      </trkpt>
      <trkpt lat="45.9716" lon="4.79271">
        <ele>204</ele>
        <time>2017-06-12T09:48:54Z</time>
      </trkpt>
      <trkpt lat="45.97156" lon="4.79263">
        <ele>205</ele>
        <time>2017-06-12T09:48:55Z</time>
      </trkpt>
      <trkpt lat="45.97154" lon="4.79255">
        <ele>205</ele>
        <time>2017-06-12T09:48:56Z</time>
      </trkpt>
      <trkpt lat="45.97151" lon="4.79248">
        <ele>205</ele>
        <time>2017-06-12T09:48:57Z</time>
      </trkpt>
      <trkpt lat="45.97148" lon="4.79242">
        <ele>205</ele>
        <time>2017-06-12T09:48:58Z</time>
      </trkpt>
      <trkpt lat="45.97145" lon="4.79235">
        <ele>205</ele>
        <time>2017-06-12T09:48:59Z</time>
      </trkpt>
      <trkpt lat="45.97142" lon="4.79228">
        <ele>205</ele>
        <time>2017-06-12T09:49:00Z</time>
      </trkpt>
      <trkpt lat="45.97139" lon="4.79219">
        <ele>206</ele>
        <time>2017-06-12T09:49:01Z</time>
      </trkpt>
      <trkpt lat="45.97136" lon="4.7921">
        <ele>206</ele>
        <time>2017-06-12T09:49:02Z</time>
      </trkpt>
      <trkpt lat="45.97132" lon="4.79201">
        <ele>206</ele>
        <time>2017-06-12T09:49:03Z</time>
      </trkpt>
      <trkpt lat="45.97128" lon="4.79192">
        <ele>206</ele>
        <time>2017-06-12T09:49:04Z</time>
      </trkpt>
      <trkpt lat="45.97125" lon="4.79183">
        <ele>206</ele>
        <time>2017-06-12T09:49:05Z</time>
      </trkpt>
      <trkpt lat="45.97121" lon="4.79175">
        <ele>206</ele>
        <time>2017-06-12T09:49:06Z</time>
      </trkpt>
      <trkpt lat="45.97117" lon="4.79167">
        <ele>207</ele>
        <time>2017-06-12T09:49:07Z</time>
      </trkpt>
      <trkpt lat="45.97113" lon="4.79159">
        <ele>207</ele>
        <time>2017-06-12T09:49:08Z</time>
      </trkpt>
      <trkpt lat="45.97109" lon="4.79151">
        <ele>206</ele>
        <time>2017-06-12T09:49:09Z</time>
      </trkpt>
      <trkpt lat="45.97105" lon="4.79144">
        <ele>206</ele>
        <time>2017-06-12T09:49:10Z</time>
      </trkpt>
      <trkpt lat="45.97101" lon="4.79137">
        <ele>206</ele>
        <time>2017-06-12T09:49:11Z</time>
      </trkpt>
      <trkpt lat="45.97097" lon="4.7913">
        <ele>206</ele>
        <time>2017-06-12T09:49:12Z</time>
      </trkpt>
      <trkpt lat="45.97093" lon="4.79124">
        <ele>206</ele>
        <time>2017-06-12T09:49:13Z</time>
      </trkpt>
      <trkpt lat="45.97089" lon="4.79117">
        <ele>206</ele>
        <time>2017-06-12T09:49:14Z</time>
      </trkpt>
      <trkpt lat="45.97087" lon="4.79109">
        <ele>206</ele>
        <time>2017-06-12T09:49:15Z</time>
      </trkpt>
      <trkpt lat="45.97085" lon="4.79102">
        <ele>206</ele>
        <time>2017-06-12T09:49:16Z</time>
      </trkpt>
      <trkpt lat="45.97083" lon="4.79094">
        <ele>204</ele>
        <time>2017-06-12T09:49:17Z</time>
      </trkpt>
      <trkpt lat="45.97081" lon="4.79085">
        <ele>204</ele>
        <time>2017-06-12T09:49:18Z</time>
      </trkpt>
      <trkpt lat="45.97079" lon="4.79077">
        <ele>204</ele>
        <time>2017-06-12T09:49:19Z</time>
      </trkpt>
      <trkpt lat="45.97077" lon="4.79068">
        <ele>204</ele>
        <time>2017-06-12T09:49:20Z</time>
      </trkpt>
      <trkpt lat="45.97075" lon="4.79058">
        <ele>203</ele>
        <time>2017-06-12T09:49:21Z</time>
      </trkpt>
      <trkpt lat="45.97073" lon="4.79049">
        <ele>203</ele>
        <time>2017-06-12T09:49:22Z</time>
      </trkpt>
      <trkpt lat="45.97071" lon="4.7904">
        <ele>203</ele>
        <time>2017-06-12T09:49:23Z</time>
      </trkpt>
      <trkpt lat="45.97069" lon="4.79031">
        <ele>204</ele>
        <time>2017-06-12T09:49:24Z</time>
      </trkpt>
      <trkpt lat="45.97067" lon="4.79022">
        <ele>204</ele>
        <time>2017-06-12T09:49:25Z</time>
      </trkpt>
      <trkpt lat="45.97064" lon="4.79014">
        <ele>204</ele>
        <time>2017-06-12T09:49:26Z</time>
      </trkpt>
      <trkpt lat="45.97062" lon="4.79006">
        <ele>204</ele>
        <time>2017-06-12T09:49:27Z</time>
      </trkpt>
      <trkpt lat="45.9706" lon="4.78999">
        <ele>205</ele>
        <time>2017-06-12T09:49:28Z</time>
      </trkpt>
      <trkpt lat="45.97058" lon="4.78993">
        <ele>205</ele>
        <time>2017-06-12T09:49:29Z</time>
      </trkpt>
      <trkpt lat="45.97056" lon="4.78986">
        <ele>205</ele>
        <time>2017-06-12T09:49:30Z</time>
      </trkpt>
      <trkpt lat="45.97054" lon="4.7898">
        <ele>205</ele>
        <time>2017-06-12T09:49:31Z</time>
      </trkpt>
      <trkpt lat="45.97051" lon="4.78974">
        <ele>205</ele>
        <time>2017-06-12T09:49:32Z</time>
      </trkpt>
      <trkpt lat="45.97049" lon="4.78968">
        <ele>205</ele>
        <time>2017-06-12T09:49:33Z</time>
      </trkpt>
      <trkpt lat="45.97046" lon="4.78962">
        <ele>205</ele>
        <time>2017-06-12T09:49:34Z</time>
      </trkpt>
      <trkpt lat="45.97043" lon="4.78956">
        <ele>205</ele>
        <time>2017-06-12T09:49:35Z</time>
      </trkpt>
      <trkpt lat="45.9704" lon="4.78951">
        <ele>205</ele>
        <time>2017-06-12T09:49:36Z</time>
      </trkpt>
      <trkpt lat="45.97036" lon="4.78946">
        <ele>205</ele>
        <time>2017-06-12T09:49:37Z</time>
      </trkpt>
      <trkpt lat="45.97032" lon="4.7894">
        <ele>205</ele>
        <time>2017-06-12T09:49:38Z</time>
      </trkpt>
      <trkpt lat="45.97027" lon="4.78935">
        <ele>205</ele>
        <time>2017-06-12T09:49:39Z</time>
      </trkpt>
      <trkpt lat="45.97023" lon="4.78929">
        <ele>205</ele>
        <time>2017-06-12T09:49:40Z</time>
      </trkpt>
      <trkpt lat="45.97019" lon="4.78923">
        <ele>205</ele>
        <time>2017-06-12T09:49:41Z</time>
      </trkpt>
      <trkpt lat="45.97015" lon="4.78918">
        <ele>205</ele>
        <time>2017-06-12T09:49:42Z</time>
      </trkpt>
      <trkpt lat="45.97011" lon="4.78912">
        <ele>206</ele>
        <time>2017-06-12T09:49:43Z</time>
      </trkpt>
      <trkpt lat="45.97006" lon="4.78906">
        <ele>206</ele>
        <time>2017-06-12T09:49:44Z</time>
      </trkpt>
      <trkpt lat="45.97002" lon="4.78901">
        <ele>206</ele>
        <time>2017-06-12T09:49:45Z</time>
      </trkpt>
      <trkpt lat="45.96997" lon="4.78895">
        <ele>203</ele>
        <time>2017-06-12T09:49:46Z</time>
      </trkpt>
      <trkpt lat="45.96992" lon="4.78889">
        <ele>203</ele>
        <time>2017-06-12T09:49:47Z</time>
      </trkpt>
      <trkpt lat="45.96987" lon="4.78883">
        <ele>203</ele>
        <time>2017-06-12T09:49:48Z</time>
      </trkpt>
      <trkpt lat="45.96983" lon="4.78877">
        <ele>203</ele>
        <time>2017-06-12T09:49:49Z</time>
      </trkpt>
      <trkpt lat="45.96978" lon="4.78872">
        <ele>203</ele>
        <time>2017-06-12T09:49:50Z</time>
      </trkpt>
      <trkpt lat="45.96973" lon="4.78867">
        <ele>203</ele>
        <time>2017-06-12T09:49:51Z</time>
      </trkpt>
      <trkpt lat="45.96969" lon="4.78862">
        <ele>203</ele>
        <time>2017-06-12T09:49:52Z</time>
      </trkpt>
      <trkpt lat="45.96964" lon="4.78857">
        <ele>203</ele>
        <time>2017-06-12T09:49:53Z</time>
      </trkpt>
      <trkpt lat="45.96959" lon="4.78853">
        <ele>203</ele>
        <time>2017-06-12T09:49:54Z</time>
      </trkpt>
      <trkpt lat="45.96954" lon="4.78848">
        <ele>203</ele>
        <time>2017-06-12T09:49:55Z</time>
      </trkpt>
      <trkpt lat="45.9695" lon="4.78843">
        <ele>202</ele>
        <time>2017-06-12T09:49:56Z</time>
      </trkpt>
      <trkpt lat="45.96946" lon="4.78838">
        <ele>202</ele>
        <time>2017-06-12T09:49:57Z</time>
      </trkpt>
      <trkpt lat="45.96942" lon="4.78832">
        <ele>203</ele>
        <time>2017-06-12T09:49:58Z</time>
      </trkpt>
      <trkpt lat="45.96937" lon="4.78826">
        <ele>202</ele>
        <time>2017-06-12T09:49:59Z</time>
      </trkpt>
      <trkpt lat="45.96933" lon="4.7882">
        <ele>202</ele>
        <time>2017-06-12T09:50:00Z</time>
      </trkpt>
      <trkpt lat="45.96929" lon="4.78814">
        <ele>202</ele>
        <time>2017-06-12T09:50:01Z</time>
      </trkpt>
      <trkpt lat="45.96925" lon="4.78808">
        <ele>203</ele>
        <time>2017-06-12T09:50:02Z</time>
      </trkpt>
      <trkpt lat="45.96921" lon="4.78802">
        <ele>203</ele>
        <time>2017-06-12T09:50:03Z</time>
      </trkpt>
      <trkpt lat="45.96918" lon="4.78795">
        <ele>203</ele>
        <time>2017-06-12T09:50:04Z</time>
      </trkpt>
      <trkpt lat="45.96914" lon="4.78788">
        <ele>201</ele>
        <time>2017-06-12T09:50:05Z</time>
      </trkpt>
      <trkpt lat="45.9691" lon="4.7878">
        <ele>201</ele>
        <time>2017-06-12T09:50:06Z</time>
      </trkpt>
      <trkpt lat="45.96906" lon="4.78772">
        <ele>201</ele>
        <time>2017-06-12T09:50:07Z</time>
      </trkpt>
      <trkpt lat="45.96903" lon="4.78765">
        <ele>201</ele>
        <time>2017-06-12T09:50:08Z</time>
      </trkpt>
      <trkpt lat="45.96899" lon="4.78757">
        <ele>202</ele>
        <time>2017-06-12T09:50:09Z</time>
      </trkpt>
      <trkpt lat="45.96895" lon="4.7875">
        <ele>202</ele>
        <time>2017-06-12T09:50:10Z</time>
      </trkpt>
      <trkpt lat="45.96892" lon="4.78742">
        <ele>202</ele>
        <time>2017-06-12T09:50:11Z</time>
      </trkpt>
      <trkpt lat="45.96888" lon="4.78735">
        <ele>202</ele>
        <time>2017-06-12T09:50:12Z</time>
      </trkpt>
      <trkpt lat="45.96885" lon="4.78728">
        <ele>202</ele>
        <time>2017-06-12T09:50:13Z</time>
      </trkpt>
      <trkpt lat="45.96882" lon="4.78722">
        <ele>202</ele>
        <time>2017-06-12T09:50:14Z</time>
      </trkpt>
      <trkpt lat="45.96879" lon="4.78715">
        <ele>202</ele>
        <time>2017-06-12T09:50:15Z</time>
      </trkpt>
      <trkpt lat="45.96875" lon="4.78708">
        <ele>202</ele>
        <time>2017-06-12T09:50:16Z</time>
      </trkpt>
      <trkpt lat="45.96872" lon="4.78702">
        <ele>202</ele>
        <time>2017-06-12T09:50:17Z</time>
      </trkpt>
      <trkpt lat="45.96869" lon="4.78695">
        <ele>202</ele>
        <time>2017-06-12T09:50:18Z</time>
      </trkpt>
      <trkpt lat="45.96866" lon="4.78688">
        <ele>202</ele>
        <time>2017-06-12T09:50:19Z</time>
      </trkpt>
      <trkpt lat="45.96863" lon="4.78681">
        <ele>202</ele>
        <time>2017-06-12T09:50:20Z</time>
      </trkpt>
      <trkpt lat="45.9686" lon="4.78674">
        <ele>202</ele>
        <time>2017-06-12T09:50:21Z</time>
      </trkpt>
      <trkpt lat="45.96857" lon="4.78667">
        <ele>203</ele>
        <time>2017-06-12T09:50:22Z</time>
      </trkpt>
      <trkpt lat="45.96854" lon="4.78659">
        <ele>203</ele>
        <time>2017-06-12T09:50:23Z</time>
      </trkpt>
      <trkpt lat="45.96851" lon="4.78652">
        <ele>203</ele>
        <time>2017-06-12T09:50:24Z</time>
      </trkpt>
      <trkpt lat="45.96848" lon="4.78645">
        <ele>203</ele>
        <time>2017-06-12T09:50:25Z</time>
      </trkpt>
      <trkpt lat="45.96845" lon="4.78638">
        <ele>203</ele>
        <time>2017-06-12T09:50:26Z</time>
      </trkpt>
      <trkpt lat="45.9684" lon="4.7863">
        <ele>203</ele>
        <time>2017-06-12T09:50:27Z</time>
      </trkpt>
      <trkpt lat="45.96838" lon="4.78622">
        <ele>203</ele>
        <time>2017-06-12T09:50:28Z</time>
      </trkpt>
      <trkpt lat="45.96836" lon="4.78615">
        <ele>203</ele>
        <time>2017-06-12T09:50:29Z</time>
      </trkpt>
      <trkpt lat="45.96834" lon="4.78607">
        <ele>203</ele>
        <time>2017-06-12T09:50:30Z</time>
      </trkpt>
      <trkpt lat="45.96831" lon="4.786">
        <ele>202</ele>
        <time>2017-06-12T09:50:31Z</time>
      </trkpt>
      <trkpt lat="45.96828" lon="4.78594">
        <ele>202</ele>
        <time>2017-06-12T09:50:32Z</time>
      </trkpt>
      <trkpt lat="45.96825" lon="4.78588">
        <ele>202</ele>
        <time>2017-06-12T09:50:33Z</time>
      </trkpt>
      <trkpt lat="45.96823" lon="4.78582">
        <ele>203</ele>
        <time>2017-06-12T09:50:34Z</time>
      </trkpt>
      <trkpt lat="45.9682" lon="4.78575">
        <ele>203</ele>
        <time>2017-06-12T09:50:35Z</time>
      </trkpt>
      <trkpt lat="45.96816" lon="4.7857">
        <ele>203</ele>
        <time>2017-06-12T09:50:36Z</time>
      </trkpt>
      <trkpt lat="45.96812" lon="4.78564">
        <ele>203</ele>
        <time>2017-06-12T09:50:37Z</time>
      </trkpt>
      <trkpt lat="45.96807" lon="4.78557">
        <ele>203</ele>
        <time>2017-06-12T09:50:38Z</time>
      </trkpt>
      <trkpt lat="45.96802" lon="4.7855">
        <ele>203</ele>
        <time>2017-06-12T09:50:39Z</time>
      </trkpt>
      <trkpt lat="45.96798" lon="4.78544">
        <ele>203</ele>
        <time>2017-06-12T09:50:40Z</time>
      </trkpt>
      <trkpt lat="45.96794" lon="4.78537">
        <ele>203</ele>
        <time>2017-06-12T09:50:41Z</time>
      </trkpt>
      <trkpt lat="45.9679" lon="4.78531">
        <ele>203</ele>
        <time>2017-06-12T09:50:42Z</time>
      </trkpt>
      <trkpt lat="45.96786" lon="4.78524">
        <ele>203</ele>
        <time>2017-06-12T09:50:43Z</time>
      </trkpt>
      <trkpt lat="45.96782" lon="4.78518">
        <ele>203</ele>
        <time>2017-06-12T09:50:44Z</time>
      </trkpt>
      <trkpt lat="45.96777" lon="4.78511">
        <ele>203</ele>
        <time>2017-06-12T09:50:45Z</time>
      </trkpt>
      <trkpt lat="45.96773" lon="4.78505">
        <ele>203</ele>
        <time>2017-06-12T09:50:46Z</time>
      </trkpt>
      <trkpt lat="45.96768" lon="4.78499">
        <ele>205</ele>
        <time>2017-06-12T09:50:47Z</time>
      </trkpt>
      <trkpt lat="45.96764" lon="4.78494">
        <ele>204</ele>
        <time>2017-06-12T09:50:48Z</time>
      </trkpt>
      <trkpt lat="45.96759" lon="4.78489">
        <ele>204</ele>
        <time>2017-06-12T09:50:49Z</time>
      </trkpt>
      <trkpt lat="45.96755" lon="4.78484">
        <ele>205</ele>
        <time>2017-06-12T09:50:50Z</time>
      </trkpt>
      <trkpt lat="45.9675" lon="4.78479">
        <ele>205</ele>
        <time>2017-06-12T09:50:51Z</time>
      </trkpt>
      <trkpt lat="45.96746" lon="4.78475">
        <ele>203</ele>
        <time>2017-06-12T09:50:52Z</time>
      </trkpt>
      <trkpt lat="45.96741" lon="4.7847">
        <ele>203</ele>
        <time>2017-06-12T09:50:53Z</time>
      </trkpt>
      <trkpt lat="45.96735" lon="4.78465">
        <ele>203</ele>
        <time>2017-06-12T09:50:54Z</time>
      </trkpt>
      <trkpt lat="45.9673" lon="4.7846">
        <ele>203</ele>
        <time>2017-06-12T09:50:55Z</time>
      </trkpt>
      <trkpt lat="45.96725" lon="4.78455">
        <ele>203</ele>
        <time>2017-06-12T09:50:56Z</time>
      </trkpt>
      <trkpt lat="45.9672" lon="4.78451">
        <ele>203</ele>
        <time>2017-06-12T09:50:57Z</time>
      </trkpt>
      <trkpt lat="45.96715" lon="4.78446">
        <ele>203</ele>
        <time>2017-06-12T09:50:58Z</time>
      </trkpt>
      <trkpt lat="45.96711" lon="4.78441">
        <ele>203</ele>
        <time>2017-06-12T09:50:59Z</time>
      </trkpt>
      <trkpt lat="45.96706" lon="4.78435">
        <ele>203</ele>
        <time>2017-06-12T09:51:00Z</time>
      </trkpt>
      <trkpt lat="45.96702" lon="4.78428">
        <ele>203</ele>
        <time>2017-06-12T09:51:01Z</time>
      </trkpt>
      <trkpt lat="45.96698" lon="4.78423">
        <ele>203</ele>
        <time>2017-06-12T09:51:02Z</time>
      </trkpt>
      <trkpt lat="45.96694" lon="4.78418">
        <ele>202</ele>
        <time>2017-06-12T09:51:03Z</time>
      </trkpt>
      <trkpt lat="45.96689" lon="4.78414">
        <ele>204</ele>
        <time>2017-06-12T09:51:04Z</time>
      </trkpt>
      <trkpt lat="45.96685" lon="4.7841">
        <ele>204</ele>
        <time>2017-06-12T09:51:05Z</time>
      </trkpt>
      <trkpt lat="45.9668" lon="4.78406">
        <ele>204</ele>
        <time>2017-06-12T09:51:06Z</time>
      </trkpt>
      <trkpt lat="45.96675" lon="4.78401">
        <ele>204</ele>
        <time>2017-06-12T09:51:07Z</time>
      </trkpt>
      <trkpt lat="45.96671" lon="4.78397">
        <ele>204</ele>
        <time>2017-06-12T09:51:08Z</time>
      </trkpt>
      <trkpt lat="45.96666" lon="4.78392">
        <ele>201</ele>
        <time>2017-06-12T09:51:09Z</time>
      </trkpt>
      <trkpt lat="45.96661" lon="4.78388">
        <ele>201</ele>
        <time>2017-06-12T09:51:10Z</time>
      </trkpt>
      <trkpt lat="45.96656" lon="4.78383">
        <ele>201</ele>
        <time>2017-06-12T09:51:11Z</time>
      </trkpt>
      <trkpt lat="45.96652" lon="4.78379">
        <ele>201</ele>
        <time>2017-06-12T09:51:12Z</time>
      </trkpt>
      <trkpt lat="45.96647" lon="4.78374">
        <ele>201</ele>
        <time>2017-06-12T09:51:13Z</time>
      </trkpt>
      <trkpt lat="45.96642" lon="4.7837">
        <ele>201</ele>
        <time>2017-06-12T09:51:14Z</time>
      </trkpt>
      <trkpt lat="45.96637" lon="4.78365">
        <ele>201</ele>
        <time>2017-06-12T09:51:15Z</time>
      </trkpt>
      <trkpt lat="45.96632" lon="4.7836">
        <ele>201</ele>
        <time>2017-06-12T09:51:16Z</time>
      </trkpt>
      <trkpt lat="45.96627" lon="4.78355">
        <ele>201</ele>
        <time>2017-06-12T09:51:17Z</time>
      </trkpt>
      <trkpt lat="45.96622" lon="4.78351">
        <ele>201</ele>
        <time>2017-06-12T09:51:18Z</time>
      </trkpt>
      <trkpt lat="45.96617" lon="4.78346">
        <ele>201</ele>
        <time>2017-06-12T09:51:19Z</time>
      </trkpt>
      <trkpt lat="45.96612" lon="4.78342">
        <ele>200</ele>
        <time>2017-06-12T09:51:20Z</time>
      </trkpt>
      <trkpt lat="45.96606" lon="4.78337">
        <ele>200</ele>
        <time>2017-06-12T09:51:21Z</time>
      </trkpt>
      <trkpt lat="45.96602" lon="4.78333">
        <ele>202</ele>
        <time>2017-06-12T09:51:22Z</time>
      </trkpt>
      <trkpt lat="45.96597" lon="4.78328">
        <ele>202</ele>
        <time>2017-06-12T09:51:23Z</time>
      </trkpt>
      <trkpt lat="45.96592" lon="4.78322">
        <ele>202</ele>
        <time>2017-06-12T09:51:24Z</time>
      </trkpt>
      <trkpt lat="45.96586" lon="4.78316">
        <ele>202</ele>
        <time>2017-06-12T09:51:25Z</time>
      </trkpt>
      <trkpt lat="45.96581" lon="4.78311">
        <ele>199</ele>
        <time>2017-06-12T09:51:26Z</time>
      </trkpt>
      <trkpt lat="45.96576" lon="4.78306">
        <ele>200</ele>
        <time>2017-06-12T09:51:27Z</time>
      </trkpt>
      <trkpt lat="45.96571" lon="4.78301">
        <ele>200</ele>
        <time>2017-06-12T09:51:28Z</time>
      </trkpt>
      <trkpt lat="45.96564" lon="4.78295">
        <ele>200</ele>
        <time>2017-06-12T09:51:29Z</time>
      </trkpt>
      <trkpt lat="45.96559" lon="4.78289">
        <ele>200</ele>
        <time>2017-06-12T09:51:30Z</time>
      </trkpt>
      <trkpt lat="45.96552" lon="4.78282">
        <ele>200</ele>
        <time>2017-06-12T09:51:31Z</time>
      </trkpt>
      <trkpt lat="45.96546" lon="4.78274">
        <ele>200</ele>
        <time>2017-06-12T09:51:32Z</time>
      </trkpt>
      <trkpt lat="45.96541" lon="4.78266">
        <ele>200</ele>
        <time>2017-06-12T09:51:33Z</time>
      </trkpt>
      <trkpt lat="45.96536" lon="4.78259">
        <ele>200</ele>
        <time>2017-06-12T09:51:34Z</time>
      </trkpt>
      <trkpt lat="45.96532" lon="4.78252">
        <ele>200</ele>
        <time>2017-06-12T09:51:35Z</time>
      </trkpt>
      <trkpt lat="45.96528" lon="4.78245">
        <ele>204</ele>
        <time>2017-06-12T09:51:36Z</time>
      </trkpt>
      <trkpt lat="45.96524" lon="4.78238">
        <ele>204</ele>
        <time>2017-06-12T09:51:37Z</time>
      </trkpt>
      <trkpt lat="45.9652" lon="4.78231">
        <ele>204</ele>
        <time>2017-06-12T09:51:38Z</time>
      </trkpt>
      <trkpt lat="45.96516" lon="4.78224">
        <ele>204</ele>
        <time>2017-06-12T09:51:39Z</time>
      </trkpt>
      <trkpt lat="45.96512" lon="4.78217">
        <ele>205</ele>
        <time>2017-06-12T09:51:40Z</time>
      </trkpt>
      <trkpt lat="45.96508" lon="4.78211">
        <ele>205</ele>
        <time>2017-06-12T09:51:41Z</time>
      </trkpt>
      <trkpt lat="45.96503" lon="4.78205">
        <ele>205</ele>
        <time>2017-06-12T09:51:42Z</time>
      </trkpt>
      <trkpt lat="45.96499" lon="4.782">
        <ele>201</ele>
        <time>2017-06-12T09:51:43Z</time>
      </trkpt>
      <trkpt lat="45.96493" lon="4.78195">
        <ele>201</ele>
        <time>2017-06-12T09:51:44Z</time>
      </trkpt>
      <trkpt lat="45.96486" lon="4.78192">
        <ele>201</ele>
        <time>2017-06-12T09:51:45Z</time>
      </trkpt>
      <trkpt lat="45.96479" lon="4.78188">
        <ele>201</ele>
        <time>2017-06-12T09:51:46Z</time>
      </trkpt>
      <trkpt lat="45.96473" lon="4.78184">
        <ele>200</ele>
        <time>2017-06-12T09:51:47Z</time>
      </trkpt>
      <trkpt lat="45.96467" lon="4.7818">
        <ele>200</ele>
        <time>2017-06-12T09:51:48Z</time>
      </trkpt>
      <trkpt lat="45.96461" lon="4.78174">
        <ele>200</ele>
        <time>2017-06-12T09:51:49Z</time>
      </trkpt>
      <trkpt lat="45.96455" lon="4.78168">
        <ele>200</ele>
        <time>2017-06-12T09:51:50Z</time>
      </trkpt>
      <trkpt lat="45.96449" lon="4.78162">
        <ele>204</ele>
        <time>2017-06-12T09:51:51Z</time>
      </trkpt>
      <trkpt lat="45.96444" lon="4.78157">
        <ele>203</ele>
        <time>2017-06-12T09:51:52Z</time>
      </trkpt>
      <trkpt lat="45.96439" lon="4.78152">
        <ele>203</ele>
        <time>2017-06-12T09:51:53Z</time>
      </trkpt>
      <trkpt lat="45.96434" lon="4.78147">
        <ele>203</ele>
        <time>2017-06-12T09:51:54Z</time>
      </trkpt>
      <trkpt lat="45.96429" lon="4.78142">
        <ele>203</ele>
        <time>2017-06-12T09:51:55Z</time>
      </trkpt>
      <trkpt lat="45.96424" lon="4.78138">
        <ele>203</ele>
        <time>2017-06-12T09:51:56Z</time>
      </trkpt>
      <trkpt lat="45.9642" lon="4.78133">
        <ele>203</ele>
        <time>2017-06-12T09:51:57Z</time>
      </trkpt>
      <trkpt lat="45.96415" lon="4.78129">
        <ele>200</ele>
        <time>2017-06-12T09:51:58Z</time>
      </trkpt>
      <trkpt lat="45.96411" lon="4.78125">
        <ele>200</ele>
        <time>2017-06-12T09:51:59Z</time>
      </trkpt>
      <trkpt lat="45.96406" lon="4.7812">
        <ele>200</ele>
        <time>2017-06-12T09:52:00Z</time>
      </trkpt>
      <trkpt lat="45.964" lon="4.78116">
        <ele>200</ele>
        <time>2017-06-12T09:52:01Z</time>
      </trkpt>
      <trkpt lat="45.96395" lon="4.78111">
        <ele>200</ele>
        <time>2017-06-12T09:52:02Z</time>
      </trkpt>
      <trkpt lat="45.9639" lon="4.78106">
        <ele>200</ele>
        <time>2017-06-12T09:52:03Z</time>
      </trkpt>
      <trkpt lat="45.96384" lon="4.78101">
        <ele>200</ele>
        <time>2017-06-12T09:52:04Z</time>
      </trkpt>
      <trkpt lat="45.9638" lon="4.78097">
        <ele>200</ele>
        <time>2017-06-12T09:52:05Z</time>
      </trkpt>
      <trkpt lat="45.96375" lon="4.78092">
        <ele>200</ele>
        <time>2017-06-12T09:52:06Z</time>
      </trkpt>
      <trkpt lat="45.9637" lon="4.78087">
        <ele>199</ele>
        <time>2017-06-12T09:52:07Z</time>
      </trkpt>
      <trkpt lat="45.96364" lon="4.78082">
        <ele>202</ele>
        <time>2017-06-12T09:52:08Z</time>
      </trkpt>
      <trkpt lat="45.96359" lon="4.78077">
        <ele>202</ele>
        <time>2017-06-12T09:52:09Z</time>
      </trkpt>
      <trkpt lat="45.96353" lon="4.78072">
        <ele>202</ele>
        <time>2017-06-12T09:52:10Z</time>
      </trkpt>
      <trkpt lat="45.96349" lon="4.78066">
        <ele>202</ele>
        <time>2017-06-12T09:52:11Z</time>
      </trkpt>
      <trkpt lat="45.96344" lon="4.78061">
        <ele>202</ele>
        <time>2017-06-12T09:52:12Z</time>
      </trkpt>
      <trkpt lat="45.9634" lon="4.78055">
        <ele>202</ele>
        <time>2017-06-12T09:52:13Z</time>
      </trkpt>
      <trkpt lat="45.96335" lon="4.7805">
        <ele>203</ele>
        <time>2017-06-12T09:52:14Z</time>
      </trkpt>
      <trkpt lat="45.96332" lon="4.78044">
        <ele>199</ele>
        <time>2017-06-12T09:52:15Z</time>
      </trkpt>
      <trkpt lat="45.96327" lon="4.78039">
        <ele>200</ele>
        <time>2017-06-12T09:52:16Z</time>
      </trkpt>
      <trkpt lat="45.96323" lon="4.78033">
        <ele>200</ele>
        <time>2017-06-12T09:52:17Z</time>
      </trkpt>
      <trkpt lat="45.96319" lon="4.78028">
        <ele>200</ele>
        <time>2017-06-12T09:52:18Z</time>
      </trkpt>
      <trkpt lat="45.96315" lon="4.78023">
        <ele>200</ele>
        <time>2017-06-12T09:52:19Z</time>
      </trkpt>
      <trkpt lat="45.96311" lon="4.78019">
        <ele>200</ele>
        <time>2017-06-12T09:52:20Z</time>
      </trkpt>
      <trkpt lat="45.96307" lon="4.78014">
        <ele>200</ele>
        <time>2017-06-12T09:52:21Z</time>
      </trkpt>
      <trkpt lat="45.96302" lon="4.7801">
        <ele>200</ele>
        <time>2017-06-12T09:52:22Z</time>
      </trkpt>
      <trkpt lat="45.96298" lon="4.78005">
        <ele>200</ele>
        <time>2017-06-12T09:52:23Z</time>
      </trkpt>
      <trkpt lat="45.96293" lon="4.78001">
        <ele>199</ele>
        <time>2017-06-12T09:52:24Z</time>
      </trkpt>
      <trkpt lat="45.96289" lon="4.77997">
        <ele>204</ele>
        <time>2017-06-12T09:52:25Z</time>
      </trkpt>
      <trkpt lat="45.96285" lon="4.77993">
        <ele>204</ele>
        <time>2017-06-12T09:52:26Z</time>
      </trkpt>
      <trkpt lat="45.96282" lon="4.77989">
        <ele>204</ele>
        <time>2017-06-12T09:52:27Z</time>
      </trkpt>
      <trkpt lat="45.96277" lon="4.77984">
        <ele>203</ele>
        <time>2017-06-12T09:52:28Z</time>
      </trkpt>
      <trkpt lat="45.96273" lon="4.77981">
        <ele>203</ele>
        <time>2017-06-12T09:52:29Z</time>
      </trkpt>
      <trkpt lat="45.96269" lon="4.77978">
        <ele>203</ele>
        <time>2017-06-12T09:52:30Z</time>
      </trkpt>
      <trkpt lat="45.96265" lon="4.77975">
        <ele>203</ele>
        <time>2017-06-12T09:52:31Z</time>
      </trkpt>
      <trkpt lat="45.9626" lon="4.77971">
        <ele>203</ele>
        <time>2017-06-12T09:52:32Z</time>
      </trkpt>
      <trkpt lat="45.96256" lon="4.77966">
        <ele>204</ele>
        <time>2017-06-12T09:52:33Z</time>
      </trkpt>
      <trkpt lat="45.96253" lon="4.77962">
        <ele>204</ele>
        <time>2017-06-12T09:52:34Z</time>
      </trkpt>
      <trkpt lat="45.9625" lon="4.77958">
        <ele>199</ele>
        <time>2017-06-12T09:52:35Z</time>
      </trkpt>
      <trkpt lat="45.96246" lon="4.77951">
        <ele>200</ele>
        <time>2017-06-12T09:52:36Z</time>
      </trkpt>
      <trkpt lat="45.9624" lon="4.77946">
        <ele>201</ele>
        <time>2017-06-12T09:52:37Z</time>
      </trkpt>
      <trkpt lat="45.96235" lon="4.7794">
        <ele>201</ele>
        <time>2017-06-12T09:52:38Z</time>
      </trkpt>
      <trkpt lat="45.9623" lon="4.77934">
        <ele>201</ele>
        <time>2017-06-12T09:52:39Z</time>
      </trkpt>
      <trkpt lat="45.96224" lon="4.77927">
        <ele>201</ele>
        <time>2017-06-12T09:52:40Z</time>
      </trkpt>
      <trkpt lat="45.96219" lon="4.77921">
        <ele>200</ele>
        <time>2017-06-12T09:52:41Z</time>
      </trkpt>
      <trkpt lat="45.96214" lon="4.77914">
        <ele>203</ele>
        <time>2017-06-12T09:52:42Z</time>
      </trkpt>
      <trkpt lat="45.9621" lon="4.77907">
        <ele>203</ele>
        <time>2017-06-12T09:52:43Z</time>
      </trkpt>
      <trkpt lat="45.96205" lon="4.779">
        <ele>202</ele>
        <time>2017-06-12T09:52:44Z</time>
      </trkpt>
      <trkpt lat="45.96201" lon="4.77893">
        <ele>202</ele>
        <time>2017-06-12T09:52:45Z</time>
      </trkpt>
      <trkpt lat="45.96196" lon="4.77887">
        <ele>202</ele>
        <time>2017-06-12T09:52:46Z</time>
      </trkpt>
      <trkpt lat="45.96192" lon="4.77881">
        <ele>202</ele>
        <time>2017-06-12T09:52:47Z</time>
      </trkpt>
      <trkpt lat="45.96188" lon="4.77875">
        <ele>202</ele>
        <time>2017-06-12T09:52:48Z</time>
      </trkpt>
      <trkpt lat="45.96184" lon="4.77869">
        <ele>201</ele>
        <time>2017-06-12T09:52:49Z</time>
      </trkpt>
      <trkpt lat="45.96181" lon="4.77863">
        <ele>201</ele>
        <time>2017-06-12T09:52:50Z</time>
      </trkpt>
      <trkpt lat="45.96177" lon="4.77856">
        <ele>201</ele>
        <time>2017-06-12T09:52:51Z</time>
      </trkpt>
      <trkpt lat="45.96173" lon="4.77849">
        <ele>201</ele>
        <time>2017-06-12T09:52:52Z</time>
      </trkpt>
      <trkpt lat="45.96168" lon="4.77842">
        <ele>200</ele>
        <time>2017-06-12T09:52:53Z</time>
      </trkpt>
      <trkpt lat="45.96164" lon="4.77835">
        <ele>198</ele>
        <time>2017-06-12T09:52:54Z</time>
      </trkpt>
      <trkpt lat="45.9616" lon="4.77828">
        <ele>198</ele>
        <time>2017-06-12T09:52:55Z</time>
      </trkpt>
      <trkpt lat="45.96156" lon="4.77821">
        <ele>198</ele>
        <time>2017-06-12T09:52:56Z</time>
      </trkpt>
      <trkpt lat="45.96152" lon="4.77813">
        <ele>198</ele>
        <time>2017-06-12T09:52:57Z</time>
      </trkpt>
      <trkpt lat="45.96148" lon="4.77807">
        <ele>198</ele>
        <time>2017-06-12T09:52:58Z</time>
      </trkpt>
      <trkpt lat="45.96144" lon="4.778">
        <ele>198</ele>
        <time>2017-06-12T09:52:59Z</time>
      </trkpt>
      <trkpt lat="45.9614" lon="4.77794">
        <ele>198</ele>
        <time>2017-06-12T09:53:00Z</time>
      </trkpt>
      <trkpt lat="45.96137" lon="4.77787">
        <ele>198</ele>
        <time>2017-06-12T09:53:01Z</time>
      </trkpt>
      <trkpt lat="45.96133" lon="4.77781">
        <ele>198</ele>
        <time>2017-06-12T09:53:02Z</time>
      </trkpt>
      <trkpt lat="45.96128" lon="4.77774">
        <ele>198</ele>
        <time>2017-06-12T09:53:03Z</time>
      </trkpt>
      <trkpt lat="45.96125" lon="4.77768">
        <ele>198</ele>
        <time>2017-06-12T09:53:04Z</time>
      </trkpt>
      <trkpt lat="45.96121" lon="4.77762">
        <ele>197</ele>
        <time>2017-06-12T09:53:05Z</time>
      </trkpt>
      <trkpt lat="45.96118" lon="4.77756">
        <ele>197</ele>
        <time>2017-06-12T09:53:06Z</time>
      </trkpt>
      <trkpt lat="45.96114" lon="4.77749">
        <ele>199</ele>
        <time>2017-06-12T09:53:07Z</time>
      </trkpt>
      <trkpt lat="45.9611" lon="4.77742">
        <ele>199</ele>
        <time>2017-06-12T09:53:08Z</time>
      </trkpt>
      <trkpt lat="45.96105" lon="4.77736">
        <ele>199</ele>
        <time>2017-06-12T09:53:09Z</time>
      </trkpt>
      <trkpt lat="45.96101" lon="4.77729">
        <ele>199</ele>
        <time>2017-06-12T09:53:10Z</time>
      </trkpt>
      <trkpt lat="45.96097" lon="4.77722">
        <ele>199</ele>
        <time>2017-06-12T09:53:11Z</time>
      </trkpt>
      <trkpt lat="45.96093" lon="4.77716">
        <ele>199</ele>
        <time>2017-06-12T09:53:12Z</time>
      </trkpt>
      <trkpt lat="45.96089" lon="4.77709">
        <ele>200</ele>
        <time>2017-06-12T09:53:13Z</time>
      </trkpt>
      <trkpt lat="45.96084" lon="4.77703">
        <ele>200</ele>
        <time>2017-06-12T09:53:14Z</time>
      </trkpt>
      <trkpt lat="45.9608" lon="4.77697">
        <ele>197</ele>
        <time>2017-06-12T09:53:15Z</time>
      </trkpt>
      <trkpt lat="45.96076" lon="4.7769">
        <ele>198</ele>
        <time>2017-06-12T09:53:16Z</time>
      </trkpt>
      <trkpt lat="45.96072" lon="4.77684">
        <ele>198</ele>
        <time>2017-06-12T09:53:17Z</time>
      </trkpt>
      <trkpt lat="45.96067" lon="4.77678">
        <ele>198</ele>
        <time>2017-06-12T09:53:18Z</time>
      </trkpt>
      <trkpt lat="45.96063" lon="4.77672">
        <ele>198</ele>
        <time>2017-06-12T09:53:19Z</time>
      </trkpt>
      <trkpt lat="45.96058" lon="4.77666">
        <ele>200</ele>
        <time>2017-06-12T09:53:20Z</time>
      </trkpt>
      <trkpt lat="45.96054" lon="4.77659">
        <ele>200</ele>
        <time>2017-06-12T09:53:21Z</time>
      </trkpt>
      <trkpt lat="45.96049" lon="4.77654">
        <ele>200</ele>
        <time>2017-06-12T09:53:22Z</time>
      </trkpt>
      <trkpt lat="45.96044" lon="4.77648">
        <ele>199</ele>
        <time>2017-06-12T09:53:23Z</time>
      </trkpt>
      <trkpt lat="45.96039" lon="4.77642">
        <ele>199</ele>
        <time>2017-06-12T09:53:24Z</time>
      </trkpt>
      <trkpt lat="45.96034" lon="4.77635">
        <ele>199</ele>
        <time>2017-06-12T09:53:25Z</time>
      </trkpt>
      <trkpt lat="45.96029" lon="4.77629">
        <ele>199</ele>
        <time>2017-06-12T09:53:26Z</time>
      </trkpt>
      <trkpt lat="45.96023" lon="4.77623">
        <ele>199</ele>
        <time>2017-06-12T09:53:27Z</time>
      </trkpt>
      <trkpt lat="45.96018" lon="4.77617">
        <ele>199</ele>
        <time>2017-06-12T09:53:28Z</time>
      </trkpt>
      <trkpt lat="45.96013" lon="4.77611">
        <ele>199</ele>
        <time>2017-06-12T09:53:29Z</time>
      </trkpt>
      <trkpt lat="45.96009" lon="4.77605">
        <ele>199</ele>
        <time>2017-06-12T09:53:30Z</time>
      </trkpt>
      <trkpt lat="45.96005" lon="4.77599">
        <ele>198</ele>
        <time>2017-06-12T09:53:31Z</time>
      </trkpt>
      <trkpt lat="45.96001" lon="4.77594">
        <ele>198</ele>
        <time>2017-06-12T09:53:32Z</time>
      </trkpt>
      <trkpt lat="45.95997" lon="4.77589">
        <ele>196</ele>
        <time>2017-06-12T09:53:33Z</time>
      </trkpt>
      <trkpt lat="45.95994" lon="4.77582">
        <ele>197</ele>
        <time>2017-06-12T09:53:34Z</time>
      </trkpt>
      <trkpt lat="45.95991" lon="4.77575">
        <ele>196</ele>
        <time>2017-06-12T09:53:35Z</time>
      </trkpt>
      <trkpt lat="45.95988" lon="4.77568">
        <ele>196</ele>
        <time>2017-06-12T09:53:36Z</time>
      </trkpt>
      <trkpt lat="45.95985" lon="4.77561">
        <ele>196</ele>
        <time>2017-06-12T09:53:37Z</time>
      </trkpt>
      <trkpt lat="45.95983" lon="4.77554">
        <ele>196</ele>
        <time>2017-06-12T09:53:38Z</time>
      </trkpt>
      <trkpt lat="45.9598" lon="4.77547">
        <ele>196</ele>
        <time>2017-06-12T09:53:39Z</time>
      </trkpt>
      <trkpt lat="45.95978" lon="4.77542">
        <ele>196</ele>
        <time>2017-06-12T09:53:40Z</time>
      </trkpt>
      <trkpt lat="45.95974" lon="4.77532">
        <ele>196</ele>
        <time>2017-06-12T09:53:42Z</time>
      </trkpt>
      <trkpt lat="45.95972" lon="4.77526">
        <ele>196</ele>
        <time>2017-06-12T09:53:43Z</time>
      </trkpt>
      <trkpt lat="45.95969" lon="4.7752">
        <ele>196</ele>
        <time>2017-06-12T09:53:44Z</time>
      </trkpt>
      <trkpt lat="45.95967" lon="4.77514">
        <ele>196</ele>
        <time>2017-06-12T09:53:45Z</time>
      </trkpt>
      <trkpt lat="45.95964" lon="4.77507">
        <ele>195</ele>
        <time>2017-06-12T09:53:46Z</time>
      </trkpt>
      <trkpt lat="45.95962" lon="4.77499">
        <ele>196</ele>
        <time>2017-06-12T09:53:47Z</time>
      </trkpt>
      <trkpt lat="45.95959" lon="4.7749">
        <ele>196</ele>
        <time>2017-06-12T09:53:48Z</time>
      </trkpt>
      <trkpt lat="45.95956" lon="4.77482">
        <ele>196</ele>
        <time>2017-06-12T09:53:49Z</time>
      </trkpt>
      <trkpt lat="45.95953" lon="4.77473">
        <ele>196</ele>
        <time>2017-06-12T09:53:50Z</time>
      </trkpt>
      <trkpt lat="45.95951" lon="4.77464">
        <ele>196</ele>
        <time>2017-06-12T09:53:51Z</time>
      </trkpt>
      <trkpt lat="45.95948" lon="4.77456">
        <ele>196</ele>
        <time>2017-06-12T09:53:52Z</time>
      </trkpt>
      <trkpt lat="45.95944" lon="4.77446">
        <ele>196</ele>
        <time>2017-06-12T09:53:53Z</time>
      </trkpt>
      <trkpt lat="45.95941" lon="4.77437">
        <ele>196</ele>
        <time>2017-06-12T09:53:54Z</time>
      </trkpt>
      <trkpt lat="45.95938" lon="4.77428">
        <ele>195</ele>
        <time>2017-06-12T09:53:55Z</time>
      </trkpt>
      <trkpt lat="45.95935" lon="4.7742">
        <ele>195</ele>
        <time>2017-06-12T09:53:56Z</time>
      </trkpt>
      <trkpt lat="45.95932" lon="4.77412">
        <ele>196</ele>
        <time>2017-06-12T09:53:57Z</time>
      </trkpt>
      <trkpt lat="45.95929" lon="4.77403">
        <ele>196</ele>
        <time>2017-06-12T09:53:58Z</time>
      </trkpt>
      <trkpt lat="45.95925" lon="4.77394">
        <ele>196</ele>
        <time>2017-06-12T09:53:59Z</time>
      </trkpt>
      <trkpt lat="45.95922" lon="4.77385">
        <ele>196</ele>
        <time>2017-06-12T09:54:00Z</time>
      </trkpt>
      <trkpt lat="45.95918" lon="4.77376">
        <ele>196</ele>
        <time>2017-06-12T09:54:01Z</time>
      </trkpt>
      <trkpt lat="45.95914" lon="4.77368">
        <ele>193</ele>
        <time>2017-06-12T09:54:02Z</time>
      </trkpt>
      <trkpt lat="45.9591" lon="4.7736">
        <ele>193</ele>
        <time>2017-06-12T09:54:03Z</time>
      </trkpt>
      <trkpt lat="45.95908" lon="4.77351">
        <ele>193</ele>
        <time>2017-06-12T09:54:04Z</time>
      </trkpt>
      <trkpt lat="45.95904" lon="4.77341">
        <ele>194</ele>
        <time>2017-06-12T09:54:05Z</time>
      </trkpt>
      <trkpt lat="45.95902" lon="4.77332">
        <ele>194</ele>
        <time>2017-06-12T09:54:06Z</time>
      </trkpt>
      <trkpt lat="45.95899" lon="4.77324">
        <ele>194</ele>
        <time>2017-06-12T09:54:07Z</time>
      </trkpt>
      <trkpt lat="45.95897" lon="4.77315">
        <ele>193</ele>
        <time>2017-06-12T09:54:08Z</time>
      </trkpt>
      <trkpt lat="45.95895" lon="4.77305">
        <ele>193</ele>
        <time>2017-06-12T09:54:09Z</time>
      </trkpt>
      <trkpt lat="45.95893" lon="4.77296">
        <ele>193</ele>
        <time>2017-06-12T09:54:10Z</time>
      </trkpt>
      <trkpt lat="45.95891" lon="4.77285">
        <ele>193</ele>
        <time>2017-06-12T09:54:11Z</time>
      </trkpt>
      <trkpt lat="45.95889" lon="4.77275">
        <ele>193</ele>
        <time>2017-06-12T09:54:12Z</time>
      </trkpt>
      <trkpt lat="45.95886" lon="4.77264">
        <ele>193</ele>
        <time>2017-06-12T09:54:13Z</time>
      </trkpt>
      <trkpt lat="45.95883" lon="4.77254">
        <ele>193</ele>
        <time>2017-06-12T09:54:14Z</time>
      </trkpt>
      <trkpt lat="45.95881" lon="4.77244">
        <ele>193</ele>
        <time>2017-06-12T09:54:15Z</time>
      </trkpt>
      <trkpt lat="45.95879" lon="4.77234">
        <ele>193</ele>
        <time>2017-06-12T09:54:16Z</time>
      </trkpt>
      <trkpt lat="45.95877" lon="4.77225">
        <ele>193</ele>
        <time>2017-06-12T09:54:17Z</time>
      </trkpt>
      <trkpt lat="45.95874" lon="4.77214">
        <ele>193</ele>
        <time>2017-06-12T09:54:18Z</time>
      </trkpt>
      <trkpt lat="45.95872" lon="4.77205">
        <ele>193</ele>
        <time>2017-06-12T09:54:19Z</time>
      </trkpt>
      <trkpt lat="45.9587" lon="4.77196">
        <ele>193</ele>
        <time>2017-06-12T09:54:20Z</time>
      </trkpt>
      <trkpt lat="45.95867" lon="4.77186">
        <ele>193</ele>
        <time>2017-06-12T09:54:21Z</time>
      </trkpt>
      <trkpt lat="45.95865" lon="4.77178">
        <ele>192</ele>
        <time>2017-06-12T09:54:22Z</time>
      </trkpt>
      <trkpt lat="45.95863" lon="4.77169">
        <ele>192</ele>
        <time>2017-06-12T09:54:23Z</time>
      </trkpt>
      <trkpt lat="45.95861" lon="4.77161">
        <ele>193</ele>
        <time>2017-06-12T09:54:24Z</time>
      </trkpt>
      <trkpt lat="45.95858" lon="4.77152">
        <ele>193</ele>
        <time>2017-06-12T09:54:25Z</time>
      </trkpt>
      <trkpt lat="45.95856" lon="4.77144">
        <ele>193</ele>
        <time>2017-06-12T09:54:26Z</time>
      </trkpt>
      <trkpt lat="45.95854" lon="4.77135">
        <ele>193</ele>
        <time>2017-06-12T09:54:27Z</time>
      </trkpt>
      <trkpt lat="45.95852" lon="4.77127">
        <ele>193</ele>
        <time>2017-06-12T09:54:28Z</time>
      </trkpt>
      <trkpt lat="45.9585" lon="4.77118">
        <ele>193</ele>
        <time>2017-06-12T09:54:29Z</time>
      </trkpt>
      <trkpt lat="45.95848" lon="4.7711">
        <ele>193</ele>
        <time>2017-06-12T09:54:30Z</time>
      </trkpt>
      <trkpt lat="45.95845" lon="4.77102">
        <ele>193</ele>
        <time>2017-06-12T09:54:31Z</time>
      </trkpt>
      <trkpt lat="45.95843" lon="4.77094">
        <ele>193</ele>
        <time>2017-06-12T09:54:32Z</time>
      </trkpt>
      <trkpt lat="45.9584" lon="4.77085">
        <ele>192</ele>
        <time>2017-06-12T09:54:33Z</time>
      </trkpt>
      <trkpt lat="45.95836" lon="4.77077">
        <ele>192</ele>
        <time>2017-06-12T09:54:34Z</time>
      </trkpt>
      <trkpt lat="45.95832" lon="4.77069">
        <ele>191</ele>
        <time>2017-06-12T09:54:35Z</time>
      </trkpt>
      <trkpt lat="45.95829" lon="4.77062">
        <ele>191</ele>
        <time>2017-06-12T09:54:36Z</time>
      </trkpt>
      <trkpt lat="45.95825" lon="4.77053">
        <ele>190</ele>
        <time>2017-06-12T09:54:37Z</time>
      </trkpt>
      <trkpt lat="45.95821" lon="4.77044">
        <ele>190</ele>
        <time>2017-06-12T09:54:38Z</time>
      </trkpt>
      <trkpt lat="45.95817" lon="4.77035">
        <ele>190</ele>
        <time>2017-06-12T09:54:39Z</time>
      </trkpt>
      <trkpt lat="45.95813" lon="4.77026">
        <ele>190</ele>
        <time>2017-06-12T09:54:40Z</time>
      </trkpt>
      <trkpt lat="45.9581" lon="4.77016">
        <ele>190</ele>
        <time>2017-06-12T09:54:41Z</time>
      </trkpt>
      <trkpt lat="45.95806" lon="4.77006">
        <ele>190</ele>
        <time>2017-06-12T09:54:42Z</time>
      </trkpt>
      <trkpt lat="45.95804" lon="4.76995">
        <ele>190</ele>
        <time>2017-06-12T09:54:43Z</time>
      </trkpt>
      <trkpt lat="45.95804" lon="4.76985">
        <ele>189</ele>
        <time>2017-06-12T09:54:44Z</time>
      </trkpt>
      <trkpt lat="45.95804" lon="4.76976">
        <ele>189</ele>
        <time>2017-06-12T09:54:45Z</time>
      </trkpt>
      <trkpt lat="45.95804" lon="4.76967">
        <ele>189</ele>
        <time>2017-06-12T09:54:46Z</time>
      </trkpt>
      <trkpt lat="45.95806" lon="4.76958">
        <ele>189</ele>
        <time>2017-06-12T09:54:47Z</time>
      </trkpt>
      <trkpt lat="45.95807" lon="4.76949">
        <ele>189</ele>
        <time>2017-06-12T09:54:48Z</time>
      </trkpt>
      <trkpt lat="45.95808" lon="4.76941">
        <ele>189</ele>
        <time>2017-06-12T09:54:49Z</time>
      </trkpt>
      <trkpt lat="45.9581" lon="4.76933">
        <ele>189</ele>
        <time>2017-06-12T09:54:50Z</time>
      </trkpt>
      <trkpt lat="45.95812" lon="4.76926">
        <ele>189</ele>
        <time>2017-06-12T09:54:51Z</time>
      </trkpt>
      <trkpt lat="45.95813" lon="4.76918">
        <ele>189</ele>
        <time>2017-06-12T09:54:52Z</time>
      </trkpt>
      <trkpt lat="45.95815" lon="4.76911">
        <ele>189</ele>
        <time>2017-06-12T09:54:53Z</time>
      </trkpt>
      <trkpt lat="45.95816" lon="4.76904">
        <ele>189</ele>
        <time>2017-06-12T09:54:54Z</time>
      </trkpt>
      <trkpt lat="45.95818" lon="4.76897">
        <ele>189</ele>
        <time>2017-06-12T09:54:55Z</time>
      </trkpt>
      <trkpt lat="45.95819" lon="4.76889">
        <ele>189</ele>
        <time>2017-06-12T09:54:56Z</time>
      </trkpt>
      <trkpt lat="45.95821" lon="4.76882">
        <ele>189</ele>
        <time>2017-06-12T09:54:57Z</time>
      </trkpt>
      <trkpt lat="45.95823" lon="4.76874">
        <ele>189</ele>
        <time>2017-06-12T09:54:58Z</time>
      </trkpt>
      <trkpt lat="45.95825" lon="4.76866">
        <ele>189</ele>
        <time>2017-06-12T09:54:59Z</time>
      </trkpt>
      <trkpt lat="45.95826" lon="4.76858">
        <ele>189</ele>
        <time>2017-06-12T09:55:00Z</time>
      </trkpt>
      <trkpt lat="45.95827" lon="4.7685">
        <ele>190</ele>
        <time>2017-06-12T09:55:01Z</time>
      </trkpt>
      <trkpt lat="45.95829" lon="4.76842">
        <ele>190</ele>
        <time>2017-06-12T09:55:02Z</time>
      </trkpt>
      <trkpt lat="45.9583" lon="4.76835">
        <ele>190</ele>
        <time>2017-06-12T09:55:03Z</time>
      </trkpt>
      <trkpt lat="45.95831" lon="4.76828">
        <ele>190</ele>
        <time>2017-06-12T09:55:04Z</time>
      </trkpt>
      <trkpt lat="45.95832" lon="4.76821">
        <ele>190</ele>
        <time>2017-06-12T09:55:05Z</time>
      </trkpt>
      <trkpt lat="45.95833" lon="4.76814">
        <ele>190</ele>
        <time>2017-06-12T09:55:06Z</time>
      </trkpt>
      <trkpt lat="45.95834" lon="4.76807">
        <ele>191</ele>
        <time>2017-06-12T09:55:07Z</time>
      </trkpt>
      <trkpt lat="45.95834" lon="4.768">
        <ele>191</ele>
        <time>2017-06-12T09:55:08Z</time>
      </trkpt>
      <trkpt lat="45.95833" lon="4.76792">
        <ele>190</ele>
        <time>2017-06-12T09:55:09Z</time>
      </trkpt>
      <trkpt lat="45.95832" lon="4.76784">
        <ele>190</ele>
        <time>2017-06-12T09:55:10Z</time>
      </trkpt>
      <trkpt lat="45.9583" lon="4.76775">
        <ele>190</ele>
        <time>2017-06-12T09:55:11Z</time>
      </trkpt>
      <trkpt lat="45.95829" lon="4.76767">
        <ele>190</ele>
        <time>2017-06-12T09:55:12Z</time>
      </trkpt>
      <trkpt lat="45.95827" lon="4.76758">
        <ele>191</ele>
        <time>2017-06-12T09:55:13Z</time>
      </trkpt>
      <trkpt lat="45.95826" lon="4.76749">
        <ele>190</ele>
        <time>2017-06-12T09:55:14Z</time>
      </trkpt>
      <trkpt lat="45.95824" lon="4.7674">
        <ele>190</ele>
        <time>2017-06-12T09:55:15Z</time>
      </trkpt>
      <trkpt lat="45.95823" lon="4.76731">
        <ele>190</ele>
        <time>2017-06-12T09:55:16Z</time>
      </trkpt>
      <trkpt lat="45.95821" lon="4.76721">
        <ele>189</ele>
        <time>2017-06-12T09:55:17Z</time>
      </trkpt>
      <trkpt lat="45.9582" lon="4.76712">
        <ele>189</ele>
        <time>2017-06-12T09:55:18Z</time>
      </trkpt>
      <trkpt lat="45.9582" lon="4.76703">
        <ele>189</ele>
        <time>2017-06-12T09:55:19Z</time>
      </trkpt>
      <trkpt lat="45.95819" lon="4.76694">
        <ele>189</ele>
        <time>2017-06-12T09:55:20Z</time>
      </trkpt>
      <trkpt lat="45.95818" lon="4.76686">
        <ele>189</ele>
        <time>2017-06-12T09:55:21Z</time>
      </trkpt>
      <trkpt lat="45.95816" lon="4.76677">
        <ele>189</ele>
        <time>2017-06-12T09:55:22Z</time>
      </trkpt>
      <trkpt lat="45.95815" lon="4.76669">
        <ele>189</ele>
        <time>2017-06-12T09:55:23Z</time>
      </trkpt>
      <trkpt lat="45.95814" lon="4.7666">
        <ele>188</ele>
        <time>2017-06-12T09:55:24Z</time>
      </trkpt>
      <trkpt lat="45.95812" lon="4.7665">
        <ele>188</ele>
        <time>2017-06-12T09:55:25Z</time>
      </trkpt>
      <trkpt lat="45.95811" lon="4.7664">
        <ele>188</ele>
        <time>2017-06-12T09:55:26Z</time>
      </trkpt>
      <trkpt lat="45.95809" lon="4.76631">
        <ele>188</ele>
        <time>2017-06-12T09:55:27Z</time>
      </trkpt>
      <trkpt lat="45.95809" lon="4.76622">
        <ele>188</ele>
        <time>2017-06-12T09:55:28Z</time>
      </trkpt>
      <trkpt lat="45.95807" lon="4.76613">
        <ele>188</ele>
        <time>2017-06-12T09:55:29Z</time>
      </trkpt>
      <trkpt lat="45.95806" lon="4.76604">
        <ele>188</ele>
        <time>2017-06-12T09:55:30Z</time>
      </trkpt>
      <trkpt lat="45.95805" lon="4.76596">
        <ele>188</ele>
        <time>2017-06-12T09:55:31Z</time>
      </trkpt>
      <trkpt lat="45.95805" lon="4.76588">
        <ele>188</ele>
        <time>2017-06-12T09:55:32Z</time>
      </trkpt>
      <trkpt lat="45.95803" lon="4.7658">
        <ele>187</ele>
        <time>2017-06-12T09:55:33Z</time>
      </trkpt>
      <trkpt lat="45.95802" lon="4.76572">
        <ele>187</ele>
        <time>2017-06-12T09:55:34Z</time>
      </trkpt>
      <trkpt lat="45.95801" lon="4.76563">
        <ele>187</ele>
        <time>2017-06-12T09:55:35Z</time>
      </trkpt>
      <trkpt lat="45.95799" lon="4.76555">
        <ele>187</ele>
        <time>2017-06-12T09:55:36Z</time>
      </trkpt>
      <trkpt lat="45.95798" lon="4.76546">
        <ele>187</ele>
        <time>2017-06-12T09:55:37Z</time>
      </trkpt>
      <trkpt lat="45.95796" lon="4.76537">
        <ele>187</ele>
        <time>2017-06-12T09:55:38Z</time>
      </trkpt>
      <trkpt lat="45.95795" lon="4.76528">
        <ele>187</ele>
        <time>2017-06-12T09:55:39Z</time>
      </trkpt>
      <trkpt lat="45.95793" lon="4.7652">
        <ele>187</ele>
        <time>2017-06-12T09:55:40Z</time>
      </trkpt>
      <trkpt lat="45.95792" lon="4.76511">
        <ele>187</ele>
        <time>2017-06-12T09:55:41Z</time>
      </trkpt>
      <trkpt lat="45.95791" lon="4.76503">
        <ele>187</ele>
        <time>2017-06-12T09:55:42Z</time>
      </trkpt>
      <trkpt lat="45.9579" lon="4.76495">
        <ele>186</ele>
        <time>2017-06-12T09:55:43Z</time>
      </trkpt>
      <trkpt lat="45.95789" lon="4.76487">
        <ele>186</ele>
        <time>2017-06-12T09:55:44Z</time>
      </trkpt>
      <trkpt lat="45.95788" lon="4.76478">
        <ele>186</ele>
        <time>2017-06-12T09:55:45Z</time>
      </trkpt>
      <trkpt lat="45.95786" lon="4.76469">
        <ele>186</ele>
        <time>2017-06-12T09:55:46Z</time>
      </trkpt>
      <trkpt lat="45.95784" lon="4.76461">
        <ele>186</ele>
        <time>2017-06-12T09:55:47Z</time>
      </trkpt>
      <trkpt lat="45.95783" lon="4.76452">
        <ele>186</ele>
        <time>2017-06-12T09:55:48Z</time>
      </trkpt>
      <trkpt lat="45.95782" lon="4.76443">
        <ele>186</ele>
        <time>2017-06-12T09:55:49Z</time>
      </trkpt>
      <trkpt lat="45.95781" lon="4.76434">
        <ele>186</ele>
        <time>2017-06-12T09:55:50Z</time>
      </trkpt>
      <trkpt lat="45.9578" lon="4.76425">
        <ele>186</ele>
        <time>2017-06-12T09:55:51Z</time>
      </trkpt>
      <trkpt lat="45.95779" lon="4.76416">
        <ele>186</ele>
        <time>2017-06-12T09:55:52Z</time>
      </trkpt>
      <trkpt lat="45.95778" lon="4.76408">
        <ele>186</ele>
        <time>2017-06-12T09:55:53Z</time>
      </trkpt>
      <trkpt lat="45.95778" lon="4.76399">
        <ele>186</ele>
        <time>2017-06-12T09:55:54Z</time>
      </trkpt>
      <trkpt lat="45.95777" lon="4.76391">
        <ele>186</ele>
        <time>2017-06-12T09:55:55Z</time>
      </trkpt>
      <trkpt lat="45.95776" lon="4.76383">
        <ele>186</ele>
        <time>2017-06-12T09:55:56Z</time>
      </trkpt>
      <trkpt lat="45.95776" lon="4.76375">
        <ele>186</ele>
        <time>2017-06-12T09:55:57Z</time>
      </trkpt>
      <trkpt lat="45.95775" lon="4.76366">
        <ele>186</ele>
        <time>2017-06-12T09:55:58Z</time>
      </trkpt>
      <trkpt lat="45.95774" lon="4.76359">
        <ele>186</ele>
        <time>2017-06-12T09:55:59Z</time>
      </trkpt>
      <trkpt lat="45.95774" lon="4.7635">
        <ele>186</ele>
        <time>2017-06-12T09:56:00Z</time>
      </trkpt>
      <trkpt lat="45.95773" lon="4.76342">
        <ele>186</ele>
        <time>2017-06-12T09:56:01Z</time>
      </trkpt>
      <trkpt lat="45.95773" lon="4.76333">
        <ele>185</ele>
        <time>2017-06-12T09:56:02Z</time>
      </trkpt>
      <trkpt lat="45.95772" lon="4.76324">
        <ele>185</ele>
        <time>2017-06-12T09:56:03Z</time>
      </trkpt>
      <trkpt lat="45.95772" lon="4.76315">
        <ele>185</ele>
        <time>2017-06-12T09:56:04Z</time>
      </trkpt>
      <trkpt lat="45.95772" lon="4.76306">
        <ele>186</ele>
        <time>2017-06-12T09:56:05Z</time>
      </trkpt>
      <trkpt lat="45.95772" lon="4.76298">
        <ele>186</ele>
        <time>2017-06-12T09:56:06Z</time>
      </trkpt>
      <trkpt lat="45.95771" lon="4.76289">
        <ele>186</ele>
        <time>2017-06-12T09:56:07Z</time>
      </trkpt>
      <trkpt lat="45.95771" lon="4.76281">
        <ele>186</ele>
        <time>2017-06-12T09:56:08Z</time>
      </trkpt>
      <trkpt lat="45.9577" lon="4.76273">
        <ele>186</ele>
        <time>2017-06-12T09:56:09Z</time>
      </trkpt>
      <trkpt lat="45.9577" lon="4.76264">
        <ele>186</ele>
        <time>2017-06-12T09:56:10Z</time>
      </trkpt>
      <trkpt lat="45.95769" lon="4.76255">
        <ele>185</ele>
        <time>2017-06-12T09:56:11Z</time>
      </trkpt>
      <trkpt lat="45.95768" lon="4.76245">
        <ele>186</ele>
        <time>2017-06-12T09:56:12Z</time>
      </trkpt>
      <trkpt lat="45.95768" lon="4.76236">
        <ele>186</ele>
        <time>2017-06-12T09:56:13Z</time>
      </trkpt>
      <trkpt lat="45.95767" lon="4.76225">
        <ele>186</ele>
        <time>2017-06-12T09:56:14Z</time>
      </trkpt>
      <trkpt lat="45.95766" lon="4.76215">
        <ele>186</ele>
        <time>2017-06-12T09:56:15Z</time>
      </trkpt>
      <trkpt lat="45.95766" lon="4.76204">
        <ele>186</ele>
        <time>2017-06-12T09:56:16Z</time>
      </trkpt>
      <trkpt lat="45.95765" lon="4.76194">
        <ele>186</ele>
        <time>2017-06-12T09:56:17Z</time>
      </trkpt>
      <trkpt lat="45.95765" lon="4.76183">
        <ele>186</ele>
        <time>2017-06-12T09:56:18Z</time>
      </trkpt>
      <trkpt lat="45.95764" lon="4.76173">
        <ele>185</ele>
        <time>2017-06-12T09:56:19Z</time>
      </trkpt>
      <trkpt lat="45.95764" lon="4.76163">
        <ele>186</ele>
        <time>2017-06-12T09:56:20Z</time>
      </trkpt>
      <trkpt lat="45.95763" lon="4.76153">
        <ele>186</ele>
        <time>2017-06-12T09:56:21Z</time>
      </trkpt>
      <trkpt lat="45.95763" lon="4.76144">
        <ele>186</ele>
        <time>2017-06-12T09:56:22Z</time>
      </trkpt>
      <trkpt lat="45.95762" lon="4.76134">
        <ele>186</ele>
        <time>2017-06-12T09:56:23Z</time>
      </trkpt>
      <trkpt lat="45.95761" lon="4.76125">
        <ele>186</ele>
        <time>2017-06-12T09:56:24Z</time>
      </trkpt>
      <trkpt lat="45.9576" lon="4.76117">
        <ele>186</ele>
        <time>2017-06-12T09:56:25Z</time>
      </trkpt>
      <trkpt lat="45.95759" lon="4.76108">
        <ele>186</ele>
        <time>2017-06-12T09:56:26Z</time>
      </trkpt>
      <trkpt lat="45.95757" lon="4.761">
        <ele>186</ele>
        <time>2017-06-12T09:56:27Z</time>
      </trkpt>
      <trkpt lat="45.95755" lon="4.76093">
        <ele>186</ele>
        <time>2017-06-12T09:56:28Z</time>
      </trkpt>
      <trkpt lat="45.95753" lon="4.76085">
        <ele>185</ele>
        <time>2017-06-12T09:56:29Z</time>
      </trkpt>
      <trkpt lat="45.9575" lon="4.76078">
        <ele>185</ele>
        <time>2017-06-12T09:56:30Z</time>
      </trkpt>
      <trkpt lat="45.95747" lon="4.76071">
        <ele>185</ele>
        <time>2017-06-12T09:56:31Z</time>
      </trkpt>
      <trkpt lat="45.95744" lon="4.76063">
        <ele>185</ele>
        <time>2017-06-12T09:56:32Z</time>
      </trkpt>
      <trkpt lat="45.95741" lon="4.76055">
        <ele>184</ele>
        <time>2017-06-12T09:56:33Z</time>
      </trkpt>
      <trkpt lat="45.95737" lon="4.76047">
        <ele>184</ele>
        <time>2017-06-12T09:56:34Z</time>
      </trkpt>
      <trkpt lat="45.95733" lon="4.76038">
        <ele>184</ele>
        <time>2017-06-12T09:56:35Z</time>
      </trkpt>
      <trkpt lat="45.95729" lon="4.76029">
        <ele>184</ele>
        <time>2017-06-12T09:56:36Z</time>
      </trkpt>
      <trkpt lat="45.95725" lon="4.7602">
        <ele>184</ele>
        <time>2017-06-12T09:56:37Z</time>
      </trkpt>
      <trkpt lat="45.9572" lon="4.76011">
        <ele>184</ele>
        <time>2017-06-12T09:56:38Z</time>
      </trkpt>
      <trkpt lat="45.95716" lon="4.76002">
        <ele>184</ele>
        <time>2017-06-12T09:56:39Z</time>
      </trkpt>
      <trkpt lat="45.95712" lon="4.75993">
        <ele>185</ele>
        <time>2017-06-12T09:56:40Z</time>
      </trkpt>
      <trkpt lat="45.95708" lon="4.75984">
        <ele>185</ele>
        <time>2017-06-12T09:56:41Z</time>
      </trkpt>
      <trkpt lat="45.95704" lon="4.75976">
        <ele>185</ele>
        <time>2017-06-12T09:56:42Z</time>
      </trkpt>
      <trkpt lat="45.957" lon="4.75967">
        <ele>185</ele>
        <time>2017-06-12T09:56:43Z</time>
      </trkpt>
      <trkpt lat="45.95696" lon="4.75959">
        <ele>185</ele>
        <time>2017-06-12T09:56:44Z</time>
      </trkpt>
      <trkpt lat="45.95692" lon="4.75951">
        <ele>185</ele>
        <time>2017-06-12T09:56:45Z</time>
      </trkpt>
      <trkpt lat="45.95689" lon="4.75944">
        <ele>185</ele>
        <time>2017-06-12T09:56:46Z</time>
      </trkpt>
      <trkpt lat="45.95685" lon="4.75936">
        <ele>185</ele>
        <time>2017-06-12T09:56:47Z</time>
      </trkpt>
      <trkpt lat="45.95682" lon="4.75928">
        <ele>185</ele>
        <time>2017-06-12T09:56:48Z</time>
      </trkpt>
      <trkpt lat="45.95678" lon="4.7592">
        <ele>185</ele>
        <time>2017-06-12T09:56:49Z</time>
      </trkpt>
      <trkpt lat="45.95676" lon="4.75912">
        <ele>185</ele>
        <time>2017-06-12T09:56:50Z</time>
      </trkpt>
      <trkpt lat="45.95673" lon="4.75904">
        <ele>185</ele>
        <time>2017-06-12T09:56:51Z</time>
      </trkpt>
      <trkpt lat="45.9567" lon="4.75896">
        <ele>185</ele>
        <time>2017-06-12T09:56:52Z</time>
      </trkpt>
      <trkpt lat="45.95667" lon="4.75888">
        <ele>184</ele>
        <time>2017-06-12T09:56:53Z</time>
      </trkpt>
      <trkpt lat="45.95664" lon="4.7588">
        <ele>184</ele>
        <time>2017-06-12T09:56:54Z</time>
      </trkpt>
      <trkpt lat="45.95661" lon="4.75872">
        <ele>184</ele>
        <time>2017-06-12T09:56:55Z</time>
      </trkpt>
      <trkpt lat="45.95659" lon="4.75864">
        <ele>184</ele>
        <time>2017-06-12T09:56:56Z</time>
      </trkpt>
      <trkpt lat="45.95656" lon="4.75856">
        <ele>184</ele>
        <time>2017-06-12T09:56:57Z</time>
      </trkpt>
      <trkpt lat="45.95654" lon="4.75848">
        <ele>185</ele>
        <time>2017-06-12T09:56:58Z</time>
      </trkpt>
      <trkpt lat="45.95653" lon="4.75841">
        <ele>185</ele>
        <time>2017-06-12T09:56:59Z</time>
      </trkpt>
      <trkpt lat="45.95651" lon="4.75833">
        <ele>185</ele>
        <time>2017-06-12T09:57:00Z</time>
      </trkpt>
      <trkpt lat="45.95649" lon="4.75825">
        <ele>185</ele>
        <time>2017-06-12T09:57:01Z</time>
      </trkpt>
      <trkpt lat="45.95648" lon="4.75817">
        <ele>185</ele>
        <time>2017-06-12T09:57:02Z</time>
      </trkpt>
      <trkpt lat="45.95646" lon="4.75809">
        <ele>185</ele>
        <time>2017-06-12T09:57:03Z</time>
      </trkpt>
      <trkpt lat="45.95645" lon="4.75801">
        <ele>185</ele>
        <time>2017-06-12T09:57:04Z</time>
      </trkpt>
      <trkpt lat="45.95644" lon="4.75793">
        <ele>185</ele>
        <time>2017-06-12T09:57:05Z</time>
      </trkpt>
      <trkpt lat="45.95643" lon="4.75785">
        <ele>186</ele>
        <time>2017-06-12T09:57:06Z</time>
      </trkpt>
      <trkpt lat="45.95641" lon="4.75778">
        <ele>186</ele>
        <time>2017-06-12T09:57:07Z</time>
      </trkpt>
      <trkpt lat="45.9564" lon="4.7577">
        <ele>186</ele>
        <time>2017-06-12T09:57:08Z</time>
      </trkpt>
      <trkpt lat="45.95639" lon="4.75762">
        <ele>186</ele>
        <time>2017-06-12T09:57:09Z</time>
      </trkpt>
      <trkpt lat="45.95638" lon="4.75754">
        <ele>186</ele>
        <time>2017-06-12T09:57:10Z</time>
      </trkpt>
      <trkpt lat="45.95637" lon="4.75746">
        <ele>187</ele>
        <time>2017-06-12T09:57:11Z</time>
      </trkpt>
      <trkpt lat="45.95636" lon="4.75738">
        <ele>187</ele>
        <time>2017-06-12T09:57:12Z</time>
      </trkpt>
      <trkpt lat="45.95635" lon="4.7573">
        <ele>187</ele>
        <time>2017-06-12T09:57:13Z</time>
      </trkpt>
      <trkpt lat="45.95634" lon="4.75721">
        <ele>187</ele>
        <time>2017-06-12T09:57:14Z</time>
      </trkpt>
      <trkpt lat="45.95633" lon="4.75712">
        <ele>187</ele>
        <time>2017-06-12T09:57:15Z</time>
      </trkpt>
      <trkpt lat="45.95632" lon="4.75704">
        <ele>187</ele>
        <time>2017-06-12T09:57:16Z</time>
      </trkpt>
      <trkpt lat="45.9563" lon="4.75695">
        <ele>187</ele>
        <time>2017-06-12T09:57:17Z</time>
      </trkpt>
      <trkpt lat="45.95628" lon="4.75686">
        <ele>187</ele>
        <time>2017-06-12T09:57:18Z</time>
      </trkpt>
      <trkpt lat="45.95627" lon="4.75677">
        <ele>187</ele>
        <time>2017-06-12T09:57:19Z</time>
      </trkpt>
      <trkpt lat="45.95625" lon="4.75668">
        <ele>187</ele>
        <time>2017-06-12T09:57:20Z</time>
      </trkpt>
      <trkpt lat="45.95624" lon="4.75659">
        <ele>188</ele>
        <time>2017-06-12T09:57:21Z</time>
      </trkpt>
      <trkpt lat="45.95622" lon="4.75651">
        <ele>188</ele>
        <time>2017-06-12T09:57:22Z</time>
      </trkpt>
      <trkpt lat="45.9562" lon="4.75644">
        <ele>188</ele>
        <time>2017-06-12T09:57:23Z</time>
      </trkpt>
      <trkpt lat="45.95618" lon="4.75636">
        <ele>188</ele>
        <time>2017-06-12T09:57:24Z</time>
      </trkpt>
      <trkpt lat="45.95616" lon="4.75628">
        <ele>188</ele>
        <time>2017-06-12T09:57:25Z</time>
      </trkpt>
      <trkpt lat="45.95614" lon="4.75621">
        <ele>188</ele>
        <time>2017-06-12T09:57:26Z</time>
      </trkpt>
      <trkpt lat="45.95611" lon="4.75614">
        <ele>188</ele>
        <time>2017-06-12T09:57:27Z</time>
      </trkpt>
      <trkpt lat="45.95609" lon="4.75607">
        <ele>188</ele>
        <time>2017-06-12T09:57:28Z</time>
      </trkpt>
      <trkpt lat="45.95606" lon="4.756">
        <ele>187</ele>
        <time>2017-06-12T09:57:29Z</time>
      </trkpt>
      <trkpt lat="45.95603" lon="4.75593">
        <ele>187</ele>
        <time>2017-06-12T09:57:30Z</time>
      </trkpt>
      <trkpt lat="45.956" lon="4.75587">
        <ele>187</ele>
        <time>2017-06-12T09:57:31Z</time>
      </trkpt>
      <trkpt lat="45.95597" lon="4.7558">
        <ele>187</ele>
        <time>2017-06-12T09:57:32Z</time>
      </trkpt>
      <trkpt lat="45.95594" lon="4.75574">
        <ele>188</ele>
        <time>2017-06-12T09:57:33Z</time>
      </trkpt>
      <trkpt lat="45.9559" lon="4.75567">
        <ele>188</ele>
        <time>2017-06-12T09:57:34Z</time>
      </trkpt>
      <trkpt lat="45.95587" lon="4.75561">
        <ele>188</ele>
        <time>2017-06-12T09:57:35Z</time>
      </trkpt>
      <trkpt lat="45.95583" lon="4.75555">
        <ele>186</ele>
        <time>2017-06-12T09:57:36Z</time>
      </trkpt>
      <trkpt lat="45.95578" lon="4.75549">
        <ele>186</ele>
        <time>2017-06-12T09:57:37Z</time>
      </trkpt>
      <trkpt lat="45.95574" lon="4.75544">
        <ele>186</ele>
        <time>2017-06-12T09:57:38Z</time>
      </trkpt>
      <trkpt lat="45.95569" lon="4.75538">
        <ele>186</ele>
        <time>2017-06-12T09:57:39Z</time>
      </trkpt>
      <trkpt lat="45.95564" lon="4.75532">
        <ele>186</ele>
        <time>2017-06-12T09:57:40Z</time>
      </trkpt>
      <trkpt lat="45.95559" lon="4.75527">
        <ele>186</ele>
        <time>2017-06-12T09:57:41Z</time>
      </trkpt>
      <trkpt lat="45.95554" lon="4.75521">
        <ele>186</ele>
        <time>2017-06-12T09:57:42Z</time>
      </trkpt>
      <trkpt lat="45.95549" lon="4.75516">
        <ele>186</ele>
        <time>2017-06-12T09:57:43Z</time>
      </trkpt>
      <trkpt lat="45.95545" lon="4.7551">
        <ele>186</ele>
        <time>2017-06-12T09:57:44Z</time>
      </trkpt>
      <trkpt lat="45.95542" lon="4.75503">
        <ele>186</ele>
        <time>2017-06-12T09:57:45Z</time>
      </trkpt>
      <trkpt lat="45.9554" lon="4.75495">
        <ele>187</ele>
        <time>2017-06-12T09:57:46Z</time>
      </trkpt>
      <trkpt lat="45.95539" lon="4.75487">
        <ele>187</ele>
        <time>2017-06-12T09:57:47Z</time>
      </trkpt>
      <trkpt lat="45.95538" lon="4.75479">
        <ele>187</ele>
        <time>2017-06-12T09:57:48Z</time>
      </trkpt>
      <trkpt lat="45.95538" lon="4.75471">
        <ele>187</ele>
        <time>2017-06-12T09:57:49Z</time>
      </trkpt>
      <trkpt lat="45.95536" lon="4.75464">
        <ele>187</ele>
        <time>2017-06-12T09:57:50Z</time>
      </trkpt>
      <trkpt lat="45.95533" lon="4.75457">
        <ele>187</ele>
        <time>2017-06-12T09:57:51Z</time>
      </trkpt>
      <trkpt lat="45.95529" lon="4.7545">
        <ele>187</ele>
        <time>2017-06-12T09:57:52Z</time>
      </trkpt>
      <trkpt lat="45.95524" lon="4.75444">
        <ele>187</ele>
        <time>2017-06-12T09:57:53Z</time>
      </trkpt>
      <trkpt lat="45.9552" lon="4.75437">
        <ele>187</ele>
        <time>2017-06-12T09:57:54Z</time>
      </trkpt>
      <trkpt lat="45.95516" lon="4.75429">
        <ele>186</ele>
        <time>2017-06-12T09:57:55Z</time>
      </trkpt>
      <trkpt lat="45.95514" lon="4.75422">
        <ele>186</ele>
        <time>2017-06-12T09:57:56Z</time>
      </trkpt>
      <trkpt lat="45.95511" lon="4.75414">
        <ele>187</ele>
        <time>2017-06-12T09:57:57Z</time>
      </trkpt>
      <trkpt lat="45.95508" lon="4.75407">
        <ele>187</ele>
        <time>2017-06-12T09:57:58Z</time>
      </trkpt>
      <trkpt lat="45.95505" lon="4.754">
        <ele>187</ele>
        <time>2017-06-12T09:57:59Z</time>
      </trkpt>
      <trkpt lat="45.95502" lon="4.75393">
        <ele>188</ele>
        <time>2017-06-12T09:58:00Z</time>
      </trkpt>
      <trkpt lat="45.95499" lon="4.75386">
        <ele>185</ele>
        <time>2017-06-12T09:58:01Z</time>
      </trkpt>
      <trkpt lat="45.95496" lon="4.75379">
        <ele>185</ele>
        <time>2017-06-12T09:58:02Z</time>
      </trkpt>
      <trkpt lat="45.95493" lon="4.75372">
        <ele>185</ele>
        <time>2017-06-12T09:58:03Z</time>
      </trkpt>
      <trkpt lat="45.9549" lon="4.75365">
        <ele>186</ele>
        <time>2017-06-12T09:58:04Z</time>
      </trkpt>
      <trkpt lat="45.95486" lon="4.75359">
        <ele>186</ele>
        <time>2017-06-12T09:58:05Z</time>
      </trkpt>
      <trkpt lat="45.95483" lon="4.75352">
        <ele>186</ele>
        <time>2017-06-12T09:58:06Z</time>
      </trkpt>
      <trkpt lat="45.9548" lon="4.75345">
        <ele>186</ele>
        <time>2017-06-12T09:58:07Z</time>
      </trkpt>
      <trkpt lat="45.95476" lon="4.75338">
        <ele>186</ele>
        <time>2017-06-12T09:58:08Z</time>
      </trkpt>
      <trkpt lat="45.95474" lon="4.75331">
        <ele>188</ele>
        <time>2017-06-12T09:58:09Z</time>
      </trkpt>
      <trkpt lat="45.95471" lon="4.75325">
        <ele>188</ele>
        <time>2017-06-12T09:58:10Z</time>
      </trkpt>
      <trkpt lat="45.95468" lon="4.75318">
        <ele>188</ele>
        <time>2017-06-12T09:58:11Z</time>
      </trkpt>
      <trkpt lat="45.95464" lon="4.75312">
        <ele>188</ele>
        <time>2017-06-12T09:58:12Z</time>
      </trkpt>
      <trkpt lat="45.95461" lon="4.75305">
        <ele>188</ele>
        <time>2017-06-12T09:58:13Z</time>
      </trkpt>
      <trkpt lat="45.95458" lon="4.75299">
        <ele>188</ele>
        <time>2017-06-12T09:58:14Z</time>
      </trkpt>
      <trkpt lat="45.95455" lon="4.75293">
        <ele>188</ele>
        <time>2017-06-12T09:58:15Z</time>
      </trkpt>
      <trkpt lat="45.95453" lon="4.75287">
        <ele>188</ele>
        <time>2017-06-12T09:58:16Z</time>
      </trkpt>
      <trkpt lat="45.9545" lon="4.75282">
        <ele>189</ele>
        <time>2017-06-12T09:58:17Z</time>
      </trkpt>
      <trkpt lat="45.95447" lon="4.75276">
        <ele>189</ele>
        <time>2017-06-12T09:58:18Z</time>
      </trkpt>
      <trkpt lat="45.95444" lon="4.75271">
        <ele>189</ele>
        <time>2017-06-12T09:58:19Z</time>
      </trkpt>
      <trkpt lat="45.95441" lon="4.75266">
        <ele>189</ele>
        <time>2017-06-12T09:58:20Z</time>
      </trkpt>
      <trkpt lat="45.95439" lon="4.75261">
        <ele>189</ele>
        <time>2017-06-12T09:58:21Z</time>
      </trkpt>
      <trkpt lat="45.95436" lon="4.75255">
        <ele>189</ele>
        <time>2017-06-12T09:58:22Z</time>
      </trkpt>
      <trkpt lat="45.95432" lon="4.7525">
        <ele>190</ele>
        <time>2017-06-12T09:58:23Z</time>
      </trkpt>
      <trkpt lat="45.95429" lon="4.75244">
        <ele>190</ele>
        <time>2017-06-12T09:58:24Z</time>
      </trkpt>
      <trkpt lat="45.95426" lon="4.75238">
        <ele>190</ele>
        <time>2017-06-12T09:58:25Z</time>
      </trkpt>
      <trkpt lat="45.95423" lon="4.75231">
        <ele>190</ele>
        <time>2017-06-12T09:58:26Z</time>
      </trkpt>
      <trkpt lat="45.9542" lon="4.75225">
        <ele>191</ele>
        <time>2017-06-12T09:58:27Z</time>
      </trkpt>
      <trkpt lat="45.95416" lon="4.75218">
        <ele>189</ele>
        <time>2017-06-12T09:58:28Z</time>
      </trkpt>
      <trkpt lat="45.95412" lon="4.75212">
        <ele>189</ele>
        <time>2017-06-12T09:58:29Z</time>
      </trkpt>
      <trkpt lat="45.95408" lon="4.75206">
        <ele>189</ele>
        <time>2017-06-12T09:58:30Z</time>
      </trkpt>
      <trkpt lat="45.95405" lon="4.752">
        <ele>189</ele>
        <time>2017-06-12T09:58:31Z</time>
      </trkpt>
      <trkpt lat="45.95401" lon="4.75194">
        <ele>189</ele>
        <time>2017-06-12T09:58:32Z</time>
      </trkpt>
      <trkpt lat="45.95398" lon="4.75189">
        <ele>189</ele>
        <time>2017-06-12T09:58:33Z</time>
      </trkpt>
      <trkpt lat="45.95395" lon="4.75184">
        <ele>189</ele>
        <time>2017-06-12T09:58:34Z</time>
      </trkpt>
      <trkpt lat="45.95392" lon="4.75179">
        <ele>189</ele>
        <time>2017-06-12T09:58:35Z</time>
      </trkpt>
      <trkpt lat="45.95389" lon="4.75174">
        <ele>189</ele>
        <time>2017-06-12T09:58:36Z</time>
      </trkpt>
      <trkpt lat="45.95386" lon="4.75169">
        <ele>189</ele>
        <time>2017-06-12T09:58:37Z</time>
      </trkpt>
      <trkpt lat="45.95383" lon="4.75164">
        <ele>191</ele>
        <time>2017-06-12T09:58:38Z</time>
      </trkpt>
      <trkpt lat="45.95379" lon="4.75158">
        <ele>191</ele>
        <time>2017-06-12T09:58:39Z</time>
      </trkpt>
      <trkpt lat="45.95376" lon="4.75153">
        <ele>191</ele>
        <time>2017-06-12T09:58:40Z</time>
      </trkpt>
      <trkpt lat="45.95373" lon="4.75147">
        <ele>191</ele>
        <time>2017-06-12T09:58:41Z</time>
      </trkpt>
      <trkpt lat="45.9537" lon="4.75142">
        <ele>191</ele>
        <time>2017-06-12T09:58:42Z</time>
      </trkpt>
      <trkpt lat="45.95366" lon="4.75136">
        <ele>191</ele>
        <time>2017-06-12T09:58:43Z</time>
      </trkpt>
      <trkpt lat="45.95363" lon="4.7513">
        <ele>191</ele>
        <time>2017-06-12T09:58:44Z</time>
      </trkpt>
      <trkpt lat="45.9536" lon="4.75125">
        <ele>191</ele>
        <time>2017-06-12T09:58:45Z</time>
      </trkpt>
      <trkpt lat="45.95354" lon="4.75116">
        <ele>192</ele>
        <time>2017-06-12T09:58:47Z</time>
      </trkpt>
      <trkpt lat="45.95351" lon="4.75111">
        <ele>192</ele>
        <time>2017-06-12T09:58:48Z</time>
      </trkpt>
      <trkpt lat="45.95346" lon="4.75103">
        <ele>192</ele>
        <time>2017-06-12T09:58:50Z</time>
      </trkpt>
      <trkpt lat="45.95343" lon="4.75099">
        <ele>192</ele>
        <time>2017-06-12T09:58:51Z</time>
      </trkpt>
      <trkpt lat="45.95337" lon="4.7509">
        <ele>193</ele>
        <time>2017-06-12T09:58:53Z</time>
      </trkpt>
      <trkpt lat="45.95333" lon="4.75085">
        <ele>193</ele>
        <time>2017-06-12T09:58:54Z</time>
      </trkpt>
      <trkpt lat="45.9533" lon="4.7508">
        <ele>193</ele>
        <time>2017-06-12T09:58:55Z</time>
      </trkpt>
      <trkpt lat="45.95326" lon="4.75074">
        <ele>192</ele>
        <time>2017-06-12T09:58:56Z</time>
      </trkpt>
      <trkpt lat="45.95322" lon="4.75068">
        <ele>192</ele>
        <time>2017-06-12T09:58:57Z</time>
      </trkpt>
      <trkpt lat="45.95318" lon="4.75062">
        <ele>192</ele>
        <time>2017-06-12T09:58:58Z</time>
      </trkpt>
      <trkpt lat="45.95314" lon="4.75057">
        <ele>192</ele>
        <time>2017-06-12T09:58:59Z</time>
      </trkpt>
      <trkpt lat="45.9531" lon="4.75051">
        <ele>192</ele>
        <time>2017-06-12T09:59:00Z</time>
      </trkpt>
      <trkpt lat="45.95307" lon="4.75046">
        <ele>192</ele>
        <time>2017-06-12T09:59:01Z</time>
      </trkpt>
      <trkpt lat="45.95303" lon="4.7504">
        <ele>191</ele>
        <time>2017-06-12T09:59:02Z</time>
      </trkpt>
      <trkpt lat="45.95299" lon="4.75035">
        <ele>191</ele>
        <time>2017-06-12T09:59:03Z</time>
      </trkpt>
      <trkpt lat="45.95296" lon="4.7503">
        <ele>191</ele>
        <time>2017-06-12T09:59:04Z</time>
      </trkpt>
      <trkpt lat="45.95293" lon="4.75025">
        <ele>191</ele>
        <time>2017-06-12T09:59:05Z</time>
      </trkpt>
      <trkpt lat="45.9529" lon="4.7502">
        <ele>191</ele>
        <time>2017-06-12T09:59:06Z</time>
      </trkpt>
      <trkpt lat="45.95284" lon="4.75011">
        <ele>191</ele>
        <time>2017-06-12T09:59:08Z</time>
      </trkpt>
      <trkpt lat="45.95282" lon="4.75007">
        <ele>191</ele>
        <time>2017-06-12T09:59:09Z</time>
      </trkpt>
      <trkpt lat="45.95276" lon="4.74997">
        <ele>192</ele>
        <time>2017-06-12T09:59:11Z</time>
      </trkpt>
      <trkpt lat="45.95273" lon="4.74992">
        <ele>192</ele>
        <time>2017-06-12T09:59:12Z</time>
      </trkpt>
      <trkpt lat="45.9527" lon="4.74987">
        <ele>192</ele>
        <time>2017-06-12T09:59:13Z</time>
      </trkpt>
      <trkpt lat="45.95266" lon="4.74981">
        <ele>192</ele>
        <time>2017-06-12T09:59:14Z</time>
      </trkpt>
      <trkpt lat="45.95263" lon="4.74976">
        <ele>192</ele>
        <time>2017-06-12T09:59:15Z</time>
      </trkpt>
      <trkpt lat="45.95259" lon="4.7497">
        <ele>192</ele>
        <time>2017-06-12T09:59:16Z</time>
      </trkpt>
      <trkpt lat="45.95256" lon="4.74965">
        <ele>192</ele>
        <time>2017-06-12T09:59:17Z</time>
      </trkpt>
      <trkpt lat="45.95252" lon="4.74961">
        <ele>192</ele>
        <time>2017-06-12T09:59:18Z</time>
      </trkpt>
      <trkpt lat="45.95249" lon="4.74956">
        <ele>192</ele>
        <time>2017-06-12T09:59:19Z</time>
      </trkpt>
      <trkpt lat="45.95246" lon="4.74951">
        <ele>192</ele>
        <time>2017-06-12T09:59:20Z</time>
      </trkpt>
      <trkpt lat="45.95242" lon="4.74946">
        <ele>192</ele>
        <time>2017-06-12T09:59:21Z</time>
      </trkpt>
      <trkpt lat="45.95239" lon="4.74941">
        <ele>192</ele>
        <time>2017-06-12T09:59:22Z</time>
      </trkpt>
      <trkpt lat="45.95236" lon="4.74936">
        <ele>192</ele>
        <time>2017-06-12T09:59:23Z</time>
      </trkpt>
      <trkpt lat="45.95233" lon="4.74931">
        <ele>192</ele>
        <time>2017-06-12T09:59:24Z</time>
      </trkpt>
      <trkpt lat="45.9523" lon="4.74925">
        <ele>192</ele>
        <time>2017-06-12T09:59:25Z</time>
      </trkpt>
      <trkpt lat="45.95226" lon="4.7492">
        <ele>192</ele>
        <time>2017-06-12T09:59:26Z</time>
      </trkpt>
      <trkpt lat="45.95223" lon="4.74914">
        <ele>193</ele>
        <time>2017-06-12T09:59:27Z</time>
      </trkpt>
      <trkpt lat="45.95219" lon="4.74908">
        <ele>193</ele>
        <time>2017-06-12T09:59:28Z</time>
      </trkpt>
      <trkpt lat="45.95216" lon="4.74902">
        <ele>193</ele>
        <time>2017-06-12T09:59:29Z</time>
      </trkpt>
      <trkpt lat="45.95212" lon="4.74896">
        <ele>193</ele>
        <time>2017-06-12T09:59:30Z</time>
      </trkpt>
      <trkpt lat="45.95208" lon="4.7489">
        <ele>194</ele>
        <time>2017-06-12T09:59:31Z</time>
      </trkpt>
      <trkpt lat="45.95205" lon="4.74885">
        <ele>194</ele>
        <time>2017-06-12T09:59:32Z</time>
      </trkpt>
      <trkpt lat="45.95201" lon="4.7488">
        <ele>194</ele>
        <time>2017-06-12T09:59:33Z</time>
      </trkpt>
      <trkpt lat="45.95197" lon="4.74874">
        <ele>194</ele>
        <time>2017-06-12T09:59:34Z</time>
      </trkpt>
      <trkpt lat="45.95194" lon="4.74868">
        <ele>194</ele>
        <time>2017-06-12T09:59:35Z</time>
      </trkpt>
      <trkpt lat="45.95191" lon="4.74862">
        <ele>194</ele>
        <time>2017-06-12T09:59:36Z</time>
      </trkpt>
      <trkpt lat="45.95187" lon="4.74857">
        <ele>194</ele>
        <time>2017-06-12T09:59:37Z</time>
      </trkpt>
      <trkpt lat="45.95184" lon="4.74852">
        <ele>194</ele>
        <time>2017-06-12T09:59:38Z</time>
      </trkpt>
      <trkpt lat="45.9518" lon="4.74846">
        <ele>194</ele>
        <time>2017-06-12T09:59:39Z</time>
      </trkpt>
      <trkpt lat="45.95176" lon="4.7484">
        <ele>194</ele>
        <time>2017-06-12T09:59:40Z</time>
      </trkpt>
      <trkpt lat="45.95172" lon="4.74834">
        <ele>194</ele>
        <time>2017-06-12T09:59:41Z</time>
      </trkpt>
      <trkpt lat="45.95169" lon="4.74828">
        <ele>194</ele>
        <time>2017-06-12T09:59:42Z</time>
      </trkpt>
      <trkpt lat="45.95165" lon="4.74823">
        <ele>194</ele>
        <time>2017-06-12T09:59:43Z</time>
      </trkpt>
      <trkpt lat="45.95162" lon="4.74817">
        <ele>194</ele>
        <time>2017-06-12T09:59:44Z</time>
      </trkpt>
      <trkpt lat="45.95158" lon="4.7481">
        <ele>194</ele>
        <time>2017-06-12T09:59:45Z</time>
      </trkpt>
      <trkpt lat="45.95154" lon="4.74804">
        <ele>194</ele>
        <time>2017-06-12T09:59:46Z</time>
      </trkpt>
      <trkpt lat="45.9515" lon="4.74798">
        <ele>194</ele>
        <time>2017-06-12T09:59:47Z</time>
      </trkpt>
      <trkpt lat="45.95145" lon="4.74791">
        <ele>194</ele>
        <time>2017-06-12T09:59:48Z</time>
      </trkpt>
      <trkpt lat="45.95141" lon="4.74784">
        <ele>194</ele>
        <time>2017-06-12T09:59:49Z</time>
      </trkpt>
      <trkpt lat="45.95137" lon="4.74777">
        <ele>194</ele>
        <time>2017-06-12T09:59:50Z</time>
      </trkpt>
      <trkpt lat="45.95133" lon="4.7477">
        <ele>194</ele>
        <time>2017-06-12T09:59:51Z</time>
      </trkpt>
      <trkpt lat="45.95129" lon="4.74763">
        <ele>194</ele>
        <time>2017-06-12T09:59:52Z</time>
      </trkpt>
      <trkpt lat="45.95125" lon="4.74757">
        <ele>194</ele>
        <time>2017-06-12T09:59:53Z</time>
      </trkpt>
      <trkpt lat="45.95121" lon="4.7475">
        <ele>194</ele>
        <time>2017-06-12T09:59:54Z</time>
      </trkpt>
      <trkpt lat="45.95118" lon="4.74744">
        <ele>194</ele>
        <time>2017-06-12T09:59:55Z</time>
      </trkpt>
      <trkpt lat="45.95114" lon="4.74737">
        <ele>194</ele>
        <time>2017-06-12T09:59:56Z</time>
      </trkpt>
      <trkpt lat="45.9511" lon="4.7473">
        <ele>194</ele>
        <time>2017-06-12T09:59:57Z</time>
      </trkpt>
      <trkpt lat="45.95107" lon="4.74724">
        <ele>194</ele>
        <time>2017-06-12T09:59:58Z</time>
      </trkpt>
      <trkpt lat="45.95103" lon="4.74717">
        <ele>194</ele>
        <time>2017-06-12T09:59:59Z</time>
      </trkpt>
      <trkpt lat="45.95099" lon="4.74711">
        <ele>194</ele>
        <time>2017-06-12T10:00:00Z</time>
      </trkpt>
      <trkpt lat="45.95095" lon="4.74704">
        <ele>194</ele>
        <time>2017-06-12T10:00:01Z</time>
      </trkpt>
      <trkpt lat="45.95091" lon="4.74698">
        <ele>194</ele>
        <time>2017-06-12T10:00:02Z</time>
      </trkpt>
      <trkpt lat="45.95087" lon="4.74692">
        <ele>194</ele>
        <time>2017-06-12T10:00:03Z</time>
      </trkpt>
      <trkpt lat="45.95083" lon="4.74686">
        <ele>194</ele>
        <time>2017-06-12T10:00:04Z</time>
      </trkpt>
      <trkpt lat="45.95079" lon="4.7468">
        <ele>194</ele>
        <time>2017-06-12T10:00:05Z</time>
      </trkpt>
      <trkpt lat="45.95075" lon="4.74672">
        <ele>195</ele>
        <time>2017-06-12T10:00:06Z</time>
      </trkpt>
      <trkpt lat="45.95071" lon="4.74665">
        <ele>195</ele>
        <time>2017-06-12T10:00:07Z</time>
      </trkpt>
      <trkpt lat="45.95067" lon="4.74658">
        <ele>195</ele>
        <time>2017-06-12T10:00:08Z</time>
      </trkpt>
      <trkpt lat="45.95063" lon="4.74651">
        <ele>195</ele>
        <time>2017-06-12T10:00:09Z</time>
      </trkpt>
      <trkpt lat="45.95059" lon="4.74644">
        <ele>194</ele>
        <time>2017-06-12T10:00:10Z</time>
      </trkpt>
      <trkpt lat="45.95056" lon="4.74637">
        <ele>194</ele>
        <time>2017-06-12T10:00:11Z</time>
      </trkpt>
      <trkpt lat="45.95052" lon="4.74631">
        <ele>194</ele>
        <time>2017-06-12T10:00:12Z</time>
      </trkpt>
      <trkpt lat="45.95048" lon="4.74624">
        <ele>194</ele>
        <time>2017-06-12T10:00:13Z</time>
      </trkpt>
      <trkpt lat="45.95045" lon="4.74617">
        <ele>194</ele>
        <time>2017-06-12T10:00:14Z</time>
      </trkpt>
      <trkpt lat="45.95041" lon="4.74611">
        <ele>194</ele>
        <time>2017-06-12T10:00:15Z</time>
      </trkpt>
      <trkpt lat="45.95038" lon="4.74604">
        <ele>194</ele>
        <time>2017-06-12T10:00:16Z</time>
      </trkpt>
      <trkpt lat="45.95035" lon="4.74598">
        <ele>194</ele>
        <time>2017-06-12T10:00:17Z</time>
      </trkpt>
      <trkpt lat="45.95032" lon="4.74592">
        <ele>194</ele>
        <time>2017-06-12T10:00:18Z</time>
      </trkpt>
      <trkpt lat="45.95029" lon="4.74585">
        <ele>194</ele>
        <time>2017-06-12T10:00:19Z</time>
      </trkpt>
      <trkpt lat="45.95026" lon="4.74578">
        <ele>194</ele>
        <time>2017-06-12T10:00:20Z</time>
      </trkpt>
      <trkpt lat="45.95022" lon="4.74571">
        <ele>194</ele>
        <time>2017-06-12T10:00:21Z</time>
      </trkpt>
      <trkpt lat="45.95018" lon="4.74563">
        <ele>194</ele>
        <time>2017-06-12T10:00:22Z</time>
      </trkpt>
      <trkpt lat="45.95014" lon="4.74555">
        <ele>194</ele>
        <time>2017-06-12T10:00:23Z</time>
      </trkpt>
      <trkpt lat="45.95009" lon="4.74547">
        <ele>194</ele>
        <time>2017-06-12T10:00:24Z</time>
      </trkpt>
      <trkpt lat="45.95005" lon="4.7454">
        <ele>194</ele>
        <time>2017-06-12T10:00:25Z</time>
      </trkpt>
      <trkpt lat="45.95001" lon="4.74532">
        <ele>194</ele>
        <time>2017-06-12T10:00:26Z</time>
      </trkpt>
      <trkpt lat="45.94996" lon="4.74524">
        <ele>193</ele>
        <time>2017-06-12T10:00:27Z</time>
      </trkpt>
      <trkpt lat="45.94992" lon="4.74516">
        <ele>193</ele>
        <time>2017-06-12T10:00:28Z</time>
      </trkpt>
      <trkpt lat="45.94988" lon="4.74508">
        <ele>193</ele>
        <time>2017-06-12T10:00:29Z</time>
      </trkpt>
      <trkpt lat="45.94984" lon="4.745">
        <ele>193</ele>
        <time>2017-06-12T10:00:30Z</time>
      </trkpt>
      <trkpt lat="45.9498" lon="4.74493">
        <ele>193</ele>
        <time>2017-06-12T10:00:31Z</time>
      </trkpt>
      <trkpt lat="45.94975" lon="4.74485">
        <ele>193</ele>
        <time>2017-06-12T10:00:32Z</time>
      </trkpt>
      <trkpt lat="45.94971" lon="4.74478">
        <ele>193</ele>
        <time>2017-06-12T10:00:33Z</time>
      </trkpt>
      <trkpt lat="45.94967" lon="4.7447">
        <ele>193</ele>
        <time>2017-06-12T10:00:34Z</time>
      </trkpt>
      <trkpt lat="45.94963" lon="4.74462">
        <ele>193</ele>
        <time>2017-06-12T10:00:35Z</time>
      </trkpt>
      <trkpt lat="45.94959" lon="4.74455">
        <ele>192</ele>
        <time>2017-06-12T10:00:36Z</time>
      </trkpt>
      <trkpt lat="45.94955" lon="4.74447">
        <ele>192</ele>
        <time>2017-06-12T10:00:37Z</time>
      </trkpt>
      <trkpt lat="45.94951" lon="4.7444">
        <ele>192</ele>
        <time>2017-06-12T10:00:38Z</time>
      </trkpt>
      <trkpt lat="45.94947" lon="4.74432">
        <ele>192</ele>
        <time>2017-06-12T10:00:39Z</time>
      </trkpt>
      <trkpt lat="45.94943" lon="4.74424">
        <ele>192</ele>
        <time>2017-06-12T10:00:40Z</time>
      </trkpt>
      <trkpt lat="45.94939" lon="4.74417">
        <ele>192</ele>
        <time>2017-06-12T10:00:41Z</time>
      </trkpt>
      <trkpt lat="45.94935" lon="4.74409">
        <ele>192</ele>
        <time>2017-06-12T10:00:42Z</time>
      </trkpt>
      <trkpt lat="45.94931" lon="4.74401">
        <ele>192</ele>
        <time>2017-06-12T10:00:43Z</time>
      </trkpt>
      <trkpt lat="45.94927" lon="4.74393">
        <ele>192</ele>
        <time>2017-06-12T10:00:44Z</time>
      </trkpt>
      <trkpt lat="45.94923" lon="4.74386">
        <ele>192</ele>
        <time>2017-06-12T10:00:45Z</time>
      </trkpt>
      <trkpt lat="45.94919" lon="4.74378">
        <ele>192</ele>
        <time>2017-06-12T10:00:46Z</time>
      </trkpt>
      <trkpt lat="45.94915" lon="4.74371">
        <ele>191</ele>
        <time>2017-06-12T10:00:47Z</time>
      </trkpt>
      <trkpt lat="45.94911" lon="4.74363">
        <ele>191</ele>
        <time>2017-06-12T10:00:48Z</time>
      </trkpt>
      <trkpt lat="45.94908" lon="4.74356">
        <ele>191</ele>
        <time>2017-06-12T10:00:49Z</time>
      </trkpt>
      <trkpt lat="45.94904" lon="4.74348">
        <ele>191</ele>
        <time>2017-06-12T10:00:50Z</time>
      </trkpt>
      <trkpt lat="45.94901" lon="4.74341">
        <ele>191</ele>
        <time>2017-06-12T10:00:51Z</time>
      </trkpt>
      <trkpt lat="45.94897" lon="4.74333">
        <ele>191</ele>
        <time>2017-06-12T10:00:52Z</time>
      </trkpt>
      <trkpt lat="45.94893" lon="4.74326">
        <ele>191</ele>
        <time>2017-06-12T10:00:53Z</time>
      </trkpt>
      <trkpt lat="45.94889" lon="4.74319">
        <ele>191</ele>
        <time>2017-06-12T10:00:54Z</time>
      </trkpt>
      <trkpt lat="45.94886" lon="4.74312">
        <ele>191</ele>
        <time>2017-06-12T10:00:55Z</time>
      </trkpt>
      <trkpt lat="45.94882" lon="4.74304">
        <ele>191</ele>
        <time>2017-06-12T10:00:56Z</time>
      </trkpt>
      <trkpt lat="45.94877" lon="4.74296">
        <ele>191</ele>
        <time>2017-06-12T10:00:57Z</time>
      </trkpt>
      <trkpt lat="45.94873" lon="4.74288">
        <ele>191</ele>
        <time>2017-06-12T10:00:58Z</time>
      </trkpt>
      <trkpt lat="45.94869" lon="4.74279">
        <ele>191</ele>
        <time>2017-06-12T10:00:59Z</time>
      </trkpt>
      <trkpt lat="45.94865" lon="4.74271">
        <ele>190</ele>
        <time>2017-06-12T10:01:00Z</time>
      </trkpt>
      <trkpt lat="45.94861" lon="4.74262">
        <ele>190</ele>
        <time>2017-06-12T10:01:01Z</time>
      </trkpt>
      <trkpt lat="45.94857" lon="4.74254">
        <ele>190</ele>
        <time>2017-06-12T10:01:02Z</time>
      </trkpt>
      <trkpt lat="45.94853" lon="4.74245">
        <ele>190</ele>
        <time>2017-06-12T10:01:03Z</time>
      </trkpt>
      <trkpt lat="45.94848" lon="4.74237">
        <ele>190</ele>
        <time>2017-06-12T10:01:04Z</time>
      </trkpt>
      <trkpt lat="45.94844" lon="4.74229">
        <ele>190</ele>
        <time>2017-06-12T10:01:05Z</time>
      </trkpt>
      <trkpt lat="45.94839" lon="4.74221">
        <ele>190</ele>
        <time>2017-06-12T10:01:06Z</time>
      </trkpt>
      <trkpt lat="45.94835" lon="4.74213">
        <ele>190</ele>
        <time>2017-06-12T10:01:07Z</time>
      </trkpt>
      <trkpt lat="45.94831" lon="4.74205">
        <ele>189</ele>
        <time>2017-06-12T10:01:08Z</time>
      </trkpt>
      <trkpt lat="45.94827" lon="4.74198">
        <ele>189</ele>
        <time>2017-06-12T10:01:09Z</time>
      </trkpt>
      <trkpt lat="45.94823" lon="4.74191">
        <ele>189</ele>
        <time>2017-06-12T10:01:10Z</time>
      </trkpt>
      <trkpt lat="45.9482" lon="4.74184">
        <ele>189</ele>
        <time>2017-06-12T10:01:11Z</time>
      </trkpt>
      <trkpt lat="45.94816" lon="4.74177">
        <ele>189</ele>
        <time>2017-06-12T10:01:12Z</time>
      </trkpt>
      <trkpt lat="45.94812" lon="4.7417">
        <ele>189</ele>
        <time>2017-06-12T10:01:13Z</time>
      </trkpt>
      <trkpt lat="45.94808" lon="4.74163">
        <ele>189</ele>
        <time>2017-06-12T10:01:14Z</time>
      </trkpt>
      <trkpt lat="45.94804" lon="4.74156">
        <ele>189</ele>
        <time>2017-06-12T10:01:15Z</time>
      </trkpt>
      <trkpt lat="45.948" lon="4.74149">
        <ele>189</ele>
        <time>2017-06-12T10:01:16Z</time>
      </trkpt>
      <trkpt lat="45.94796" lon="4.74142">
        <ele>189</ele>
        <time>2017-06-12T10:01:17Z</time>
      </trkpt>
      <trkpt lat="45.94791" lon="4.74135">
        <ele>189</ele>
        <time>2017-06-12T10:01:18Z</time>
      </trkpt>
      <trkpt lat="45.94786" lon="4.74128">
        <ele>189</ele>
        <time>2017-06-12T10:01:19Z</time>
      </trkpt>
      <trkpt lat="45.94781" lon="4.74122">
        <ele>189</ele>
        <time>2017-06-12T10:01:20Z</time>
      </trkpt>
      <trkpt lat="45.94777" lon="4.74115">
        <ele>189</ele>
        <time>2017-06-12T10:01:21Z</time>
      </trkpt>
      <trkpt lat="45.94773" lon="4.74108">
        <ele>189</ele>
        <time>2017-06-12T10:01:22Z</time>
      </trkpt>
      <trkpt lat="45.94768" lon="4.74101">
        <ele>189</ele>
        <time>2017-06-12T10:01:23Z</time>
      </trkpt>
      <trkpt lat="45.94763" lon="4.74095">
        <ele>189</ele>
        <time>2017-06-12T10:01:24Z</time>
      </trkpt>
      <trkpt lat="45.94758" lon="4.7409">
        <ele>189</ele>
        <time>2017-06-12T10:01:25Z</time>
      </trkpt>
      <trkpt lat="45.94753" lon="4.74084">
        <ele>189</ele>
        <time>2017-06-12T10:01:26Z</time>
      </trkpt>
      <trkpt lat="45.94749" lon="4.74078">
        <ele>189</ele>
        <time>2017-06-12T10:01:27Z</time>
      </trkpt>
      <trkpt lat="45.94745" lon="4.74072">
        <ele>188</ele>
        <time>2017-06-12T10:01:28Z</time>
      </trkpt>
      <trkpt lat="45.94741" lon="4.74066">
        <ele>188</ele>
        <time>2017-06-12T10:01:29Z</time>
      </trkpt>
      <trkpt lat="45.94736" lon="4.7406">
        <ele>188</ele>
        <time>2017-06-12T10:01:30Z</time>
      </trkpt>
      <trkpt lat="45.94732" lon="4.74055">
        <ele>188</ele>
        <time>2017-06-12T10:01:31Z</time>
      </trkpt>
      <trkpt lat="45.94728" lon="4.7405">
        <ele>188</ele>
        <time>2017-06-12T10:01:32Z</time>
      </trkpt>
      <trkpt lat="45.94723" lon="4.74044">
        <ele>187</ele>
        <time>2017-06-12T10:01:33Z</time>
      </trkpt>
      <trkpt lat="45.94719" lon="4.74039">
        <ele>187</ele>
        <time>2017-06-12T10:01:34Z</time>
      </trkpt>
      <trkpt lat="45.94715" lon="4.74033">
        <ele>187</ele>
        <time>2017-06-12T10:01:35Z</time>
      </trkpt>
      <trkpt lat="45.94711" lon="4.74027">
        <ele>187</ele>
        <time>2017-06-12T10:01:36Z</time>
      </trkpt>
      <trkpt lat="45.94706" lon="4.74022">
        <ele>187</ele>
        <time>2017-06-12T10:01:37Z</time>
      </trkpt>
      <trkpt lat="45.94702" lon="4.74016">
        <ele>187</ele>
        <time>2017-06-12T10:01:38Z</time>
      </trkpt>
      <trkpt lat="45.94697" lon="4.74011">
        <ele>187</ele>
        <time>2017-06-12T10:01:39Z</time>
      </trkpt>
      <trkpt lat="45.94693" lon="4.74005">
        <ele>187</ele>
        <time>2017-06-12T10:01:40Z</time>
      </trkpt>
      <trkpt lat="45.94689" lon="4.73999">
        <ele>187</ele>
        <time>2017-06-12T10:01:41Z</time>
      </trkpt>
      <trkpt lat="45.94684" lon="4.73992">
        <ele>187</ele>
        <time>2017-06-12T10:01:42Z</time>
      </trkpt>
      <trkpt lat="45.94679" lon="4.73986">
        <ele>187</ele>
        <time>2017-06-12T10:01:43Z</time>
      </trkpt>
      <trkpt lat="45.94674" lon="4.73979">
        <ele>187</ele>
        <time>2017-06-12T10:01:44Z</time>
      </trkpt>
      <trkpt lat="45.94669" lon="4.73972">
        <ele>187</ele>
        <time>2017-06-12T10:01:45Z</time>
      </trkpt>
      <trkpt lat="45.94664" lon="4.73965">
        <ele>187</ele>
        <time>2017-06-12T10:01:46Z</time>
      </trkpt>
      <trkpt lat="45.94659" lon="4.73959">
        <ele>187</ele>
        <time>2017-06-12T10:01:47Z</time>
      </trkpt>
      <trkpt lat="45.94654" lon="4.73953">
        <ele>187</ele>
        <time>2017-06-12T10:01:48Z</time>
      </trkpt>
      <trkpt lat="45.94648" lon="4.73946">
        <ele>187</ele>
        <time>2017-06-12T10:01:49Z</time>
      </trkpt>
      <trkpt lat="45.94643" lon="4.7394">
        <ele>187</ele>
        <time>2017-06-12T10:01:50Z</time>
      </trkpt>
      <trkpt lat="45.94638" lon="4.73933">
        <ele>187</ele>
        <time>2017-06-12T10:01:51Z</time>
      </trkpt>
      <trkpt lat="45.94633" lon="4.73926">
        <ele>187</ele>
        <time>2017-06-12T10:01:52Z</time>
      </trkpt>
      <trkpt lat="45.94629" lon="4.7392">
        <ele>187</ele>
        <time>2017-06-12T10:01:53Z</time>
      </trkpt>
      <trkpt lat="45.94624" lon="4.73914">
        <ele>187</ele>
        <time>2017-06-12T10:01:54Z</time>
      </trkpt>
      <trkpt lat="45.94619" lon="4.73908">
        <ele>187</ele>
        <time>2017-06-12T10:01:55Z</time>
      </trkpt>
      <trkpt lat="45.94614" lon="4.73903">
        <ele>187</ele>
        <time>2017-06-12T10:01:56Z</time>
      </trkpt>
      <trkpt lat="45.94609" lon="4.73897">
        <ele>187</ele>
        <time>2017-06-12T10:01:57Z</time>
      </trkpt>
      <trkpt lat="45.94604" lon="4.73891">
        <ele>187</ele>
        <time>2017-06-12T10:01:58Z</time>
      </trkpt>
      <trkpt lat="45.94599" lon="4.73885">
        <ele>187</ele>
        <time>2017-06-12T10:01:59Z</time>
      </trkpt>
      <trkpt lat="45.94594" lon="4.73879">
        <ele>187</ele>
        <time>2017-06-12T10:02:00Z</time>
      </trkpt>
      <trkpt lat="45.94589" lon="4.73874">
        <ele>187</ele>
        <time>2017-06-12T10:02:01Z</time>
      </trkpt>
      <trkpt lat="45.94584" lon="4.73868">
        <ele>187</ele>
        <time>2017-06-12T10:02:02Z</time>
      </trkpt>
      <trkpt lat="45.94579" lon="4.73862">
        <ele>186</ele>
        <time>2017-06-12T10:02:03Z</time>
      </trkpt>
      <trkpt lat="45.94574" lon="4.73856">
        <ele>186</ele>
        <time>2017-06-12T10:02:04Z</time>
      </trkpt>
      <trkpt lat="45.94569" lon="4.73851">
        <ele>186</ele>
        <time>2017-06-12T10:02:05Z</time>
      </trkpt>
      <trkpt lat="45.94564" lon="4.73846">
        <ele>186</ele>
        <time>2017-06-12T10:02:06Z</time>
      </trkpt>
      <trkpt lat="45.94558" lon="4.7384">
        <ele>186</ele>
        <time>2017-06-12T10:02:07Z</time>
      </trkpt>
      <trkpt lat="45.94553" lon="4.73835">
        <ele>186</ele>
        <time>2017-06-12T10:02:08Z</time>
      </trkpt>
      <trkpt lat="45.94548" lon="4.7383">
        <ele>186</ele>
        <time>2017-06-12T10:02:09Z</time>
      </trkpt>
      <trkpt lat="45.94543" lon="4.73826">
        <ele>186</ele>
        <time>2017-06-12T10:02:10Z</time>
      </trkpt>
      <trkpt lat="45.94538" lon="4.73821">
        <ele>186</ele>
        <time>2017-06-12T10:02:11Z</time>
      </trkpt>
      <trkpt lat="45.94533" lon="4.73816">
        <ele>186</ele>
        <time>2017-06-12T10:02:12Z</time>
      </trkpt>
      <trkpt lat="45.94528" lon="4.73811">
        <ele>186</ele>
        <time>2017-06-12T10:02:13Z</time>
      </trkpt>
      <trkpt lat="45.94524" lon="4.73806">
        <ele>186</ele>
        <time>2017-06-12T10:02:14Z</time>
      </trkpt>
      <trkpt lat="45.94519" lon="4.73801">
        <ele>186</ele>
        <time>2017-06-12T10:02:15Z</time>
      </trkpt>
      <trkpt lat="45.94515" lon="4.73795">
        <ele>186</ele>
        <time>2017-06-12T10:02:16Z</time>
      </trkpt>
      <trkpt lat="45.9451" lon="4.7379">
        <ele>186</ele>
        <time>2017-06-12T10:02:17Z</time>
      </trkpt>
      <trkpt lat="45.94506" lon="4.73784">
        <ele>186</ele>
        <time>2017-06-12T10:02:18Z</time>
      </trkpt>
      <trkpt lat="45.94501" lon="4.73779">
        <ele>186</ele>
        <time>2017-06-12T10:02:19Z</time>
      </trkpt>
      <trkpt lat="45.94497" lon="4.73774">
        <ele>186</ele>
        <time>2017-06-12T10:02:20Z</time>
      </trkpt>
      <trkpt lat="45.94492" lon="4.73768">
        <ele>186</ele>
        <time>2017-06-12T10:02:21Z</time>
      </trkpt>
      <trkpt lat="45.94489" lon="4.73761">
        <ele>186</ele>
        <time>2017-06-12T10:02:22Z</time>
      </trkpt>
      <trkpt lat="45.94487" lon="4.73754">
        <ele>186</ele>
        <time>2017-06-12T10:02:23Z</time>
      </trkpt>
      <trkpt lat="45.94486" lon="4.73746">
        <ele>186</ele>
        <time>2017-06-12T10:02:24Z</time>
      </trkpt>
      <trkpt lat="45.94486" lon="4.73738">
        <ele>186</ele>
        <time>2017-06-12T10:02:25Z</time>
      </trkpt>
      <trkpt lat="45.94487" lon="4.73729">
        <ele>186</ele>
        <time>2017-06-12T10:02:26Z</time>
      </trkpt>
      <trkpt lat="45.94488" lon="4.7372">
        <ele>186</ele>
        <time>2017-06-12T10:02:27Z</time>
      </trkpt>
      <trkpt lat="45.94489" lon="4.7371">
        <ele>186</ele>
        <time>2017-06-12T10:02:28Z</time>
      </trkpt>
      <trkpt lat="45.9449" lon="4.73701">
        <ele>186</ele>
        <time>2017-06-12T10:02:29Z</time>
      </trkpt>
      <trkpt lat="45.94491" lon="4.73692">
        <ele>186</ele>
        <time>2017-06-12T10:02:30Z</time>
      </trkpt>
      <trkpt lat="45.94493" lon="4.73683">
        <ele>186</ele>
        <time>2017-06-12T10:02:31Z</time>
      </trkpt>
      <trkpt lat="45.94494" lon="4.73673">
        <ele>185</ele>
        <time>2017-06-12T10:02:32Z</time>
      </trkpt>
      <trkpt lat="45.94496" lon="4.73663">
        <ele>185</ele>
        <time>2017-06-12T10:02:33Z</time>
      </trkpt>
      <trkpt lat="45.94497" lon="4.73652">
        <ele>185</ele>
        <time>2017-06-12T10:02:34Z</time>
      </trkpt>
      <trkpt lat="45.94499" lon="4.73642">
        <ele>186</ele>
        <time>2017-06-12T10:02:35Z</time>
      </trkpt>
      <trkpt lat="45.945" lon="4.73632">
        <ele>184</ele>
        <time>2017-06-12T10:02:36Z</time>
      </trkpt>
      <trkpt lat="45.94501" lon="4.73622">
        <ele>184</ele>
        <time>2017-06-12T10:02:37Z</time>
      </trkpt>
      <trkpt lat="45.94502" lon="4.73612">
        <ele>184</ele>
        <time>2017-06-12T10:02:38Z</time>
      </trkpt>
      <trkpt lat="45.94503" lon="4.73603">
        <ele>184</ele>
        <time>2017-06-12T10:02:39Z</time>
      </trkpt>
      <trkpt lat="45.94504" lon="4.73592">
        <ele>185</ele>
        <time>2017-06-12T10:02:40Z</time>
      </trkpt>
      <trkpt lat="45.94504" lon="4.73582">
        <ele>185</ele>
        <time>2017-06-12T10:02:41Z</time>
      </trkpt>
      <trkpt lat="45.94505" lon="4.73571">
        <ele>184</ele>
        <time>2017-06-12T10:02:42Z</time>
      </trkpt>
      <trkpt lat="45.94506" lon="4.7356">
        <ele>184</ele>
        <time>2017-06-12T10:02:43Z</time>
      </trkpt>
      <trkpt lat="45.94506" lon="4.73549">
        <ele>183</ele>
        <time>2017-06-12T10:02:44Z</time>
      </trkpt>
      <trkpt lat="45.94506" lon="4.73538">
        <ele>183</ele>
        <time>2017-06-12T10:02:45Z</time>
      </trkpt>
      <trkpt lat="45.94506" lon="4.73527">
        <ele>183</ele>
        <time>2017-06-12T10:02:46Z</time>
      </trkpt>
      <trkpt lat="45.94506" lon="4.73516">
        <ele>183</ele>
        <time>2017-06-12T10:02:47Z</time>
      </trkpt>
      <trkpt lat="45.94506" lon="4.73505">
        <ele>183</ele>
        <time>2017-06-12T10:02:48Z</time>
      </trkpt>
      <trkpt lat="45.94506" lon="4.73493">
        <ele>182</ele>
        <time>2017-06-12T10:02:49Z</time>
      </trkpt>
      <trkpt lat="45.94507" lon="4.73482">
        <ele>182</ele>
        <time>2017-06-12T10:02:50Z</time>
      </trkpt>
      <trkpt lat="45.94507" lon="4.7347">
        <ele>181</ele>
        <time>2017-06-12T10:02:51Z</time>
      </trkpt>
      <trkpt lat="45.94507" lon="4.73458">
        <ele>181</ele>
        <time>2017-06-12T10:02:52Z</time>
      </trkpt>
      <trkpt lat="45.94507" lon="4.73446">
        <ele>181</ele>
        <time>2017-06-12T10:02:53Z</time>
      </trkpt>
      <trkpt lat="45.94507" lon="4.73434">
        <ele>181</ele>
        <time>2017-06-12T10:02:54Z</time>
      </trkpt>
      <trkpt lat="45.94506" lon="4.73423">
        <ele>180</ele>
        <time>2017-06-12T10:02:55Z</time>
      </trkpt>
      <trkpt lat="45.94504" lon="4.7341">
        <ele>180</ele>
        <time>2017-06-12T10:02:56Z</time>
      </trkpt>
      <trkpt lat="45.94503" lon="4.73398">
        <ele>179</ele>
        <time>2017-06-12T10:02:57Z</time>
      </trkpt>
      <trkpt lat="45.94502" lon="4.73386">
        <ele>179</ele>
        <time>2017-06-12T10:02:58Z</time>
      </trkpt>
      <trkpt lat="45.94501" lon="4.73374">
        <ele>178</ele>
        <time>2017-06-12T10:02:59Z</time>
      </trkpt>
      <trkpt lat="45.945" lon="4.73361">
        <ele>178</ele>
        <time>2017-06-12T10:03:00Z</time>
      </trkpt>
      <trkpt lat="45.94499" lon="4.73349">
        <ele>178</ele>
        <time>2017-06-12T10:03:01Z</time>
      </trkpt>
      <trkpt lat="45.94498" lon="4.73337">
        <ele>177</ele>
        <time>2017-06-12T10:03:02Z</time>
      </trkpt>
      <trkpt lat="45.94496" lon="4.73325">
        <ele>177</ele>
        <time>2017-06-12T10:03:03Z</time>
      </trkpt>
      <trkpt lat="45.94494" lon="4.73313">
        <ele>177</ele>
        <time>2017-06-12T10:03:04Z</time>
      </trkpt>
      <trkpt lat="45.94493" lon="4.733">
        <ele>177</ele>
        <time>2017-06-12T10:03:05Z</time>
      </trkpt>
      <trkpt lat="45.94491" lon="4.73287">
        <ele>177</ele>
        <time>2017-06-12T10:03:06Z</time>
      </trkpt>
      <trkpt lat="45.9449" lon="4.73275">
        <ele>177</ele>
        <time>2017-06-12T10:03:07Z</time>
      </trkpt>
      <trkpt lat="45.94488" lon="4.73263">
        <ele>176</ele>
        <time>2017-06-12T10:03:08Z</time>
      </trkpt>
      <trkpt lat="45.94486" lon="4.73251">
        <ele>176</ele>
        <time>2017-06-12T10:03:09Z</time>
      </trkpt>
      <trkpt lat="45.94485" lon="4.73239">
        <ele>175</ele>
        <time>2017-06-12T10:03:10Z</time>
      </trkpt>
      <trkpt lat="45.94484" lon="4.73227">
        <ele>175</ele>
        <time>2017-06-12T10:03:11Z</time>
      </trkpt>
      <trkpt lat="45.94483" lon="4.73214">
        <ele>175</ele>
        <time>2017-06-12T10:03:12Z</time>
      </trkpt>
      <trkpt lat="45.94481" lon="4.73201">
        <ele>175</ele>
        <time>2017-06-12T10:03:13Z</time>
      </trkpt>
      <trkpt lat="45.94479" lon="4.73189">
        <ele>174</ele>
        <time>2017-06-12T10:03:14Z</time>
      </trkpt>
      <trkpt lat="45.94477" lon="4.73177">
        <ele>174</ele>
        <time>2017-06-12T10:03:15Z</time>
      </trkpt>
      <trkpt lat="45.94475" lon="4.73165">
        <ele>173</ele>
        <time>2017-06-12T10:03:16Z</time>
      </trkpt>
      <trkpt lat="45.94473" lon="4.73153">
        <ele>172</ele>
        <time>2017-06-12T10:03:17Z</time>
      </trkpt>
      <trkpt lat="45.94471" lon="4.73141">
        <ele>172</ele>
        <time>2017-06-12T10:03:18Z</time>
      </trkpt>
      <trkpt lat="45.9447" lon="4.7313">
        <ele>172</ele>
        <time>2017-06-12T10:03:19Z</time>
      </trkpt>
      <trkpt lat="45.94469" lon="4.73119">
        <ele>172</ele>
        <time>2017-06-12T10:03:20Z</time>
      </trkpt>
      <trkpt lat="45.94469" lon="4.73108">
        <ele>172</ele>
        <time>2017-06-12T10:03:21Z</time>
      </trkpt>
      <trkpt lat="45.94468" lon="4.73097">
        <ele>172</ele>
        <time>2017-06-12T10:03:22Z</time>
      </trkpt>
      <trkpt lat="45.94465" lon="4.73086">
        <ele>171</ele>
        <time>2017-06-12T10:03:23Z</time>
      </trkpt>
      <trkpt lat="45.94464" lon="4.73076">
        <ele>170</ele>
        <time>2017-06-12T10:03:24Z</time>
      </trkpt>
      <trkpt lat="45.94462" lon="4.73067">
        <ele>170</ele>
        <time>2017-06-12T10:03:25Z</time>
      </trkpt>
      <trkpt lat="45.94461" lon="4.73057">
        <ele>170</ele>
        <time>2017-06-12T10:03:26Z</time>
      </trkpt>
      <trkpt lat="45.9446" lon="4.73049">
        <ele>170</ele>
        <time>2017-06-12T10:03:27Z</time>
      </trkpt>
      <trkpt lat="45.94459" lon="4.73041">
        <ele>170</ele>
        <time>2017-06-12T10:03:28Z</time>
      </trkpt>
      <trkpt lat="45.94458" lon="4.73033">
        <ele>169</ele>
        <time>2017-06-12T10:03:29Z</time>
      </trkpt>
      <trkpt lat="45.94457" lon="4.73025">
        <ele>169</ele>
        <time>2017-06-12T10:03:30Z</time>
      </trkpt>
      <trkpt lat="45.94456" lon="4.73017">
        <ele>169</ele>
        <time>2017-06-12T10:03:31Z</time>
      </trkpt>
      <trkpt lat="45.94456" lon="4.73009">
        <ele>169</ele>
        <time>2017-06-12T10:03:32Z</time>
      </trkpt>
      <trkpt lat="45.94455" lon="4.73001">
        <ele>169</ele>
        <time>2017-06-12T10:03:33Z</time>
      </trkpt>
      <trkpt lat="45.94454" lon="4.72993">
        <ele>168</ele>
        <time>2017-06-12T10:03:34Z</time>
      </trkpt>
      <trkpt lat="45.94453" lon="4.72985">
        <ele>167</ele>
        <time>2017-06-12T10:03:35Z</time>
      </trkpt>
      <trkpt lat="45.94452" lon="4.72977">
        <ele>167</ele>
        <time>2017-06-12T10:03:36Z</time>
      </trkpt>
      <trkpt lat="45.9445" lon="4.72969">
        <ele>167</ele>
        <time>2017-06-12T10:03:37Z</time>
      </trkpt>
      <trkpt lat="45.94449" lon="4.72961">
        <ele>167</ele>
        <time>2017-06-12T10:03:38Z</time>
      </trkpt>
      <trkpt lat="45.94448" lon="4.72953">
        <ele>167</ele>
        <time>2017-06-12T10:03:39Z</time>
      </trkpt>
      <trkpt lat="45.94447" lon="4.72945">
        <ele>167</ele>
        <time>2017-06-12T10:03:40Z</time>
      </trkpt>
      <trkpt lat="45.94445" lon="4.72936">
        <ele>167</ele>
        <time>2017-06-12T10:03:41Z</time>
      </trkpt>
      <trkpt lat="45.94444" lon="4.72928">
        <ele>167</ele>
        <time>2017-06-12T10:03:42Z</time>
      </trkpt>
      <trkpt lat="45.94443" lon="4.72919">
        <ele>167</ele>
        <time>2017-06-12T10:03:43Z</time>
      </trkpt>
      <trkpt lat="45.94442" lon="4.72911">
        <ele>166</ele>
        <time>2017-06-12T10:03:44Z</time>
      </trkpt>
      <trkpt lat="45.94441" lon="4.72902">
        <ele>166</ele>
        <time>2017-06-12T10:03:45Z</time>
      </trkpt>
      <trkpt lat="45.9444" lon="4.72893">
        <ele>166</ele>
        <time>2017-06-12T10:03:46Z</time>
      </trkpt>
      <trkpt lat="45.94438" lon="4.72884">
        <ele>166</ele>
        <time>2017-06-12T10:03:47Z</time>
      </trkpt>
      <trkpt lat="45.94437" lon="4.72876">
        <ele>166</ele>
        <time>2017-06-12T10:03:48Z</time>
      </trkpt>
      <trkpt lat="45.94436" lon="4.72867">
        <ele>166</ele>
        <time>2017-06-12T10:03:49Z</time>
      </trkpt>
      <trkpt lat="45.94435" lon="4.72858">
        <ele>166</ele>
        <time>2017-06-12T10:03:50Z</time>
      </trkpt>
      <trkpt lat="45.94433" lon="4.72849">
        <ele>166</ele>
        <time>2017-06-12T10:03:51Z</time>
      </trkpt>
      <trkpt lat="45.94432" lon="4.7284">
        <ele>166</ele>
        <time>2017-06-12T10:03:52Z</time>
      </trkpt>
      <trkpt lat="45.9443" lon="4.72831">
        <ele>167</ele>
        <time>2017-06-12T10:03:53Z</time>
      </trkpt>
      <trkpt lat="45.94428" lon="4.72822">
        <ele>167</ele>
        <time>2017-06-12T10:03:54Z</time>
      </trkpt>
      <trkpt lat="45.94427" lon="4.72812">
        <ele>167</ele>
        <time>2017-06-12T10:03:55Z</time>
      </trkpt>
      <trkpt lat="45.94426" lon="4.72802">
        <ele>167</ele>
        <time>2017-06-12T10:03:56Z</time>
      </trkpt>
      <trkpt lat="45.94424" lon="4.72792">
        <ele>168</ele>
        <time>2017-06-12T10:03:57Z</time>
      </trkpt>
      <trkpt lat="45.94423" lon="4.72782">
        <ele>168</ele>
        <time>2017-06-12T10:03:58Z</time>
      </trkpt>
      <trkpt lat="45.94421" lon="4.72772">
        <ele>169</ele>
        <time>2017-06-12T10:03:59Z</time>
      </trkpt>
      <trkpt lat="45.9442" lon="4.72762">
        <ele>169</ele>
        <time>2017-06-12T10:04:00Z</time>
      </trkpt>
      <trkpt lat="45.94419" lon="4.72752">
        <ele>171</ele>
        <time>2017-06-12T10:04:01Z</time>
      </trkpt>
      <trkpt lat="45.94417" lon="4.72741">
        <ele>171</ele>
        <time>2017-06-12T10:04:02Z</time>
      </trkpt>
      <trkpt lat="45.94416" lon="4.72731">
        <ele>172</ele>
        <time>2017-06-12T10:04:03Z</time>
      </trkpt>
      <trkpt lat="45.94415" lon="4.72721">
        <ele>172</ele>
        <time>2017-06-12T10:04:04Z</time>
      </trkpt>
      <trkpt lat="45.94413" lon="4.72711">
        <ele>172</ele>
        <time>2017-06-12T10:04:05Z</time>
      </trkpt>
      <trkpt lat="45.94413" lon="4.72701">
        <ele>172</ele>
        <time>2017-06-12T10:04:06Z</time>
      </trkpt>
      <trkpt lat="45.94412" lon="4.72691">
        <ele>173</ele>
        <time>2017-06-12T10:04:07Z</time>
      </trkpt>
      <trkpt lat="45.94411" lon="4.72681">
        <ele>173</ele>
        <time>2017-06-12T10:04:08Z</time>
      </trkpt>
      <trkpt lat="45.94409" lon="4.72671">
        <ele>173</ele>
        <time>2017-06-12T10:04:09Z</time>
      </trkpt>
      <trkpt lat="45.94408" lon="4.72661">
        <ele>174</ele>
        <time>2017-06-12T10:04:10Z</time>
      </trkpt>
      <trkpt lat="45.94407" lon="4.72651">
        <ele>174</ele>
        <time>2017-06-12T10:04:11Z</time>
      </trkpt>
      <trkpt lat="45.94406" lon="4.72641">
        <ele>174</ele>
        <time>2017-06-12T10:04:12Z</time>
      </trkpt>
      <trkpt lat="45.94405" lon="4.72632">
        <ele>174</ele>
        <time>2017-06-12T10:04:13Z</time>
      </trkpt>
      <trkpt lat="45.94404" lon="4.72622">
        <ele>173</ele>
        <time>2017-06-12T10:04:14Z</time>
      </trkpt>
      <trkpt lat="45.94403" lon="4.72613">
        <ele>173</ele>
        <time>2017-06-12T10:04:15Z</time>
      </trkpt>
      <trkpt lat="45.94402" lon="4.72604">
        <ele>173</ele>
        <time>2017-06-12T10:04:16Z</time>
      </trkpt>
      <trkpt lat="45.944" lon="4.72595">
        <ele>173</ele>
        <time>2017-06-12T10:04:17Z</time>
      </trkpt>
      <trkpt lat="45.94399" lon="4.72585">
        <ele>173</ele>
        <time>2017-06-12T10:04:18Z</time>
      </trkpt>
      <trkpt lat="45.94398" lon="4.72576">
        <ele>173</ele>
        <time>2017-06-12T10:04:19Z</time>
      </trkpt>
      <trkpt lat="45.94396" lon="4.72567">
        <ele>173</ele>
        <time>2017-06-12T10:04:20Z</time>
      </trkpt>
      <trkpt lat="45.94395" lon="4.72558">
        <ele>173</ele>
        <time>2017-06-12T10:04:21Z</time>
      </trkpt>
      <trkpt lat="45.94393" lon="4.72549">
        <ele>173</ele>
        <time>2017-06-12T10:04:22Z</time>
      </trkpt>
      <trkpt lat="45.94391" lon="4.72541">
        <ele>174</ele>
        <time>2017-06-12T10:04:23Z</time>
      </trkpt>
      <trkpt lat="45.94389" lon="4.72533">
        <ele>174</ele>
        <time>2017-06-12T10:04:24Z</time>
      </trkpt>
      <trkpt lat="45.94388" lon="4.72526">
        <ele>174</ele>
        <time>2017-06-12T10:04:25Z</time>
      </trkpt>
      <trkpt lat="45.94386" lon="4.72518">
        <ele>174</ele>
        <time>2017-06-12T10:04:26Z</time>
      </trkpt>
      <trkpt lat="45.94384" lon="4.72511">
        <ele>174</ele>
        <time>2017-06-12T10:04:27Z</time>
      </trkpt>
      <trkpt lat="45.94382" lon="4.72504">
        <ele>174</ele>
        <time>2017-06-12T10:04:28Z</time>
      </trkpt>
      <trkpt lat="45.9438" lon="4.72497">
        <ele>173</ele>
        <time>2017-06-12T10:04:29Z</time>
      </trkpt>
      <trkpt lat="45.94378" lon="4.7249">
        <ele>173</ele>
        <time>2017-06-12T10:04:30Z</time>
      </trkpt>
      <trkpt lat="45.94376" lon="4.72483">
        <ele>173</ele>
        <time>2017-06-12T10:04:31Z</time>
      </trkpt>
      <trkpt lat="45.94374" lon="4.72475">
        <ele>173</ele>
        <time>2017-06-12T10:04:32Z</time>
      </trkpt>
      <trkpt lat="45.94371" lon="4.72468">
        <ele>173</ele>
        <time>2017-06-12T10:04:33Z</time>
      </trkpt>
      <trkpt lat="45.94369" lon="4.7246">
        <ele>173</ele>
        <time>2017-06-12T10:04:34Z</time>
      </trkpt>
      <trkpt lat="45.94366" lon="4.72453">
        <ele>173</ele>
        <time>2017-06-12T10:04:35Z</time>
      </trkpt>
      <trkpt lat="45.94363" lon="4.72446">
        <ele>173</ele>
        <time>2017-06-12T10:04:36Z</time>
      </trkpt>
      <trkpt lat="45.94361" lon="4.72439">
        <ele>173</ele>
        <time>2017-06-12T10:04:37Z</time>
      </trkpt>
      <trkpt lat="45.94359" lon="4.72433">
        <ele>173</ele>
        <time>2017-06-12T10:04:38Z</time>
      </trkpt>
      <trkpt lat="45.94356" lon="4.72427">
        <ele>173</ele>
        <time>2017-06-12T10:04:39Z</time>
      </trkpt>
      <trkpt lat="45.94354" lon="4.7242">
        <ele>173</ele>
        <time>2017-06-12T10:04:40Z</time>
      </trkpt>
      <trkpt lat="45.94351" lon="4.72414">
        <ele>172</ele>
        <time>2017-06-12T10:04:41Z</time>
      </trkpt>
      <trkpt lat="45.94349" lon="4.72407">
        <ele>172</ele>
        <time>2017-06-12T10:04:42Z</time>
      </trkpt>
      <trkpt lat="45.94346" lon="4.724">
        <ele>172</ele>
        <time>2017-06-12T10:04:43Z</time>
      </trkpt>
      <trkpt lat="45.94343" lon="4.72394">
        <ele>172</ele>
        <time>2017-06-12T10:04:44Z</time>
      </trkpt>
      <trkpt lat="45.9434" lon="4.72388">
        <ele>172</ele>
        <time>2017-06-12T10:04:45Z</time>
      </trkpt>
      <trkpt lat="45.94338" lon="4.72381">
        <ele>172</ele>
        <time>2017-06-12T10:04:46Z</time>
      </trkpt>
      <trkpt lat="45.94335" lon="4.72375">
        <ele>172</ele>
        <time>2017-06-12T10:04:47Z</time>
      </trkpt>
      <trkpt lat="45.94333" lon="4.72368">
        <ele>172</ele>
        <time>2017-06-12T10:04:48Z</time>
      </trkpt>
      <trkpt lat="45.94329" lon="4.72361">
        <ele>172</ele>
        <time>2017-06-12T10:04:49Z</time>
      </trkpt>
      <trkpt lat="45.94326" lon="4.72354">
        <ele>172</ele>
        <time>2017-06-12T10:04:50Z</time>
      </trkpt>
      <trkpt lat="45.94323" lon="4.72347">
        <ele>172</ele>
        <time>2017-06-12T10:04:51Z</time>
      </trkpt>
      <trkpt lat="45.94319" lon="4.7234">
        <ele>172</ele>
        <time>2017-06-12T10:04:52Z</time>
      </trkpt>
      <trkpt lat="45.94315" lon="4.72332">
        <ele>172</ele>
        <time>2017-06-12T10:04:53Z</time>
      </trkpt>
      <trkpt lat="45.94312" lon="4.72324">
        <ele>172</ele>
        <time>2017-06-12T10:04:54Z</time>
      </trkpt>
      <trkpt lat="45.94306" lon="4.72314">
        <ele>171</ele>
        <time>2017-06-12T10:04:55Z</time>
      </trkpt>
      <trkpt lat="45.94302" lon="4.72305">
        <ele>171</ele>
        <time>2017-06-12T10:04:56Z</time>
      </trkpt>
      <trkpt lat="45.94299" lon="4.72296">
        <ele>171</ele>
        <time>2017-06-12T10:04:57Z</time>
      </trkpt>
      <trkpt lat="45.94296" lon="4.72288">
        <ele>171</ele>
        <time>2017-06-12T10:04:58Z</time>
      </trkpt>
      <trkpt lat="45.94291" lon="4.72282">
        <ele>171</ele>
        <time>2017-06-12T10:04:59Z</time>
      </trkpt>
      <trkpt lat="45.94288" lon="4.72275">
        <ele>171</ele>
        <time>2017-06-12T10:05:00Z</time>
      </trkpt>
      <trkpt lat="45.94286" lon="4.7227">
        <ele>171</ele>
        <time>2017-06-12T10:05:01Z</time>
      </trkpt>
      <trkpt lat="45.9428" lon="4.72261">
        <ele>171</ele>
        <time>2017-06-12T10:05:04Z</time>
      </trkpt>
      <trkpt lat="45.94279" lon="4.72259">
        <ele>171</ele>
        <time>2017-06-12T10:05:05Z</time>
      </trkpt>
      <trkpt lat="45.94272" lon="4.7226">
        <ele>171</ele>
        <time>2017-06-12T10:05:07Z</time>
      </trkpt>
      <trkpt lat="45.94269" lon="4.72264">
        <ele>171</ele>
        <time>2017-06-12T10:05:08Z</time>
      </trkpt>
      <trkpt lat="45.94261" lon="4.7227">
        <ele>171</ele>
        <time>2017-06-12T10:05:10Z</time>
      </trkpt>
      <trkpt lat="45.94257" lon="4.72273">
        <ele>171</ele>
        <time>2017-06-12T10:05:11Z</time>
      </trkpt>
      <trkpt lat="45.94252" lon="4.72275">
        <ele>171</ele>
        <time>2017-06-12T10:05:12Z</time>
      </trkpt>
      <trkpt lat="45.94247" lon="4.72277">
        <ele>171</ele>
        <time>2017-06-12T10:05:13Z</time>
      </trkpt>
      <trkpt lat="45.94242" lon="4.72279">
        <ele>171</ele>
        <time>2017-06-12T10:05:14Z</time>
      </trkpt>
      <trkpt lat="45.94237" lon="4.7228">
        <ele>171</ele>
        <time>2017-06-12T10:05:15Z</time>
      </trkpt>
      <trkpt lat="45.94232" lon="4.72281">
        <ele>171</ele>
        <time>2017-06-12T10:05:16Z</time>
      </trkpt>
      <trkpt lat="45.94227" lon="4.72282">
        <ele>171</ele>
        <time>2017-06-12T10:05:17Z</time>
      </trkpt>
      <trkpt lat="45.94222" lon="4.72282">
        <ele>171</ele>
        <time>2017-06-12T10:05:18Z</time>
      </trkpt>
      <trkpt lat="45.94217" lon="4.72283">
        <ele>171</ele>
        <time>2017-06-12T10:05:19Z</time>
      </trkpt>
      <trkpt lat="45.94212" lon="4.72283">
        <ele>171</ele>
        <time>2017-06-12T10:05:20Z</time>
      </trkpt>
      <trkpt lat="45.94207" lon="4.72283">
        <ele>171</ele>
        <time>2017-06-12T10:05:21Z</time>
      </trkpt>
      <trkpt lat="45.94201" lon="4.72283">
        <ele>171</ele>
        <time>2017-06-12T10:05:22Z</time>
      </trkpt>
      <trkpt lat="45.94196" lon="4.72284">
        <ele>171</ele>
        <time>2017-06-12T10:05:23Z</time>
      </trkpt>
      <trkpt lat="45.94191" lon="4.72284">
        <ele>171</ele>
        <time>2017-06-12T10:05:24Z</time>
      </trkpt>
      <trkpt lat="45.94187" lon="4.72284">
        <ele>171</ele>
        <time>2017-06-12T10:05:25Z</time>
      </trkpt>
      <trkpt lat="45.94182" lon="4.72284">
        <ele>171</ele>
        <time>2017-06-12T10:05:26Z</time>
      </trkpt>
      <trkpt lat="45.94177" lon="4.72285">
        <ele>171</ele>
        <time>2017-06-12T10:05:27Z</time>
      </trkpt>
      <trkpt lat="45.94172" lon="4.72284">
        <ele>171</ele>
        <time>2017-06-12T10:05:28Z</time>
      </trkpt>
      <trkpt lat="45.94167" lon="4.72284">
        <ele>171</ele>
        <time>2017-06-12T10:05:29Z</time>
      </trkpt>
      <trkpt lat="45.94162" lon="4.72282">
        <ele>171</ele>
        <time>2017-06-12T10:05:30Z</time>
      </trkpt>
      <trkpt lat="45.94156" lon="4.7228">
        <ele>171</ele>
        <time>2017-06-12T10:05:31Z</time>
      </trkpt>
      <trkpt lat="45.94151" lon="4.72279">
        <ele>171</ele>
        <time>2017-06-12T10:05:32Z</time>
      </trkpt>
      <trkpt lat="45.94145" lon="4.72276">
        <ele>171</ele>
        <time>2017-06-12T10:05:33Z</time>
      </trkpt>
      <trkpt lat="45.9414" lon="4.72274">
        <ele>171</ele>
        <time>2017-06-12T10:05:34Z</time>
      </trkpt>
      <trkpt lat="45.94134" lon="4.72271">
        <ele>171</ele>
        <time>2017-06-12T10:05:35Z</time>
      </trkpt>
      <trkpt lat="45.94129" lon="4.72268">
        <ele>171</ele>
        <time>2017-06-12T10:05:36Z</time>
      </trkpt>
      <trkpt lat="45.94124" lon="4.72265">
        <ele>171</ele>
        <time>2017-06-12T10:05:37Z</time>
      </trkpt>
      <trkpt lat="45.94118" lon="4.72263">
        <ele>171</ele>
        <time>2017-06-12T10:05:38Z</time>
      </trkpt>
      <trkpt lat="45.94112" lon="4.72261">
        <ele>171</ele>
        <time>2017-06-12T10:05:39Z</time>
      </trkpt>
      <trkpt lat="45.94105" lon="4.7226">
        <ele>171</ele>
        <time>2017-06-12T10:05:40Z</time>
      </trkpt>
      <trkpt lat="45.94099" lon="4.72259">
        <ele>171</ele>
        <time>2017-06-12T10:05:41Z</time>
      </trkpt>
      <trkpt lat="45.94092" lon="4.7226">
        <ele>171</ele>
        <time>2017-06-12T10:05:42Z</time>
      </trkpt>
      <trkpt lat="45.94086" lon="4.72262">
        <ele>171</ele>
        <time>2017-06-12T10:05:43Z</time>
      </trkpt>
      <trkpt lat="45.9408" lon="4.72264">
        <ele>171</ele>
        <time>2017-06-12T10:05:44Z</time>
      </trkpt>
      <trkpt lat="45.94075" lon="4.72268">
        <ele>171</ele>
        <time>2017-06-12T10:05:45Z</time>
      </trkpt>
      <trkpt lat="45.9407" lon="4.72274">
        <ele>171</ele>
        <time>2017-06-12T10:05:46Z</time>
      </trkpt>
      <trkpt lat="45.94065" lon="4.7228">
        <ele>171</ele>
        <time>2017-06-12T10:05:47Z</time>
      </trkpt>
      <trkpt lat="45.9406" lon="4.72286">
        <ele>171</ele>
        <time>2017-06-12T10:05:48Z</time>
      </trkpt>
      <trkpt lat="45.94056" lon="4.72292">
        <ele>171</ele>
        <time>2017-06-12T10:05:49Z</time>
      </trkpt>
      <trkpt lat="45.94051" lon="4.72298">
        <ele>171</ele>
        <time>2017-06-12T10:05:50Z</time>
      </trkpt>
      <trkpt lat="45.94047" lon="4.72303">
        <ele>171</ele>
        <time>2017-06-12T10:05:51Z</time>
      </trkpt>
      <trkpt lat="45.94043" lon="4.72309">
        <ele>171</ele>
        <time>2017-06-12T10:05:52Z</time>
      </trkpt>
      <trkpt lat="45.94038" lon="4.72315">
        <ele>171</ele>
        <time>2017-06-12T10:05:53Z</time>
      </trkpt>
      <trkpt lat="45.94034" lon="4.72321">
        <ele>171</ele>
        <time>2017-06-12T10:05:54Z</time>
      </trkpt>
      <trkpt lat="45.94029" lon="4.72326">
        <ele>171</ele>
        <time>2017-06-12T10:05:55Z</time>
      </trkpt>
      <trkpt lat="45.94025" lon="4.72332">
        <ele>171</ele>
        <time>2017-06-12T10:05:56Z</time>
      </trkpt>
      <trkpt lat="45.9402" lon="4.72337">
        <ele>171</ele>
        <time>2017-06-12T10:05:57Z</time>
      </trkpt>
      <trkpt lat="45.94016" lon="4.72343">
        <ele>171</ele>
        <time>2017-06-12T10:05:58Z</time>
      </trkpt>
      <trkpt lat="45.94012" lon="4.72349">
        <ele>171</ele>
        <time>2017-06-12T10:05:59Z</time>
      </trkpt>
      <trkpt lat="45.94007" lon="4.72354">
        <ele>171</ele>
        <time>2017-06-12T10:06:00Z</time>
      </trkpt>
      <trkpt lat="45.94002" lon="4.7236">
        <ele>171</ele>
        <time>2017-06-12T10:06:01Z</time>
      </trkpt>
      <trkpt lat="45.93998" lon="4.72366">
        <ele>171</ele>
        <time>2017-06-12T10:06:02Z</time>
      </trkpt>
      <trkpt lat="45.93993" lon="4.72372">
        <ele>171</ele>
        <time>2017-06-12T10:06:03Z</time>
      </trkpt>
      <trkpt lat="45.93989" lon="4.72378">
        <ele>171</ele>
        <time>2017-06-12T10:06:04Z</time>
      </trkpt>
      <trkpt lat="45.93984" lon="4.72385">
        <ele>171</ele>
        <time>2017-06-12T10:06:05Z</time>
      </trkpt>
      <trkpt lat="45.93979" lon="4.72391">
        <ele>171</ele>
        <time>2017-06-12T10:06:06Z</time>
      </trkpt>
      <trkpt lat="45.93975" lon="4.72397">
        <ele>171</ele>
        <time>2017-06-12T10:06:07Z</time>
      </trkpt>
      <trkpt lat="45.9397" lon="4.72403">
        <ele>171</ele>
        <time>2017-06-12T10:06:08Z</time>
      </trkpt>
      <trkpt lat="45.93965" lon="4.72408">
        <ele>171</ele>
        <time>2017-06-12T10:06:09Z</time>
      </trkpt>
      <trkpt lat="45.93961" lon="4.72413">
        <ele>171</ele>
        <time>2017-06-12T10:06:10Z</time>
      </trkpt>
      <trkpt lat="45.93957" lon="4.72418">
        <ele>171</ele>
        <time>2017-06-12T10:06:11Z</time>
      </trkpt>
      <trkpt lat="45.93953" lon="4.72422">
        <ele>171</ele>
        <time>2017-06-12T10:06:12Z</time>
      </trkpt>
      <trkpt lat="45.93949" lon="4.72427">
        <ele>171</ele>
        <time>2017-06-12T10:06:13Z</time>
      </trkpt>
      <trkpt lat="45.93945" lon="4.72432">
        <ele>171</ele>
        <time>2017-06-12T10:06:14Z</time>
      </trkpt>
      <trkpt lat="45.93941" lon="4.72437">
        <ele>171</ele>
        <time>2017-06-12T10:06:15Z</time>
      </trkpt>
      <trkpt lat="45.93937" lon="4.72442">
        <ele>171</ele>
        <time>2017-06-12T10:06:16Z</time>
      </trkpt>
      <trkpt lat="45.93933" lon="4.72447">
        <ele>171</ele>
        <time>2017-06-12T10:06:17Z</time>
      </trkpt>
      <trkpt lat="45.93929" lon="4.72451">
        <ele>171</ele>
        <time>2017-06-12T10:06:18Z</time>
      </trkpt>
      <trkpt lat="45.93924" lon="4.72456">
        <ele>171</ele>
        <time>2017-06-12T10:06:19Z</time>
      </trkpt>
      <trkpt lat="45.9392" lon="4.72462">
        <ele>171</ele>
        <time>2017-06-12T10:06:20Z</time>
      </trkpt>
      <trkpt lat="45.93916" lon="4.72467">
        <ele>172</ele>
        <time>2017-06-12T10:06:21Z</time>
      </trkpt>
      <trkpt lat="45.93912" lon="4.72472">
        <ele>172</ele>
        <time>2017-06-12T10:06:22Z</time>
      </trkpt>
      <trkpt lat="45.93908" lon="4.72477">
        <ele>172</ele>
        <time>2017-06-12T10:06:23Z</time>
      </trkpt>
      <trkpt lat="45.93903" lon="4.72483">
        <ele>172</ele>
        <time>2017-06-12T10:06:24Z</time>
      </trkpt>
      <trkpt lat="45.93899" lon="4.72488">
        <ele>172</ele>
        <time>2017-06-12T10:06:25Z</time>
      </trkpt>
      <trkpt lat="45.93894" lon="4.72493">
        <ele>172</ele>
        <time>2017-06-12T10:06:26Z</time>
      </trkpt>
      <trkpt lat="45.9389" lon="4.72498">
        <ele>172</ele>
        <time>2017-06-12T10:06:27Z</time>
      </trkpt>
      <trkpt lat="45.93886" lon="4.72504">
        <ele>173</ele>
        <time>2017-06-12T10:06:28Z</time>
      </trkpt>
      <trkpt lat="45.93882" lon="4.7251">
        <ele>173</ele>
        <time>2017-06-12T10:06:29Z</time>
      </trkpt>
      <trkpt lat="45.93877" lon="4.72514">
        <ele>173</ele>
        <time>2017-06-12T10:06:30Z</time>
      </trkpt>
      <trkpt lat="45.93872" lon="4.72516">
        <ele>173</ele>
        <time>2017-06-12T10:06:31Z</time>
      </trkpt>
      <trkpt lat="45.93866" lon="4.72515">
        <ele>173</ele>
        <time>2017-06-12T10:06:32Z</time>
      </trkpt>
      <trkpt lat="45.93861" lon="4.72513">
        <ele>173</ele>
        <time>2017-06-12T10:06:33Z</time>
      </trkpt>
      <trkpt lat="45.93857" lon="4.7251">
        <ele>173</ele>
        <time>2017-06-12T10:06:34Z</time>
      </trkpt>
      <trkpt lat="45.93851" lon="4.72507">
        <ele>173</ele>
        <time>2017-06-12T10:06:35Z</time>
      </trkpt>
      <trkpt lat="45.93846" lon="4.72504">
        <ele>174</ele>
        <time>2017-06-12T10:06:36Z</time>
      </trkpt>
      <trkpt lat="45.93841" lon="4.725">
        <ele>173</ele>
        <time>2017-06-12T10:06:37Z</time>
      </trkpt>
      <trkpt lat="45.93835" lon="4.72497">
        <ele>174</ele>
        <time>2017-06-12T10:06:38Z</time>
      </trkpt>
      <trkpt lat="45.9383" lon="4.72494">
        <ele>173</ele>
        <time>2017-06-12T10:06:39Z</time>
      </trkpt>
      <trkpt lat="45.93824" lon="4.72491">
        <ele>173</ele>
        <time>2017-06-12T10:06:40Z</time>
      </trkpt>
      <trkpt lat="45.93819" lon="4.72487">
        <ele>173</ele>
        <time>2017-06-12T10:06:41Z</time>
      </trkpt>
      <trkpt lat="45.93814" lon="4.72476">
        <ele>172</ele>
        <time>2017-06-12T10:06:43Z</time>
      </trkpt>
      <trkpt lat="45.9381" lon="4.72471">
        <ele>172</ele>
        <time>2017-06-12T10:06:44Z</time>
      </trkpt>
      <trkpt lat="45.93806" lon="4.72467">
        <ele>172</ele>
        <time>2017-06-12T10:06:45Z</time>
      </trkpt>
      <trkpt lat="45.93803" lon="4.72462">
        <ele>172</ele>
        <time>2017-06-12T10:06:46Z</time>
      </trkpt>
      <trkpt lat="45.938" lon="4.72456">
        <ele>172</ele>
        <time>2017-06-12T10:06:47Z</time>
      </trkpt>
      <trkpt lat="45.93797" lon="4.72451">
        <ele>172</ele>
        <time>2017-06-12T10:06:48Z</time>
      </trkpt>
      <trkpt lat="45.93793" lon="4.72447">
        <ele>172</ele>
        <time>2017-06-12T10:06:49Z</time>
      </trkpt>
      <trkpt lat="45.93788" lon="4.72442">
        <ele>172</ele>
        <time>2017-06-12T10:06:50Z</time>
      </trkpt>
      <trkpt lat="45.93783" lon="4.72436">
        <ele>172</ele>
        <time>2017-06-12T10:06:51Z</time>
      </trkpt>
      <trkpt lat="45.93778" lon="4.72431">
        <ele>172</ele>
        <time>2017-06-12T10:06:52Z</time>
      </trkpt>
      <trkpt lat="45.93773" lon="4.72426">
        <ele>171</ele>
        <time>2017-06-12T10:06:53Z</time>
      </trkpt>
      <trkpt lat="45.93769" lon="4.7242">
        <ele>171</ele>
        <time>2017-06-12T10:06:54Z</time>
      </trkpt>
      <trkpt lat="45.93765" lon="4.72415">
        <ele>171</ele>
        <time>2017-06-12T10:06:55Z</time>
      </trkpt>
      <trkpt lat="45.93761" lon="4.7241">
        <ele>171</ele>
        <time>2017-06-12T10:06:56Z</time>
      </trkpt>
      <trkpt lat="45.93757" lon="4.72405">
        <ele>171</ele>
        <time>2017-06-12T10:06:57Z</time>
      </trkpt>
      <trkpt lat="45.93753" lon="4.724">
        <ele>171</ele>
        <time>2017-06-12T10:06:58Z</time>
      </trkpt>
      <trkpt lat="45.93748" lon="4.72395">
        <ele>171</ele>
        <time>2017-06-12T10:06:59Z</time>
      </trkpt>
      <trkpt lat="45.93743" lon="4.72391">
        <ele>171</ele>
        <time>2017-06-12T10:07:00Z</time>
      </trkpt>
      <trkpt lat="45.93739" lon="4.72388">
        <ele>171</ele>
        <time>2017-06-12T10:07:01Z</time>
      </trkpt>
      <trkpt lat="45.93734" lon="4.72384">
        <ele>171</ele>
        <time>2017-06-12T10:07:02Z</time>
      </trkpt>
      <trkpt lat="45.9373" lon="4.7238">
        <ele>171</ele>
        <time>2017-06-12T10:07:03Z</time>
      </trkpt>
      <trkpt lat="45.93725" lon="4.72376">
        <ele>171</ele>
        <time>2017-06-12T10:07:04Z</time>
      </trkpt>
      <trkpt lat="45.93721" lon="4.72371">
        <ele>172</ele>
        <time>2017-06-12T10:07:05Z</time>
      </trkpt>
      <trkpt lat="45.93717" lon="4.72367">
        <ele>172</ele>
        <time>2017-06-12T10:07:06Z</time>
      </trkpt>
      <trkpt lat="45.93712" lon="4.72363">
        <ele>172</ele>
        <time>2017-06-12T10:07:07Z</time>
      </trkpt>
      <trkpt lat="45.93708" lon="4.72359">
        <ele>171</ele>
        <time>2017-06-12T10:07:08Z</time>
      </trkpt>
      <trkpt lat="45.93704" lon="4.72355">
        <ele>171</ele>
        <time>2017-06-12T10:07:09Z</time>
      </trkpt>
      <trkpt lat="45.937" lon="4.72352">
        <ele>171</ele>
        <time>2017-06-12T10:07:10Z</time>
      </trkpt>
      <trkpt lat="45.93695" lon="4.7235">
        <ele>171</ele>
        <time>2017-06-12T10:07:11Z</time>
      </trkpt>
      <trkpt lat="45.9369" lon="4.72346">
        <ele>171</ele>
        <time>2017-06-12T10:07:12Z</time>
      </trkpt>
      <trkpt lat="45.93684" lon="4.72339">
        <ele>171</ele>
        <time>2017-06-12T10:07:14Z</time>
      </trkpt>
      <trkpt lat="45.93679" lon="4.72334">
        <ele>171</ele>
        <time>2017-06-12T10:07:15Z</time>
      </trkpt>
      <trkpt lat="45.93675" lon="4.7233">
        <ele>171</ele>
        <time>2017-06-12T10:07:16Z</time>
      </trkpt>
      <trkpt lat="45.93671" lon="4.72326">
        <ele>171</ele>
        <time>2017-06-12T10:07:17Z</time>
      </trkpt>
      <trkpt lat="45.93667" lon="4.72321">
        <ele>171</ele>
        <time>2017-06-12T10:07:18Z</time>
      </trkpt>
      <trkpt lat="45.93663" lon="4.72317">
        <ele>172</ele>
        <time>2017-06-12T10:07:19Z</time>
      </trkpt>
      <trkpt lat="45.9366" lon="4.72312">
        <ele>172</ele>
        <time>2017-06-12T10:07:20Z</time>
      </trkpt>
      <trkpt lat="45.93656" lon="4.72308">
        <ele>172</ele>
        <time>2017-06-12T10:07:21Z</time>
      </trkpt>
      <trkpt lat="45.93652" lon="4.72303">
        <ele>172</ele>
        <time>2017-06-12T10:07:22Z</time>
      </trkpt>
      <trkpt lat="45.93648" lon="4.72299">
        <ele>172</ele>
        <time>2017-06-12T10:07:23Z</time>
      </trkpt>
      <trkpt lat="45.93643" lon="4.72295">
        <ele>172</ele>
        <time>2017-06-12T10:07:24Z</time>
      </trkpt>
      <trkpt lat="45.93638" lon="4.72291">
        <ele>172</ele>
        <time>2017-06-12T10:07:25Z</time>
      </trkpt>
      <trkpt lat="45.93634" lon="4.72287">
        <ele>172</ele>
        <time>2017-06-12T10:07:26Z</time>
      </trkpt>
      <trkpt lat="45.9363" lon="4.72283">
        <ele>172</ele>
        <time>2017-06-12T10:07:27Z</time>
      </trkpt>
      <trkpt lat="45.93623" lon="4.72276">
        <ele>172</ele>
        <time>2017-06-12T10:07:29Z</time>
      </trkpt>
      <trkpt lat="45.93618" lon="4.72273">
        <ele>172</ele>
        <time>2017-06-12T10:07:30Z</time>
      </trkpt>
      <trkpt lat="45.93613" lon="4.72271">
        <ele>172</ele>
        <time>2017-06-12T10:07:31Z</time>
      </trkpt>
      <trkpt lat="45.93609" lon="4.72267">
        <ele>172</ele>
        <time>2017-06-12T10:07:32Z</time>
      </trkpt>
      <trkpt lat="45.93605" lon="4.72263">
        <ele>173</ele>
        <time>2017-06-12T10:07:33Z</time>
      </trkpt>
      <trkpt lat="45.936" lon="4.72258">
        <ele>173</ele>
        <time>2017-06-12T10:07:34Z</time>
      </trkpt>
      <trkpt lat="45.93596" lon="4.72255">
        <ele>173</ele>
        <time>2017-06-12T10:07:35Z</time>
      </trkpt>
      <trkpt lat="45.93591" lon="4.72252">
        <ele>173</ele>
        <time>2017-06-12T10:07:36Z</time>
      </trkpt>
      <trkpt lat="45.93585" lon="4.72246">
        <ele>173</ele>
        <time>2017-06-12T10:07:38Z</time>
      </trkpt>
      <trkpt lat="45.93583" lon="4.72241">
        <ele>173</ele>
        <time>2017-06-12T10:07:39Z</time>
      </trkpt>
      <trkpt lat="45.93577" lon="4.72232">
        <ele>173</ele>
        <time>2017-06-12T10:07:41Z</time>
      </trkpt>
      <trkpt lat="45.93575" lon="4.7223">
        <ele>173</ele>
        <time>2017-06-12T10:07:42Z</time>
      </trkpt>
      <trkpt lat="45.93568" lon="4.72224">
        <ele>173</ele>
        <time>2017-06-12T10:07:45Z</time>
      </trkpt>
      <trkpt lat="45.93566" lon="4.72223">
        <ele>173</ele>
        <time>2017-06-12T10:07:46Z</time>
      </trkpt>
      <trkpt lat="45.9356" lon="4.72219">
        <ele>173</ele>
        <time>2017-06-12T10:07:49Z</time>
      </trkpt>
      <trkpt lat="45.93557" lon="4.72219">
        <ele>173</ele>
        <time>2017-06-12T10:07:50Z</time>
      </trkpt>
      <trkpt lat="45.9355" lon="4.72225">
        <ele>172</ele>
        <time>2017-06-12T10:07:52Z</time>
      </trkpt>
      <trkpt lat="45.93548" lon="4.72231">
        <ele>172</ele>
        <time>2017-06-12T10:07:53Z</time>
      </trkpt>
      <trkpt lat="45.93543" lon="4.72241">
        <ele>172</ele>
        <time>2017-06-12T10:07:55Z</time>
      </trkpt>
      <trkpt lat="45.9354" lon="4.72246">
        <ele>172</ele>
        <time>2017-06-12T10:07:56Z</time>
      </trkpt>
      <trkpt lat="45.93537" lon="4.72252">
        <ele>172</ele>
        <time>2017-06-12T10:07:57Z</time>
      </trkpt>
      <trkpt lat="45.93534" lon="4.72258">
        <ele>172</ele>
        <time>2017-06-12T10:07:58Z</time>
      </trkpt>
      <trkpt lat="45.93531" lon="4.72264">
        <ele>172</ele>
        <time>2017-06-12T10:07:59Z</time>
      </trkpt>
      <trkpt lat="45.93529" lon="4.7227">
        <ele>172</ele>
        <time>2017-06-12T10:08:00Z</time>
      </trkpt>
      <trkpt lat="45.93526" lon="4.72276">
        <ele>172</ele>
        <time>2017-06-12T10:08:01Z</time>
      </trkpt>
      <trkpt lat="45.93523" lon="4.72283">
        <ele>172</ele>
        <time>2017-06-12T10:08:02Z</time>
      </trkpt>
      <trkpt lat="45.9352" lon="4.72289">
        <ele>172</ele>
        <time>2017-06-12T10:08:03Z</time>
      </trkpt>
      <trkpt lat="45.93516" lon="4.72296">
        <ele>172</ele>
        <time>2017-06-12T10:08:04Z</time>
      </trkpt>
      <trkpt lat="45.93512" lon="4.72303">
        <ele>172</ele>
        <time>2017-06-12T10:08:05Z</time>
      </trkpt>
      <trkpt lat="45.93507" lon="4.72309">
        <ele>173</ele>
        <time>2017-06-12T10:08:06Z</time>
      </trkpt>
      <trkpt lat="45.93503" lon="4.72316">
        <ele>173</ele>
        <time>2017-06-12T10:08:07Z</time>
      </trkpt>
      <trkpt lat="45.93498" lon="4.72323">
        <ele>173</ele>
        <time>2017-06-12T10:08:08Z</time>
      </trkpt>
      <trkpt lat="45.93493" lon="4.72329">
        <ele>173</ele>
        <time>2017-06-12T10:08:09Z</time>
      </trkpt>
      <trkpt lat="45.93489" lon="4.72336">
        <ele>173</ele>
        <time>2017-06-12T10:08:10Z</time>
      </trkpt>
      <trkpt lat="45.93484" lon="4.72343">
        <ele>173</ele>
        <time>2017-06-12T10:08:11Z</time>
      </trkpt>
      <trkpt lat="45.9348" lon="4.72349">
        <ele>173</ele>
        <time>2017-06-12T10:08:12Z</time>
      </trkpt>
      <trkpt lat="45.93476" lon="4.72355">
        <ele>173</ele>
        <time>2017-06-12T10:08:13Z</time>
      </trkpt>
      <trkpt lat="45.93472" lon="4.72362">
        <ele>173</ele>
        <time>2017-06-12T10:08:14Z</time>
      </trkpt>
      <trkpt lat="45.93468" lon="4.72368">
        <ele>173</ele>
        <time>2017-06-12T10:08:15Z</time>
      </trkpt>
      <trkpt lat="45.93463" lon="4.72374">
        <ele>173</ele>
        <time>2017-06-12T10:08:16Z</time>
      </trkpt>
      <trkpt lat="45.93458" lon="4.72379">
        <ele>173</ele>
        <time>2017-06-12T10:08:17Z</time>
      </trkpt>
      <trkpt lat="45.93454" lon="4.72384">
        <ele>173</ele>
        <time>2017-06-12T10:08:18Z</time>
      </trkpt>
      <trkpt lat="45.93449" lon="4.72389">
        <ele>173</ele>
        <time>2017-06-12T10:08:19Z</time>
      </trkpt>
      <trkpt lat="45.93444" lon="4.72393">
        <ele>173</ele>
        <time>2017-06-12T10:08:20Z</time>
      </trkpt>
      <trkpt lat="45.93439" lon="4.72397">
        <ele>173</ele>
        <time>2017-06-12T10:08:21Z</time>
      </trkpt>
      <trkpt lat="45.93435" lon="4.72401">
        <ele>174</ele>
        <time>2017-06-12T10:08:22Z</time>
      </trkpt>
      <trkpt lat="45.9343" lon="4.72404">
        <ele>174</ele>
        <time>2017-06-12T10:08:23Z</time>
      </trkpt>
      <trkpt lat="45.93425" lon="4.72406">
        <ele>174</ele>
        <time>2017-06-12T10:08:24Z</time>
      </trkpt>
      <trkpt lat="45.93418" lon="4.72408">
        <ele>174</ele>
        <time>2017-06-12T10:08:25Z</time>
      </trkpt>
      <trkpt lat="45.93413" lon="4.7241">
        <ele>174</ele>
        <time>2017-06-12T10:08:26Z</time>
      </trkpt>
      <trkpt lat="45.93404" lon="4.7241">
        <ele>174</ele>
        <time>2017-06-12T10:08:28Z</time>
      </trkpt>
      <trkpt lat="45.934" lon="4.72408">
        <ele>174</ele>
        <time>2017-06-12T10:08:29Z</time>
      </trkpt>
      <trkpt lat="45.93395" lon="4.72408">
        <ele>174</ele>
        <time>2017-06-12T10:08:30Z</time>
      </trkpt>
      <trkpt lat="45.93391" lon="4.7241">
        <ele>174</ele>
        <time>2017-06-12T10:08:31Z</time>
      </trkpt>
      <trkpt lat="45.93386" lon="4.72416">
        <ele>174</ele>
        <time>2017-06-12T10:08:32Z</time>
      </trkpt>
      <trkpt lat="45.93384" lon="4.72423">
        <ele>173</ele>
        <time>2017-06-12T10:08:33Z</time>
      </trkpt>
      <trkpt lat="45.93384" lon="4.72433">
        <ele>173</ele>
        <time>2017-06-12T10:08:34Z</time>
      </trkpt>
      <trkpt lat="45.93387" lon="4.72441">
        <ele>173</ele>
        <time>2017-06-12T10:08:35Z</time>
      </trkpt>
      <trkpt lat="45.93389" lon="4.72448">
        <ele>173</ele>
        <time>2017-06-12T10:08:36Z</time>
      </trkpt>
      <trkpt lat="45.93391" lon="4.72456">
        <ele>173</ele>
        <time>2017-06-12T10:08:37Z</time>
      </trkpt>
      <trkpt lat="45.9339" lon="4.72464">
        <ele>173</ele>
        <time>2017-06-12T10:08:38Z</time>
      </trkpt>
      <trkpt lat="45.93388" lon="4.72471">
        <ele>173</ele>
        <time>2017-06-12T10:08:39Z</time>
      </trkpt>
      <trkpt lat="45.93384" lon="4.72476">
        <ele>173</ele>
        <time>2017-06-12T10:08:40Z</time>
      </trkpt>
      <trkpt lat="45.93379" lon="4.72481">
        <ele>173</ele>
        <time>2017-06-12T10:08:41Z</time>
      </trkpt>
      <trkpt lat="45.93374" lon="4.72485">
        <ele>173</ele>
        <time>2017-06-12T10:08:42Z</time>
      </trkpt>
      <trkpt lat="45.9337" lon="4.7249">
        <ele>173</ele>
        <time>2017-06-12T10:08:43Z</time>
      </trkpt>
      <trkpt lat="45.93365" lon="4.72496">
        <ele>173</ele>
        <time>2017-06-12T10:08:44Z</time>
      </trkpt>
      <trkpt lat="45.93361" lon="4.72501">
        <ele>172</ele>
        <time>2017-06-12T10:08:45Z</time>
      </trkpt>
      <trkpt lat="45.93357" lon="4.72507">
        <ele>172</ele>
        <time>2017-06-12T10:08:46Z</time>
      </trkpt>
      <trkpt lat="45.93352" lon="4.72512">
        <ele>172</ele>
        <time>2017-06-12T10:08:47Z</time>
      </trkpt>
      <trkpt lat="45.93346" lon="4.72518">
        <ele>172</ele>
        <time>2017-06-12T10:08:48Z</time>
      </trkpt>
      <trkpt lat="45.93341" lon="4.72523">
        <ele>172</ele>
        <time>2017-06-12T10:08:49Z</time>
      </trkpt>
      <trkpt lat="45.93336" lon="4.72529">
        <ele>172</ele>
        <time>2017-06-12T10:08:50Z</time>
      </trkpt>
      <trkpt lat="45.93331" lon="4.72534">
        <ele>172</ele>
        <time>2017-06-12T10:08:51Z</time>
      </trkpt>
      <trkpt lat="45.93326" lon="4.7254">
        <ele>172</ele>
        <time>2017-06-12T10:08:52Z</time>
      </trkpt>
      <trkpt lat="45.93321" lon="4.72546">
        <ele>172</ele>
        <time>2017-06-12T10:08:53Z</time>
      </trkpt>
      <trkpt lat="45.93316" lon="4.72552">
        <ele>172</ele>
        <time>2017-06-12T10:08:54Z</time>
      </trkpt>
      <trkpt lat="45.93311" lon="4.72557">
        <ele>172</ele>
        <time>2017-06-12T10:08:55Z</time>
      </trkpt>
      <trkpt lat="45.93307" lon="4.72562">
        <ele>172</ele>
        <time>2017-06-12T10:08:56Z</time>
      </trkpt>
      <trkpt lat="45.93302" lon="4.72567">
        <ele>171</ele>
        <time>2017-06-12T10:08:57Z</time>
      </trkpt>
      <trkpt lat="45.93297" lon="4.72573">
        <ele>171</ele>
        <time>2017-06-12T10:08:58Z</time>
      </trkpt>
      <trkpt lat="45.93293" lon="4.72578">
        <ele>171</ele>
        <time>2017-06-12T10:08:59Z</time>
      </trkpt>
      <trkpt lat="45.93288" lon="4.72583">
        <ele>171</ele>
        <time>2017-06-12T10:09:00Z</time>
      </trkpt>
      <trkpt lat="45.93284" lon="4.72587">
        <ele>170</ele>
        <time>2017-06-12T10:09:01Z</time>
      </trkpt>
      <trkpt lat="45.93279" lon="4.72591">
        <ele>170</ele>
        <time>2017-06-12T10:09:02Z</time>
      </trkpt>
      <trkpt lat="45.93274" lon="4.72596">
        <ele>170</ele>
        <time>2017-06-12T10:09:03Z</time>
      </trkpt>
      <trkpt lat="45.9327" lon="4.726">
        <ele>170</ele>
        <time>2017-06-12T10:09:04Z</time>
      </trkpt>
      <trkpt lat="45.93265" lon="4.72606">
        <ele>170</ele>
        <time>2017-06-12T10:09:05Z</time>
      </trkpt>
      <trkpt lat="45.9326" lon="4.72611">
        <ele>170</ele>
        <time>2017-06-12T10:09:06Z</time>
      </trkpt>
      <trkpt lat="45.93255" lon="4.72617">
        <ele>170</ele>
        <time>2017-06-12T10:09:07Z</time>
      </trkpt>
      <trkpt lat="45.93251" lon="4.72623">
        <ele>170</ele>
        <time>2017-06-12T10:09:08Z</time>
      </trkpt>
      <trkpt lat="45.93247" lon="4.72629">
        <ele>170</ele>
        <time>2017-06-12T10:09:09Z</time>
      </trkpt>
      <trkpt lat="45.93243" lon="4.72635">
        <ele>170</ele>
        <time>2017-06-12T10:09:10Z</time>
      </trkpt>
      <trkpt lat="45.93238" lon="4.7264">
        <ele>170</ele>
        <time>2017-06-12T10:09:11Z</time>
      </trkpt>
      <trkpt lat="45.93233" lon="4.72645">
        <ele>170</ele>
        <time>2017-06-12T10:09:12Z</time>
      </trkpt>
      <trkpt lat="45.93228" lon="4.72651">
        <ele>170</ele>
        <time>2017-06-12T10:09:13Z</time>
      </trkpt>
      <trkpt lat="45.93223" lon="4.72656">
        <ele>170</ele>
        <time>2017-06-12T10:09:14Z</time>
      </trkpt>
      <trkpt lat="45.93218" lon="4.72661">
        <ele>170</ele>
        <time>2017-06-12T10:09:15Z</time>
      </trkpt>
      <trkpt lat="45.93213" lon="4.72667">
        <ele>170</ele>
        <time>2017-06-12T10:09:16Z</time>
      </trkpt>
      <trkpt lat="45.93208" lon="4.72672">
        <ele>169</ele>
        <time>2017-06-12T10:09:17Z</time>
      </trkpt>
      <trkpt lat="45.93204" lon="4.72678">
        <ele>169</ele>
        <time>2017-06-12T10:09:18Z</time>
      </trkpt>
      <trkpt lat="45.93199" lon="4.72683">
        <ele>169</ele>
        <time>2017-06-12T10:09:19Z</time>
      </trkpt>
      <trkpt lat="45.93195" lon="4.72689">
        <ele>169</ele>
        <time>2017-06-12T10:09:20Z</time>
      </trkpt>
      <trkpt lat="45.93191" lon="4.72694">
        <ele>169</ele>
        <time>2017-06-12T10:09:21Z</time>
      </trkpt>
      <trkpt lat="45.93187" lon="4.72699">
        <ele>169</ele>
        <time>2017-06-12T10:09:22Z</time>
      </trkpt>
      <trkpt lat="45.93183" lon="4.72703">
        <ele>169</ele>
        <time>2017-06-12T10:09:23Z</time>
      </trkpt>
      <trkpt lat="45.93179" lon="4.72708">
        <ele>169</ele>
        <time>2017-06-12T10:09:24Z</time>
      </trkpt>
      <trkpt lat="45.93175" lon="4.72714">
        <ele>170</ele>
        <time>2017-06-12T10:09:25Z</time>
      </trkpt>
      <trkpt lat="45.9317" lon="4.72719">
        <ele>170</ele>
        <time>2017-06-12T10:09:26Z</time>
      </trkpt>
      <trkpt lat="45.93166" lon="4.72724">
        <ele>170</ele>
        <time>2017-06-12T10:09:27Z</time>
      </trkpt>
      <trkpt lat="45.93161" lon="4.72729">
        <ele>170</ele>
        <time>2017-06-12T10:09:28Z</time>
      </trkpt>
      <trkpt lat="45.93155" lon="4.72734">
        <ele>170</ele>
        <time>2017-06-12T10:09:29Z</time>
      </trkpt>
      <trkpt lat="45.9315" lon="4.7274">
        <ele>170</ele>
        <time>2017-06-12T10:09:30Z</time>
      </trkpt>
      <trkpt lat="45.93146" lon="4.72746">
        <ele>170</ele>
        <time>2017-06-12T10:09:31Z</time>
      </trkpt>
      <trkpt lat="45.93141" lon="4.72752">
        <ele>171</ele>
        <time>2017-06-12T10:09:32Z</time>
      </trkpt>
      <trkpt lat="45.93136" lon="4.72758">
        <ele>171</ele>
        <time>2017-06-12T10:09:33Z</time>
      </trkpt>
      <trkpt lat="45.93132" lon="4.72763">
        <ele>171</ele>
        <time>2017-06-12T10:09:34Z</time>
      </trkpt>
      <trkpt lat="45.93128" lon="4.72769">
        <ele>171</ele>
        <time>2017-06-12T10:09:35Z</time>
      </trkpt>
      <trkpt lat="45.93124" lon="4.72775">
        <ele>171</ele>
        <time>2017-06-12T10:09:36Z</time>
      </trkpt>
      <trkpt lat="45.93119" lon="4.7278">
        <ele>171</ele>
        <time>2017-06-12T10:09:37Z</time>
      </trkpt>
      <trkpt lat="45.93115" lon="4.72786">
        <ele>171</ele>
        <time>2017-06-12T10:09:38Z</time>
      </trkpt>
      <trkpt lat="45.9311" lon="4.72792">
        <ele>171</ele>
        <time>2017-06-12T10:09:39Z</time>
      </trkpt>
      <trkpt lat="45.93106" lon="4.72797">
        <ele>171</ele>
        <time>2017-06-12T10:09:40Z</time>
      </trkpt>
      <trkpt lat="45.93102" lon="4.72803">
        <ele>171</ele>
        <time>2017-06-12T10:09:41Z</time>
      </trkpt>
      <trkpt lat="45.93097" lon="4.72807">
        <ele>172</ele>
        <time>2017-06-12T10:09:42Z</time>
      </trkpt>
      <trkpt lat="45.93092" lon="4.72812">
        <ele>172</ele>
        <time>2017-06-12T10:09:43Z</time>
      </trkpt>
      <trkpt lat="45.93088" lon="4.72817">
        <ele>172</ele>
        <time>2017-06-12T10:09:44Z</time>
      </trkpt>
      <trkpt lat="45.93083" lon="4.72821">
        <ele>173</ele>
        <time>2017-06-12T10:09:45Z</time>
      </trkpt>
      <trkpt lat="45.93079" lon="4.72826">
        <ele>173</ele>
        <time>2017-06-12T10:09:46Z</time>
      </trkpt>
      <trkpt lat="45.93074" lon="4.72831">
        <ele>173</ele>
        <time>2017-06-12T10:09:47Z</time>
      </trkpt>
      <trkpt lat="45.9307" lon="4.72835">
        <ele>173</ele>
        <time>2017-06-12T10:09:48Z</time>
      </trkpt>
      <trkpt lat="45.93066" lon="4.72839">
        <ele>173</ele>
        <time>2017-06-12T10:09:49Z</time>
      </trkpt>
      <trkpt lat="45.93061" lon="4.72844">
        <ele>172</ele>
        <time>2017-06-12T10:09:50Z</time>
      </trkpt>
      <trkpt lat="45.93057" lon="4.72852">
        <ele>172</ele>
        <time>2017-06-12T10:09:51Z</time>
      </trkpt>
      <trkpt lat="45.93052" lon="4.72859">
        <ele>172</ele>
        <time>2017-06-12T10:09:52Z</time>
      </trkpt>
      <trkpt lat="45.93047" lon="4.72864">
        <ele>172</ele>
        <time>2017-06-12T10:09:53Z</time>
      </trkpt>
      <trkpt lat="45.93042" lon="4.72869">
        <ele>172</ele>
        <time>2017-06-12T10:09:54Z</time>
      </trkpt>
      <trkpt lat="45.93036" lon="4.72875">
        <ele>172</ele>
        <time>2017-06-12T10:09:55Z</time>
      </trkpt>
      <trkpt lat="45.93031" lon="4.72881">
        <ele>172</ele>
        <time>2017-06-12T10:09:56Z</time>
      </trkpt>
      <trkpt lat="45.93026" lon="4.72887">
        <ele>172</ele>
        <time>2017-06-12T10:09:57Z</time>
      </trkpt>
      <trkpt lat="45.93021" lon="4.72894">
        <ele>172</ele>
        <time>2017-06-12T10:09:58Z</time>
      </trkpt>
      <trkpt lat="45.93016" lon="4.729">
        <ele>172</ele>
        <time>2017-06-12T10:09:59Z</time>
      </trkpt>
      <trkpt lat="45.93012" lon="4.72906">
        <ele>171</ele>
        <time>2017-06-12T10:10:00Z</time>
      </trkpt>
      <trkpt lat="45.93007" lon="4.72912">
        <ele>171</ele>
        <time>2017-06-12T10:10:01Z</time>
      </trkpt>
      <trkpt lat="45.93003" lon="4.72917">
        <ele>171</ele>
        <time>2017-06-12T10:10:02Z</time>
      </trkpt>
      <trkpt lat="45.92999" lon="4.72922">
        <ele>171</ele>
        <time>2017-06-12T10:10:03Z</time>
      </trkpt>
      <trkpt lat="45.92995" lon="4.72927">
        <ele>171</ele>
        <time>2017-06-12T10:10:04Z</time>
      </trkpt>
      <trkpt lat="45.92991" lon="4.72932">
        <ele>171</ele>
        <time>2017-06-12T10:10:05Z</time>
      </trkpt>
      <trkpt lat="45.92986" lon="4.72936">
        <ele>171</ele>
        <time>2017-06-12T10:10:06Z</time>
      </trkpt>
      <trkpt lat="45.92982" lon="4.72941">
        <ele>171</ele>
        <time>2017-06-12T10:10:07Z</time>
      </trkpt>
      <trkpt lat="45.92978" lon="4.72945">
        <ele>171</ele>
        <time>2017-06-12T10:10:08Z</time>
      </trkpt>
      <trkpt lat="45.92974" lon="4.7295">
        <ele>171</ele>
        <time>2017-06-12T10:10:09Z</time>
      </trkpt>
      <trkpt lat="45.92969" lon="4.72956">
        <ele>171</ele>
        <time>2017-06-12T10:10:10Z</time>
      </trkpt>
      <trkpt lat="45.92965" lon="4.72961">
        <ele>171</ele>
        <time>2017-06-12T10:10:11Z</time>
      </trkpt>
      <trkpt lat="45.9296" lon="4.72967">
        <ele>171</ele>
        <time>2017-06-12T10:10:12Z</time>
      </trkpt>
      <trkpt lat="45.92955" lon="4.72972">
        <ele>171</ele>
        <time>2017-06-12T10:10:13Z</time>
      </trkpt>
      <trkpt lat="45.92951" lon="4.72978">
        <ele>171</ele>
        <time>2017-06-12T10:10:14Z</time>
      </trkpt>
      <trkpt lat="45.92946" lon="4.72983">
        <ele>171</ele>
        <time>2017-06-12T10:10:15Z</time>
      </trkpt>
      <trkpt lat="45.92942" lon="4.72988">
        <ele>171</ele>
        <time>2017-06-12T10:10:16Z</time>
      </trkpt>
      <trkpt lat="45.92938" lon="4.72994">
        <ele>171</ele>
        <time>2017-06-12T10:10:17Z</time>
      </trkpt>
      <trkpt lat="45.92934" lon="4.72999">
        <ele>172</ele>
        <time>2017-06-12T10:10:18Z</time>
      </trkpt>
      <trkpt lat="45.9293" lon="4.73004">
        <ele>172</ele>
        <time>2017-06-12T10:10:19Z</time>
      </trkpt>
      <trkpt lat="45.92925" lon="4.73008">
        <ele>172</ele>
        <time>2017-06-12T10:10:20Z</time>
      </trkpt>
      <trkpt lat="45.92922" lon="4.73013">
        <ele>172</ele>
        <time>2017-06-12T10:10:21Z</time>
      </trkpt>
      <trkpt lat="45.92918" lon="4.73018">
        <ele>172</ele>
        <time>2017-06-12T10:10:22Z</time>
      </trkpt>
      <trkpt lat="45.92915" lon="4.73022">
        <ele>172</ele>
        <time>2017-06-12T10:10:23Z</time>
      </trkpt>
      <trkpt lat="45.92909" lon="4.73031">
        <ele>172</ele>
        <time>2017-06-12T10:10:25Z</time>
      </trkpt>
      <trkpt lat="45.92905" lon="4.73036">
        <ele>172</ele>
        <time>2017-06-12T10:10:26Z</time>
      </trkpt>
      <trkpt lat="45.92902" lon="4.7304">
        <ele>172</ele>
        <time>2017-06-12T10:10:27Z</time>
      </trkpt>
      <trkpt lat="45.92899" lon="4.73045">
        <ele>172</ele>
        <time>2017-06-12T10:10:28Z</time>
      </trkpt>
      <trkpt lat="45.92896" lon="4.7305">
        <ele>172</ele>
        <time>2017-06-12T10:10:29Z</time>
      </trkpt>
      <trkpt lat="45.92892" lon="4.73055">
        <ele>172</ele>
        <time>2017-06-12T10:10:30Z</time>
      </trkpt>
      <trkpt lat="45.92889" lon="4.7306">
        <ele>172</ele>
        <time>2017-06-12T10:10:31Z</time>
      </trkpt>
      <trkpt lat="45.92886" lon="4.73066">
        <ele>172</ele>
        <time>2017-06-12T10:10:32Z</time>
      </trkpt>
      <trkpt lat="45.92883" lon="4.73071">
        <ele>172</ele>
        <time>2017-06-12T10:10:33Z</time>
      </trkpt>
      <trkpt lat="45.92879" lon="4.73075">
        <ele>172</ele>
        <time>2017-06-12T10:10:34Z</time>
      </trkpt>
      <trkpt lat="45.92873" lon="4.73084">
        <ele>172</ele>
        <time>2017-06-12T10:10:36Z</time>
      </trkpt>
      <trkpt lat="45.92869" lon="4.73088">
        <ele>172</ele>
        <time>2017-06-12T10:10:37Z</time>
      </trkpt>
      <trkpt lat="45.92865" lon="4.73092">
        <ele>172</ele>
        <time>2017-06-12T10:10:38Z</time>
      </trkpt>
      <trkpt lat="45.92862" lon="4.73096">
        <ele>171</ele>
        <time>2017-06-12T10:10:39Z</time>
      </trkpt>
      <trkpt lat="45.92855" lon="4.73104">
        <ele>171</ele>
        <time>2017-06-12T10:10:41Z</time>
      </trkpt>
      <trkpt lat="45.92852" lon="4.73103">
        <ele>171</ele>
        <time>2017-06-12T10:10:42Z</time>
      </trkpt>
      <trkpt lat="45.92846" lon="4.73097">
        <ele>171</ele>
        <time>2017-06-12T10:10:44Z</time>
      </trkpt>
      <trkpt lat="45.92845" lon="4.73091">
        <ele>171</ele>
        <time>2017-06-12T10:10:45Z</time>
      </trkpt>
      <trkpt lat="45.92845" lon="4.73084">
        <ele>171</ele>
        <time>2017-06-12T10:10:46Z</time>
      </trkpt>
      <trkpt lat="45.92844" lon="4.73076">
        <ele>171</ele>
        <time>2017-06-12T10:10:47Z</time>
      </trkpt>
      <trkpt lat="45.92843" lon="4.73068">
        <ele>171</ele>
        <time>2017-06-12T10:10:48Z</time>
      </trkpt>
      <trkpt lat="45.92841" lon="4.7306">
        <ele>171</ele>
        <time>2017-06-12T10:10:49Z</time>
      </trkpt>
      <trkpt lat="45.92839" lon="4.73052">
        <ele>171</ele>
        <time>2017-06-12T10:10:50Z</time>
      </trkpt>
      <trkpt lat="45.92837" lon="4.73044">
        <ele>171</ele>
        <time>2017-06-12T10:10:51Z</time>
      </trkpt>
      <trkpt lat="45.92835" lon="4.73035">
        <ele>171</ele>
        <time>2017-06-12T10:10:52Z</time>
      </trkpt>
      <trkpt lat="45.92834" lon="4.73027">
        <ele>171</ele>
        <time>2017-06-12T10:10:53Z</time>
      </trkpt>
      <trkpt lat="45.92832" lon="4.73019">
        <ele>170</ele>
        <time>2017-06-12T10:10:54Z</time>
      </trkpt>
      <trkpt lat="45.92831" lon="4.73011">
        <ele>170</ele>
        <time>2017-06-12T10:10:55Z</time>
      </trkpt>
      <trkpt lat="45.92831" lon="4.73004">
        <ele>170</ele>
        <time>2017-06-12T10:10:56Z</time>
      </trkpt>
      <trkpt lat="45.9283" lon="4.72996">
        <ele>170</ele>
        <time>2017-06-12T10:10:57Z</time>
      </trkpt>
      <trkpt lat="45.92829" lon="4.72989">
        <ele>170</ele>
        <time>2017-06-12T10:10:58Z</time>
      </trkpt>
      <trkpt lat="45.92829" lon="4.72982">
        <ele>170</ele>
        <time>2017-06-12T10:10:59Z</time>
      </trkpt>
      <trkpt lat="45.92828" lon="4.72974">
        <ele>170</ele>
        <time>2017-06-12T10:11:00Z</time>
      </trkpt>
      <trkpt lat="45.92828" lon="4.72967">
        <ele>170</ele>
        <time>2017-06-12T10:11:01Z</time>
      </trkpt>
      <trkpt lat="45.92827" lon="4.7296">
        <ele>170</ele>
        <time>2017-06-12T10:11:02Z</time>
      </trkpt>
      <trkpt lat="45.92827" lon="4.72953">
        <ele>170</ele>
        <time>2017-06-12T10:11:03Z</time>
      </trkpt>
      <trkpt lat="45.92826" lon="4.72946">
        <ele>170</ele>
        <time>2017-06-12T10:11:04Z</time>
      </trkpt>
      <trkpt lat="45.92826" lon="4.72937">
        <ele>170</ele>
        <time>2017-06-12T10:11:05Z</time>
      </trkpt>
      <trkpt lat="45.92825" lon="4.72928">
        <ele>170</ele>
        <time>2017-06-12T10:11:06Z</time>
      </trkpt>
      <trkpt lat="45.92823" lon="4.72918">
        <ele>170</ele>
        <time>2017-06-12T10:11:07Z</time>
      </trkpt>
      <trkpt lat="45.92821" lon="4.72909">
        <ele>170</ele>
        <time>2017-06-12T10:11:08Z</time>
      </trkpt>
      <trkpt lat="45.9282" lon="4.729">
        <ele>170</ele>
        <time>2017-06-12T10:11:09Z</time>
      </trkpt>
      <trkpt lat="45.92819" lon="4.72891">
        <ele>170</ele>
        <time>2017-06-12T10:11:10Z</time>
      </trkpt>
      <trkpt lat="45.92817" lon="4.72882">
        <ele>170</ele>
        <time>2017-06-12T10:11:11Z</time>
      </trkpt>
      <trkpt lat="45.92816" lon="4.72873">
        <ele>170</ele>
        <time>2017-06-12T10:11:12Z</time>
      </trkpt>
      <trkpt lat="45.92814" lon="4.72865">
        <ele>170</ele>
        <time>2017-06-12T10:11:13Z</time>
      </trkpt>
      <trkpt lat="45.92812" lon="4.72857">
        <ele>170</ele>
        <time>2017-06-12T10:11:14Z</time>
      </trkpt>
      <trkpt lat="45.9281" lon="4.7285">
        <ele>170</ele>
        <time>2017-06-12T10:11:15Z</time>
      </trkpt>
      <trkpt lat="45.92808" lon="4.72843">
        <ele>170</ele>
        <time>2017-06-12T10:11:16Z</time>
      </trkpt>
      <trkpt lat="45.92807" lon="4.72836">
        <ele>170</ele>
        <time>2017-06-12T10:11:17Z</time>
      </trkpt>
      <trkpt lat="45.92806" lon="4.72829">
        <ele>171</ele>
        <time>2017-06-12T10:11:18Z</time>
      </trkpt>
      <trkpt lat="45.92805" lon="4.72821">
        <ele>171</ele>
        <time>2017-06-12T10:11:19Z</time>
      </trkpt>
      <trkpt lat="45.92804" lon="4.72815">
        <ele>171</ele>
        <time>2017-06-12T10:11:20Z</time>
      </trkpt>
      <trkpt lat="45.92802" lon="4.72808">
        <ele>171</ele>
        <time>2017-06-12T10:11:21Z</time>
      </trkpt>
      <trkpt lat="45.92801" lon="4.72801">
        <ele>171</ele>
        <time>2017-06-12T10:11:22Z</time>
      </trkpt>
      <trkpt lat="45.928" lon="4.72795">
        <ele>171</ele>
        <time>2017-06-12T10:11:23Z</time>
      </trkpt>
      <trkpt lat="45.92797" lon="4.72784">
        <ele>171</ele>
        <time>2017-06-12T10:11:25Z</time>
      </trkpt>
      <trkpt lat="45.92793" lon="4.72782">
        <ele>171</ele>
        <time>2017-06-12T10:11:26Z</time>
      </trkpt>
      <trkpt lat="45.92786" lon="4.72786">
        <ele>171</ele>
        <time>2017-06-12T10:11:28Z</time>
      </trkpt>
      <trkpt lat="45.92782" lon="4.72789">
        <ele>170</ele>
        <time>2017-06-12T10:11:29Z</time>
      </trkpt>
      <trkpt lat="45.92778" lon="4.72792">
        <ele>170</ele>
        <time>2017-06-12T10:11:30Z</time>
      </trkpt>
      <trkpt lat="45.92774" lon="4.72795">
        <ele>170</ele>
        <time>2017-06-12T10:11:31Z</time>
      </trkpt>
      <trkpt lat="45.92769" lon="4.72799">
        <ele>170</ele>
        <time>2017-06-12T10:11:32Z</time>
      </trkpt>
      <trkpt lat="45.92765" lon="4.72802">
        <ele>170</ele>
        <time>2017-06-12T10:11:33Z</time>
      </trkpt>
      <trkpt lat="45.9276" lon="4.72805">
        <ele>170</ele>
        <time>2017-06-12T10:11:34Z</time>
      </trkpt>
      <trkpt lat="45.92755" lon="4.72808">
        <ele>170</ele>
        <time>2017-06-12T10:11:35Z</time>
      </trkpt>
      <trkpt lat="45.92751" lon="4.72812">
        <ele>170</ele>
        <time>2017-06-12T10:11:36Z</time>
      </trkpt>
      <trkpt lat="45.92746" lon="4.72816">
        <ele>170</ele>
        <time>2017-06-12T10:11:37Z</time>
      </trkpt>
      <trkpt lat="45.92742" lon="4.72821">
        <ele>169</ele>
        <time>2017-06-12T10:11:38Z</time>
      </trkpt>
      <trkpt lat="45.92738" lon="4.72825">
        <ele>169</ele>
        <time>2017-06-12T10:11:39Z</time>
      </trkpt>
      <trkpt lat="45.92734" lon="4.72829">
        <ele>169</ele>
        <time>2017-06-12T10:11:40Z</time>
      </trkpt>
      <trkpt lat="45.9273" lon="4.72832">
        <ele>169</ele>
        <time>2017-06-12T10:11:41Z</time>
      </trkpt>
      <trkpt lat="45.92725" lon="4.72836">
        <ele>169</ele>
        <time>2017-06-12T10:11:42Z</time>
      </trkpt>
      <trkpt lat="45.92721" lon="4.72839">
        <ele>169</ele>
        <time>2017-06-12T10:11:43Z</time>
      </trkpt>
      <trkpt lat="45.92716" lon="4.72842">
        <ele>169</ele>
        <time>2017-06-12T10:11:44Z</time>
      </trkpt>
      <trkpt lat="45.92711" lon="4.72846">
        <ele>169</ele>
        <time>2017-06-12T10:11:45Z</time>
      </trkpt>
      <trkpt lat="45.92706" lon="4.72849">
        <ele>169</ele>
        <time>2017-06-12T10:11:46Z</time>
      </trkpt>
      <trkpt lat="45.92701" lon="4.72854">
        <ele>169</ele>
        <time>2017-06-12T10:11:47Z</time>
      </trkpt>
      <trkpt lat="45.92696" lon="4.72858">
        <ele>169</ele>
        <time>2017-06-12T10:11:48Z</time>
      </trkpt>
      <trkpt lat="45.9269" lon="4.72862">
        <ele>169</ele>
        <time>2017-06-12T10:11:49Z</time>
      </trkpt>
      <trkpt lat="45.92685" lon="4.72866">
        <ele>169</ele>
        <time>2017-06-12T10:11:50Z</time>
      </trkpt>
      <trkpt lat="45.9268" lon="4.7287">
        <ele>169</ele>
        <time>2017-06-12T10:11:51Z</time>
      </trkpt>
      <trkpt lat="45.92675" lon="4.72874">
        <ele>169</ele>
        <time>2017-06-12T10:11:52Z</time>
      </trkpt>
      <trkpt lat="45.9267" lon="4.72878">
        <ele>170</ele>
        <time>2017-06-12T10:11:53Z</time>
      </trkpt>
      <trkpt lat="45.92666" lon="4.72882">
        <ele>169</ele>
        <time>2017-06-12T10:11:54Z</time>
      </trkpt>
      <trkpt lat="45.92661" lon="4.72885">
        <ele>169</ele>
        <time>2017-06-12T10:11:55Z</time>
      </trkpt>
      <trkpt lat="45.92656" lon="4.72889">
        <ele>169</ele>
        <time>2017-06-12T10:11:56Z</time>
      </trkpt>
      <trkpt lat="45.92652" lon="4.72892">
        <ele>169</ele>
        <time>2017-06-12T10:11:57Z</time>
      </trkpt>
      <trkpt lat="45.92648" lon="4.72896">
        <ele>169</ele>
        <time>2017-06-12T10:11:58Z</time>
      </trkpt>
      <trkpt lat="45.92643" lon="4.72899">
        <ele>169</ele>
        <time>2017-06-12T10:11:59Z</time>
      </trkpt>
      <trkpt lat="45.92639" lon="4.72903">
        <ele>169</ele>
        <time>2017-06-12T10:12:00Z</time>
      </trkpt>
      <trkpt lat="45.92635" lon="4.72907">
        <ele>169</ele>
        <time>2017-06-12T10:12:01Z</time>
      </trkpt>
      <trkpt lat="45.9263" lon="4.72911">
        <ele>169</ele>
        <time>2017-06-12T10:12:02Z</time>
      </trkpt>
      <trkpt lat="45.92625" lon="4.72915">
        <ele>169</ele>
        <time>2017-06-12T10:12:03Z</time>
      </trkpt>
      <trkpt lat="45.9262" lon="4.72919">
        <ele>169</ele>
        <time>2017-06-12T10:12:04Z</time>
      </trkpt>
      <trkpt lat="45.92615" lon="4.72924">
        <ele>169</ele>
        <time>2017-06-12T10:12:05Z</time>
      </trkpt>
      <trkpt lat="45.9261" lon="4.72929">
        <ele>169</ele>
        <time>2017-06-12T10:12:06Z</time>
      </trkpt>
      <trkpt lat="45.92605" lon="4.72933">
        <ele>169</ele>
        <time>2017-06-12T10:12:07Z</time>
      </trkpt>
      <trkpt lat="45.926" lon="4.72938">
        <ele>169</ele>
        <time>2017-06-12T10:12:08Z</time>
      </trkpt>
      <trkpt lat="45.92596" lon="4.72943">
        <ele>169</ele>
        <time>2017-06-12T10:12:09Z</time>
      </trkpt>
      <trkpt lat="45.92591" lon="4.72949">
        <ele>169</ele>
        <time>2017-06-12T10:12:10Z</time>
      </trkpt>
      <trkpt lat="45.92586" lon="4.72954">
        <ele>169</ele>
        <time>2017-06-12T10:12:11Z</time>
      </trkpt>
      <trkpt lat="45.92582" lon="4.72958">
        <ele>169</ele>
        <time>2017-06-12T10:12:12Z</time>
      </trkpt>
      <trkpt lat="45.92578" lon="4.72963">
        <ele>169</ele>
        <time>2017-06-12T10:12:13Z</time>
      </trkpt>
      <trkpt lat="45.92574" lon="4.72968">
        <ele>169</ele>
        <time>2017-06-12T10:12:14Z</time>
      </trkpt>
      <trkpt lat="45.9257" lon="4.72972">
        <ele>169</ele>
        <time>2017-06-12T10:12:15Z</time>
      </trkpt>
      <trkpt lat="45.92566" lon="4.72977">
        <ele>169</ele>
        <time>2017-06-12T10:12:16Z</time>
      </trkpt>
      <trkpt lat="45.92562" lon="4.72982">
        <ele>169</ele>
        <time>2017-06-12T10:12:17Z</time>
      </trkpt>
      <trkpt lat="45.92558" lon="4.72987">
        <ele>169</ele>
        <time>2017-06-12T10:12:18Z</time>
      </trkpt>
      <trkpt lat="45.92553" lon="4.72992">
        <ele>169</ele>
        <time>2017-06-12T10:12:19Z</time>
      </trkpt>
      <trkpt lat="45.92548" lon="4.72997">
        <ele>169</ele>
        <time>2017-06-12T10:12:20Z</time>
      </trkpt>
      <trkpt lat="45.92542" lon="4.73002">
        <ele>169</ele>
        <time>2017-06-12T10:12:21Z</time>
      </trkpt>
      <trkpt lat="45.92537" lon="4.73007">
        <ele>169</ele>
        <time>2017-06-12T10:12:22Z</time>
      </trkpt>
      <trkpt lat="45.92531" lon="4.73013">
        <ele>169</ele>
        <time>2017-06-12T10:12:23Z</time>
      </trkpt>
      <trkpt lat="45.92526" lon="4.73018">
        <ele>169</ele>
        <time>2017-06-12T10:12:24Z</time>
      </trkpt>
      <trkpt lat="45.9252" lon="4.73022">
        <ele>169</ele>
        <time>2017-06-12T10:12:25Z</time>
      </trkpt>
      <trkpt lat="45.92515" lon="4.73026">
        <ele>169</ele>
        <time>2017-06-12T10:12:26Z</time>
      </trkpt>
      <trkpt lat="45.9251" lon="4.73031">
        <ele>169</ele>
        <time>2017-06-12T10:12:27Z</time>
      </trkpt>
      <trkpt lat="45.92506" lon="4.73036">
        <ele>169</ele>
        <time>2017-06-12T10:12:28Z</time>
      </trkpt>
      <trkpt lat="45.92501" lon="4.7304">
        <ele>169</ele>
        <time>2017-06-12T10:12:29Z</time>
      </trkpt>
      <trkpt lat="45.92497" lon="4.73043">
        <ele>170</ele>
        <time>2017-06-12T10:12:30Z</time>
      </trkpt>
      <trkpt lat="45.92492" lon="4.73047">
        <ele>170</ele>
        <time>2017-06-12T10:12:31Z</time>
      </trkpt>
      <trkpt lat="45.92488" lon="4.73051">
        <ele>170</ele>
        <time>2017-06-12T10:12:32Z</time>
      </trkpt>
      <trkpt lat="45.92483" lon="4.73054">
        <ele>170</ele>
        <time>2017-06-12T10:12:33Z</time>
      </trkpt>
      <trkpt lat="45.92479" lon="4.73058">
        <ele>170</ele>
        <time>2017-06-12T10:12:34Z</time>
      </trkpt>
      <trkpt lat="45.92474" lon="4.73061">
        <ele>170</ele>
        <time>2017-06-12T10:12:35Z</time>
      </trkpt>
      <trkpt lat="45.92469" lon="4.73066">
        <ele>170</ele>
        <time>2017-06-12T10:12:36Z</time>
      </trkpt>
      <trkpt lat="45.92465" lon="4.73071">
        <ele>170</ele>
        <time>2017-06-12T10:12:37Z</time>
      </trkpt>
      <trkpt lat="45.9246" lon="4.73075">
        <ele>170</ele>
        <time>2017-06-12T10:12:38Z</time>
      </trkpt>
      <trkpt lat="45.92456" lon="4.7308">
        <ele>170</ele>
        <time>2017-06-12T10:12:39Z</time>
      </trkpt>
      <trkpt lat="45.92452" lon="4.73085">
        <ele>170</ele>
        <time>2017-06-12T10:12:40Z</time>
      </trkpt>
      <trkpt lat="45.92447" lon="4.73088">
        <ele>170</ele>
        <time>2017-06-12T10:12:41Z</time>
      </trkpt>
      <trkpt lat="45.92442" lon="4.73091">
        <ele>170</ele>
        <time>2017-06-12T10:12:42Z</time>
      </trkpt>
      <trkpt lat="45.92438" lon="4.73094">
        <ele>171</ele>
        <time>2017-06-12T10:12:43Z</time>
      </trkpt>
      <trkpt lat="45.92434" lon="4.73098">
        <ele>171</ele>
        <time>2017-06-12T10:12:44Z</time>
      </trkpt>
      <trkpt lat="45.9243" lon="4.73101">
        <ele>171</ele>
        <time>2017-06-12T10:12:45Z</time>
      </trkpt>
      <trkpt lat="45.92426" lon="4.73105">
        <ele>171</ele>
        <time>2017-06-12T10:12:46Z</time>
      </trkpt>
      <trkpt lat="45.92422" lon="4.73108">
        <ele>170</ele>
        <time>2017-06-12T10:12:47Z</time>
      </trkpt>
      <trkpt lat="45.92414" lon="4.73115">
        <ele>171</ele>
        <time>2017-06-12T10:12:49Z</time>
      </trkpt>
      <trkpt lat="45.92411" lon="4.73119">
        <ele>171</ele>
        <time>2017-06-12T10:12:50Z</time>
      </trkpt>
      <trkpt lat="45.92408" lon="4.73131">
        <ele>171</ele>
        <time>2017-06-12T10:12:52Z</time>
      </trkpt>
      <trkpt lat="45.92408" lon="4.73137">
        <ele>171</ele>
        <time>2017-06-12T10:12:53Z</time>
      </trkpt>
      <trkpt lat="45.92408" lon="4.73143">
        <ele>171</ele>
        <time>2017-06-12T10:12:54Z</time>
      </trkpt>
      <trkpt lat="45.92407" lon="4.7315">
        <ele>171</ele>
        <time>2017-06-12T10:12:55Z</time>
      </trkpt>
      <trkpt lat="45.92407" lon="4.73157">
        <ele>170</ele>
        <time>2017-06-12T10:12:56Z</time>
      </trkpt>
      <trkpt lat="45.92407" lon="4.73165">
        <ele>170</ele>
        <time>2017-06-12T10:12:57Z</time>
      </trkpt>
      <trkpt lat="45.92407" lon="4.73172">
        <ele>170</ele>
        <time>2017-06-12T10:12:58Z</time>
      </trkpt>
      <trkpt lat="45.92408" lon="4.73181">
        <ele>171</ele>
        <time>2017-06-12T10:12:59Z</time>
      </trkpt>
      <trkpt lat="45.92408" lon="4.73189">
        <ele>171</ele>
        <time>2017-06-12T10:13:00Z</time>
      </trkpt>
      <trkpt lat="45.92408" lon="4.73198">
        <ele>171</ele>
        <time>2017-06-12T10:13:01Z</time>
      </trkpt>
      <trkpt lat="45.92408" lon="4.73206">
        <ele>171</ele>
        <time>2017-06-12T10:13:02Z</time>
      </trkpt>
      <trkpt lat="45.92408" lon="4.73214">
        <ele>171</ele>
        <time>2017-06-12T10:13:03Z</time>
      </trkpt>
      <trkpt lat="45.92409" lon="4.73221">
        <ele>171</ele>
        <time>2017-06-12T10:13:04Z</time>
      </trkpt>
      <trkpt lat="45.92409" lon="4.73229">
        <ele>171</ele>
        <time>2017-06-12T10:13:05Z</time>
      </trkpt>
      <trkpt lat="45.9241" lon="4.73236">
        <ele>171</ele>
        <time>2017-06-12T10:13:06Z</time>
      </trkpt>
      <trkpt lat="45.9241" lon="4.73242">
        <ele>171</ele>
        <time>2017-06-12T10:13:07Z</time>
      </trkpt>
      <trkpt lat="45.92411" lon="4.73249">
        <ele>171</ele>
        <time>2017-06-12T10:13:08Z</time>
      </trkpt>
      <trkpt lat="45.92411" lon="4.73255">
        <ele>171</ele>
        <time>2017-06-12T10:13:09Z</time>
      </trkpt>
      <trkpt lat="45.92411" lon="4.73261">
        <ele>171</ele>
        <time>2017-06-12T10:13:10Z</time>
      </trkpt>
      <trkpt lat="45.92412" lon="4.73269">
        <ele>171</ele>
        <time>2017-06-12T10:13:11Z</time>
      </trkpt>
      <trkpt lat="45.92412" lon="4.73275">
        <ele>171</ele>
        <time>2017-06-12T10:13:12Z</time>
      </trkpt>
      <trkpt lat="45.92412" lon="4.73282">
        <ele>171</ele>
        <time>2017-06-12T10:13:13Z</time>
      </trkpt>
      <trkpt lat="45.92412" lon="4.73289">
        <ele>171</ele>
        <time>2017-06-12T10:13:14Z</time>
      </trkpt>
      <trkpt lat="45.92413" lon="4.73295">
        <ele>171</ele>
        <time>2017-06-12T10:13:15Z</time>
      </trkpt>
      <trkpt lat="45.92414" lon="4.73302">
        <ele>171</ele>
        <time>2017-06-12T10:13:16Z</time>
      </trkpt>
      <trkpt lat="45.92414" lon="4.73309">
        <ele>171</ele>
        <time>2017-06-12T10:13:17Z</time>
      </trkpt>
      <trkpt lat="45.92415" lon="4.73316">
        <ele>171</ele>
        <time>2017-06-12T10:13:18Z</time>
      </trkpt>
      <trkpt lat="45.92415" lon="4.73322">
        <ele>171</ele>
        <time>2017-06-12T10:13:19Z</time>
      </trkpt>
      <trkpt lat="45.92416" lon="4.73329">
        <ele>171</ele>
        <time>2017-06-12T10:13:20Z</time>
      </trkpt>
      <trkpt lat="45.92417" lon="4.73335">
        <ele>171</ele>
        <time>2017-06-12T10:13:21Z</time>
      </trkpt>
      <trkpt lat="45.92418" lon="4.73343">
        <ele>171</ele>
        <time>2017-06-12T10:13:22Z</time>
      </trkpt>
      <trkpt lat="45.92419" lon="4.7335">
        <ele>171</ele>
        <time>2017-06-12T10:13:23Z</time>
      </trkpt>
      <trkpt lat="45.9242" lon="4.73357">
        <ele>171</ele>
        <time>2017-06-12T10:13:24Z</time>
      </trkpt>
      <trkpt lat="45.92421" lon="4.73363">
        <ele>172</ele>
        <time>2017-06-12T10:13:25Z</time>
      </trkpt>
      <trkpt lat="45.92422" lon="4.73375">
        <ele>172</ele>
        <time>2017-06-12T10:13:27Z</time>
      </trkpt>
      <trkpt lat="45.92423" lon="4.73381">
        <ele>172</ele>
        <time>2017-06-12T10:13:28Z</time>
      </trkpt>
      <trkpt lat="45.92425" lon="4.73393">
        <ele>172</ele>
        <time>2017-06-12T10:13:30Z</time>
      </trkpt>
      <trkpt lat="45.92427" lon="4.73398">
        <ele>172</ele>
        <time>2017-06-12T10:13:31Z</time>
      </trkpt>
      <trkpt lat="45.92431" lon="4.73408">
        <ele>172</ele>
        <time>2017-06-12T10:13:33Z</time>
      </trkpt>
      <trkpt lat="45.92434" lon="4.73413">
        <ele>172</ele>
        <time>2017-06-12T10:13:34Z</time>
      </trkpt>
      <trkpt lat="45.9244" lon="4.73419">
        <ele>173</ele>
        <time>2017-06-12T10:13:36Z</time>
      </trkpt>
      <trkpt lat="45.92444" lon="4.73422">
        <ele>173</ele>
        <time>2017-06-12T10:13:37Z</time>
      </trkpt>
      <trkpt lat="45.92451" lon="4.73427">
        <ele>173</ele>
        <time>2017-06-12T10:13:39Z</time>
      </trkpt>
      <trkpt lat="45.92454" lon="4.73431">
        <ele>173</ele>
        <time>2017-06-12T10:13:40Z</time>
      </trkpt>
      <trkpt lat="45.92459" lon="4.73438">
        <ele>173</ele>
        <time>2017-06-12T10:13:42Z</time>
      </trkpt>
      <trkpt lat="45.92462" lon="4.73443">
        <ele>173</ele>
        <time>2017-06-12T10:13:43Z</time>
      </trkpt>
      <trkpt lat="45.92466" lon="4.73454">
        <ele>173</ele>
        <time>2017-06-12T10:13:45Z</time>
      </trkpt>
      <trkpt lat="45.92467" lon="4.73461">
        <ele>173</ele>
        <time>2017-06-12T10:13:46Z</time>
      </trkpt>
      <trkpt lat="45.92468" lon="4.73468">
        <ele>173</ele>
        <time>2017-06-12T10:13:47Z</time>
      </trkpt>
      <trkpt lat="45.92468" lon="4.73474">
        <ele>173</ele>
        <time>2017-06-12T10:13:48Z</time>
      </trkpt>
      <trkpt lat="45.92468" lon="4.73486">
        <ele>173</ele>
        <time>2017-06-12T10:13:50Z</time>
      </trkpt>
      <trkpt lat="45.92467" lon="4.73492">
        <ele>173</ele>
        <time>2017-06-12T10:13:51Z</time>
      </trkpt>
      <trkpt lat="45.92467" lon="4.73504">
        <ele>174</ele>
        <time>2017-06-12T10:13:53Z</time>
      </trkpt>
      <trkpt lat="45.92467" lon="4.7351">
        <ele>174</ele>
        <time>2017-06-12T10:13:54Z</time>
      </trkpt>
      <trkpt lat="45.92467" lon="4.73517">
        <ele>174</ele>
        <time>2017-06-12T10:13:55Z</time>
      </trkpt>
      <trkpt lat="45.92467" lon="4.73524">
        <ele>174</ele>
        <time>2017-06-12T10:13:56Z</time>
      </trkpt>
      <trkpt lat="45.92467" lon="4.73531">
        <ele>174</ele>
        <time>2017-06-12T10:13:57Z</time>
      </trkpt>
      <trkpt lat="45.92467" lon="4.73538">
        <ele>174</ele>
        <time>2017-06-12T10:13:58Z</time>
      </trkpt>
      <trkpt lat="45.92467" lon="4.73545">
        <ele>173</ele>
        <time>2017-06-12T10:13:59Z</time>
      </trkpt>
      <trkpt lat="45.92467" lon="4.73552">
        <ele>173</ele>
        <time>2017-06-12T10:14:00Z</time>
      </trkpt>
      <trkpt lat="45.92467" lon="4.73559">
        <ele>173</ele>
        <time>2017-06-12T10:14:01Z</time>
      </trkpt>
      <trkpt lat="45.92467" lon="4.73568">
        <ele>173</ele>
        <time>2017-06-12T10:14:02Z</time>
      </trkpt>
      <trkpt lat="45.92467" lon="4.73576">
        <ele>173</ele>
        <time>2017-06-12T10:14:03Z</time>
      </trkpt>
      <trkpt lat="45.92467" lon="4.73584">
        <ele>174</ele>
        <time>2017-06-12T10:14:04Z</time>
      </trkpt>
      <trkpt lat="45.92468" lon="4.73593">
        <ele>174</ele>
        <time>2017-06-12T10:14:05Z</time>
      </trkpt>
      <trkpt lat="45.92468" lon="4.73601">
        <ele>174</ele>
        <time>2017-06-12T10:14:06Z</time>
      </trkpt>
      <trkpt lat="45.92468" lon="4.7361">
        <ele>174</ele>
        <time>2017-06-12T10:14:07Z</time>
      </trkpt>
      <trkpt lat="45.92468" lon="4.73619">
        <ele>174</ele>
        <time>2017-06-12T10:14:08Z</time>
      </trkpt>
      <trkpt lat="45.92469" lon="4.73627">
        <ele>174</ele>
        <time>2017-06-12T10:14:09Z</time>
      </trkpt>
      <trkpt lat="45.92469" lon="4.73635">
        <ele>174</ele>
        <time>2017-06-12T10:14:10Z</time>
      </trkpt>
      <trkpt lat="45.92469" lon="4.73643">
        <ele>174</ele>
        <time>2017-06-12T10:14:11Z</time>
      </trkpt>
      <trkpt lat="45.92469" lon="4.73651">
        <ele>174</ele>
        <time>2017-06-12T10:14:12Z</time>
      </trkpt>
      <trkpt lat="45.92469" lon="4.73658">
        <ele>174</ele>
        <time>2017-06-12T10:14:13Z</time>
      </trkpt>
      <trkpt lat="45.92468" lon="4.73665">
        <ele>174</ele>
        <time>2017-06-12T10:14:14Z</time>
      </trkpt>
      <trkpt lat="45.92468" lon="4.73672">
        <ele>174</ele>
        <time>2017-06-12T10:14:15Z</time>
      </trkpt>
      <trkpt lat="45.92467" lon="4.73679">
        <ele>174</ele>
        <time>2017-06-12T10:14:16Z</time>
      </trkpt>
      <trkpt lat="45.92466" lon="4.73691">
        <ele>174</ele>
        <time>2017-06-12T10:14:18Z</time>
      </trkpt>
      <trkpt lat="45.92466" lon="4.73697">
        <ele>174</ele>
        <time>2017-06-12T10:14:19Z</time>
      </trkpt>
      <trkpt lat="45.92463" lon="4.73709">
        <ele>174</ele>
        <time>2017-06-12T10:14:51.231Z</time>
      </trkpt>
    </trkseg>
  </trk>
</gpx>